# Wetter Temperatur Luftdruck Luftfeuchtigkeit Sichtweite Windgeschwindigkeit Windrichtung Zeit
1 Clouds 25 1014 72 10000 1.34 318 07:41 02.10.2022
2 Clouds 25 1014 77 10000 3.89 5 02:55 02.10.2022
3 Clouds 29 1011 46 10000 4.02 28 00:50 02.10.2022
4 Clouds 29 1013 48 10000 3.6 10 00:21 02.10.2022
5 Clouds 30 1014 51 10000 5.14 340 22:43 01.10.2022
6 Clouds 27 1013 66 10000 4.81 14 20:53 01.10.2022
7 Clouds 26 1015 68 10000 3.07 355 18:50 01.10.2022
8 Clouds 23 1015 88 8047 1.34 302 16:36 01.10.2022
9 Clouds 21 1013 88 9656 1.54 280 14:41 01.10.2022
10 Clouds 22 1013 88 9656 2.06 300 13:31 01.10.2022
11 Clouds 22 1011 76 10000 0.45 273 12:33 01.10.2022
12 Clouds 21 1011 76 10000 0.45 313 11:21 01.10.2022
13 Clouds 22 1011 74 10000 3.58 316 10:32 01.10.2022
14 Clouds 23 1012 68 10000 0.89 326 09:28 01.10.2022
15 Clouds 23 1012 66 10000 1.34 329 08:58 01.10.2022
16 Clouds 26 1014 69 10000 5.14 360 05:28 01.10.2022
17 Clouds 26 1013 69 10000 5.14 360 03:34 01.10.2022
18 Clouds 29 1012 54 10000 4.63 350 00:29 01.10.2022
19 Clouds 27 1012 64 10000 8.3 8 22:48 30.09.2022
20 Clouds 31 1014 45 10000 3.6 20 21:31 30.09.2022
21 Clear 27 1014 63 10000 7.88 0 20:44 30.09.2022
22 Clouds 30 1015 51 10000 1.79 86 20:18 30.09.2022
23 Clear 29 1016 58 10000 0 0 17:38 30.09.2022
24 Clouds 24 1014 69 10000 0.45 346 15:58 30.09.2022
25 Clear 21 1015 94 10000 0.45 278 13:34 30.09.2022
26 Clouds 22 1013 76 10000 0.89 270 11:58 30.09.2022
27 Clouds 22 1013 76 10000 0.89 282 11:28 30.09.2022
28 Clouds 22 1014 70 10000 1.34 278 08:37 30.09.2022
29 Clear 25 1017 65 10000 5.14 360 06:26 30.09.2022
30 Clouds 26 1015 69 10000 5.36 360 02:42 30.09.2022
31 Clouds 29 1015 65 10000 9.39 355 23:35 29.09.2022
32 Clouds 29 1016 54 10000 10.29 360 21:29 29.09.2022
33 Clouds 27 1016 66 10000 10.61 355 20:57 29.09.2022
34 Clouds 28 1018 61 10000 4.63 310 18:45 29.09.2022
35 Clouds 26 1018 69 10000 6.69 330 17:32 29.09.2022
36 Clouds 25 1018 69 10000 6.26 333 16:28 29.09.2022
37 Clouds 24 1018 78 10000 2.06 300 15:36 29.09.2022
38 Clouds 24 1017 73 10000 1.03 300 14:31 29.09.2022
39 Clouds 25 1016 75 10000 8.25 332 10:33 29.09.2022
40 Clouds 27 1016 57 10000 5.36 335 07:22 29.09.2022
41 Clouds 26 1014 62 10000 4.02 355 02:51 29.09.2022
42 Clouds 29 1013 57 10000 6.71 5 23:56 28.09.2022
43 Clouds 29 1013 57 10000 6.71 5 23:56 28.09.2022
44 Clouds 28 1016 74 10000 5.14 350 22:44 28.09.2022
45 Clouds 29 1017 70 10000 5.81 11 21:29 28.09.2022
46 Clouds 29 1018 70 10000 7.15 17 20:24 28.09.2022
47 Clouds 28 1018 69 10000 4.63 350 18:41 28.09.2022
48 Clouds 25 1017 83 9656 6.26 360 15:32 28.09.2022
49 Clouds 24 1016 83 9656 2.57 340 13:27 28.09.2022
50 Clouds 25 1014 74 10000 2.68 343 11:18 28.09.2022
51 Clouds 26 1014 73 10000 4.47 11 09:18 28.09.2022
52 Clear 26 1015 70 10000 4.92 13 07:20 28.09.2022
53 Clouds 26 1014 73 10000 5.14 360 03:18 28.09.2022
54 Clouds 29 1013 65 10000 5.81 5 01:35 28.09.2022
55 Clouds 31 1013 55 10000 7.6 30 23:27 27.09.2022
56 Clouds 31 1011 50 10000 7.6 17 21:47 27.09.2022
57 Clear 31 1015 66 10000 3.09 340 20:39 27.09.2022
58 Clear 28 1014 70 10000 3 352 19:48 27.09.2022
59 Clear 27 1015 72 10000 2.33 351 18:45 27.09.2022
60 Clear 26 1015 75 10000 2.09 322 17:45 27.09.2022
61 Clear 23 1013 100 10000 0.89 273 15:40 27.09.2022
62 Clouds 23 1011 81 10000 3.94 317 14:55 27.09.2022
63 Clear 23 1013 100 9656 1.54 280 12:53 27.09.2022
64 Clouds 25 1011 78 10000 0.45 232 11:34 27.09.2022
65 Clouds 26 1012 67 10000 1.79 341 08:50 27.09.2022
66 Clouds 25 1012 61 10000 2.68 338 06:46 27.09.2022
67 Clouds 28 1009 66 10000 5.81 22 01:57 27.09.2022
68 Clouds 28 1010 74 10000 6.26 38 01:29 27.09.2022
69 Clouds 30 1011 66 10000 7.72 350 23:26 26.09.2022
70 Clouds 31 1011 62 10000 4.63 10 22:38 26.09.2022
71 Clear 30 1010 63 7993 4.92 52 20:46 26.09.2022
72 Clouds 30 1014 70 10000 4.12 360 19:31 26.09.2022
73 Clouds 29 1014 79 10000 3.13 27 18:32 26.09.2022
74 Clouds 24 1013 100 9656 0.89 294 16:36 26.09.2022
75 Clouds 23 1012 100 9656 1.03 270 14:37 26.09.2022
76 Clouds 25 1009 80 10000 1.34 336 11:30 26.09.2022
77 Clouds 25 1010 79 3955 1.79 19 10:39 26.09.2022
78 Clouds 25 1010 79 6958 0.89 5 10:20 26.09.2022
79 Clouds 24 1010 81 6958 2.68 98 09:55 26.09.2022
80 Clouds 24 1010 81 4693 1.98 308 09:24 26.09.2022
81 Clouds 25 1011 81 10000 0.45 279 07:56 26.09.2022
82 Clouds 27 1009 71 10000 0.45 342 02:54 26.09.2022
83 Clouds 30 1008 62 10000 2.24 26 23:50 25.09.2022
84 Clouds 26 1012 94 9656 3.09 350 22:29 25.09.2022
85 Clouds 25 1012 100 9656 1.79 13 21:35 25.09.2022
86 Clouds 26 1010 79 10000 0.89 342 20:47 25.09.2022
87 Clouds 26 1012 79 10000 2.24 293 19:43 25.09.2022
88 Clouds 26 1013 82 10000 1.34 321 18:43 25.09.2022
89 Clouds 24 1015 100 4828 1.34 305 18:20 25.09.2022
90 Clouds 24 1015 100 3219 0.45 141 16:36 25.09.2022
91 Haze 24 1014 100 1609 3.09 50 15:44 25.09.2022
92 Clouds 24 1012 100 9656 0.45 265 14:22 25.09.2022
93 Clouds 24 1012 100 9656 1.34 215 12:55 25.09.2022
94 Clouds 26 1011 79 10000 0.45 277 10:32 25.09.2022
95 Clouds 26 1012 78 7714 0.45 286 08:24 25.09.2022
96 Clouds 26 1015 89 10000 0.45 337 05:38 25.09.2022
97 Clouds 29 1010 65 10000 2.68 48 01:55 25.09.2022
98 Clouds 32 1014 58 10000 2.57 50 22:35 24.09.2022
99 Clouds 31 1013 60 10000 1.34 43 20:55 24.09.2022
100 Clouds 29 1016 74 10000 1.34 237 19:22 24.09.2022
101 Clouds 27 1016 78 10000 1.79 299 17:19 24.09.2022
102 Clouds 25 1016 88 9656 1.79 294 16:24 24.09.2022
103 Clouds 23 1015 100 10000 1.54 270 15:20 24.09.2022
104 Clouds 23 1014 100 10000 0.89 275 13:25 24.09.2022
105 Clouds 24 1012 82 10000 0.89 268 12:49 24.09.2022
106 Clouds 25 1012 80 10000 0.89 285 10:38 24.09.2022
107 Clouds 25 1013 79 10000 1.34 298 09:35 24.09.2022
108 Clouds 26 1013 77 10000 0.89 298 08:43 24.09.2022
109 Clouds 25 1015 85 10000 2.56 347 06:53 24.09.2022
110 Clouds 27 1014 83 10000 3.6 360 04:35 24.09.2022
111 Clouds 28 1012 78 10000 5.66 10 01:45 24.09.2022
112 Clouds 31 1013 66 10000 4.63 10 22:24 23.09.2022
113 Clouds 31 1014 66 10000 1.54 10 21:26 23.09.2022
114 Clouds 31 1012 56 10000 2.68 25 20:55 23.09.2022
115 Clouds 31 1013 57 10000 1.79 22 19:46 23.09.2022
116 Clouds 29 1015 70 10000 0 0 18:26 23.09.2022
117 Clouds 23 1011 82 10000 0.45 205 13:44 23.09.2022
118 Clouds 23 1011 82 10000 0.45 205 13:44 23.09.2022
119 Clouds 25 1011 75 10000 1.79 355 10:26 23.09.2022
120 Clouds 25 1012 72 8608 2.24 302 08:57 23.09.2022
121 Clouds 25 1013 83 10000 4.18 355 04:56 23.09.2022
122 Clouds 30 1012 62 10000 5.14 10 23:30 22.09.2022
123 Clouds 31 1012 58 10000 5.66 10 22:29 22.09.2022
124 Clouds 31 1010 51 10000 4.47 26 21:47 22.09.2022
125 Clouds 28 1012 71 10000 3.61 1 20:44 22.09.2022
126 Clouds 30 1015 66 10000 1.54 260 19:20 22.09.2022
127 Clear 27 1014 78 10000 1.79 263 16:53 22.09.2022
128 Clear 23 1010 82 10000 0.89 298 11:36 22.09.2022
129 Clouds 23 1011 81 10000 3.96 326 10:20 22.09.2022
130 Clear 26 1012 74 10000 0.45 348 08:22 22.09.2022
131 Clouds 27 1014 83 10000 3.09 360 06:21 22.09.2022
132 Clouds 28 1012 74 10000 4.47 43 02:39 22.09.2022
133 Clouds 30 1013 66 10000 5.36 34 22:32 21.09.2022
134 Clouds 30 1013 66 10000 5.14 350 21:38 21.09.2022
135 Clouds 29 1015 70 10000 3.09 350 19:30 21.09.2022
136 Clouds 29 1015 70 10000 3.09 350 19:30 21.09.2022
137 Clouds 29 1013 62 10000 1.79 26 17:46 21.09.2022
138 Clouds 25 1014 83 10000 1.54 320 16:22 21.09.2022
139 Clouds 23 1011 81 10000 0.89 304 13:57 21.09.2022
140 Clouds 23 1011 82 10000 0.45 297 11:44 21.09.2022
141 Clouds 23 1011 82 10000 3.69 333 11:22 21.09.2022
142 Clouds 25 1011 77 10000 3.78 337 09:44 21.09.2022
143 Clouds 25 1012 78 10000 0.45 334 08:50 21.09.2022
144 Clouds 27 1013 75 10000 1.34 347 05:53 21.09.2022
145 Clouds 28 1011 70 10000 4.02 13 02:42 21.09.2022
146 Clouds 28 1013 78 10000 4.02 13 02:19 21.09.2022
147 Clouds 29 1012 79 10000 5.14 20 00:20 21.09.2022
148 Clouds 30 1013 70 10000 5.66 360 22:30 20.09.2022
149 Clouds 30 1015 74 10000 5.66 360 20:37 20.09.2022
150 Clouds 29 1015 79 10000 5.14 10 19:24 20.09.2022
151 Clouds 25 1012 81 10000 0.89 198 15:58 20.09.2022
152 Clouds 23 1014 100 9656 1.03 280 14:34 20.09.2022
153 Clouds 24 1012 83 10000 2.63 321 12:41 20.09.2022
154 Clouds 25 1012 83 10000 0.89 324 08:51 20.09.2022
155 Clear 25 1014 100 10000 2.06 310 08:25 20.09.2022
156 Clouds 26 1013 100 9656 2.06 350 04:40 20.09.2022
157 Clouds 27 1012 89 9656 2.06 360 02:34 20.09.2022
158 Clouds 28 1010 74 10000 2.68 5 22:46 19.09.2022
159 Clouds 26 1014 100 10000 2.68 344 21:38 19.09.2022
160 Clouds 26 1012 82 10000 1.79 316 20:45 19.09.2022
161 Clouds 25 1015 100 9656 2.57 320 19:27 19.09.2022
162 Clouds 23 1015 100 10000 2.06 330 17:37 19.09.2022
163 Clouds 24 1010 83 10000 1.79 302 13:53 19.09.2022
164 Clouds 24 1010 83 10000 0.89 283 12:48 19.09.2022
165 Clouds 25 1010 83 10000 0.45 314 10:31 19.09.2022
166 Clouds 26 1011 82 10000 1.34 344 08:42 19.09.2022
167 Clouds 26 1012 100 10000 0.45 274 04:38 19.09.2022
168 Clouds 28 1011 83 9656 4.02 5 01:18 19.09.2022
169 Clouds 30 1010 67 10000 4.47 5 22:49 18.09.2022
170 Clouds 30 1013 74 10000 5.14 20 21:30 18.09.2022
171 Clouds 26 1012 86 10000 3.72 348 19:56 18.09.2022
172 Clouds 27 1013 100 10000 2.68 5 17:53 18.09.2022
173 Clouds 27 1013 100 10000 2.68 5 17:53 18.09.2022
174 Clouds 26 1011 83 10000 1.34 360 16:59 18.09.2022
175 Clouds 24 1012 100 9656 1.79 321 14:52 18.09.2022
176 Clouds 24 1012 100 9656 2.57 310 13:46 18.09.2022
177 Clouds 24 1010 85 10000 0.89 317 12:28 18.09.2022
178 Clouds 25 1009 84 9276 1.34 317 10:28 18.09.2022
179 Clouds 26 1011 89 10000 2.57 360 03:35 18.09.2022
180 Clouds 27 1011 83 10000 4.12 20 01:22 18.09.2022
181 Clouds 27 1011 83 9656 5.66 40 23:36 17.09.2022
182 Clouds 28 1011 69 10000 2.68 13 20:56 17.09.2022
183 Clouds 27 1014 94 9656 2.57 360 19:40 17.09.2022
184 Clouds 27 1014 94 9656 2.57 360 19:40 17.09.2022
185 Clouds 27 1014 94 9656 3.6 20 18:30 17.09.2022
186 Clouds 24 1012 100 8047 3.09 360 14:27 17.09.2022
187 Clouds 23 1012 100 8047 3.09 340 13:32 17.09.2022
188 Clouds 25 1010 81 9765 1.34 334 10:49 17.09.2022
189 Clouds 26 1012 81 10000 2.24 355 07:28 17.09.2022
190 Clouds 25 1014 100 10000 3.09 340 06:21 17.09.2022
191 Mist 24 1013 100 4828 2.57 310 23:41 16.09.2022
192 Mist 24 1014 100 6437 4.12 330 22:27 16.09.2022
193 Mist 24 1014 100 4828 3.09 360 20:54 16.09.2022
194 Mist 24 1014 100 4828 3.09 360 20:54 16.09.2022
195 Mist 24 1015 100 4828 2.68 334 19:35 16.09.2022
196 Mist 22 1014 100 9656 1.79 340 16:24 16.09.2022
197 Clouds 23 1011 84 10000 2.24 328 14:52 16.09.2022
198 Mist 22 1013 100 9656 1.79 314 13:21 16.09.2022
199 Clouds 22 1012 84 10000 3.13 290 10:24 16.09.2022
200 Clouds 25 1013 82 10000 1.79 327 07:26 16.09.2022
201 Clouds 25 1013 82 10000 1.34 306 06:48 16.09.2022
202 Clouds 23 1015 91 10000 4.39 310 05:57 16.09.2022
203 Clouds 25 1013 100 10000 0.89 305 02:30 16.09.2022
204 Clouds 26 1012 80 7169 2.68 355 21:47 15.09.2022
205 Clouds 24 1014 100 10000 2.68 332 20:38 15.09.2022
206 Clouds 23 1014 100 9656 2.24 328 19:31 15.09.2022
207 Mist 23 1014 100 3219 2.57 340 17:41 15.09.2022
208 Mist 23 1014 100 3219 2.57 340 17:22 15.09.2022
209 Mist 23 1013 100 4023 1.34 315 15:38 15.09.2022
210 Clouds 23 1012 100 9656 2.06 320 12:50 15.09.2022
211 Clouds 25 1010 78 10000 2.24 315 11:48 15.09.2022
212 Clouds 27 1010 71 10000 2.24 12 09:45 15.09.2022
213 Clouds 27 1012 72 10000 1.34 19 06:58 15.09.2022
214 Clouds 28 1010 69 5540 3.13 61 03:46 15.09.2022
215 Clouds 30 1008 60 10000 4.02 337 22:57 14.09.2022
216 Clouds 25 1013 100 10000 4.92 360 20:31 14.09.2022
217 Clouds 24 1014 100 8047 4.92 360 19:32 14.09.2022
218 Mist 23 1014 100 1207 5.14 360 17:37 14.09.2022
219 Clouds 26 1013 100 10000 1.34 258 16:36 14.09.2022
220 Mist 24 1011 100 8047 1.54 80 14:51 14.09.2022
221 Clouds 25 1009 82 10000 1.34 71 12:38 14.09.2022
222 Clouds 25 1009 82 10000 0.45 252 09:52 14.09.2022
223 Clouds 26 1010 81 10000 2.72 345 08:28 14.09.2022
224 Clouds 27 1011 72 10000 0.45 19 06:49 14.09.2022
225 Clouds 25 1012 100 10000 1.54 350 06:28 14.09.2022
226 Clouds 27 1010 83 10000 3.09 10 02:25 14.09.2022
227 Clouds 28 1010 78 10000 5.14 30 01:34 14.09.2022
228 Clouds 25 1010 86 10000 1.37 258 00:52 14.09.2022
229 Clouds 25 1010 85 10000 1.88 278 23:54 13.09.2022
230 Clouds 27 1010 83 10000 5.14 10 23:36 13.09.2022
231 Clouds 27 1010 83 10000 5.14 10 23:18 13.09.2022
232 Clouds 27 1011 94 8047 3.6 20 22:26 13.09.2022
233 Mist 25 1012 100 8047 3.58 50 21:35 13.09.2022
234 Clouds 29 1013 74 10000 0 0 18:54 13.09.2022
235 Clouds 24 1012 100 9656 2.68 226 16:34 13.09.2022
236 Clouds 23 1012 100 9656 1.79 233 15:18 13.09.2022
237 Mist 24 1012 100 3219 1.79 97 13:31 13.09.2022
238 Clouds 25 1010 81 10000 0.89 260 09:58 13.09.2022
239 Clouds 26 1012 75 10000 1.34 213 07:47 13.09.2022
240 Clouds 28 1011 78 10000 5.14 10 02:20 13.09.2022
241 Clouds 29 1012 70 10000 7.2 360 23:21 12.09.2022
242 Clouds 29 1013 79 10000 6.26 36 22:26 12.09.2022
243 Clouds 26 1014 89 9656 2.06 360 20:54 12.09.2022
244 Clouds 28 1016 78 10000 4.12 70 19:31 12.09.2022
245 Clouds 30 1014 64 10000 3.58 24 17:47 12.09.2022
246 Clouds 23 1015 100 10000 0.45 316 15:40 12.09.2022
247 Clouds 23 1015 100 10000 0 0 12:26 12.09.2022
248 Clouds 24 1016 83 10000 2.06 360 10:27 12.09.2022
249 Clouds 27 1017 78 10000 3.09 360 07:21 12.09.2022
250 Clouds 28 1016 74 9656 2.06 360 04:32 12.09.2022
251 Clouds 30 1014 70 9656 4.12 360 00:42 12.09.2022
252 Clouds 30 1013 62 10000 3.13 21 22:45 11.09.2022
253 Clouds 30 1015 70 10000 2.68 75 21:25 11.09.2022
254 Clouds 31 1016 70 10000 1.03 70 20:43 11.09.2022
255 Clouds 29 1017 79 10000 1.03 210 19:27 11.09.2022
256 Clouds 30 1015 61 10000 0.45 146 18:58 11.09.2022
257 Clouds 28 1017 78 10000 0 0 17:26 11.09.2022
258 Clouds 26 1014 78 10000 0.45 288 15:46 11.09.2022
259 Clouds 23 1014 100 9656 0 0 13:19 11.09.2022
260 Clouds 23 1013 81 10000 0.45 14 10:51 11.09.2022
261 Clouds 26 1013 72 10000 3.58 300 07:49 11.09.2022
262 Clouds 28 1013 83 10000 2.57 50 04:36 11.09.2022
263 Clouds 32 1008 57 10000 2.24 63 23:50 10.09.2022
264 Clouds 32 1011 66 10000 2.57 100 22:21 10.09.2022
265 Clouds 32 1012 62 10000 1.54 100 20:24 10.09.2022
266 Clouds 30 1013 74 10000 1.54 110 19:42 10.09.2022
267 Clouds 30 1013 74 10000 1.54 110 19:24 10.09.2022
268 Clouds 28 1013 78 10000 0.89 204 17:19 10.09.2022
269 Clouds 24 1011 100 8047 1.54 260 15:35 10.09.2022
270 Clouds 24 1009 100 9656 1.54 300 13:29 10.09.2022
271 Clouds 25 1007 79 10000 1.29 238 12:26 10.09.2022
272 Clouds 25 1007 81 10000 1.62 235 10:26 10.09.2022
273 Clouds 26 1008 80 10000 1.98 234 08:41 10.09.2022
274 Clouds 26 1008 81 10000 0.45 202 08:20 10.09.2022
275 Clouds 27 1007 83 10000 2.06 80 03:42 10.09.2022
276 Clouds 31 1007 62 10000 4.12 60 23:36 09.09.2022
277 Clouds 30 1007 70 10000 2.57 80 22:31 09.09.2022
278 Clouds 31 1006 57 10000 1.34 238 20:49 09.09.2022
279 Clouds 31 1007 60 10000 0.45 92 19:52 09.09.2022
280 Clouds 30 1010 70 10000 2.06 190 19:22 09.09.2022
281 Clouds 27 1009 89 10000 0.89 203 16:52 09.09.2022
282 Clouds 23 1007 100 9656 0 0 14:42 09.09.2022
283 Clear 23 1007 100 9656 1.03 200 13:18 09.09.2022
284 Clouds 24 1008 100 9656 1.54 220 10:37 09.09.2022
285 Clouds 25 1010 100 10000 1.54 240 07:24 09.09.2022
286 Clouds 25 1010 100 10000 1.54 240 07:24 09.09.2022
287 Clouds 25 1010 100 10000 1.54 240 07:24 09.09.2022
288 Clouds 27 1007 83 10000 6.17 340 03:31 09.09.2022
289 Clouds 30 1008 70 9656 3.13 27 22:33 08.09.2022
290 Clouds 30 1006 65 10000 0.89 315 21:51 08.09.2022
291 Clouds 30 1008 64 10000 1.79 202 20:46 08.09.2022
292 Clouds 29 1011 74 10000 2.06 160 20:24 08.09.2022
293 Clouds 28 1011 83 9656 0.89 194 18:34 08.09.2022
294 Clouds 27 1009 77 10000 0.89 241 16:49 08.09.2022
295 Clouds 25 1009 84 10000 2.42 267 14:50 08.09.2022
296 Clouds 23 1011 100 9656 1.54 300 13:27 08.09.2022
297 Clouds 24 1009 84 10000 0.89 298 12:35 08.09.2022
298 Clouds 24 1010 83 9544 0.45 295 10:58 08.09.2022
299 Clouds 25 1011 83 10000 0.89 298 09:26 08.09.2022
300 Clouds 25 1014 100 8047 4.63 20 06:43 08.09.2022
301 Clouds 28 1012 83 9656 2.68 344 03:18 08.09.2022
302 Clouds 29 1012 79 9656 3.09 50 02:36 08.09.2022
303 Clouds 29 1012 79 9656 3.09 50 02:18 08.09.2022
304 Clouds 32 1010 55 10000 4.02 84 22:55 07.09.2022
305 Clouds 32 1014 58 10000 3.58 55 21:43 07.09.2022
306 Clouds 32 1014 58 10000 4.02 90 21:20 07.09.2022
307 Clouds 31 1014 66 10000 2.57 70 20:19 07.09.2022
308 Clouds 30 1015 70 10000 2.06 180 18:40 07.09.2022
309 Clouds 24 1015 100 10000 1.34 258 15:21 07.09.2022
310 Clouds 25 1013 80 10000 0.45 168 10:51 07.09.2022
311 Clouds 25 1014 80 10000 2.94 286 10:30 07.09.2022
312 Clouds 26 1015 79 10000 0.45 194 07:43 07.09.2022
313 Clouds 26 1014 78 10000 1.34 272 04:46 07.09.2022
314 Clouds 30 1013 74 10000 3.13 81 00:26 07.09.2022
315 Clouds 31 1012 58 10000 4.02 78 21:47 06.09.2022
316 Clouds 31 1015 66 9656 4.63 70 21:27 06.09.2022
317 Clouds 30 1014 65 10000 0.89 64 18:55 06.09.2022
318 Clouds 28 1016 83 9656 2.68 79 18:27 06.09.2022
319 Clouds 27 1015 94 6437 0.45 265 17:23 06.09.2022
320 Mist 25 1015 100 4828 0.45 202 16:40 06.09.2022
321 Mist 24 1014 100 4023 2.57 90 15:23 06.09.2022
322 Clouds 24 1011 83 10000 0.45 161 13:46 06.09.2022
323 Mist 24 1013 100 8047 0.45 161 13:25 06.09.2022
324 Clouds 25 1011 82 10000 0.89 260 12:37 06.09.2022
325 Clouds 25 1012 81 10000 1.34 254 10:46 06.09.2022
326 Clouds 26 1012 80 10000 1.34 238 08:53 06.09.2022
327 Clouds 26 1012 79 10000 0.89 267 07:49 06.09.2022
328 Clouds 27 1011 75 10000 0.45 128 03:41 06.09.2022
329 Clouds 29 1012 74 10000 2.24 111 23:28 05.09.2022
330 Clouds 30 1012 70 9656 3.6 80 22:30 05.09.2022
331 Clouds 28 1012 77 10000 1.02 123 20:52 05.09.2022
332 Clouds 27 1012 82 10000 0.94 354 19:50 05.09.2022
333 Clouds 29 1012 62 10000 1.34 173 18:49 05.09.2022
334 Clouds 28 1014 74 10000 0 0 18:22 05.09.2022
335 Clouds 26 1012 77 10000 0.95 312 16:53 05.09.2022
336 Clouds 25 1011 82 10000 0.89 263 15:50 05.09.2022
337 Clouds 23 1012 100 10000 1.54 190 13:26 05.09.2022
338 Clouds 24 1010 83 10000 0.45 228 12:28 05.09.2022
339 Clouds 25 1010 82 10000 1.79 296 10:18 05.09.2022
340 Clouds 26 1013 100 8047 0.89 275 06:42 05.09.2022
341 Clouds 27 1011 83 9656 1.79 61 02:42 05.09.2022
342 Clouds 30 1011 70 10000 4.02 69 23:26 04.09.2022
343 Clouds 29 1012 70 10000 3.09 70 22:27 04.09.2022
344 Clouds 30 1013 70 10000 2.68 63 21:31 04.09.2022
345 Clouds 29 1014 70 10000 1.54 100 19:38 04.09.2022
346 Clouds 27 1014 78 10000 1.79 212 18:19 04.09.2022
347 Clouds 26 1014 94 10000 1.54 280 16:44 04.09.2022
348 Clouds 23 1013 100 9656 1.03 260 14:30 04.09.2022
349 Clouds 23 1013 100 8047 0.45 265 13:28 04.09.2022
350 Clouds 23 1010 84 5880 1.3 315 11:54 04.09.2022
351 Clouds 23 1010 84 5441 0.45 116 10:47 04.09.2022
352 Clouds 25 1011 83 4855 1.79 159 08:20 04.09.2022
353 Thunderstorm 26 1013 94 10000 4.12 320 05:19 04.09.2022
354 Clouds 28 1009 69 10000 4.02 5 00:47 04.09.2022
355 Clouds 27 1012 94 9656 3.13 355 22:22 03.09.2022
356 Clouds 28 1013 89 10000 2.24 32 21:23 03.09.2022
357 Drizzle 25 1014 100 8047 3.6 330 19:39 03.09.2022
358 Clouds 24 1013 100 8047 2.68 331 17:26 03.09.2022
359 Clouds 24 1013 100 8047 3.13 281 16:27 03.09.2022
360 Clouds 24 1012 100 1609 2.68 315 14:45 03.09.2022
361 Mist 24 1011 100 4828 2.06 280 13:58 03.09.2022
362 Clouds 25 1009 83 6433 2.68 338 12:19 03.09.2022
363 Clouds 25 1009 81 10000 0.45 355 10:27 03.09.2022
364 Clouds 25 1010 80 8706 1.34 316 08:27 03.09.2022
365 Clouds 26 1011 81 7808 0.89 341 06:58 03.09.2022
366 Clouds 28 1011 83 10000 2.57 350 04:33 03.09.2022
367 Clouds 31 1009 70 10000 6.26 61 23:55 02.09.2022
368 Clouds 31 1008 63 10000 5.36 15 22:45 02.09.2022
369 Clouds 32 1009 60 10000 5.36 41 20:59 02.09.2022
370 Clouds 31 1012 66 10000 7.2 360 20:27 02.09.2022
371 Clouds 31 1010 66 10000 5.81 21 19:00 02.09.2022
372 Clouds 30 1012 79 10000 5.81 15 18:28 02.09.2022
373 Clouds 30 1010 68 10000 4.02 19 17:43 02.09.2022
374 Clouds 28 1012 100 10000 4.92 21 16:46 02.09.2022
375 Clouds 25 1008 83 10000 0.45 310 13:55 02.09.2022
376 Clouds 25 1008 83 10000 0.89 295 12:24 02.09.2022
377 Clouds 25 1010 83 10000 1.79 268 09:50 02.09.2022
378 Clouds 25 1009 80 10000 3.58 304 08:56 02.09.2022
379 Clouds 25 1010 80 10000 3.13 321 07:30 02.09.2022
380 Clouds 25 1010 80 10000 3.13 321 07:30 02.09.2022
381 Clouds 25 1012 100 6437 2.06 310 06:36 02.09.2022
382 Clouds 28 1010 83 9656 4.12 360 02:37 02.09.2022
383 Clouds 29 1012 79 9656 4.12 360 22:30 01.09.2022
384 Clouds 29 1012 79 9656 4.12 360 21:43 01.09.2022
385 Clouds 29 1012 79 9656 5.81 22 21:23 01.09.2022
386 Clouds 27 1013 100 10000 4.63 360 20:37 01.09.2022
387 Clouds 27 1012 82 10000 1.79 32 18:49 01.09.2022
388 Clouds 25 1013 100 10000 0 0 17:21 01.09.2022
389 Clouds 25 1011 79 10000 0.89 275 15:47 01.09.2022
390 Clouds 25 1010 79 10000 0.89 311 13:55 01.09.2022
391 Clouds 24 1011 100 10000 2.06 320 12:57 01.09.2022
392 Clouds 25 1009 81 10000 0.89 322 11:52 01.09.2022
393 Clouds 25 1010 81 10000 0.89 314 11:30 01.09.2022
394 Clouds 26 1011 80 10000 2.96 288 09:49 01.09.2022
395 Clouds 26 1011 78 10000 0.45 277 07:50 01.09.2022
396 Clouds 28 1012 69 10000 0.45 343 05:58 01.09.2022
397 Clouds 31 1011 70 10000 5.14 30 01:31 01.09.2022
398 Clouds 31 1011 70 10000 5.14 30 01:31 01.09.2022
399 Clouds 31 1011 70 10000 5.14 30 01:31 01.09.2022
400 Clouds 32 1011 62 10000 5.14 60 23:19 31.08.2022
401 Clouds 33 1011 51 10000 2.24 57 20:48 31.08.2022
402 Clouds 32 1014 62 10000 3.09 30 19:23 31.08.2022
403 Clouds 30 1014 79 10000 1.34 304 17:25 31.08.2022
404 Clouds 24 1013 100 9656 1.54 360 15:39 31.08.2022
405 Clouds 24 1014 100 805 2.24 209 13:38 31.08.2022
406 Clouds 25 1011 79 10000 0.89 278 12:19 31.08.2022
407 Clouds 27 1012 78 10000 1.34 294 09:39 31.08.2022
408 Clouds 28 1012 77 10000 1.34 313 08:31 31.08.2022
409 Clouds 29 1011 79 10000 2.57 60 03:41 31.08.2022
410 Clouds 33 1011 58 10000 4.63 70 22:42 30.08.2022
411 Clouds 33 1012 55 10000 4.02 74 21:31 30.08.2022
412 Clouds 33 1013 55 10000 4.63 50 20:35 30.08.2022
413 Clouds 30 1013 70 10000 1.34 182 17:24 30.08.2022
414 Clouds 24 1012 100 9656 1.54 280 14:19 30.08.2022
415 Clouds 25 1010 78 10000 0.45 157 12:25 30.08.2022
416 Clouds 25 1010 75 10000 0.45 209 11:20 30.08.2022
417 Clouds 25 1010 75 10000 0.45 209 11:20 30.08.2022
418 Clouds 26 1010 73 10000 0.89 257 09:58 30.08.2022
419 Clear 27 1012 84 10000 1.37 103 06:49 30.08.2022
420 Clear 32 1008 62 10000 2.68 121 01:26 30.08.2022
421 Clouds 32 1010 66 10000 3.6 60 22:39 29.08.2022
422 Clear 33 1008 54 10000 3.13 134 21:54 29.08.2022
423 Clear 33 1009 52 10000 0.89 122 20:47 29.08.2022
424 Clouds 32 1012 62 10000 1.34 104 19:35 29.08.2022
425 Clouds 27 1012 89 9656 1.54 170 17:33 29.08.2022
426 Clouds 27 1010 74 10000 1.34 196 16:59 29.08.2022
427 Clouds 24 1011 100 9656 0.45 211 15:20 29.08.2022
428 Clouds 23 1010 100 10000 1.54 140 13:55 29.08.2022
429 Clouds 25 1006 79 10000 0.89 204 12:24 29.08.2022
430 Clouds 26 1007 74 10000 0.89 187 10:48 29.08.2022
431 Clouds 26 1007 79 10000 0.45 118 09:19 29.08.2022
432 Clouds 26 1008 74 10000 0.89 213 07:20 29.08.2022
433 Clouds 31 1007 70 10000 2.57 80 02:31 29.08.2022
434 Clouds 31 1008 70 9656 5.14 80 23:35 28.08.2022
435 Clouds 31 1007 61 10000 2.68 127 21:48 28.08.2022
436 Clouds 30 1009 74 9656 4.02 102 21:27 28.08.2022
437 Clouds 31 1009 66 9656 4.47 122 20:19 28.08.2022
438 Clouds 26 1010 94 9656 1.54 260 18:22 28.08.2022
439 Clouds 26 1008 75 10000 2.24 271 17:59 28.08.2022
440 Clouds 25 1009 80 10000 3.58 244 16:44 28.08.2022
441 Clouds 23 1010 100 9656 2.24 236 15:33 28.08.2022
442 Clear 23 1009 100 10000 1.79 138 13:19 28.08.2022
443 Clouds 24 1008 81 10000 0.89 174 11:25 28.08.2022
444 Clouds 24 1008 80 10000 1.79 232 10:20 28.08.2022
445 Clouds 25 1009 75 10000 3.13 245 08:52 28.08.2022
446 Clouds 26 1009 79 10000 1.33 251 07:53 28.08.2022
447 Clouds 26 1009 78 10000 1.34 211 07:23 28.08.2022
448 Clouds 31 1008 66 10000 3.6 60 00:36 28.08.2022
449 Clouds 32 1007 56 10000 3.58 84 22:58 27.08.2022
450 Clouds 34 1009 55 10000 3.13 99 22:27 27.08.2022
451 Clouds 33 1012 55 10000 1.03 220 20:35 27.08.2022
452 Clouds 31 1010 61 10000 1.79 218 18:57 27.08.2022
453 Clouds 27 1012 83 10000 1.34 221 16:26 27.08.2022
454 Clouds 26 1012 94 9656 1.54 150 15:31 27.08.2022
455 Clouds 24 1012 100 9656 1.54 220 13:19 27.08.2022
456 Clouds 25 1009 79 10000 0.89 192 11:58 27.08.2022
457 Clouds 25 1010 78 10000 0.45 276 10:27 27.08.2022
458 Clouds 26 1012 77 10000 1.79 279 09:31 27.08.2022
459 Clouds 28 1013 70 10000 0.45 102 05:59 27.08.2022
460 Clouds 31 1009 57 10000 3.58 73 00:52 27.08.2022
461 Clouds 31 1012 62 10000 4.02 115 23:35 26.08.2022
462 Clouds 32 1011 53 10000 3.13 115 21:45 26.08.2022
463 Clouds 30 1013 65 10000 2.61 50 19:50 26.08.2022
464 Clouds 29 1014 70 10000 0.74 19 17:49 26.08.2022
465 Clouds 25 1014 94 9656 0 0 15:40 26.08.2022
466 Clear 25 1013 85 10000 2.08 271 14:59 26.08.2022
467 Clouds 25 1013 94 10000 0 0 12:56 26.08.2022
468 Clouds 25 1012 87 10000 2.08 270 11:43 26.08.2022
469 Clouds 25 1012 86 10000 1.36 260 11:21 26.08.2022
470 Clear 26 1014 84 10000 0.85 245 08:21 26.08.2022
471 Clear 28 1012 74 10000 2.64 36 02:57 26.08.2022
472 Clear 30 1011 64 10000 3.8 65 23:47 25.08.2022
473 Clouds 32 1013 58 10000 5.14 60 22:20 25.08.2022
474 Clouds 30 1012 64 10000 2.96 38 20:54 25.08.2022
475 Clouds 31 1014 70 10000 1.54 50 19:35 25.08.2022
476 Clouds 29 1014 79 10000 0 0 18:29 25.08.2022
477 Clouds 28 1014 89 10000 0 0 17:31 25.08.2022
478 Clouds 27 1013 94 8047 0 0 16:36 25.08.2022
479 Clouds 27 1013 100 9656 0 0 15:28 25.08.2022
480 Clouds 25 1012 100 8047 0 0 13:20 25.08.2022
481 Clouds 25 1011 89 9354 1.78 283 10:49 25.08.2022
482 Clouds 25 1011 89 10000 2.94 284 09:52 25.08.2022
483 Clouds 28 1013 83 10000 1.54 360 07:35 25.08.2022
484 Clouds 31 1008 66 10000 3.13 62 02:41 25.08.2022
485 Clouds 33 1010 58 10000 4.12 100 23:30 24.08.2022
486 Clouds 33 1008 51 10000 3.58 119 22:54 24.08.2022
487 Clouds 33 1012 55 10000 3.13 119 21:39 24.08.2022
488 Clouds 33 1012 55 10000 2.68 132 21:20 24.08.2022
489 Clouds 32 1010 53 10000 0.89 91 19:43 24.08.2022
490 Clouds 29 1011 68 10000 0.89 287 16:50 24.08.2022
491 Clouds 26 1010 79 10000 0.89 290 15:52 24.08.2022
492 Clear 24 1011 100 9656 0.89 280 13:49 24.08.2022
493 Clouds 26 1009 81 10000 1.34 306 12:28 24.08.2022
494 Clouds 26 1009 80 10000 0.45 303 11:18 24.08.2022
495 Clear 27 1010 79 10000 0.45 277 08:28 24.08.2022
496 Clear 29 1008 68 10000 3.13 100 03:54 24.08.2022
497 Clouds 32 1006 55 10000 3.58 90 23:53 23.08.2022
498 Clouds 32 1010 62 10000 4.63 80 22:35 23.08.2022
499 Clouds 33 1008 54 10000 4.47 85 21:46 23.08.2022
500 Clouds 32 1011 70 10000 3.13 125 20:33 23.08.2022
501 Clear 31 1009 62 10000 1.34 148 18:53 23.08.2022
502 Clear 30 1010 64 10000 0.89 260 17:51 23.08.2022
503 Clear 30 1012 74 10000 2.57 200 17:18 23.08.2022
504 Clear 26 1012 83 10000 1.34 258 15:49 23.08.2022
505 Clouds 24 1011 100 8047 0 0 13:36 23.08.2022
506 Clear 25 1009 80 10000 1.34 257 12:30 23.08.2022
507 Clear 25 1010 79 10000 1.59 234 10:51 23.08.2022
508 Clear 25 1010 79 10000 1.59 234 10:32 23.08.2022
509 Clear 26 1011 78 10000 0.45 284 08:54 23.08.2022
510 Clouds 26 1011 77 10000 0.45 284 08:22 23.08.2022
511 Clouds 26 1011 77 10000 0.45 277 07:43 23.08.2022
512 Clouds 27 1011 74 10000 0.89 265 06:58 23.08.2022
513 Clouds 27 1011 71 10000 0.45 121 05:52 23.08.2022
514 Clouds 31 1010 58 10000 4.12 120 01:42 23.08.2022
515 Clouds 32 1011 55 10000 4.47 99 00:26 23.08.2022
516 Clouds 33 1011 49 10000 3.6 90 23:29 22.08.2022
517 Clouds 33 1010 48 10000 3.58 121 21:51 22.08.2022
518 Clouds 32 1011 53 10000 3.13 106 19:49 22.08.2022
519 Clouds 31 1014 62 10000 3.58 91 19:27 22.08.2022
520 Clear 30 1012 59 10000 0.45 290 17:59 22.08.2022
521 Clouds 24 1015 100 9656 2.68 265 15:40 22.08.2022
522 Clouds 23 1014 100 9656 2.24 240 14:32 22.08.2022
523 Clear 25 1011 72 10000 0.57 317 11:19 22.08.2022
524 Clear 27 1012 78 10000 0.45 292 08:22 22.08.2022
525 Clear 28 1013 83 10000 1.54 80 04:34 22.08.2022
526 Clear 32 1010 59 10000 2.68 78 00:49 22.08.2022
527 Clouds 32 1013 70 10000 3.09 80 00:29 22.08.2022
528 Clear 33 1012 55 10000 3.58 71 22:54 21.08.2022
529 Clouds 34 1015 62 10000 4.12 90 21:36 21.08.2022
530 Clear 33 1013 53 10000 3.58 98 20:57 21.08.2022
531 Clouds 33 1016 66 9656 3.13 86 19:28 21.08.2022
532 Clouds 31 1014 62 10000 2.24 32 17:59 21.08.2022
533 Clouds 28 1013 75 10000 0.89 289 15:58 21.08.2022
534 Clouds 27 1014 89 9656 0.89 280 15:28 21.08.2022
535 Clouds 26 1013 100 9656 0 0 13:58 21.08.2022
536 Clouds 26 1013 100 9656 0.45 287 13:34 21.08.2022
537 Clouds 26 1012 81 10000 0.45 231 11:56 21.08.2022
538 Clouds 27 1012 78 10000 1.08 192 09:32 21.08.2022
539 Clouds 26 1012 80 10000 1.51 211 08:56 21.08.2022
540 Clouds 26 1015 100 10000 1.54 310 08:38 21.08.2022
541 Clouds 27 1015 100 10000 2.06 310 07:27 21.08.2022
542 Clouds 29 1013 79 10000 2.06 80 03:41 21.08.2022
543 Clouds 32 1013 66 10000 3.6 80 00:24 21.08.2022
544 Clouds 33 1013 58 10000 4.02 103 22:41 20.08.2022
545 Clouds 33 1014 58 10000 3.58 115 21:38 20.08.2022
546 Clouds 32 1015 62 10000 2.68 76 20:41 20.08.2022
547 Clouds 31 1015 66 9656 2.06 230 19:41 20.08.2022
548 Clouds 30 1015 74 10000 1.03 260 18:31 20.08.2022
549 Clouds 30 1013 63 10000 1.79 267 17:51 20.08.2022
550 Clouds 28 1015 89 9656 2.24 238 16:52 20.08.2022
551 Clouds 26 1013 80 10000 1.34 251 15:33 20.08.2022
552 Clouds 24 1012 100 9656 1.54 180 13:27 20.08.2022
553 Clouds 25 1010 81 10000 2.15 247 11:52 20.08.2022
554 Clouds 25 1011 81 10000 0.89 213 09:43 20.08.2022
555 Clouds 26 1012 81 10000 0.45 211 08:34 20.08.2022
556 Clouds 26 1012 77 10000 0.89 227 05:55 20.08.2022
557 Clouds 31 1008 59 10000 3.58 74 00:59 20.08.2022
558 Clouds 30 1010 70 10000 4.12 20 00:35 20.08.2022
559 Clouds 30 1010 74 10000 3.13 80 23:18 19.08.2022
560 Clouds 31 1012 66 10000 4.63 10 21:41 19.08.2022
561 Clouds 32 1012 58 10000 3.09 360 20:20 19.08.2022
562 Clouds 29 1013 74 9656 1.03 300 17:35 19.08.2022
563 Mist 24 1012 100 10000 1.34 295 15:18 19.08.2022
564 Clouds 25 1009 79 10000 1.69 277 13:21 19.08.2022
565 Clouds 26 1010 80 10000 0.45 269 10:53 19.08.2022
566 Clouds 26 1010 79 10000 0.89 277 10:21 19.08.2022
567 Clouds 26 1013 100 10000 1.54 260 06:27 19.08.2022
568 Clouds 31 1010 55 10000 3.13 92 00:56 19.08.2022
569 Clouds 32 1011 62 10000 5.14 110 00:28 19.08.2022
570 Clouds 32 1012 66 10000 4.92 98 23:38 18.08.2022
571 Clouds 33 1010 54 10000 4.02 119 22:49 18.08.2022
572 Clouds 33 1011 55 10000 4.02 72 21:55 18.08.2022
573 Clouds 31 1013 70 10000 3.58 56 21:26 18.08.2022
574 Clouds 32 1014 66 10000 0.89 310 19:56 18.08.2022
575 Clouds 32 1014 66 10000 0 0 19:26 18.08.2022
576 Clouds 31 1013 66 10000 0.89 88 17:49 18.08.2022
577 Clouds 29 1015 79 8047 0 0 16:55 18.08.2022
578 Clouds 25 1012 83 10000 0.57 278 14:42 18.08.2022
579 Clouds 24 1013 100 8047 0.45 279 14:19 18.08.2022
580 Clouds 25 1013 100 9656 0 0 12:55 18.08.2022
581 Clouds 26 1011 81 10000 1.54 286 11:31 18.08.2022
582 Clouds 26 1012 81 10000 0.45 274 09:43 18.08.2022
583 Clouds 26 1012 81 10000 0.45 165 08:37 18.08.2022
584 Clouds 26 1016 100 10000 0 0 07:18 18.08.2022
585 Clouds 28 1013 83 10000 1.54 100 03:23 18.08.2022
586 Clouds 31 1013 70 10000 4.12 50 23:30 17.08.2022
587 Clouds 30 1013 74 9656 3.58 95 21:39 17.08.2022
588 Clouds 30 1014 64 10000 2.13 47 19:59 17.08.2022
589 Clouds 29 1015 84 9656 2.06 140 18:58 17.08.2022
590 Clouds 27 1015 94 8047 2.68 219 17:32 17.08.2022
591 Clouds 26 1015 100 8047 2.24 250 16:21 17.08.2022
592 Clouds 25 1014 100 8047 0.45 265 15:18 17.08.2022
593 Clouds 26 1010 80 10000 0.45 217 12:52 17.08.2022
594 Clouds 26 1010 79 10000 1.95 296 11:36 17.08.2022
595 Clouds 26 1010 79 10000 1.95 296 11:36 17.08.2022
596 Clouds 27 1011 79 10000 0.89 249 09:31 17.08.2022
597 Clouds 27 1011 78 10000 0.89 271 07:55 17.08.2022
598 Clouds 29 1010 79 10000 2.06 100 02:24 17.08.2022
599 Clouds 32 1008 62 10000 3.13 108 23:49 16.08.2022
600 Clouds 32 1009 54 10000 4.47 117 21:59 16.08.2022
601 Clouds 32 1010 57 10000 2.68 142 20:51 16.08.2022
602 Clouds 32 1010 60 10000 2.24 94 19:50 16.08.2022
603 Clouds 30 1012 74 8047 1.34 216 18:23 16.08.2022
604 Clouds 25 1012 94 8047 2.06 180 17:40 16.08.2022
605 Clouds 25 1009 79 10000 0.89 258 15:46 16.08.2022
606 Clouds 23 1009 80 10000 0.45 213 14:55 16.08.2022
607 Clouds 23 1011 100 8047 1.54 190 14:37 16.08.2022
608 Clouds 24 1009 79 10000 1.79 225 12:41 16.08.2022
609 Clouds 26 1009 76 10000 0.89 317 10:35 16.08.2022
610 Clouds 27 1010 80 10000 0.45 279 09:31 16.08.2022
611 Clouds 26 1011 86 10000 1.16 212 08:43 16.08.2022
612 Clear 28 1012 89 10000 2.06 60 07:23 16.08.2022
613 Clouds 31 1008 70 10000 4.12 100 01:35 16.08.2022
614 Clouds 33 1010 62 9656 3.6 130 22:29 15.08.2022
615 Clouds 33 1008 53 10000 1.79 199 21:53 15.08.2022
616 Clouds 33 1009 55 10000 2.68 213 20:47 15.08.2022
617 Clouds 32 1012 62 8047 3.09 100 20:18 15.08.2022
618 Clouds 30 1013 66 8047 2.06 220 18:31 15.08.2022
619 Clouds 25 1012 94 8047 1.54 200 16:40 15.08.2022
620 Clouds 25 1012 94 8047 1.54 200 16:40 15.08.2022
621 Clouds 25 1012 94 8047 1.54 200 16:20 15.08.2022
622 Clouds 24 1011 100 8047 0.45 223 13:55 15.08.2022
623 Clouds 25 1009 79 10000 1.79 275 12:24 15.08.2022
624 Clouds 27 1010 80 10000 0.45 217 09:57 15.08.2022
625 Clouds 27 1011 79 10000 0.89 284 08:21 15.08.2022
626 Clouds 28 1012 83 10000 2.06 80 04:36 15.08.2022
627 Clouds 31 1010 70 10000 3.13 84 01:26 15.08.2022
628 Clouds 32 1012 62 10000 1.79 125 22:39 14.08.2022
629 Clouds 30 1013 70 10000 2.24 216 21:38 14.08.2022
630 Clouds 30 1012 59 10000 1.79 200 19:58 14.08.2022
631 Clouds 29 1012 63 10000 1.34 200 18:59 14.08.2022
632 Clouds 28 1014 78 9656 2.06 160 18:19 14.08.2022
633 Clouds 27 1012 73 10000 1.79 209 16:53 14.08.2022
634 Clouds 25 1011 80 10000 1.34 229 15:48 14.08.2022
635 Clouds 23 1012 100 10000 2.57 170 14:27 14.08.2022
636 Clouds 23 1012 100 10000 2.57 170 13:50 14.08.2022
637 Clouds 23 1012 100 10000 2.57 170 13:20 14.08.2022
638 Clouds 24 1010 83 10000 1.79 172 12:28 14.08.2022
639 Clouds 24 1010 82 10000 0.45 217 10:50 14.08.2022
640 Clouds 25 1012 81 10000 0.89 189 08:51 14.08.2022
641 Clouds 26 1014 100 10000 0.89 263 06:22 14.08.2022
642 Clouds 30 1011 66 10000 1.34 113 02:49 14.08.2022
643 Clouds 32 1010 58 10000 4.02 63 23:53 13.08.2022
644 Clouds 32 1011 55 10000 5.36 126 22:52 13.08.2022
645 Clouds 32 1012 59 10000 1.79 158 20:58 13.08.2022
646 Clouds 31 1014 70 10000 2.68 105 20:33 13.08.2022
647 Clouds 30 1014 70 10000 0.45 38 19:37 13.08.2022
648 Clouds 27 1014 89 10000 2.06 160 17:42 13.08.2022
649 Clouds 24 1014 100 9656 1.03 180 15:26 13.08.2022
650 Clouds 24 1013 100 9656 1.54 250 14:27 13.08.2022
651 Clouds 24 1014 100 10000 1.03 150 13:39 13.08.2022
652 Clouds 25 1012 82 10000 1.84 256 11:52 13.08.2022
653 Clouds 26 1012 82 10000 0.45 250 10:21 13.08.2022
654 Clouds 26 1013 80 10000 0.45 294 08:23 13.08.2022
655 Clouds 27 1014 83 10000 0.45 144 05:22 13.08.2022
656 Clouds 31 1010 60 10000 4.02 85 23:52 12.08.2022
657 Clouds 31 1014 66 10000 4.12 70 21:42 12.08.2022
658 Clouds 31 1012 60 10000 2.68 67 20:53 12.08.2022
659 Clouds 30 1015 74 10000 3.09 350 19:40 12.08.2022
660 Clouds 29 1015 74 10000 3.58 57 18:46 12.08.2022
661 Mist 27 1015 83 10000 1.54 350 17:21 12.08.2022
662 Clouds 26 1012 79 10000 0.89 242 15:49 12.08.2022
663 Mist 24 1014 100 10000 0.45 297 14:29 12.08.2022
664 Clouds 25 1011 83 10000 2.04 310 12:53 12.08.2022
665 Clouds 25 1012 82 10000 0.89 288 10:35 12.08.2022
666 Clouds 25 1014 78 10000 1.79 260 07:47 12.08.2022
667 Clouds 26 1016 100 10000 0.89 222 06:39 12.08.2022
668 Clouds 29 1013 70 10000 4.63 20 02:39 12.08.2022
669 Clouds 30 1013 70 10000 4.02 47 00:26 12.08.2022
670 Clouds 31 1014 70 10000 4.63 360 23:35 11.08.2022
671 Clouds 32 1014 62 10000 4.92 61 22:26 11.08.2022
672 Clouds 30 1015 74 10000 2.57 350 21:40 11.08.2022
673 Clouds 31 1015 70 10000 5.14 10 20:45 11.08.2022
674 Clouds 31 1015 70 10000 5.14 10 20:18 11.08.2022
675 Clouds 30 1016 74 9656 4.02 57 19:32 11.08.2022
676 Clouds 30 1014 69 10000 2.68 32 17:48 11.08.2022
677 Clouds 25 1015 100 10000 1.34 5 16:34 11.08.2022
678 Clouds 24 1015 94 10000 0.45 269 15:21 11.08.2022
679 Clouds 23 1013 83 10000 0.45 305 12:44 11.08.2022
680 Clouds 24 1014 81 7394 0.89 207 10:18 11.08.2022
681 Clouds 26 1016 76 10000 2.68 238 07:19 11.08.2022
682 Clouds 27 1015 79 10000 3.11 23 03:46 11.08.2022
683 Clouds 31 1014 70 10000 4.12 40 00:35 11.08.2022
684 Clouds 31 1016 58 10000 4.92 54 22:22 10.08.2022
685 Clouds 31 1017 58 10000 5.14 50 21:24 10.08.2022
686 Clouds 32 1015 49 10000 3.13 87 20:47 10.08.2022
687 Clouds 31 1017 62 10000 0 0 19:24 10.08.2022
688 Clouds 29 1017 74 10000 0.89 23 17:37 10.08.2022
689 Clouds 26 1016 94 10000 0.89 265 16:33 10.08.2022
690 Clear 23 1016 100 9656 1.54 270 13:35 10.08.2022
691 Clouds 24 1014 81 10000 0.45 231 12:27 10.08.2022
692 Clouds 25 1015 81 10000 1.92 273 08:55 10.08.2022
693 Clouds 25 1015 82 10000 1.92 273 08:31 10.08.2022
694 Clear 25 1017 100 10000 2.06 260 06:22 10.08.2022
695 Clouds 28 1014 78 10000 2.06 330 02:45 10.08.2022
696 Clouds 30 1015 62 10000 2.68 97 23:34 09.08.2022
697 Clouds 30 1013 56 10000 2.68 92 22:56 09.08.2022
698 Clouds 28 1016 78 10000 1.03 50 21:35 09.08.2022
699 Clouds 29 1017 74 10000 3.58 123 19:35 09.08.2022
700 Clouds 30 1017 70 10000 1.34 151 18:29 09.08.2022
701 Clouds 28 1017 78 10000 0 0 17:27 09.08.2022
702 Clouds 28 1017 78 10000 0 0 16:40 09.08.2022
703 Clouds 28 1017 78 10000 0 0 16:40 09.08.2022
704 Clouds 23 1016 100 9656 0.89 319 15:40 09.08.2022
705 Clouds 23 1013 83 10000 0.45 238 12:25 09.08.2022
706 Clouds 25 1014 81 10000 0.45 283 09:30 09.08.2022
707 Clouds 25 1014 82 10000 0.89 265 08:33 09.08.2022
708 Clouds 25 1017 100 10000 1.34 284 07:20 09.08.2022
709 Clouds 26 1015 94 10000 1.54 340 03:32 09.08.2022
710 Clouds 26 1015 100 8047 1.54 290 23:27 08.08.2022
711 Clouds 29 1013 67 10000 3.62 48 22:53 08.08.2022
712 Clouds 29 1014 65 10000 3.23 39 21:49 08.08.2022
713 Clouds 27 1017 94 8047 0 0 20:55 08.08.2022
714 Clouds 27 1017 94 9656 0 0 19:50 08.08.2022
715 Clouds 28 1017 83 9656 2.68 25 18:35 08.08.2022
716 Clouds 24 1016 100 9656 0.89 48 16:34 08.08.2022
717 Clouds 24 1015 100 9656 0.89 5 15:38 08.08.2022
718 Clouds 24 1015 100 9656 0.89 5 15:38 08.08.2022
719 Clouds 23 1013 83 10000 0.89 280 12:50 08.08.2022
720 Clouds 23 1013 82 10000 1.79 307 11:53 08.08.2022
721 Clouds 23 1014 83 10000 0.89 269 09:36 08.08.2022
722 Clouds 26 1017 83 10000 1.03 320 05:37 08.08.2022
723 Clouds 29 1015 70 10000 2.24 58 02:24 08.08.2022
724 Clouds 29 1016 65 10000 3.13 82 22:20 07.08.2022
725 Clouds 30 1017 66 10000 2.57 130 21:38 07.08.2022
726 Mist 27 1018 78 9656 0.89 196 20:25 07.08.2022
727 Clouds 27 1016 70 10000 0.89 148 19:54 07.08.2022
728 Drizzle 27 1018 89 9656 3.09 70 19:29 07.08.2022
729 Clouds 26 1017 94 9656 1.79 57 18:21 07.08.2022
730 Clouds 25 1015 82 10000 0.89 94 16:53 07.08.2022
731 Clouds 24 1014 83 10000 3.13 300 15:54 07.08.2022
732 Clouds 23 1016 100 6437 2.57 300 14:39 07.08.2022
733 Clouds 24 1014 82 10000 1.34 122 12:59 07.08.2022
734 Clouds 25 1013 80 10000 1.34 347 10:59 07.08.2022
735 Clouds 24 1013 80 10000 0.89 319 10:28 07.08.2022
736 Clear 27 1015 79 10000 1.99 79 04:58 07.08.2022
737 Clouds 28 1014 78 10000 2.68 81 03:18 07.08.2022
738 Clouds 31 1014 70 10000 4.63 50 23:30 06.08.2022
739 Clouds 31 1014 70 10000 4.63 100 22:20 06.08.2022
740 Clouds 31 1015 62 10000 4.12 90 20:20 06.08.2022
741 Clouds 31 1016 62 10000 3.6 120 19:38 06.08.2022
742 Clouds 30 1016 70 9656 1.34 80 18:22 06.08.2022
743 Clear 28 1015 78 9656 1.03 300 16:40 06.08.2022
744 Clouds 23 1014 100 9656 0.45 275 14:31 06.08.2022
745 Clear 24 1014 100 10000 1.54 280 13:39 06.08.2022
746 Clouds 25 1012 79 10000 0.57 225 11:21 06.08.2022
747 Clouds 26 1013 79 10000 0.45 273 09:50 06.08.2022
748 Clouds 26 1014 77 10000 0.45 265 07:51 06.08.2022
749 Clouds 29 1013 79 10000 3.09 90 03:24 06.08.2022
750 Clouds 32 1013 66 10000 4.47 101 23:27 05.08.2022
751 Clouds 32 1012 54 10000 4.02 67 21:54 05.08.2022
752 Clouds 31 1015 62 10000 4.12 150 19:32 05.08.2022
753 Clouds 31 1013 58 10000 1.79 28 18:44 05.08.2022
754 Clouds 28 1015 78 10000 0.89 313 17:27 05.08.2022
755 Clouds 28 1013 66 10000 0.89 269 16:48 05.08.2022
756 Mist 24 1014 100 8047 2.06 300 15:21 05.08.2022
757 Mist 24 1013 100 10000 0 0 13:53 05.08.2022
758 Mist 24 1013 100 10000 0 0 13:22 05.08.2022
759 Clear 25 1011 81 10000 0.89 304 12:24 05.08.2022
760 Clear 26 1012 81 10000 0.69 76 10:35 05.08.2022
761 Clear 27 1013 78 10000 1.34 299 07:58 05.08.2022
762 Clear 28 1014 83 10000 2.06 120 05:32 05.08.2022
763 Clouds 32 1012 66 10000 3.6 90 00:30 05.08.2022
764 Clouds 32 1013 66 10000 2.68 134 22:26 04.08.2022
765 Clouds 32 1014 62 10000 2.06 130 21:26 04.08.2022
766 Clouds 32 1014 62 8047 3.09 100 20:42 04.08.2022
767 Clouds 31 1015 70 9656 3.09 90 19:37 04.08.2022
768 Clouds 30 1015 74 8047 3.13 89 18:36 04.08.2022
769 Clear 30 1015 79 8047 1.79 130 17:37 04.08.2022
770 Clear 24 1014 100 10000 1.54 290 13:57 04.08.2022
771 Clear 25 1011 81 10000 0.99 204 12:43 04.08.2022
772 Clear 26 1011 79 10000 0.99 208 10:50 04.08.2022
773 Clear 26 1013 78 10000 0.89 275 07:53 04.08.2022
774 Clear 28 1013 78 10000 0 0 04:43 04.08.2022
775 Clear 29 1012 74 10000 4.12 80 02:27 04.08.2022
776 Clear 32 1011 53 10000 4.02 107 23:44 03.08.2022
777 Clouds 31 1014 66 10000 5.14 70 22:30 03.08.2022
778 Clear 32 1013 49 10000 4.47 100 20:45 03.08.2022
779 Clear 31 1015 66 10000 4.12 90 19:35 03.08.2022
780 Clear 31 1015 66 10000 2.57 140 18:23 03.08.2022
781 Clouds 25 1015 94 9656 0.45 215 16:24 03.08.2022
782 Clear 23 1013 80 10000 0.45 292 14:45 03.08.2022
783 Clouds 22 1013 81 10000 2.68 255 12:30 03.08.2022
784 Clouds 25 1014 78 10000 1.07 230 08:26 03.08.2022
785 Clouds 27 1014 72 10000 0.45 78 04:47 03.08.2022
786 Clear 28 1014 78 10000 2.06 90 03:28 03.08.2022
787 Clouds 30 1014 66 10000 3.6 80 01:18 03.08.2022
788 Clouds 30 1015 70 10000 2.57 70 23:18 02.08.2022
789 Clouds 28 1017 78 9656 1.03 190 21:55 02.08.2022
790 Clouds 28 1017 78 9656 1.03 200 21:21 02.08.2022
791 Clouds 29 1016 64 10000 1.43 285 18:52 02.08.2022
792 Clouds 23 1017 100 9656 0.89 289 16:27 02.08.2022
793 Clouds 24 1015 84 10000 0.89 263 12:53 02.08.2022
794 Clouds 26 1015 78 10000 0.89 304 09:40 02.08.2022
795 Clouds 27 1016 77 10000 0.45 326 07:56 02.08.2022
796 Clouds 26 1016 78 10000 0.89 294 06:43 02.08.2022
797 Clouds 28 1015 72 10000 1.34 82 04:55 02.08.2022
798 Clouds 31 1014 58 10000 4.02 61 23:52 01.08.2022
799 Clouds 31 1017 66 9656 3.58 13 22:36 01.08.2022
800 Clouds 30 1016 58 10000 2.24 15 20:53 01.08.2022
801 Clouds 28 1019 74 8047 3.09 350 19:32 01.08.2022
802 Clouds 29 1019 70 9656 3.58 32 18:40 01.08.2022
803 Clouds 27 1016 66 10000 0.89 311 16:53 01.08.2022
804 Clouds 22 1017 100 9656 0.45 286 16:28 01.08.2022
805 Clouds 22 1017 100 9656 0 0 15:30 01.08.2022
806 Clouds 22 1017 100 9656 0 0 14:43 01.08.2022
807 Clouds 22 1015 81 10000 1.79 280 12:47 01.08.2022
808 Clouds 23 1016 83 10000 3.13 293 10:22 01.08.2022
809 Clouds 23 1017 82 10000 2.24 313 08:34 01.08.2022
810 Clouds 27 1016 69 10000 1.79 107 04:56 01.08.2022
811 Clouds 28 1016 68 10000 2.24 107 03:49 01.08.2022
812 Clouds 29 1016 74 10000 4.02 65 00:36 01.08.2022
813 Clouds 31 1017 62 10000 5.66 70 22:40 31.07.2022
814 Clouds 31 1017 58 10000 4.63 10 21:33 31.07.2022
815 Clouds 31 1016 49 10000 3.13 109 19:56 31.07.2022
816 Clouds 29 1018 70 10000 2.68 349 18:35 31.07.2022
817 Clouds 23 1017 100 8047 1.54 340 15:45 31.07.2022
818 Clouds 23 1017 100 8047 0 0 13:51 31.07.2022
819 Clouds 25 1015 81 10000 2.25 345 12:28 31.07.2022
820 Clouds 24 1015 80 10000 1.34 329 09:55 31.07.2022
821 Clouds 25 1016 74 10000 4.47 327 08:18 31.07.2022
822 Clouds 27 1013 75 10000 3.13 14 03:49 31.07.2022
823 Clouds 31 1014 59 10000 6.26 38 23:53 30.07.2022
824 Clouds 29 1016 79 10000 5.36 22 22:19 30.07.2022
825 Clouds 29 1016 79 10000 5.36 22 22:19 30.07.2022
826 Clouds 30 1015 65 10000 4.02 24 21:49 30.07.2022
827 Clouds 28 1015 64 10000 4.47 23 20:58 30.07.2022
828 Clouds 28 1015 64 10000 4.47 23 20:58 30.07.2022
829 Clouds 29 1015 65 10000 5.36 25 19:59 30.07.2022
830 Clouds 29 1016 67 10000 3.13 44 18:57 30.07.2022
831 Clouds 27 1017 78 10000 2.68 15 17:45 30.07.2022
832 Clouds 24 1016 88 9656 1.54 300 15:55 30.07.2022
833 Clouds 22 1016 100 9656 1.54 360 15:25 30.07.2022
834 Clouds 23 1015 83 10000 1.03 330 13:20 30.07.2022
835 Clouds 23 1012 73 10000 0.89 312 12:20 30.07.2022
836 Clouds 25 1014 74 10000 0.89 117 10:35 30.07.2022
837 Clouds 24 1014 74 10000 0.89 303 09:57 30.07.2022
838 Clouds 25 1015 77 10000 1.34 273 07:55 30.07.2022
839 Clouds 26 1015 78 10000 0 0 04:20 30.07.2022
840 Clouds 28 1013 69 10000 1.34 44 02:28 30.07.2022
841 Clouds 28 1013 59 10000 0.45 30 22:46 29.07.2022
842 Clouds 25 1016 83 10000 1.54 310 21:28 29.07.2022
843 Mist 23 1017 100 10000 3.09 300 20:50 29.07.2022
844 Clouds 22 1018 100 4828 1.54 260 18:27 29.07.2022
845 Mist 24 1015 100 10000 3.13 120 16:32 29.07.2022
846 Clear 24 1014 100 10000 1.54 300 13:45 29.07.2022
847 Clouds 25 1012 78 10000 0.89 321 11:30 29.07.2022
848 Clouds 26 1013 79 10000 1.34 294 08:50 29.07.2022
849 Clouds 26 1013 79 10000 0.89 289 08:20 29.07.2022
850 Clouds 29 1013 74 10000 3.6 60 02:29 29.07.2022
851 Clouds 31 1013 62 10000 3.6 100 23:18 28.07.2022
852 Clouds 29 1015 74 10000 0.89 190 21:30 28.07.2022
853 Clouds 30 1013 66 10000 0.45 215 20:45 28.07.2022
854 Clouds 27 1016 83 8047 2.06 240 19:44 28.07.2022
855 Clouds 27 1016 83 8047 2.06 240 19:25 28.07.2022
856 Clouds 25 1016 100 9656 0.89 249 17:44 28.07.2022
857 Clouds 25 1014 79 10000 1.34 274 16:59 28.07.2022
858 Clouds 23 1016 100 9656 1.34 225 16:36 28.07.2022
859 Clouds 23 1014 100 8047 1.54 330 13:47 28.07.2022
860 Clouds 23 1013 82 10000 0.45 194 11:43 28.07.2022
861 Clouds 28 1014 71 10000 1.1 79 06:59 28.07.2022
862 Clouds 28 1015 83 9656 2.06 80 05:33 28.07.2022
863 Clouds 28 1012 67 10000 2.68 99 03:53 28.07.2022
864 Clouds 32 1010 55 10000 2.68 97 22:56 27.07.2022
865 Clouds 32 1014 62 10000 2.24 260 21:29 27.07.2022
866 Clouds 31 1014 58 10000 1.79 215 19:46 27.07.2022
867 Clouds 30 1014 59 10000 1.34 131 18:41 27.07.2022
868 Clouds 26 1015 89 9656 0.45 108 16:31 27.07.2022
869 Clouds 23 1014 100 9656 0.89 111 15:40 27.07.2022
870 Clouds 23 1013 100 8047 0 0 14:41 27.07.2022
871 Clouds 23 1011 78 10000 0.72 237 12:52 27.07.2022
872 Clouds 25 1014 71 10000 2.24 287 08:55 27.07.2022
873 Clouds 28 1016 83 9656 1.34 279 07:33 27.07.2022
874 Clouds 30 1013 74 10000 2.68 76 02:43 27.07.2022
875 Clouds 32 1014 58 10000 4.02 86 22:39 26.07.2022
876 Clouds 31 1015 70 10000 3.09 100 21:25 26.07.2022
877 Clouds 32 1013 55 10000 4.02 45 20:47 26.07.2022
878 Clouds 31 1014 53 10000 0.45 185 18:46 26.07.2022
879 Clouds 31 1016 62 10000 1.03 210 18:20 26.07.2022
880 Clouds 27 1016 83 9656 1.34 285 16:46 26.07.2022
881 Clouds 23 1015 100 9656 1.54 250 15:42 26.07.2022
882 Clouds 24 1013 80 10000 0.45 246 13:47 26.07.2022
883 Clouds 25 1012 79 10000 1.28 272 11:40 26.07.2022
884 Clouds 26 1013 79 10000 1.34 261 09:32 26.07.2022
885 Clouds 26 1014 78 10000 1.34 275 07:31 26.07.2022
886 Clouds 30 1013 70 10000 3.13 68 01:21 26.07.2022
887 Clouds 31 1014 66 10000 5.14 80 23:33 25.07.2022
888 Clouds 31 1015 66 9656 3.58 89 22:33 25.07.2022
889 Clouds 31 1013 56 10000 3.13 74 21:43 25.07.2022
890 Clouds 30 1015 70 9656 3.13 49 20:42 25.07.2022
891 Clouds 31 1014 57 10000 3.58 96 19:51 25.07.2022
892 Clouds 29 1016 70 9656 2.57 270 18:23 25.07.2022
893 Clouds 27 1016 78 9656 2.06 270 17:33 25.07.2022
894 Clouds 23 1015 100 9656 1.34 254 15:30 25.07.2022
895 Clouds 23 1012 81 10000 2.25 242 12:29 25.07.2022
896 Clouds 23 1013 81 10000 0.89 274 10:32 25.07.2022
897 Clouds 26 1017 89 10000 6.26 63 06:32 25.07.2022
898 Clouds 30 1013 58 10000 2.24 84 23:55 24.07.2022
899 Clouds 30 1015 66 10000 1.34 89 23:19 24.07.2022
900 Clouds 29 1015 74 10000 1.54 40 22:35 24.07.2022
901 Clouds 27 1016 83 10000 0.89 111 21:28 24.07.2022
902 Clouds 25 1017 100 10000 1.03 240 20:53 24.07.2022
903 Clouds 25 1017 100 10000 1.03 240 20:27 24.07.2022
904 Clouds 30 1015 65 10000 3.13 67 18:56 24.07.2022
905 Clouds 27 1015 72 10000 2.24 24 16:48 24.07.2022
906 Clouds 25 1014 78 10000 0.89 331 15:51 24.07.2022
907 Clouds 23 1015 100 9656 0.89 38 14:40 24.07.2022
908 Clouds 23 1015 100 10000 1.34 279 12:55 24.07.2022
909 Clouds 24 1013 81 7599 1.79 288 12:18 24.07.2022
910 Clouds 24 1014 81 10000 3.13 250 11:26 24.07.2022
911 Clouds 26 1014 74 6223 0.89 263 08:56 24.07.2022
912 Clouds 27 1015 76 10000 0.89 299 07:52 24.07.2022
913 Clouds 29 1017 79 10000 1.54 130 06:34 24.07.2022
914 Clouds 30 1012 62 10000 4.02 90 01:50 24.07.2022
915 Clouds 31 1015 70 10000 4.02 93 22:25 23.07.2022
916 Clouds 32 1015 62 10000 4.47 114 20:35 23.07.2022
917 Clouds 31 1014 58 10000 2.68 148 18:51 23.07.2022
918 Clouds 28 1016 74 9656 2.06 340 17:41 23.07.2022
919 Clouds 26 1016 83 9656 1.79 12 17:23 23.07.2022
920 Clouds 25 1015 100 8047 1.79 324 15:42 23.07.2022
921 Clouds 26 1013 81 10000 0.45 243 14:59 23.07.2022
922 Clouds 25 1014 100 8047 1.54 20 14:35 23.07.2022
923 Clouds 25 1014 100 8047 2.06 280 13:50 23.07.2022
924 Clouds 26 1012 80 10000 0.65 281 11:19 23.07.2022
925 Clouds 27 1013 78 10000 0.45 217 10:23 23.07.2022
926 Clouds 27 1013 77 10000 0.45 294 08:55 23.07.2022
927 Clouds 29 1013 79 10000 3.09 60 03:40 23.07.2022
928 Clouds 30 1013 74 10000 3.6 60 02:30 23.07.2022
929 Clouds 32 1013 70 10000 4.02 96 23:39 22.07.2022
930 Clouds 32 1012 53 10000 4.02 87 20:57 22.07.2022
931 Clouds 32 1013 56 10000 2.24 92 19:47 22.07.2022
932 Clouds 31 1013 63 10000 1.79 55 18:29 22.07.2022
933 Clouds 28 1015 89 8047 1.79 294 17:28 22.07.2022
934 Clouds 24 1014 100 6437 3.6 330 15:26 22.07.2022
935 Clouds 25 1011 79 10000 1.12 43 12:23 22.07.2022
936 Clouds 26 1011 77 10000 0.45 241 09:43 22.07.2022
937 Clear 26 1011 77 10000 1.03 265 09:18 22.07.2022
938 Clouds 28 1012 73 10000 0.45 164 07:21 22.07.2022
939 Clouds 29 1010 66 10000 1.34 105 03:59 22.07.2022
940 Clouds 32 1010 54 10000 3.13 82 22:53 21.07.2022
941 Clouds 32 1013 66 10000 4.12 60 21:35 21.07.2022
942 Clouds 32 1013 55 9656 3.13 71 19:31 21.07.2022
943 Clouds 31 1013 66 9656 0.89 253 18:28 21.07.2022
944 Clouds 29 1013 84 8047 2.06 290 17:19 21.07.2022
945 Clouds 24 1013 100 6437 2.06 310 15:39 21.07.2022
946 Clouds 24 1012 100 8047 1.54 290 14:39 21.07.2022
947 Clouds 25 1010 81 10000 0.89 228 12:54 21.07.2022
948 Clouds 25 1010 80 10000 0.59 228 11:23 21.07.2022
949 Clouds 26 1011 80 10000 0.3 227 09:42 21.07.2022
950 Clear 26 1012 79 10000 0.45 291 08:52 21.07.2022
951 Clear 26 1012 79 10000 1.34 298 07:50 21.07.2022
952 Clear 27 1014 83 10000 0.45 101 06:24 21.07.2022
953 Clouds 31 1012 70 10000 5.14 90 01:42 21.07.2022
954 Clouds 32 1013 66 10000 4.12 100 22:22 20.07.2022
955 Clouds 32 1014 70 10000 4.02 110 21:30 20.07.2022
956 Clouds 32 1012 60 10000 4.02 97 19:54 20.07.2022
957 Clouds 32 1012 60 10000 4.02 97 19:54 20.07.2022
958 Clouds 32 1015 70 10000 2.68 116 19:25 20.07.2022
959 Clouds 32 1013 62 10000 0.89 161 18:52 20.07.2022
960 Clouds 31 1015 70 10000 3.6 120 18:27 20.07.2022
961 Clouds 31 1013 67 10000 3.13 111 16:46 20.07.2022
962 Clouds 27 1015 100 8047 1.34 272 15:32 20.07.2022
963 Clouds 26 1014 100 8047 0 0 14:26 20.07.2022
964 Clouds 26 1012 80 10000 0.93 292 11:55 20.07.2022
965 Clouds 27 1012 79 10000 0.45 305 09:43 20.07.2022
966 Clouds 29 1014 79 10000 3.09 100 04:36 20.07.2022
967 Clouds 32 1012 58 10000 4.47 94 00:52 20.07.2022
968 Clouds 32 1014 66 10000 2.68 80 23:41 19.07.2022
969 Clouds 32 1015 70 10000 3.09 130 22:33 19.07.2022
970 Clouds 32 1013 60 10000 1.79 151 21:46 19.07.2022
971 Clouds 32 1014 60 10000 2.68 148 20:48 19.07.2022
972 Clouds 30 1016 79 9656 1.54 290 19:21 19.07.2022
973 Clouds 29 1017 84 9656 0.89 239 18:31 19.07.2022
974 Clouds 30 1015 68 10000 0.89 228 17:46 19.07.2022
975 Mist 25 1015 100 3219 0 0 14:57 19.07.2022
976 Clouds 26 1012 81 10000 1.61 255 11:44 19.07.2022
977 Clouds 26 1013 81 10000 0.45 279 10:55 19.07.2022
978 Clouds 26 1014 80 10000 0.89 275 09:25 19.07.2022
979 Clouds 26 1015 79 10000 0.45 280 08:39 19.07.2022
980 Clouds 27 1015 78 10000 0.45 265 07:19 19.07.2022
981 Clouds 28 1015 83 10000 3.09 70 05:30 19.07.2022
982 Clouds 28 1013 71 10000 0.89 83 04:55 19.07.2022
983 Clouds 31 1014 70 10000 2.06 80 01:19 19.07.2022
984 Clouds 32 1013 54 10000 3.13 127 23:47 18.07.2022
985 Clouds 32 1014 62 10000 2.68 94 23:18 18.07.2022
986 Clouds 32 1013 54 10000 4.02 96 21:58 18.07.2022
987 Clouds 32 1014 53 10000 3.58 108 20:51 18.07.2022
988 Clouds 30 1016 70 10000 3.13 119 19:33 18.07.2022
989 Clouds 30 1016 74 9656 2.06 60 17:38 18.07.2022
990 Clouds 26 1014 76 10000 0.89 240 15:55 18.07.2022
991 Clouds 23 1013 83 10000 0.45 211 14:51 18.07.2022
992 Clear 23 1014 100 10000 0.45 208 13:23 18.07.2022
993 Clouds 25 1012 81 10000 0.86 239 11:31 18.07.2022
994 Clouds 25 1013 80 10000 2.78 267 08:57 18.07.2022
995 Clouds 26 1014 79 10000 0.45 265 07:43 18.07.2022
996 Clouds 30 1011 59 10000 1.79 119 01:43 18.07.2022
997 Clouds 30 1014 70 10000 4.63 10 22:46 17.07.2022
998 Clouds 30 1014 70 10000 4.63 10 22:22 17.07.2022
999 Clouds 30 1015 70 10000 5.66 360 21:23 17.07.2022
1000 Clouds 31 1015 70 10000 4.92 59 20:44 17.07.2022
1001 Clouds 29 1015 79 9656 1.79 118 19:34 17.07.2022
1002 Clouds 29 1013 67 10000 1.34 36 18:54 17.07.2022
1003 Clouds 28 1015 74 8047 1.79 298 17:38 17.07.2022
1004 Clouds 28 1013 66 10000 2.68 276 16:51 17.07.2022
1005 Clouds 26 1015 89 8047 2.68 280 16:27 17.07.2022
1006 Clouds 25 1012 81 10000 0.45 294 14:58 17.07.2022
1007 Clear 23 1013 100 8047 0.45 247 13:32 17.07.2022
1008 Clouds 25 1011 81 10000 0.45 136 11:50 17.07.2022
1009 Clouds 25 1013 76 10000 0.89 281 09:30 17.07.2022
1010 Clouds 26 1015 83 10000 1.65 4 05:54 17.07.2022
1011 Clouds 29 1014 74 9656 3.6 50 02:33 17.07.2022
1012 Clouds 32 1014 62 10000 3.6 80 23:21 16.07.2022
1013 Clouds 32 1013 55 10000 3.35 56 21:47 16.07.2022
1014 Clouds 22 1016 100 4828 2.06 200 19:53 16.07.2022
1015 Clouds 30 1016 70 9656 2.06 330 18:35 16.07.2022
1016 Clouds 28 1016 78 9656 2.57 330 17:19 16.07.2022
1017 Clouds 24 1015 100 8047 0.45 315 14:31 16.07.2022
1018 Clouds 26 1013 82 10000 0.89 281 11:38 16.07.2022
1019 Clouds 26 1014 80 10000 0.45 309 09:35 16.07.2022
1020 Clouds 26 1015 79 10000 0.45 252 08:47 16.07.2022
1021 Clouds 27 1015 76 10000 2.67 2 08:29 16.07.2022
1022 Clouds 26 1015 89 10000 1.54 310 04:24 16.07.2022
1023 Clouds 27 1015 89 10000 2.06 290 03:22 16.07.2022
1024 Clouds 30 1015 70 10000 4.02 42 23:37 15.07.2022
1025 Clouds 30 1015 74 10000 3.09 70 22:41 15.07.2022
1026 Clouds 30 1016 70 10000 4.12 60 21:29 15.07.2022
1027 Clouds 30 1016 66 10000 3.6 30 20:31 15.07.2022
1028 Clouds 30 1016 74 10000 2.06 300 18:44 15.07.2022
1029 Clouds 28 1014 73 10000 0.89 32 17:44 15.07.2022
1030 Clouds 25 1014 84 10000 1.34 283 14:54 15.07.2022
1031 Clouds 25 1014 84 10000 0.45 321 13:18 15.07.2022
1032 Clouds 25 1014 84 10000 0.89 14 11:45 15.07.2022
1033 Clouds 24 1013 84 10000 0.89 350 10:27 15.07.2022
1034 Clouds 27 1015 94 10000 4.12 330 06:30 15.07.2022
1035 Clouds 28 1013 78 10000 5.66 360 01:32 15.07.2022
1036 Clouds 29 1014 74 10000 5.36 36 00:22 15.07.2022
1037 Clouds 30 1012 57 10000 4.92 63 22:53 14.07.2022
1038 Clouds 29 1013 65 10000 4.47 65 21:54 14.07.2022
1039 Clouds 28 1015 78 10000 4.12 60 21:30 14.07.2022
1040 Clouds 29 1013 64 10000 3.13 53 20:45 14.07.2022
1041 Clouds 28 1015 74 10000 3.58 32 20:24 14.07.2022
1042 Clouds 27 1015 78 10000 3.09 40 19:19 14.07.2022
1043 Clouds 27 1015 78 9656 0 0 16:23 14.07.2022
1044 Clouds 23 1015 100 8047 0.89 209 15:34 14.07.2022
1045 Clouds 23 1014 100 9656 2.06 270 14:31 14.07.2022
1046 Clouds 23 1014 100 8047 1.54 290 13:21 14.07.2022
1047 Clouds 25 1011 80 10000 0.89 288 11:56 14.07.2022
1048 Clouds 25 1011 79 10000 1.46 317 11:24 14.07.2022
1049 Clouds 25 1011 78 10000 1.46 317 10:37 14.07.2022
1050 Clouds 25 1014 70 10000 3.13 226 07:55 14.07.2022
1051 Clouds 31 1012 70 10000 3.58 109 01:27 14.07.2022
1052 Clouds 31 1010 59 10000 4.02 89 00:54 14.07.2022
1053 Clouds 32 1011 59 10000 3.58 80 22:57 13.07.2022
1054 Clouds 31 1013 66 10000 4.47 63 22:22 13.07.2022
1055 Clouds 32 1014 62 10000 4.47 38 21:21 13.07.2022
1056 Clouds 32 1015 62 10000 3.6 70 20:23 13.07.2022
1057 Clouds 31 1012 58 10000 1.34 18 17:54 13.07.2022
1058 Clouds 28 1013 83 8047 1.54 300 16:47 13.07.2022
1059 Clouds 23 1012 100 8047 1.54 240 15:43 13.07.2022
1060 Clouds 23 1012 100 9656 1.54 190 13:24 13.07.2022
1061 Clouds 25 1010 75 10000 0.45 120 10:46 13.07.2022
1062 Clouds 25 1010 74 10000 0.89 208 10:28 13.07.2022
1063 Clouds 25 1010 74 10000 0.89 208 10:28 13.07.2022
1064 Clouds 26 1011 73 10000 1.79 225 09:27 13.07.2022
1065 Clouds 27 1012 79 10000 0.89 236 07:53 13.07.2022
1066 Clouds 29 1010 84 10000 3.09 80 03:26 13.07.2022
1067 Clouds 33 1009 62 9656 4.12 80 00:24 13.07.2022
1068 Clouds 32 1010 70 9656 3.58 77 22:19 12.07.2022
1069 Clouds 33 1011 62 9656 2.68 103 21:36 12.07.2022
1070 Clouds 33 1011 62 9656 1.34 199 20:42 12.07.2022
1071 Clouds 31 1012 70 9656 2.57 180 19:42 12.07.2022
1072 Clouds 30 1012 74 9656 1.54 180 18:21 12.07.2022
1073 Clouds 26 1012 100 8047 0.89 236 16:20 12.07.2022
1074 Clouds 25 1010 100 9656 0.89 223 14:31 12.07.2022
1075 Clear 25 1010 100 10000 0 0 13:24 12.07.2022
1076 Clouds 26 1008 80 10000 0.45 282 11:48 12.07.2022
1077 Clouds 26 1009 80 10000 0.89 285 10:25 12.07.2022
1078 Clouds 27 1011 78 10000 0.45 269 08:40 12.07.2022
1079 Clouds 27 1011 74 10000 0.91 220 07:47 12.07.2022
1080 Clouds 29 1010 67 10000 1.34 94 05:45 12.07.2022
1081 Clouds 29 1011 79 10000 4.12 80 04:18 12.07.2022
1082 Clouds 32 1009 66 10000 4.63 70 00:20 12.07.2022
1083 Clouds 34 1010 62 9656 4.02 96 22:39 11.07.2022
1084 Clouds 33 1009 55 10000 1.34 107 20:56 11.07.2022
1085 Clouds 33 1012 62 10000 2.68 85 20:32 11.07.2022
1086 Clouds 32 1010 59 10000 2.68 211 18:48 11.07.2022
1087 Clouds 30 1012 74 10000 4.63 150 18:23 11.07.2022
1088 Clouds 30 1012 74 10000 4.63 150 18:23 11.07.2022
1089 Haze 27 1013 89 6437 1.34 209 16:26 11.07.2022
1090 Mist 24 1012 100 3219 0 0 14:58 11.07.2022
1091 Clouds 26 1011 79 10000 0.45 246 12:42 11.07.2022
1092 Clouds 26 1011 78 10000 0.89 248 10:56 11.07.2022
1093 Clouds 27 1012 78 10000 0.45 276 09:54 11.07.2022
1094 Clouds 27 1012 77 10000 2.57 251 09:21 11.07.2022
1095 Clouds 27 1012 77 10000 0.89 278 08:30 11.07.2022
1096 Clouds 32 1011 60 10000 3.58 98 00:56 11.07.2022
1097 Clouds 32 1012 53 10000 4.02 98 23:53 10.07.2022
1098 Clouds 33 1015 62 10000 4.12 80 22:37 10.07.2022
1099 Clouds 32 1013 52 10000 3.58 101 20:55 10.07.2022
1100 Clouds 32 1016 70 10000 3.58 111 20:34 10.07.2022
1101 Clouds 32 1016 62 10000 2.68 101 19:28 10.07.2022
1102 Clouds 30 1015 62 10000 0.45 9 17:59 10.07.2022
1103 Clouds 29 1016 79 9656 1.34 222 17:20 10.07.2022
1104 Clouds 27 1016 89 9656 1.34 231 16:21 10.07.2022
1105 Clouds 25 1014 81 10000 1.51 259 14:44 10.07.2022
1106 Clear 24 1016 100 10000 0.45 267 13:29 10.07.2022
1107 Clouds 25 1013 80 10000 0.45 227 11:39 10.07.2022
1108 Clouds 26 1015 78 10000 2.66 270 09:45 10.07.2022
1109 Clouds 26 1016 77 10000 2.05 267 08:43 10.07.2022
1110 Clouds 27 1018 83 10000 1.54 270 06:39 10.07.2022
1111 Clouds 32 1014 52 10000 3.13 73 23:50 09.07.2022
1112 Clouds 32 1017 62 9656 3.58 61 22:26 09.07.2022
1113 Clouds 32 1017 66 10000 4.12 70 21:41 09.07.2022
1114 Clouds 30 1018 79 8047 2.68 64 19:44 09.07.2022
1115 Clouds 30 1018 79 8047 2.68 64 19:44 09.07.2022
1116 Clouds 28 1019 83 10000 0.45 146 18:28 09.07.2022
1117 Clouds 29 1018 84 10000 1.54 180 17:32 09.07.2022
1118 Clouds 28 1018 89 9656 1.03 260 16:34 09.07.2022
1119 Clouds 27 1018 94 9656 1.03 320 15:39 09.07.2022
1120 Clouds 24 1016 100 9656 1.03 260 14:23 09.07.2022
1121 Clouds 24 1016 100 10000 2.06 250 13:48 09.07.2022
1122 Clear 25 1014 79 10000 0.94 251 12:22 09.07.2022
1123 Clear 26 1015 76 10000 2.08 276 10:27 09.07.2022
1124 Clear 26 1015 75 10000 0.45 300 09:57 09.07.2022
1125 Clouds 27 1016 75 10000 1.79 261 07:44 09.07.2022
1126 Clouds 26 1016 84 10000 2.8 52 04:49 09.07.2022
1127 Clouds 31 1015 66 10000 3.13 70 00:38 09.07.2022
1128 Clouds 31 1015 66 10000 3.58 88 22:41 08.07.2022
1129 Clouds 31 1016 66 10000 2.68 24 21:27 08.07.2022
1130 Clouds 32 1016 66 10000 1.03 190 20:40 08.07.2022
1131 Clouds 31 1014 60 10000 1.34 28 19:48 08.07.2022
1132 Clouds 28 1017 83 9656 2.57 320 17:56 08.07.2022
1133 Clouds 24 1017 94 1609 3.13 329 16:33 08.07.2022
1134 Clouds 25 1014 79 10000 0.45 229 14:51 08.07.2022
1135 Clouds 25 1013 78 10000 0.89 277 12:42 08.07.2022
1136 Clouds 25 1013 78 10000 0.45 284 11:24 08.07.2022
1137 Clouds 26 1013 76 10000 0.45 307 10:21 08.07.2022
1138 Clouds 27 1014 77 10000 0.89 267 07:55 08.07.2022
1139 Clouds 28 1016 78 10000 2.06 60 06:23 08.07.2022
1140 Clouds 31 1013 66 10000 4.02 71 01:19 08.07.2022
1141 Clouds 32 1012 53 10000 4.47 85 22:57 07.07.2022
1142 Clouds 32 1012 53 10000 3.58 80 21:52 07.07.2022
1143 Clouds 30 1015 70 8047 2.68 103 19:35 07.07.2022
1144 Clouds 30 1013 63 10000 0.89 123 17:56 07.07.2022
1145 Clouds 25 1015 100 8047 0.89 293 16:32 07.07.2022
1146 Clouds 25 1014 100 9656 0.45 234 14:21 07.07.2022
1147 Clouds 26 1012 79 10000 0.45 103 12:46 07.07.2022
1148 Clouds 26 1012 79 10000 0.66 242 12:23 07.07.2022
1149 Clouds 26 1012 78 10000 0.66 242 11:34 07.07.2022
1150 Clouds 26 1012 78 10000 1.06 242 10:46 07.07.2022
1151 Clouds 26 1012 78 10000 0.45 144 10:27 07.07.2022
1152 Clouds 26 1012 78 10000 0.45 286 09:32 07.07.2022
1153 Clouds 28 1015 83 10000 0 0 06:26 07.07.2022
1154 Clouds 31 1011 59 10000 4.02 96 00:28 07.07.2022
1155 Clouds 31 1011 56 10000 4.02 86 23:36 06.07.2022
1156 Clouds 32 1011 51 10000 4.02 49 23:18 06.07.2022
1157 Clouds 31 1011 48 10000 3.13 102 22:51 06.07.2022
1158 Clouds 31 1014 62 10000 5.14 70 22:33 06.07.2022
1159 Clouds 31 1015 62 10000 1.54 120 20:23 06.07.2022
1160 Clouds 30 1015 70 10000 3.09 100 19:18 06.07.2022
1161 Clouds 28 1015 78 8047 0.45 140 17:21 06.07.2022
1162 Clouds 27 1013 69 10000 0.45 276 15:55 06.07.2022
1163 Clouds 25 1011 81 10000 0.45 230 12:44 06.07.2022
1164 Clouds 25 1011 80 10000 1.11 281 11:52 06.07.2022
1165 Clouds 25 1012 78 10000 0.89 103 10:49 06.07.2022
1166 Clouds 26 1012 72 10000 2.95 276 09:21 06.07.2022
1167 Clear 27 1013 75 10000 1.34 285 07:44 06.07.2022
1168 Clouds 26 1015 94 10000 1.54 250 06:43 06.07.2022
1169 Clouds 32 1014 62 10000 4.63 50 23:42 05.07.2022
1170 Clouds 32 1012 52 10000 3.13 51 22:42 05.07.2022
1171 Clouds 31 1013 51 10000 0.89 64 20:48 05.07.2022
1172 Clouds 31 1014 58 10000 2.68 80 19:55 05.07.2022
1173 Clouds 31 1016 62 10000 2.24 107 19:36 05.07.2022
1174 Clouds 30 1014 63 10000 0.89 87 17:50 05.07.2022
1175 Clouds 29 1016 70 10000 1.03 260 17:18 05.07.2022
1176 Clouds 27 1015 74 10000 0.89 284 15:48 05.07.2022
1177 Clouds 25 1014 78 10000 0.45 280 14:44 05.07.2022
1178 Clouds 26 1014 79 10000 0.89 327 12:53 05.07.2022
1179 Clouds 26 1014 79 10000 0.45 296 12:22 05.07.2022
1180 Clouds 26 1014 79 10000 0.45 312 10:45 05.07.2022
1181 Clouds 26 1015 78 10000 0.89 332 09:44 05.07.2022
1182 Clouds 26 1015 79 10000 0.89 283 08:20 05.07.2022
1183 Clouds 28 1015 71 10000 0.89 48 06:47 05.07.2022
1184 Clouds 27 1015 83 10000 1.79 94 04:30 05.07.2022
1185 Clouds 27 1013 80 10000 2.77 138 00:47 05.07.2022
1186 Clouds 31 1015 66 10000 2.24 121 23:37 04.07.2022
1187 Clouds 28 1013 78 10000 2.6 163 22:54 04.07.2022
1188 Clouds 30 1014 57 10000 1.34 86 21:56 04.07.2022
1189 Clouds 30 1014 66 10000 1.34 269 20:55 04.07.2022
1190 Clouds 27 1016 83 10000 2.06 290 20:35 04.07.2022
1191 Clouds 28 1015 72 10000 1.79 302 19:56 04.07.2022
1192 Clouds 26 1017 89 10000 2.57 300 19:36 04.07.2022
1193 Clouds 24 1017 100 10000 1.03 360 18:34 04.07.2022
1194 Clouds 23 1017 100 4828 2.68 302 16:36 04.07.2022
1195 Clouds 23 1016 100 4828 1.79 330 15:34 04.07.2022
1196 Clouds 23 1016 100 4828 2.24 251 13:35 04.07.2022
1197 Clouds 24 1014 82 10000 0.45 213 12:36 04.07.2022
1198 Clouds 26 1012 76 4828 1.34 297 10:39 04.07.2022
1199 Clouds 26 1013 74 4311 2.68 298 10:18 04.07.2022
1200 Clouds 26 1015 84 4355 1.82 80 08:31 04.07.2022
1201 Clouds 28 1015 78 10000 3.09 50 05:34 04.07.2022
1202 Clouds 32 1011 55 10000 5.81 74 00:42 04.07.2022
1203 Clear 32 1013 58 10000 6.17 50 23:25 03.07.2022
1204 Clouds 33 1012 47 10000 3.58 90 21:58 03.07.2022
1205 Clouds 32 1015 62 10000 4.02 56 20:41 03.07.2022
1206 Clouds 31 1015 70 10000 3.6 140 19:42 03.07.2022
1207 Clouds 31 1015 70 10000 3.6 140 19:23 03.07.2022
1208 Clouds 30 1015 74 9656 1.79 124 17:45 03.07.2022
1209 Clouds 30 1013 69 10000 1.79 285 16:54 03.07.2022
1210 Clouds 26 1014 100 9656 1.54 300 15:25 03.07.2022
1211 Clouds 26 1014 100 8047 2.06 300 14:37 03.07.2022
1212 Clouds 26 1014 100 8047 1.54 300 13:49 03.07.2022
1213 Clouds 26 1012 78 10000 0.69 308 12:41 03.07.2022
1214 Clouds 26 1012 77 10000 0.45 274 11:39 03.07.2022
1215 Clear 26 1012 79 10000 0.45 274 10:39 03.07.2022
1216 Clear 26 1012 78 10000 0.45 260 09:59 03.07.2022
1217 Clear 27 1013 83 10000 0.12 26 07:36 03.07.2022
1218 Clouds 29 1013 79 10000 2.06 80 05:18 03.07.2022
1219 Clouds 32 1011 66 10000 4.63 90 00:24 03.07.2022
1220 Clouds 32 1012 58 10000 5.14 90 22:36 02.07.2022
1221 Clouds 32 1013 58 10000 3.58 94 21:38 02.07.2022
1222 Clouds 33 1011 49 10000 3.58 136 19:53 02.07.2022
1223 Clouds 31 1014 66 10000 3.09 90 19:31 02.07.2022
1224 Clouds 31 1012 58 10000 1.34 81 17:58 02.07.2022
1225 Clouds 30 1014 70 10000 2.68 113 17:36 02.07.2022
1226 Clouds 25 1013 94 9656 2.06 290 15:28 02.07.2022
1227 Clouds 25 1011 80 10000 0.72 123 12:22 02.07.2022
1228 Clouds 25 1011 80 10000 0.45 237 11:28 02.07.2022
1229 Clouds 26 1011 78 10000 0.45 237 10:48 02.07.2022
1230 Clouds 26 1011 77 10000 0.45 134 09:49 02.07.2022
1231 Clouds 27 1012 76 10000 0.64 267 08:36 02.07.2022
1232 Clear 27 1012 75 10000 0.45 300 08:18 02.07.2022
1233 Clear 30 1010 62 10000 3.13 98 02:52 02.07.2022
1234 Clouds 32 1012 58 10000 5.14 90 00:27 02.07.2022
1235 Clouds 33 1010 52 10000 4.47 121 22:59 01.07.2022
1236 Clouds 33 1011 51 10000 3.58 111 21:56 01.07.2022
1237 Clouds 33 1013 58 10000 3.58 135 21:37 01.07.2022
1238 Clouds 33 1011 51 10000 0.89 162 20:57 01.07.2022
1239 Clouds 33 1012 52 10000 1.34 217 19:47 01.07.2022
1240 Clouds 31 1015 66 10000 0.45 335 18:42 01.07.2022
1241 Mist 29 1015 79 9656 0.89 57 16:35 01.07.2022
1242 Haze 25 1014 100 8047 1.54 290 13:55 01.07.2022
1243 Mist 25 1014 100 8047 1.54 290 13:22 01.07.2022
1244 Clouds 26 1013 79 10000 0.49 226 10:46 01.07.2022
1245 Clouds 26 1013 78 10000 1 249 10:18 01.07.2022
1246 Clear 28 1014 71 10000 0.89 128 05:58 01.07.2022
1247 Clouds 31 1013 66 10000 4.12 70 01:30 01.07.2022
1248 Clear 31 1014 66 10000 3.6 100 23:28 30.06.2022
1249 Clouds 32 1013 53 10000 2.24 120 22:45 30.06.2022
1250 Clouds 32 1013 53 10000 2.24 120 22:45 30.06.2022
1251 Clouds 31 1015 66 10000 4.63 70 22:27 30.06.2022
1252 Clouds 32 1014 55 10000 4.02 84 21:50 30.06.2022
1253 Clouds 32 1016 58 10000 1.54 110 20:31 30.06.2022
1254 Clouds 31 1015 56 10000 1.34 98 19:55 30.06.2022
1255 Clouds 30 1017 66 10000 1.03 90 19:32 30.06.2022
1256 Clouds 30 1018 70 10000 2.06 140 18:43 30.06.2022
1257 Clouds 30 1016 61 10000 0.89 123 17:49 30.06.2022
1258 Clouds 28 1016 70 10000 0.45 301 16:55 30.06.2022
1259 Clouds 27 1016 76 10000 0.89 261 15:50 30.06.2022
1260 Clear 24 1016 100 9656 1.54 290 13:51 30.06.2022
1261 Clear 24 1016 100 9656 1.54 290 13:18 30.06.2022
1262 Clear 24 1014 81 10000 1.46 261 12:32 30.06.2022
1263 Clear 25 1015 79 10000 2.63 264 10:19 30.06.2022
1264 Clear 25 1016 78 10000 0.45 286 09:40 30.06.2022
1265 Clear 25 1016 78 10000 1.34 284 08:22 30.06.2022
1266 Clear 25 1018 94 10000 0 0 07:40 30.06.2022
1267 Clouds 28 1016 78 10000 2.06 50 03:35 30.06.2022
1268 Clouds 31 1017 62 10000 3.6 70 23:38 29.06.2022
1269 Clouds 31 1017 62 10000 3.6 80 22:41 29.06.2022
1270 Clouds 32 1015 47 10000 4.02 89 21:59 29.06.2022
1271 Clouds 31 1018 66 10000 2.57 100 20:35 29.06.2022
1272 Clear 32 1016 53 10000 2.24 101 19:56 29.06.2022
1273 Clear 30 1016 57 10000 0.45 188 17:55 29.06.2022
1274 Clear 30 1016 57 10000 0.45 188 17:55 29.06.2022
1275 Clouds 29 1016 64 10000 1.34 210 16:55 29.06.2022
1276 Clouds 27 1016 75 10000 0.89 235 15:44 29.06.2022
1277 Clear 24 1017 100 10000 1.34 150 13:43 29.06.2022
1278 Clouds 24 1015 83 10000 0.45 265 12:36 29.06.2022
1279 Clouds 25 1015 80 10000 0.45 272 09:46 29.06.2022
1280 Clouds 26 1015 78 10000 1.41 312 09:22 29.06.2022
1281 Clouds 26 1017 94 10000 0.89 256 06:29 29.06.2022
1282 Clouds 28 1016 78 10000 3.6 30 04:42 29.06.2022
1283 Clouds 31 1013 59 10000 4.02 34 00:53 29.06.2022
1284 Clouds 30 1015 70 10000 4.12 50 00:33 29.06.2022
1285 Clouds 32 1014 55 10000 4.47 67 22:50 28.06.2022
1286 Clouds 32 1015 53 10000 4.47 86 21:58 28.06.2022
1287 Clouds 31 1017 62 10000 4.02 51 21:39 28.06.2022
1288 Clouds 31 1017 62 10000 3.58 80 21:19 28.06.2022
1289 Clouds 31 1016 52 10000 2.24 70 19:54 28.06.2022
1290 Clouds 31 1018 62 10000 1.79 80 19:28 28.06.2022
1291 Clouds 30 1018 66 10000 0.45 144 18:38 28.06.2022
1292 Clouds 29 1016 60 10000 1.34 42 16:58 28.06.2022
1293 Clouds 27 1016 70 10000 0.45 273 15:55 28.06.2022
1294 Clouds 25 1015 79 10000 0.89 256 14:49 28.06.2022
1295 Clouds 23 1016 100 9656 0 0 14:18 28.06.2022
1296 Clear 24 1016 100 9656 0.45 284 13:45 28.06.2022
1297 Clouds 25 1014 79 10000 0.45 284 12:28 28.06.2022
1298 Clouds 25 1015 77 10000 0.89 263 09:53 28.06.2022
1299 Clouds 26 1016 75 10000 2.49 278 08:55 28.06.2022
1300 Clouds 26 1016 75 10000 0.89 290 08:26 28.06.2022
1301 Clouds 26 1016 74 10000 0.89 266 07:20 28.06.2022
1302 Clouds 28 1015 69 10000 2.57 50 03:38 28.06.2022
1303 Clouds 28 1014 67 10000 4.11 53 23:51 27.06.2022
1304 Clouds 31 1015 58 10000 2.57 70 23:25 27.06.2022
1305 Clouds 28 1015 69 10000 1.24 104 21:53 27.06.2022
1306 Clouds 31 1017 58 10000 0 0 21:21 27.06.2022
1307 Clouds 25 1016 82 10000 2.77 193 19:54 27.06.2022
1308 Clouds 25 1017 83 10000 3.22 211 18:50 27.06.2022
1309 Clouds 26 1018 83 10000 1.34 238 17:33 27.06.2022
1310 Clouds 25 1016 78 10000 1.79 257 15:44 27.06.2022
1311 Clouds 22 1018 100 8047 2.24 254 14:18 27.06.2022
1312 Clouds 23 1016 83 10000 2.24 290 12:58 27.06.2022
1313 Clouds 23 1016 83 10000 1.79 279 11:30 27.06.2022
1314 Clouds 26 1016 67 10000 4.92 185 09:45 27.06.2022
1315 Clouds 27 1016 77 10000 0.89 321 08:40 27.06.2022
1316 Clouds 26 1018 94 10000 1.54 280 07:39 27.06.2022
1317 Clouds 27 1017 78 10000 1.03 60 05:19 27.06.2022
1318 Clouds 30 1014 66 10000 3.6 60 01:22 27.06.2022
1319 Clouds 31 1013 56 10000 3.13 49 22:58 26.06.2022
1320 Clouds 31 1016 66 9656 2.57 40 21:37 26.06.2022
1321 Clouds 31 1016 66 8047 2.57 10 20:28 26.06.2022
1322 Clouds 29 1017 74 8047 0.89 360 18:33 26.06.2022
1323 Clear 28 1017 78 8047 3.09 290 17:38 26.06.2022
1324 Clear 25 1016 100 8047 2.68 276 15:36 26.06.2022
1325 Clouds 24 1015 100 8047 2.06 280 14:22 26.06.2022
1326 Clouds 24 1015 100 9656 1.54 280 13:23 26.06.2022
1327 Clear 25 1013 81 10000 1.43 299 11:39 26.06.2022
1328 Clear 25 1013 80 10000 0.45 286 10:42 26.06.2022
1329 Clear 25 1013 79 10000 0.83 294 09:55 26.06.2022
1330 Clear 26 1015 78 10000 0.45 275 07:47 26.06.2022
1331 Clouds 27 1015 83 10000 2.06 60 05:26 26.06.2022
1332 Clouds 30 1013 62 10000 5.14 40 00:36 26.06.2022
1333 Clouds 30 1013 62 10000 5.14 40 00:18 26.06.2022
1334 Clouds 31 1013 62 10000 4.63 80 23:25 25.06.2022
1335 Clouds 31 1013 62 10000 4.92 100 22:42 25.06.2022
1336 Clouds 31 1013 62 10000 5.81 84 22:24 25.06.2022
1337 Clouds 31 1013 66 10000 4.63 80 21:21 25.06.2022
1338 Clouds 31 1013 55 10000 4.47 76 20:32 25.06.2022
1339 Clouds 31 1011 48 10000 2.24 29 19:56 25.06.2022
1340 Clouds 30 1015 66 10000 2.06 230 18:22 25.06.2022
1341 Clouds 29 1015 74 10000 1.03 340 17:26 25.06.2022
1342 Clouds 27 1015 83 10000 0.89 277 16:25 25.06.2022
1343 Clouds 23 1014 100 9656 0 0 14:28 25.06.2022
1344 Clouds 24 1012 80 10000 0.77 243 12:43 25.06.2022
1345 Clouds 24 1011 80 10000 0.88 258 11:39 25.06.2022
1346 Clouds 25 1012 80 10000 0.89 275 09:24 25.06.2022
1347 Clouds 25 1013 80 10000 1.34 267 08:48 25.06.2022
1348 Clear 25 1013 77 10000 0.45 64 08:20 25.06.2022
1349 Clouds 26 1014 83 10000 1.79 98 05:26 25.06.2022
1350 Clouds 30 1012 66 10000 4.12 70 00:44 25.06.2022
1351 Clouds 30 1013 66 10000 4.12 50 23:32 24.06.2022
1352 Clouds 31 1011 52 10000 4.02 68 21:59 24.06.2022
1353 Clouds 31 1014 62 10000 2.06 70 21:21 24.06.2022
1354 Clouds 30 1014 70 10000 4.12 60 20:22 24.06.2022
1355 Clouds 29 1014 70 10000 3.13 82 19:23 24.06.2022
1356 Clouds 31 1012 57 10000 1.34 5 18:50 24.06.2022
1357 Clouds 29 1015 70 10000 0.45 111 18:30 24.06.2022
1358 Clouds 30 1013 60 10000 0.45 119 17:46 24.06.2022
1359 Mist 26 1015 89 10000 0.89 224 16:32 24.06.2022
1360 Mist 23 1014 100 10000 1.54 280 14:29 24.06.2022
1361 Clouds 23 1014 100 10000 1.03 260 13:55 24.06.2022
1362 Clouds 23 1012 81 10000 1.95 284 12:26 24.06.2022
1363 Clouds 24 1012 82 10000 1.95 284 11:40 24.06.2022
1364 Clouds 24 1012 81 10000 2.34 288 10:22 24.06.2022
1365 Clouds 25 1013 81 10000 0.89 279 09:41 24.06.2022
1366 Clouds 25 1013 81 10000 0.89 266 08:52 24.06.2022
1367 Clouds 25 1016 88 10000 0 0 07:20 24.06.2022
1368 Clouds 26 1016 83 10000 1.54 360 06:42 24.06.2022
1369 Clouds 26 1016 83 10000 1.54 360 06:18 24.06.2022
1370 Clouds 28 1013 74 10000 6.17 360 02:44 24.06.2022
1371 Clouds 31 1012 56 10000 4.92 16 22:58 23.06.2022
1372 Clouds 30 1014 62 10000 4.92 26 22:40 23.06.2022
1373 Clouds 30 1013 55 10000 3.13 340 20:57 23.06.2022
1374 Clouds 29 1016 70 10000 5.36 10 20:32 23.06.2022
1375 Clouds 29 1016 74 10000 4.47 350 19:25 23.06.2022
1376 Clouds 28 1015 73 10000 4.02 345 17:51 23.06.2022
1377 Clouds 28 1015 70 10000 2.24 312 16:58 23.06.2022
1378 Clouds 27 1014 74 10000 1.34 281 15:50 23.06.2022
1379 Clear 24 1015 100 8047 1.54 320 15:24 23.06.2022
1380 Clouds 23 1015 100 9656 0.89 355 13:33 23.06.2022
1381 Clouds 24 1013 77 10000 2.79 303 11:27 23.06.2022
1382 Clouds 25 1013 78 10000 0.45 291 10:31 23.06.2022
1383 Clouds 25 1014 76 10000 0.89 302 08:49 23.06.2022
1384 Clouds 27 1013 71 10000 3.58 349 02:46 23.06.2022
1385 Clouds 28 1015 78 10000 6.69 360 00:26 23.06.2022
1386 Clouds 29 1015 70 10000 6.26 26 23:27 22.06.2022
1387 Clouds 28 1015 78 10000 4.47 338 22:39 22.06.2022
1388 Clouds 28 1016 74 10000 3.13 350 21:22 22.06.2022
1389 Clouds 27 1017 83 10000 2.68 339 20:34 22.06.2022
1390 Clouds 28 1015 73 10000 1.79 9 19:52 22.06.2022
1391 Clouds 26 1017 89 10000 2.57 350 18:40 22.06.2022
1392 Clouds 25 1016 94 8047 3.09 350 17:27 22.06.2022
1393 Clouds 24 1015 100 8047 1.34 38 16:18 22.06.2022
1394 Clouds 23 1015 100 9656 1.54 280 15:26 22.06.2022
1395 Clouds 23 1015 100 8047 2.57 280 14:18 22.06.2022
1396 Clouds 23 1015 100 8047 2.57 290 13:37 22.06.2022
1397 Clouds 23 1015 100 8047 2.57 290 13:18 22.06.2022
1398 Clouds 23 1013 83 1879 2.68 274 11:48 22.06.2022
1399 Clouds 24 1013 83 3711 0.89 309 10:55 22.06.2022
1400 Clouds 24 1013 83 3276 0.89 97 09:59 22.06.2022
1401 Clouds 25 1014 81 2784 0.45 154 07:58 22.06.2022
1402 Clouds 27 1014 89 10000 4.12 360 03:40 22.06.2022
1403 Clouds 27 1013 89 10000 5.14 360 01:23 22.06.2022
1404 Clouds 28 1013 83 10000 6.69 350 23:41 21.06.2022
1405 Clouds 26 1014 88 10000 6.85 6 21:49 21.06.2022
1406 Clouds 25 1015 93 4968 8.21 7 19:50 21.06.2022
1407 Clouds 27 1015 83 10000 3.09 360 18:32 21.06.2022
1408 Clouds 26 1015 94 10000 4.02 9 17:25 21.06.2022
1409 Clouds 24 1013 100 8047 1.79 336 13:33 21.06.2022
1410 Clouds 23 1011 84 10000 2.24 256 11:31 21.06.2022
1411 Clouds 24 1011 82 10000 3.58 296 09:48 21.06.2022
1412 Clouds 25 1012 81 9121 4.47 355 08:37 21.06.2022
1413 Clouds 26 1013 89 10000 6.26 360 05:41 21.06.2022
1414 Clouds 28 1011 62 10000 5.81 13 00:43 21.06.2022
1415 Clouds 29 1013 74 10000 8.05 25 23:18 20.06.2022
1416 Clouds 30 1012 58 10000 5.81 53 21:52 20.06.2022
1417 Clouds 31 1012 53 10000 7.15 355 20:47 20.06.2022
1418 Clouds 29 1015 70 10000 4.47 355 19:38 20.06.2022
1419 Clouds 28 1015 74 10000 5.81 355 18:45 20.06.2022
1420 Clouds 28 1013 66 10000 1.79 306 17:52 20.06.2022
1421 Clouds 27 1015 83 9656 2.24 316 17:29 20.06.2022
1422 Clouds 27 1013 74 10000 1.79 331 15:55 20.06.2022
1423 Clouds 23 1011 82 10000 0.89 346 12:44 20.06.2022
1424 Clouds 24 1011 82 10000 0.89 287 10:41 20.06.2022
1425 Clouds 24 1012 83 10000 0.89 272 09:41 20.06.2022
1426 Clouds 24 1013 83 10000 2.79 291 08:44 20.06.2022
1427 Clouds 25 1013 82 10000 0.45 315 05:55 20.06.2022
1428 Clouds 26 1013 100 9656 0 0 02:27 20.06.2022
1429 Clouds 25 1014 100 8047 1.34 271 00:26 20.06.2022
1430 Clouds 26 1013 80 10000 0.89 292 22:53 19.06.2022
1431 Clouds 26 1013 79 10000 0.89 260 21:58 19.06.2022
1432 Drizzle 25 1015 100 9656 2.24 272 21:40 19.06.2022
1433 Drizzle 24 1015 100 9656 2.68 301 20:39 19.06.2022
1434 Clouds 25 1014 80 9869 0.89 251 19:47 19.06.2022
1435 Clouds 25 1014 80 4951 2.24 314 18:46 19.06.2022
1436 Clouds 24 1015 100 8047 2.24 309 18:26 19.06.2022
1437 Clouds 24 1015 100 8047 2.57 320 17:22 19.06.2022
1438 Clouds 23 1015 100 4828 2.68 311 16:35 19.06.2022
1439 Clouds 23 1015 100 6437 4.63 20 15:41 19.06.2022
1440 Clouds 23 1015 100 6437 4.02 9 14:57 19.06.2022
1441 Clouds 24 1014 100 4828 4.12 40 14:20 19.06.2022
1442 Clouds 24 1013 100 9656 2.24 53 13:36 19.06.2022
1443 Clouds 25 1011 80 10000 2.98 332 11:38 19.06.2022
1444 Clouds 25 1011 80 10000 0.89 287 10:31 19.06.2022
1445 Clouds 25 1013 81 5490 1.79 294 08:49 19.06.2022
1446 Clouds 24 1013 81 8845 1.79 282 08:19 19.06.2022
1447 Clouds 27 1014 83 10000 2.57 350 05:42 19.06.2022
1448 Clouds 28 1012 83 10000 5.14 10 02:26 19.06.2022
1449 Clouds 29 1012 70 10000 6.17 30 00:25 19.06.2022
1450 Clouds 30 1012 70 10000 6.17 10 23:36 18.06.2022
1451 Clouds 29 1013 74 10000 6.26 9 22:44 18.06.2022
1452 Clouds 28 1014 78 10000 6.17 350 21:38 18.06.2022
1453 Clouds 28 1014 78 10000 7.2 360 20:42 18.06.2022
1454 Clouds 27 1015 89 9656 5.36 20 19:40 18.06.2022
1455 Clouds 26 1014 89 8047 6.17 360 18:53 18.06.2022
1456 Clouds 28 1014 78 10000 3.58 5 17:35 18.06.2022
1457 Clouds 28 1012 70 10000 1.79 351 16:59 18.06.2022
1458 Clouds 23 1014 100 9656 1.79 331 15:37 18.06.2022
1459 Clouds 23 1012 79 10000 1.34 273 14:46 18.06.2022
1460 Clouds 24 1012 94 9656 1.54 310 13:30 18.06.2022
1461 Clouds 25 1011 78 10000 1.79 5 11:56 18.06.2022
1462 Clouds 25 1011 81 10000 2.55 297 10:55 18.06.2022
1463 Clear 25 1012 80 10000 0.45 273 09:28 18.06.2022
1464 Clear 25 1012 81 10000 0.89 273 08:30 18.06.2022
1465 Clouds 25 1013 80 10000 0.89 279 07:20 18.06.2022
1466 Clear 27 1013 83 10000 2.68 34 03:47 18.06.2022
1467 Clouds 28 1013 74 9656 4.47 28 01:26 18.06.2022
1468 Clouds 28 1013 74 9656 4.47 28 01:26 18.06.2022
1469 Clouds 29 1011 59 10000 3.58 49 00:48 18.06.2022
1470 Clouds 29 1011 60 10000 2.68 31 23:59 17.06.2022
1471 Clouds 30 1013 66 10000 4.12 10 23:24 17.06.2022
1472 Clouds 29 1015 70 10000 3.13 54 21:27 17.06.2022
1473 Clouds 29 1015 70 10000 2.57 340 20:26 17.06.2022
1474 Clouds 29 1014 61 10000 2.68 61 18:52 17.06.2022
1475 Clouds 28 1014 67 10000 3.13 22 17:46 17.06.2022
1476 Mist 24 1016 94 9656 1.34 327 16:43 17.06.2022
1477 Mist 24 1016 94 9656 1.79 335 16:18 17.06.2022
1478 Mist 23 1015 100 10000 1.54 310 15:34 17.06.2022
1479 Mist 23 1015 100 10000 1.03 310 14:21 17.06.2022
1480 Clouds 23 1015 94 10000 1.54 350 13:48 17.06.2022
1481 Clouds 23 1015 94 10000 1.54 350 13:26 17.06.2022
1482 Clouds 24 1013 75 10000 0.89 276 11:58 17.06.2022
1483 Clouds 24 1013 74 10000 0.89 301 11:39 17.06.2022
1484 Clear 24 1013 74 10000 1.34 271 11:21 17.06.2022
1485 Clear 25 1014 81 10000 1.78 316 08:33 17.06.2022
1486 Clear 26 1014 78 10000 0.45 167 07:51 17.06.2022
1487 Clouds 27 1016 89 10000 0 0 06:32 17.06.2022
1488 Clear 28 1013 78 10000 3.58 88 03:20 17.06.2022
1489 Clouds 31 1013 62 10000 5.66 60 00:43 17.06.2022
1490 Clouds 31 1014 62 10000 4.02 47 23:25 16.06.2022
1491 Clouds 32 1015 62 10000 4.63 70 22:31 16.06.2022
1492 Clouds 32 1015 58 10000 2.24 51 21:19 16.06.2022
1493 Clouds 32 1013 49 10000 1.79 19 20:50 16.06.2022
1494 Clouds 32 1014 51 10000 2.68 21 19:59 16.06.2022
1495 Clouds 31 1014 53 10000 1.34 267 18:44 16.06.2022
1496 Clouds 30 1014 58 10000 2.24 324 17:44 16.06.2022
1497 Clear 28 1016 74 10000 2.24 300 17:22 16.06.2022
1498 Clouds 25 1014 71 10000 2.68 302 15:58 16.06.2022
1499 Clouds 23 1015 88 10000 2.68 313 15:21 16.06.2022
1500 Clouds 22 1015 100 8047 3.58 309 13:55 16.06.2022
1501 Clouds 23 1013 79 10000 1.79 280 12:47 16.06.2022
1502 Clouds 23 1013 79 10000 2.24 285 12:20 16.06.2022
1503 Clouds 22 1013 79 10000 2.68 273 11:21 16.06.2022
1504 Clouds 22 1013 81 10000 1.34 323 10:35 16.06.2022
1505 Clouds 25 1012 80 10000 1.34 249 09:39 16.06.2022
1506 Clouds 27 1013 78 10000 0.45 26 08:50 16.06.2022
1507 Clouds 27 1015 89 10000 2.06 20 07:38 16.06.2022
1508 Clouds 26 1014 85 10000 3.11 6 05:48 16.06.2022
1509 Clouds 28 1011 72 10000 1.34 95 03:44 16.06.2022
1510 Clouds 28 1010 68 10000 3.58 77 01:52 16.06.2022
1511 Clouds 28 1010 68 10000 3.58 77 01:52 16.06.2022
1512 Clouds 28 1012 78 8047 3.13 111 01:22 16.06.2022
1513 Clouds 29 1010 67 10000 3.58 61 23:58 15.06.2022
1514 Clouds 29 1010 65 10000 4.02 92 22:53 15.06.2022
1515 Clouds 29 1013 74 8047 4.92 94 21:34 15.06.2022
1516 Clouds 29 1011 65 10000 4.02 92 20:58 15.06.2022
1517 Clouds 28 1013 78 8047 4.92 115 20:36 15.06.2022
1518 Clouds 28 1011 67 10000 4.47 89 19:52 15.06.2022
1519 Clouds 28 1013 83 8047 2.68 102 18:30 15.06.2022
1520 Clouds 28 1012 72 8881 4.02 111 17:43 15.06.2022
1521 Haze 24 1013 100 6437 2.06 290 16:21 15.06.2022
1522 Clouds 23 1012 100 8047 2.57 310 14:37 15.06.2022
1523 Clouds 23 1012 100 2414 1.79 262 13:22 15.06.2022
1524 Clouds 24 1010 82 10000 1.34 280 12:40 15.06.2022
1525 Clouds 24 1009 82 10000 4.47 5 11:24 15.06.2022
1526 Clouds 24 1009 82 10000 1.79 280 10:21 15.06.2022
1527 Clouds 24 1010 82 10000 1.79 253 08:59 15.06.2022
1528 Clouds 24 1014 100 3219 5.14 110 07:32 15.06.2022
1529 Clouds 26 1012 83 10000 3.13 55 05:36 15.06.2022
1530 Clouds 28 1011 74 10000 2.68 54 02:40 15.06.2022
1531 Clouds 28 1011 74 10000 4.12 60 01:36 15.06.2022
1532 Clouds 29 1011 70 10000 5.66 60 00:19 15.06.2022
1533 Clouds 29 1012 74 10000 4.63 70 23:38 14.06.2022
1534 Clouds 31 1010 60 10000 5.36 59 22:46 14.06.2022
1535 Clouds 30 1013 74 10000 4.02 52 21:43 14.06.2022
1536 Clouds 30 1011 63 10000 3.58 69 20:58 14.06.2022
1537 Clouds 30 1013 70 10000 4.02 74 20:38 14.06.2022
1538 Clouds 30 1011 61 10000 2.68 38 19:47 14.06.2022
1539 Clouds 28 1014 78 10000 3.13 58 18:33 14.06.2022
1540 Clouds 25 1014 94 6437 1.54 310 16:50 14.06.2022
1541 Clouds 25 1014 94 6437 1.79 336 16:25 14.06.2022
1542 Clouds 24 1013 100 8047 1.79 60 15:36 14.06.2022
1543 Clouds 24 1011 81 10000 2.74 328 14:53 14.06.2022
1544 Clouds 23 1010 81 10000 0.89 339 13:57 14.06.2022
1545 Clouds 23 1010 82 9817 1.79 338 12:58 14.06.2022
1546 Clouds 24 1010 81 9756 1.79 328 11:54 14.06.2022
1547 Clouds 24 1011 82 10000 2.24 347 10:51 14.06.2022
1548 Clouds 24 1011 82 8966 1.34 331 10:25 14.06.2022
1549 Clouds 25 1011 81 6282 2.68 275 08:52 14.06.2022
1550 Clouds 25 1011 79 5440 1.79 355 08:23 14.06.2022
1551 Clouds 26 1014 100 10000 1.54 240 06:19 14.06.2022
1552 Clouds 28 1012 78 9656 1.54 20 03:39 14.06.2022
1553 Clouds 29 1012 74 9656 5.14 30 01:36 14.06.2022
1554 Clouds 30 1010 59 10000 2.68 71 23:53 13.06.2022
1555 Clouds 29 1013 74 9656 4.12 60 22:39 13.06.2022
1556 Clouds 29 1013 74 9656 4.12 60 22:19 13.06.2022
1557 Clouds 29 1014 74 8047 4.63 50 21:24 13.06.2022
1558 Clouds 29 1012 66 10000 2.24 5 19:48 13.06.2022
1559 Clouds 28 1013 68 10000 1.79 323 18:52 13.06.2022
1560 Clouds 27 1013 78 10000 1.79 312 17:52 13.06.2022
1561 Clouds 25 1015 100 10000 3.13 302 17:21 13.06.2022
1562 Clouds 23 1015 100 10000 2.57 330 16:22 13.06.2022
1563 Clouds 26 1012 76 10000 4.47 46 14:48 13.06.2022
1564 Clouds 25 1012 94 9656 4.12 350 14:23 13.06.2022
1565 Clouds 26 1012 94 8047 3.09 350 13:28 13.06.2022
1566 Clouds 27 1010 77 10000 0.45 237 11:50 13.06.2022
1567 Clouds 27 1010 74 10000 0.45 275 10:36 13.06.2022
1568 Clouds 27 1011 75 10000 0.89 281 09:42 13.06.2022
1569 Clouds 27 1011 74 10000 0.9 68 08:34 13.06.2022
1570 Clouds 27 1013 83 10000 1.34 100 06:35 13.06.2022
1571 Clouds 27 1012 83 10000 2.57 50 04:35 13.06.2022
1572 Clouds 30 1008 62 10000 4.02 100 01:44 13.06.2022
1573 Clouds 29 1009 65 10000 6.17 70 01:18 13.06.2022
1574 Clouds 31 1010 62 10000 6.17 100 23:41 12.06.2022
1575 Clouds 31 1011 70 10000 4.92 92 22:36 12.06.2022
1576 Clouds 31 1009 57 10000 3.58 88 21:46 12.06.2022
1577 Clouds 32 1010 56 10000 3.13 101 20:49 12.06.2022
1578 Clouds 31 1011 57 10000 2.68 93 19:49 12.06.2022
1579 Clouds 31 1011 58 10000 3.13 69 18:53 12.06.2022
1580 Clouds 29 1014 74 8047 2.57 50 17:24 12.06.2022
1581 Clouds 28 1011 73 10000 0.89 323 15:44 12.06.2022
1582 Clouds 27 1011 77 10000 2.33 251 14:50 12.06.2022
1583 Clouds 26 1012 100 9656 1.54 280 14:18 12.06.2022
1584 Clouds 26 1012 94 8047 1.54 70 13:44 12.06.2022
1585 Clouds 27 1010 76 10000 0.45 94 12:22 12.06.2022
1586 Clouds 27 1010 76 10000 1.46 116 10:46 12.06.2022
1587 Clouds 27 1011 75 10000 1.34 102 09:42 12.06.2022
1588 Clouds 28 1011 73 10000 0.45 102 08:50 12.06.2022
1589 Clouds 28 1011 73 10000 1.34 120 07:52 12.06.2022
1590 Clear 28 1012 83 10000 2.06 90 06:27 12.06.2022
1591 Clouds 28 1008 71 10000 2.68 97 03:54 12.06.2022
1592 Clouds 30 1008 74 10000 5.14 90 02:25 12.06.2022
1593 Clear 31 1008 66 10000 5.14 80 01:35 12.06.2022
1594 Clear 32 1007 53 10000 4.02 121 00:44 12.06.2022
1595 Clear 32 1009 62 10000 4.02 99 00:18 12.06.2022
1596 Clear 32 1009 58 10000 4.02 94 23:18 11.06.2022
1597 Clear 32 1010 58 10000 4.12 120 22:35 11.06.2022
1598 Clear 31 1011 66 10000 4.63 70 21:18 11.06.2022
1599 Clear 31 1011 66 10000 4.63 70 21:18 11.06.2022
1600 Clouds 31 1012 66 10000 5.14 70 20:26 11.06.2022
1601 Clouds 32 1013 66 10000 4.12 60 19:33 11.06.2022
1602 Clear 32 1011 49 10000 1.34 59 18:43 11.06.2022
1603 Clouds 31 1013 66 9656 0 0 18:25 11.06.2022
1604 Clear 31 1011 54 10000 0.89 194 17:47 11.06.2022
1605 Clouds 30 1013 74 9656 0.89 105 17:25 11.06.2022
1606 Clear 29 1011 66 10000 0.89 146 16:42 11.06.2022
1607 Clouds 27 1013 89 8047 0.89 92 15:57 11.06.2022
1608 Clear 26 1011 79 10000 0.67 96 14:43 11.06.2022
1609 Clear 25 1012 100 9656 2.06 290 13:50 11.06.2022
1610 Clouds 25 1010 81 10000 0.56 66 11:46 11.06.2022
1611 Clouds 26 1010 79 10000 0.43 284 10:30 11.06.2022
1612 Clouds 27 1011 77 10000 0.45 250 09:41 11.06.2022
1613 Clouds 26 1014 100 10000 0.89 277 08:37 11.06.2022
1614 Clouds 27 1014 94 10000 1.34 267 06:32 11.06.2022
1615 Clouds 28 1013 83 10000 1.54 90 05:26 11.06.2022
1616 Clouds 29 1009 67 10000 1.34 126 02:42 11.06.2022
1617 Clear 30 1010 70 10000 4.12 60 01:41 11.06.2022
1618 Clouds 31 1008 58 10000 4.02 82 00:54 11.06.2022
1619 Clouds 32 1009 54 10000 3.13 74 22:55 10.06.2022
1620 Clouds 31 1011 66 10000 3.58 61 22:20 10.06.2022
1621 Clouds 31 1012 66 10000 0.89 15 21:22 10.06.2022
1622 Clouds 31 1014 66 10000 1.54 270 20:36 10.06.2022
1623 Clouds 31 1014 66 10000 1.54 270 20:18 10.06.2022
1624 Clouds 27 1014 83 10000 0.45 82 19:19 10.06.2022
1625 Mist 25 1015 100 1609 4.12 350 18:20 10.06.2022
1626 Clouds 25 1015 100 805 2.68 107 17:41 10.06.2022
1627 Mist 26 1015 100 8047 2.06 50 16:59 10.06.2022
1628 Mist 26 1015 100 8047 2.06 50 16:23 10.06.2022
1629 Haze 26 1014 94 8047 1.34 348 15:37 10.06.2022
1630 Mist 24 1013 100 9656 1.03 300 13:55 10.06.2022
1631 Clouds 25 1011 80 10000 0.45 310 12:48 10.06.2022
1632 Clouds 25 1010 80 10000 0.89 306 11:41 10.06.2022
1633 Clouds 26 1011 77 10000 0.89 296 10:44 10.06.2022
1634 Clouds 26 1011 79 9834 1.34 315 09:44 10.06.2022
1635 Clouds 26 1012 70 10000 3.13 344 08:30 10.06.2022
1636 Clouds 26 1012 75 10000 0.45 355 07:20 10.06.2022
1637 Clouds 26 1012 75 10000 1.79 346 06:43 10.06.2022
1638 Clouds 26 1014 83 10000 2.06 340 06:24 10.06.2022
1639 Clouds 27 1011 73 10000 1.79 323 03:50 10.06.2022
1640 Clouds 28 1012 74 10000 3.58 42 01:41 10.06.2022
1641 Clouds 28 1012 74 10000 3.09 60 00:28 10.06.2022
1642 Clouds 28 1012 74 10000 3.13 87 23:29 09.06.2022
1643 Clouds 28 1010 67 10000 0.89 315 21:58 09.06.2022
1644 Clouds 27 1012 78 10000 1.03 30 21:32 09.06.2022
1645 Clouds 27 1010 71 10000 0.89 349 20:54 09.06.2022
1646 Clouds 27 1010 71 10000 0.89 349 20:54 09.06.2022
1647 Clouds 25 1014 94 9656 1.54 270 19:59 09.06.2022
1648 Clouds 29 1012 67 10000 1.22 93 18:54 09.06.2022
1649 Clouds 24 1014 100 8047 1.54 320 18:21 09.06.2022
1650 Clouds 25 1014 100 2414 5.14 110 16:48 09.06.2022
1651 Clouds 26 1012 77 10000 1.84 257 15:47 09.06.2022
1652 Clouds 23 1012 100 8047 0 0 14:35 09.06.2022
1653 Clouds 24 1011 100 10000 0 0 13:48 09.06.2022
1654 Clouds 24 1011 100 10000 0 0 13:48 09.06.2022
1655 Clouds 24 1011 100 10000 0 0 13:26 09.06.2022
1656 Clouds 25 1010 78 10000 1.34 225 11:54 09.06.2022
1657 Clouds 26 1010 80 10000 1.34 192 10:51 09.06.2022
1658 Clouds 26 1010 79 10000 0.89 312 09:42 09.06.2022
1659 Clouds 26 1010 76 10000 4.38 199 09:23 09.06.2022
1660 Clouds 28 1011 73 10000 0.45 136 07:44 09.06.2022
1661 Clouds 28 1010 70 10000 1.34 87 05:46 09.06.2022
1662 Clouds 30 1007 61 10000 2.68 89 01:59 09.06.2022
1663 Clouds 31 1009 66 10000 4.12 110 23:34 08.06.2022
1664 Clouds 32 1007 53 10000 3.58 121 22:51 08.06.2022
1665 Clouds 31 1009 70 10000 3.6 70 22:26 08.06.2022
1666 Clouds 31 1008 61 10000 3.13 92 21:49 08.06.2022
1667 Clouds 32 1009 52 10000 3.58 94 20:43 08.06.2022
1668 Clouds 32 1009 50 10000 3.58 96 19:50 08.06.2022
1669 Clouds 32 1009 51 10000 2.68 124 18:58 08.06.2022
1670 Clouds 32 1009 52 10000 2.24 55 18:40 08.06.2022
1671 Clouds 27 1011 83 8047 2.06 160 16:34 08.06.2022
1672 Clouds 26 1011 94 8047 0.45 259 15:26 08.06.2022
1673 Clouds 25 1010 100 8047 1.54 250 13:36 08.06.2022
1674 Clouds 26 1008 76 10000 0.45 206 11:51 08.06.2022
1675 Clouds 27 1008 76 10000 0.89 183 11:24 08.06.2022
1676 Clouds 27 1008 75 10000 1.88 141 09:47 08.06.2022
1677 Clouds 27 1008 75 10000 0.45 336 09:20 08.06.2022
1678 Clouds 27 1009 76 10000 0.45 325 08:18 08.06.2022
1679 Clear 28 1010 78 10000 2.24 78 05:22 08.06.2022
1680 Clouds 33 1007 49 10000 5.14 60 02:38 08.06.2022
1681 Clouds 34 1007 49 10000 4.12 80 23:42 07.06.2022
1682 Clouds 34 1007 49 10000 4.12 80 23:24 07.06.2022
1683 Clouds 33 1008 52 9656 6.17 80 22:39 07.06.2022
1684 Clouds 35 1006 39 10000 4.92 84 21:59 07.06.2022
1685 Clouds 33 1008 58 8047 5.36 88 21:27 07.06.2022
1686 Clouds 33 1006 51 10000 4.02 121 20:46 07.06.2022
1687 Clouds 32 1009 58 9656 4.12 110 20:24 07.06.2022
1688 Clouds 32 1009 62 9656 2.57 150 19:19 07.06.2022
1689 Clouds 30 1008 62 10000 0.45 165 17:55 07.06.2022
1690 Clouds 28 1008 67 10000 2.24 188 16:56 07.06.2022
1691 Clouds 26 1009 83 8047 4.12 170 16:33 07.06.2022
1692 Clouds 25 1009 83 8047 2.68 204 15:40 07.06.2022
1693 Clouds 25 1009 83 8047 1.79 198 15:22 07.06.2022
1694 Clouds 24 1009 88 8047 0.45 205 14:46 07.06.2022
1695 Clouds 24 1008 88 8047 1.54 180 13:46 07.06.2022
1696 Clouds 24 1008 88 8047 1.54 180 13:46 07.06.2022
1697 Clouds 24 1008 88 8047 1.54 180 13:27 07.06.2022
1698 Clouds 26 1006 69 10000 0.89 129 12:22 07.06.2022
1699 Clouds 26 1006 66 10000 0.45 134 10:57 07.06.2022
1700 Clouds 27 1007 67 10000 0.45 188 09:46 07.06.2022
1701 Clouds 27 1007 72 10000 0.89 144 08:31 07.06.2022
1702 Clouds 27 1009 94 9656 0 0 07:21 07.06.2022
1703 Clouds 27 1007 76 10000 2.16 135 05:47 07.06.2022
1704 Clouds 31 1004 61 10000 3.58 102 01:44 07.06.2022
1705 Clouds 32 1005 62 10000 5.66 70 00:20 07.06.2022
1706 Clouds 32 1006 62 8047 4.92 83 23:25 06.06.2022
1707 Clouds 32 1006 62 8047 5.14 80 22:37 06.06.2022
1708 Clouds 32 1007 62 8047 6.17 80 21:36 06.06.2022
1709 Clouds 33 1006 49 10000 2.68 129 19:53 06.06.2022
1710 Clouds 30 1009 66 8047 2.57 150 19:19 06.06.2022
1711 Clouds 30 1009 66 9656 5.14 140 18:34 06.06.2022
1712 Clouds 28 1009 74 9656 4.63 150 17:36 06.06.2022
1713 Clouds 26 1009 89 10000 2.68 165 16:33 06.06.2022
1714 Clouds 25 1009 88 9656 2.06 160 15:33 06.06.2022
1715 Clouds 24 1008 88 9656 1.54 160 14:39 06.06.2022
1716 Clear 25 1008 88 9656 0.89 189 13:27 06.06.2022
1717 Clouds 26 1006 70 10000 0.89 148 12:37 06.06.2022
1718 Clouds 26 1006 74 10000 4.02 165 11:58 06.06.2022
1719 Clouds 26 1006 74 10000 2.87 169 11:28 06.06.2022
1720 Clouds 26 1006 72 10000 2.08 176 09:40 06.06.2022
1721 Clouds 25 1007 72 10000 2.43 142 08:35 06.06.2022
1722 Clear 27 1009 74 10000 0.45 216 07:28 06.06.2022
1723 Clear 28 1008 69 10000 2.06 70 05:29 06.06.2022
1724 Clear 28 1008 69 10000 2.06 70 05:29 06.06.2022
1725 Clear 28 1008 69 10000 2.06 70 05:29 06.06.2022
1726 Clouds 28 1007 74 10000 3.6 80 03:44 06.06.2022
1727 Clear 30 1006 66 10000 5.66 70 01:23 06.06.2022
1728 Clouds 31 1006 62 10000 5.36 104 00:42 06.06.2022
1729 Clouds 32 1006 58 10000 5.81 113 23:44 05.06.2022
1730 Clouds 33 1005 44 10000 4.92 103 22:47 05.06.2022
1731 Clouds 33 1006 49 10000 4.47 87 20:57 05.06.2022
1732 Clouds 33 1007 42 10000 2.24 143 19:50 05.06.2022
1733 Clear 29 1010 65 10000 2.57 170 18:30 05.06.2022
1734 Clear 29 1010 65 10000 2.57 170 18:30 05.06.2022
1735 Clouds 30 1008 55 10000 2.68 181 17:55 05.06.2022
1736 Clouds 29 1010 70 10000 3.6 170 17:26 05.06.2022
1737 Clouds 29 1008 61 10000 1.79 203 16:52 05.06.2022
1738 Clouds 27 1010 78 10000 1.54 250 16:34 05.06.2022
1739 Clouds 23 1009 94 9656 1.54 240 14:34 05.06.2022
1740 Clouds 24 1008 76 10000 0.45 247 12:57 05.06.2022
1741 Clouds 24 1007 77 10000 0.45 215 11:49 05.06.2022
1742 Clouds 25 1007 75 10000 0.45 213 10:42 05.06.2022
1743 Clouds 25 1007 74 10000 0.45 213 10:20 05.06.2022
1744 Clouds 26 1008 71 10000 0.89 217 08:34 05.06.2022
1745 Clear 25 1009 73 10000 0.45 220 07:48 05.06.2022
1746 Clouds 27 1010 74 10000 0.45 126 05:22 05.06.2022
1747 Clouds 27 1009 74 10000 2.06 70 04:19 05.06.2022
1748 Clear 30 1009 62 10000 6.17 40 01:32 05.06.2022
1749 Clear 30 1009 62 10000 6.17 40 01:32 05.06.2022
1750 Clear 30 1009 62 10000 5.14 60 00:39 05.06.2022
1751 Clouds 31 1010 55 10000 5.14 40 22:36 04.06.2022
1752 Clouds 31 1011 58 10000 4.02 106 20:33 04.06.2022
1753 Clear 32 1010 45 10000 2.68 113 18:45 04.06.2022
1754 Clear 29 1010 57 10000 0.45 100 16:47 04.06.2022
1755 Clear 27 1012 78 10000 1.79 230 16:18 04.06.2022
1756 Clear 25 1009 77 10000 0.89 208 14:53 04.06.2022
1757 Clear 23 1008 78 10000 1.25 258 12:38 04.06.2022
1758 Clear 25 1009 75 10000 1.17 266 11:19 04.06.2022
1759 Clear 25 1009 75 10000 0.45 264 10:44 04.06.2022
1760 Clear 25 1009 76 10000 0.45 257 09:45 04.06.2022
1761 Clear 25 1010 74 10000 0.45 253 08:43 04.06.2022
1762 Clouds 27 1010 66 10000 0.45 348 07:42 04.06.2022
1763 Clouds 27 1011 74 10000 2.24 53 05:30 04.06.2022
1764 Clear 30 1008 57 10000 3.58 87 01:42 04.06.2022
1765 Clear 30 1009 62 10000 5.14 80 00:19 04.06.2022
1766 Clouds 31 1011 55 10000 5.66 80 22:40 03.06.2022
1767 Clouds 31 1011 62 10000 4.63 60 21:39 03.06.2022
1768 Clouds 31 1011 62 10000 5.14 40 20:37 03.06.2022
1769 Clouds 31 1011 62 10000 5.14 40 20:37 03.06.2022
1770 Clouds 30 1012 62 10000 1.54 360 18:41 03.06.2022
1771 Clear 29 1010 58 10000 0.89 293 16:49 03.06.2022
1772 Mist 24 1011 94 10000 1.54 290 15:37 03.06.2022
1773 Clear 23 1011 100 9656 1.03 240 13:48 03.06.2022
1774 Clear 24 1008 80 10000 0.45 274 11:50 03.06.2022
1775 Clear 25 1009 75 10000 1.79 255 09:50 03.06.2022
1776 Clear 25 1010 75 10000 0.89 273 09:28 03.06.2022
1777 Clouds 26 1012 89 10000 1.54 30 07:27 03.06.2022
1778 Clear 28 1010 68 10000 1.79 23 06:44 03.06.2022
1779 Clouds 27 1012 83 10000 1.54 340 06:26 03.06.2022
1780 Clouds 29 1009 74 10000 4.47 20 01:23 03.06.2022
1781 Clouds 30 1009 70 10000 6.26 19 23:31 02.06.2022
1782 Clouds 31 1008 54 10000 6.26 40 21:57 02.06.2022
1783 Clouds 30 1011 70 10000 6.17 350 20:25 02.06.2022
1784 Clouds 31 1009 58 10000 6.26 43 19:52 02.06.2022
1785 Clouds 30 1012 70 10000 7.72 360 19:33 02.06.2022
1786 Clouds 28 1010 76 10000 5.36 19 17:59 02.06.2022
1787 Clouds 25 1010 80 8996 1.79 360 16:28 02.06.2022
1788 Clouds 24 1010 94 3219 3.13 5 14:58 02.06.2022
1789 Clouds 23 1010 100 3219 3.6 360 13:30 02.06.2022
1790 Clouds 25 1008 82 10000 0.89 342 12:42 02.06.2022
1791 Clouds 25 1008 80 9294 2.24 36 10:31 02.06.2022
1792 Clouds 24 1008 81 10000 2.24 322 09:28 02.06.2022
1793 Clouds 25 1008 78 10000 3.58 319 08:29 02.06.2022
1794 Clouds 26 1008 77 10000 0.45 311 07:48 02.06.2022
1795 Clouds 28 1009 78 10000 4.12 20 05:33 02.06.2022
1796 Clouds 28 1007 66 10000 4.47 36 03:48 02.06.2022
1797 Clouds 31 1007 70 10000 6.69 20 00:31 02.06.2022
1798 Clouds 31 1006 58 10000 6.71 5 22:55 01.06.2022
1799 Clouds 31 1007 56 10000 4.92 49 21:45 01.06.2022
1800 Clouds 31 1009 62 10000 7.2 40 21:22 01.06.2022
1801 Clouds 31 1009 62 10000 4.63 10 20:38 01.06.2022
1802 Clouds 32 1008 50 10000 4.02 38 19:48 01.06.2022
1803 Clouds 32 1010 55 10000 3.58 30 18:19 01.06.2022
1804 Clouds 30 1008 55 10000 0.45 266 16:46 01.06.2022
1805 Clouds 23 1009 94 9656 1.34 348 15:39 01.06.2022
1806 Clouds 23 1008 94 10000 0 0 14:31 01.06.2022
1807 Clouds 23 1007 78 10000 0.45 188 12:42 01.06.2022
1808 Clouds 23 1007 79 10000 0.89 223 10:41 01.06.2022
1809 Clouds 25 1008 77 10000 0.45 148 09:26 01.06.2022
1810 Clouds 24 1008 77 10000 1.34 236 07:56 01.06.2022
1811 Clouds 26 1011 78 10000 0.89 227 06:41 01.06.2022
1812 Clouds 29 1007 65 10000 6.17 110 01:30 01.06.2022
1813 Clouds 30 1007 62 10000 5.66 80 23:41 31.05.2022
1814 Clouds 32 1007 55 10000 5.14 70 22:37 31.05.2022
1815 Clouds 28 1007 68 10000 5.58 78 21:46 31.05.2022
1816 Clouds 28 1007 68 10000 5.58 78 21:46 31.05.2022
1817 Clouds 31 1006 54 10000 0.89 150 20:52 31.05.2022
1818 Clouds 30 1009 70 10000 3.09 260 20:31 31.05.2022
1819 Clouds 27 1009 74 10000 1.34 194 18:54 31.05.2022
1820 Clouds 26 1009 77 10000 1.34 225 17:51 31.05.2022
1821 Clouds 24 1010 100 10000 2.24 238 17:20 31.05.2022
1822 Clouds 24 1010 100 3219 0 0 15:42 31.05.2022
1823 Clouds 24 1009 94 2414 2.57 170 14:33 31.05.2022
1824 Clouds 25 1006 77 10000 0.89 192 12:22 31.05.2022
1825 Clouds 25 1006 76 10000 0.45 189 11:23 31.05.2022
1826 Clouds 26 1006 72 10000 0.89 138 09:49 31.05.2022
1827 Clouds 26 1007 75 10000 0.45 180 07:36 31.05.2022
1828 Clouds 27 1007 83 10000 2.57 150 05:24 31.05.2022
1829 Clouds 29 1005 74 9656 1.54 170 01:42 31.05.2022
1830 Clouds 31 1005 66 9656 5.14 150 23:29 30.05.2022
1831 Clouds 31 1003 57 10000 3.13 95 22:57 30.05.2022
1832 Clouds 30 1005 66 9656 2.68 109 22:21 30.05.2022
1833 Clouds 31 1006 62 9656 2.24 207 21:34 30.05.2022
1834 Clouds 29 1006 65 8047 1.54 190 20:20 30.05.2022
1835 Clouds 28 1005 60 10000 2.68 196 18:58 30.05.2022
1836 Clouds 27 1005 62 10000 1.34 186 17:41 30.05.2022
1837 Clouds 27 1005 63 10000 0.89 140 16:45 30.05.2022
1838 Clouds 26 1007 78 9656 2.57 150 15:22 30.05.2022
1839 Clouds 27 1005 67 10000 0.45 188 12:37 30.05.2022
1840 Clouds 27 1005 75 10000 1.79 120 10:47 30.05.2022
1841 Clouds 27 1006 74 10000 0.89 134 09:39 30.05.2022
1842 Clouds 28 1006 72 10000 0.45 161 07:23 30.05.2022
1843 Clouds 27 1006 71 10000 1.79 112 05:50 30.05.2022
1844 Clouds 29 1005 74 10000 4.92 126 02:24 30.05.2022
1845 Clouds 32 1006 58 10000 5.66 100 23:23 29.05.2022
1846 Clouds 32 1007 62 10000 5.36 63 22:39 29.05.2022
1847 Clouds 32 1008 58 10000 4.92 105 21:19 29.05.2022
1848 Clouds 31 1010 62 10000 4.63 110 19:38 29.05.2022
1849 Clouds 31 1010 62 10000 4.63 110 19:18 29.05.2022
1850 Clouds 29 1011 70 9656 2.57 190 17:32 29.05.2022
1851 Clouds 28 1009 69 10000 1.34 190 15:49 29.05.2022
1852 Clouds 25 1010 94 8047 1.34 209 15:23 29.05.2022
1853 Clouds 24 1009 100 8047 0.45 221 14:19 29.05.2022
1854 Clouds 25 1008 79 10000 0.45 206 11:48 29.05.2022
1855 Clouds 25 1008 78 10000 0.45 206 10:42 29.05.2022
1856 Clouds 25 1009 78 10000 1.74 162 09:51 29.05.2022
1857 Clouds 26 1010 74 10000 2.08 111 06:51 29.05.2022
1858 Clouds 26 1010 73 10000 2.76 91 04:47 29.05.2022
1859 Clouds 27 1011 83 10000 1.54 130 04:19 29.05.2022
1860 Clouds 31 1008 51 10000 4.47 103 23:59 28.05.2022
1861 Clouds 31 1011 58 10000 4.12 100 23:39 28.05.2022
1862 Clouds 31 1011 66 10000 3.58 94 22:40 28.05.2022
1863 Clouds 32 1012 62 10000 3.09 70 21:40 28.05.2022
1864 Clouds 32 1011 46 10000 1.34 298 19:51 28.05.2022
1865 Clouds 31 1012 56 10000 1.79 222 18:58 28.05.2022
1866 Clouds 26 1014 94 10000 0 0 17:44 28.05.2022
1867 Clouds 25 1014 100 9656 1.79 254 16:50 28.05.2022
1868 Clouds 24 1014 100 9656 1.54 90 15:44 28.05.2022
1869 Mist 24 1012 94 8047 0 0 14:35 28.05.2022
1870 Clouds 24 1012 94 9656 1.54 160 13:21 28.05.2022
1871 Clouds 25 1011 78 10000 1.79 133 12:39 28.05.2022
1872 Clouds 26 1011 79 10000 0.45 319 11:23 28.05.2022
1873 Clouds 26 1011 76 10000 0.89 275 10:25 28.05.2022
1874 Clouds 25 1012 76 10000 1.34 269 09:22 28.05.2022
1875 Clouds 27 1015 89 10000 0.45 213 07:23 28.05.2022
1876 Clouds 27 1015 89 10000 2.57 70 06:26 28.05.2022
1877 Clouds 29 1012 64 10000 3.58 93 03:48 28.05.2022
1878 Clouds 30 1012 74 10000 6.17 20 00:33 28.05.2022
1879 Clouds 32 1013 62 9656 8.23 10 23:34 27.05.2022
1880 Clouds 32 1011 51 10000 5.36 64 21:50 27.05.2022
1881 Clouds 32 1012 53 10000 5.36 69 20:57 27.05.2022
1882 Clouds 32 1014 62 9656 6.69 20 20:26 27.05.2022
1883 Clouds 32 1013 52 10000 4.47 36 19:51 27.05.2022
1884 Clouds 31 1015 66 9656 5.36 70 19:32 27.05.2022
1885 Clouds 29 1015 70 9656 1.03 170 18:24 27.05.2022
1886 Mist 25 1016 94 9656 2.06 190 16:40 27.05.2022
1887 Mist 24 1015 100 9656 2.24 210 15:33 27.05.2022
1888 Mist 24 1014 100 9656 1.34 225 14:44 27.05.2022
1889 Clouds 24 1014 100 9656 1.54 270 13:23 27.05.2022
1890 Clouds 27 1012 64 10000 2.96 349 11:34 27.05.2022
1891 Clouds 27 1011 64 10000 0.89 355 10:57 27.05.2022
1892 Clouds 27 1011 63 10000 2.89 338 10:31 27.05.2022
1893 Clouds 27 1012 61 10000 0.45 277 09:37 27.05.2022
1894 Clouds 28 1013 57 10000 0.45 5 07:55 27.05.2022
1895 Clouds 29 1013 57 10000 1.79 42 05:47 27.05.2022
1896 Clouds 30 1011 56 10000 4.02 74 02:47 27.05.2022
1897 Clouds 31 1011 70 9656 6.17 360 00:29 27.05.2022
1898 Clouds 33 1012 62 8047 5.66 50 22:43 26.05.2022
1899 Clouds 32 1013 62 8047 4.63 350 21:40 26.05.2022
1900 Clouds 33 1011 45 10000 4.47 32 20:53 26.05.2022
1901 Clouds 32 1014 62 9656 6.17 10 19:24 26.05.2022
1902 Clouds 31 1014 66 8047 4.12 360 18:18 26.05.2022
1903 Clouds 31 1012 53 10000 3.13 39 16:42 26.05.2022
1904 Haze 28 1013 94 6437 4.02 26 15:46 26.05.2022
1905 Mist 26 1012 100 2414 1.34 5 14:43 26.05.2022
1906 Clouds 27 1010 65 10000 0.89 5 12:37 26.05.2022
1907 Clouds 28 1009 63 10000 1.79 311 11:24 26.05.2022
1908 Clouds 29 1010 59 10000 0.89 55 09:44 26.05.2022
1909 Clouds 29 1010 59 10000 1.34 58 09:26 26.05.2022
1910 Clouds 29 1011 59 10000 1.79 50 08:30 26.05.2022
1911 Clouds 29 1009 84 9656 3.6 20 04:41 26.05.2022
1912 Clouds 33 1005 55 9656 4.47 46 00:48 26.05.2022
1913 Clear 33 1005 58 9656 4.63 60 23:40 25.05.2022
1914 Clouds 36 1004 35 10000 4.02 63 21:59 25.05.2022
1915 Clear 34 1006 52 8047 4.12 20 21:32 25.05.2022
1916 Clear 34 1006 52 8047 3.13 96 20:35 25.05.2022
1917 Clouds 33 1007 55 9656 1.79 150 19:24 25.05.2022
1918 Clouds 31 1005 45 10000 1.79 224 17:43 25.05.2022
1919 Clouds 28 1007 74 9656 2.68 137 16:38 25.05.2022
1920 Clouds 28 1005 51 10000 1.34 160 15:54 25.05.2022
1921 Clouds 26 1004 59 10000 0.89 138 14:51 25.05.2022
1922 Clouds 25 1005 88 8047 0.89 138 14:33 25.05.2022
1923 Clouds 25 1005 94 8047 1.54 160 13:45 25.05.2022
1924 Clouds 26 1003 61 10000 3.41 191 12:38 25.05.2022
1925 Clouds 26 1004 62 10000 4.68 164 10:43 25.05.2022
1926 Clouds 26 1004 61 10000 4.53 164 09:54 25.05.2022
1927 Clouds 27 1005 60 10000 3.72 149 08:37 25.05.2022
1928 Clouds 27 1006 59 10000 0.45 115 07:23 25.05.2022
1929 Clouds 28 1006 78 10000 4.12 60 03:34 25.05.2022
1930 Clouds 31 1003 48 10000 4.92 97 23:56 24.05.2022
1931 Clear 31 1005 66 10000 5.66 70 23:31 24.05.2022
1932 Clear 31 1006 62 9656 6.69 80 22:21 24.05.2022
1933 Clouds 31 1007 62 9656 5.81 89 21:40 24.05.2022
1934 Clouds 31 1007 62 9656 5.36 98 21:20 24.05.2022
1935 Clouds 31 1008 62 9656 4.63 150 19:45 24.05.2022
1936 Clouds 32 1007 43 10000 2.68 121 18:54 24.05.2022
1937 Clouds 30 1007 51 10000 1.34 155 16:45 24.05.2022
1938 Clouds 28 1008 78 8047 1.34 196 16:23 24.05.2022
1939 Clouds 25 1007 66 10000 0.89 260 14:58 24.05.2022
1940 Clouds 25 1008 94 9656 1.34 254 14:21 24.05.2022
1941 Clouds 25 1006 66 10000 0.98 111 12:49 24.05.2022
1942 Clouds 25 1007 65 10000 1.51 122 11:33 24.05.2022
1943 Clouds 25 1007 62 10000 1.58 100 09:45 24.05.2022
1944 Clouds 26 1008 61 10000 1.15 109 08:50 24.05.2022
1945 Clouds 27 1009 60 10000 0.89 286 06:57 24.05.2022
1946 Clouds 28 1011 74 10000 2.57 60 04:20 24.05.2022
1947 Clear 30 1007 52 10000 1.79 60 01:55 24.05.2022
1948 Clouds 29 1009 74 10000 4.12 40 01:36 24.05.2022
1949 Clear 31 1010 62 10000 6.69 70 23:31 23.05.2022
1950 Clear 32 1009 41 10000 5.36 64 21:56 23.05.2022
1951 Clouds 32 1011 51 10000 6.71 42 21:29 23.05.2022
1952 Clouds 32 1012 55 10000 6.17 360 20:35 23.05.2022
1953 Clouds 30 1012 58 10000 4.47 49 19:32 23.05.2022
1954 Clear 31 1010 46 10000 4.02 5 18:59 23.05.2022
1955 Clouds 27 1013 83 10000 2.68 316 18:31 23.05.2022
1956 Clouds 24 1014 100 10000 0 0 17:24 23.05.2022
1957 Clouds 23 1014 100 8047 2.57 180 15:31 23.05.2022
1958 Clouds 23 1014 100 6437 3.09 120 13:22 23.05.2022
1959 Clouds 28 1011 63 10000 1.34 329 11:33 23.05.2022
1960 Clouds 28 1012 60 10000 2.24 338 10:31 23.05.2022
1961 Clear 26 1014 82 10000 0.87 349 09:39 23.05.2022
1962 Clouds 26 1015 83 10000 1.08 99 08:32 23.05.2022
1963 Clear 30 1014 57 10000 4.92 46 06:46 23.05.2022
1964 Clouds 29 1015 84 9656 5.66 360 05:39 23.05.2022
1965 Clouds 30 1010 66 10000 6.17 360 02:34 23.05.2022
1966 Clouds 32 1010 45 10000 6.17 40 01:39 23.05.2022
1967 Smoke 34 1010 38 10000 5.14 40 00:23 23.05.2022
1968 Clear 36 1011 30 10000 3.58 100 22:40 22.05.2022
1969 Clear 36 1009 14 10000 2.24 63 21:55 22.05.2022
1970 Clear 36 1012 32 9656 3.13 142 21:32 22.05.2022
1971 Clear 35 1012 31 9656 4.02 40 20:32 22.05.2022
1972 Clear 35 1011 18 10000 2.68 74 19:56 22.05.2022
1973 Clear 34 1011 30 10000 2.24 93 18:56 22.05.2022
1974 Clear 31 1013 58 9656 1.79 86 18:25 22.05.2022
1975 Clear 30 1012 62 9656 3.09 110 17:37 22.05.2022
1976 Clear 27 1012 69 9656 2.57 170 16:39 22.05.2022
1977 Clear 25 1009 56 10000 0.45 223 14:53 22.05.2022
1978 Clear 24 1010 78 9656 2.06 240 13:54 22.05.2022
1979 Clear 25 1008 54 10000 0.89 214 12:52 22.05.2022
1980 Clear 25 1008 52 10000 0.45 223 11:47 22.05.2022
1981 Clear 27 1008 48 10000 0.89 190 09:46 22.05.2022
1982 Clear 27 1008 47 10000 1.34 192 09:18 22.05.2022
1983 Clouds 27 1008 58 10000 2.75 152 07:22 22.05.2022
1984 Clear 27 1010 83 10000 0 0 06:24 22.05.2022
1985 Smoke 31 1006 58 9656 2.57 50 02:33 22.05.2022
1986 Clear 34 1004 34 10000 4.02 102 00:44 22.05.2022
1987 Clear 31 1005 62 10000 4.93 44 23:55 21.05.2022
1988 Clear 35 1006 43 9656 6.17 110 23:21 21.05.2022
1989 Clear 38 1006 37 8047 6.17 110 21:47 21.05.2022
1990 Clear 38 1006 37 8047 6.17 110 21:26 21.05.2022
1991 Clear 37 1007 39 9656 7.72 180 20:25 21.05.2022
1992 Clear 34 1007 46 9656 4.63 150 19:43 21.05.2022
1993 Clear 31 1008 55 10000 4.12 150 18:21 21.05.2022
1994 Clouds 30 1006 42 10000 3.13 195 16:55 21.05.2022
1995 Clouds 24 1007 78 9656 2.57 220 14:38 21.05.2022
1996 Clear 24 1006 78 10000 1.54 230 13:53 21.05.2022
1997 Clouds 24 1005 55 10000 0.45 216 12:57 21.05.2022
1998 Clouds 24 1005 55 10000 0.89 202 12:37 21.05.2022
1999 Clouds 25 1004 50 10000 0.45 200 10:45 21.05.2022
2000 Clouds 26 1005 49 10000 0.45 192 09:49 21.05.2022
2001 Clouds 27 1005 47 10000 1.34 194 08:58 21.05.2022
2002 Clouds 27 1005 47 10000 1.79 191 08:34 21.05.2022
2003 Clouds 28 1004 56 10000 1.97 86 05:28 21.05.2022
2004 Clouds 33 1001 36 10000 4.02 94 00:58 21.05.2022
2005 Clear 33 1003 55 9656 5.36 104 23:22 20.05.2022
2006 Clear 35 1004 49 9656 6.26 113 22:24 20.05.2022
2007 Clouds 35 1002 34 10000 5.81 112 21:49 20.05.2022
2008 Clouds 36 1002 31 10000 4.47 73 20:58 20.05.2022
2009 Clear 35 1005 49 9656 5.36 80 20:29 20.05.2022
2010 Clear 33 1006 55 9656 3.09 120 19:27 20.05.2022
2011 Clouds 33 1004 37 10000 2.24 171 18:47 20.05.2022
2012 Clear 29 1006 65 9656 3.09 150 17:37 20.05.2022
2013 Clear 28 1006 69 8047 3.13 217 16:20 20.05.2022
2014 Clouds 28 1005 51 10000 3.13 174 15:53 20.05.2022
2015 Mist 25 1006 83 8047 2.06 210 14:31 20.05.2022
2016 Clear 25 1006 83 9656 1.03 200 13:55 20.05.2022
2017 Clouds 26 1004 56 10000 0.45 205 11:38 20.05.2022
2018 Clouds 27 1004 55 10000 1.34 199 10:19 20.05.2022
2019 Clouds 27 1005 60 10000 3.58 162 08:45 20.05.2022
2020 Clear 27 1006 59 10000 1.17 77 07:18 20.05.2022
2021 Clear 27 1007 83 9656 0 0 06:34 20.05.2022
2022 Clear 29 1005 57 10000 1.79 126 04:59 20.05.2022
2023 Clear 33 1003 45 10000 4.02 82 00:54 20.05.2022
2024 Clear 35 1004 37 10000 3.58 97 22:48 19.05.2022
2025 Clear 35 1006 49 6437 6.17 100 22:21 19.05.2022
2026 Clear 35 1005 38 10000 4.02 123 21:48 19.05.2022
2027 Clear 34 1007 52 6437 3.13 103 21:22 19.05.2022
2028 Clouds 32 1008 58 6437 4.02 78 20:34 19.05.2022
2029 Clouds 33 1007 39 10000 4.47 96 19:52 19.05.2022
2030 Clouds 31 1010 62 6437 4.02 138 18:31 19.05.2022
2031 Clouds 30 1009 49 10000 2.24 190 16:51 19.05.2022
2032 Haze 26 1011 83 6437 1.54 140 15:19 19.05.2022
2033 Mist 25 1010 94 4828 0 0 14:25 19.05.2022
2034 Clear 24 1010 94 8047 0 0 13:23 19.05.2022
2035 Clear 27 1009 58 10000 0.89 252 11:29 19.05.2022
2036 Clear 27 1010 60 10000 0.89 277 09:28 19.05.2022
2037 Clear 26 1011 59 10000 0.45 144 07:50 19.05.2022
2038 Clouds 27 1013 83 10000 0 0 06:18 19.05.2022
2039 Clear 29 1010 70 9656 4.12 60 02:23 19.05.2022
2040 Clear 32 1008 36 10000 4.92 117 23:57 18.05.2022
2041 Clear 33 1009 31 10000 4.47 101 22:47 18.05.2022
2042 Clear 32 1011 55 8047 4.12 60 22:24 18.05.2022
2043 Clear 33 1012 52 6437 4.47 100 21:30 18.05.2022
2044 Clear 33 1010 38 10000 3.58 116 20:47 18.05.2022
2045 Clear 33 1013 49 6437 3.6 150 20:18 18.05.2022
2046 Clouds 29 1015 70 6437 3.13 89 18:33 18.05.2022
2047 Clouds 27 1015 78 8047 0.89 130 17:41 18.05.2022
2048 Clouds 27 1015 78 8047 1.79 154 17:23 18.05.2022
2049 Haze 26 1015 83 6437 1.34 138 16:34 18.05.2022
2050 Clouds 25 1013 66 10000 1.58 188 15:41 18.05.2022
2051 Clear 23 1014 100 8047 1.54 260 14:35 18.05.2022
2052 Clouds 23 1014 100 8047 1.54 260 13:41 18.05.2022
2053 Clouds 24 1012 63 10000 1.31 89 12:43 18.05.2022
2054 Clouds 24 1012 62 10000 0.92 56 11:34 18.05.2022
2055 Clouds 25 1012 62 10000 0.63 24 10:56 18.05.2022
2056 Clouds 25 1012 62 10000 0.63 24 10:56 18.05.2022
2057 Clouds 25 1013 59 10000 0.33 76 09:31 18.05.2022
2058 Clouds 26 1016 83 10000 0 0 07:36 18.05.2022
2059 Clouds 27 1016 83 10000 2.57 60 06:41 18.05.2022
2060 Clear 30 1012 66 8047 6.17 90 01:22 18.05.2022
2061 Clouds 31 1012 62 9656 6.17 90 00:22 18.05.2022
2062 Clear 34 1011 37 10000 4.02 83 21:57 17.05.2022
2063 Clear 34 1014 49 8047 4.02 92 21:20 17.05.2022
2064 Clear 33 1015 49 8047 2.68 194 20:19 17.05.2022
2065 Clear 32 1015 55 9656 5.14 160 19:28 17.05.2022
2066 Clear 30 1014 45 10000 2.24 178 17:51 17.05.2022
2067 Clear 29 1014 49 10000 1.79 223 16:59 17.05.2022
2068 Clear 27 1016 78 8047 2.24 227 16:29 17.05.2022
2069 Clear 23 1015 100 8047 2.24 248 15:25 17.05.2022
2070 Clear 23 1015 94 9656 1.54 220 14:30 17.05.2022
2071 Clear 24 1015 88 10000 0 0 13:35 17.05.2022
2072 Clear 24 1013 61 10000 0.33 133 11:43 17.05.2022
2073 Clear 26 1014 57 10000 0.89 209 09:27 17.05.2022
2074 Clear 27 1014 56 10000 2.13 98 08:25 17.05.2022
2075 Clouds 27 1015 78 10000 2.57 50 06:46 17.05.2022
2076 Clouds 27 1013 74 10000 3.09 50 03:41 17.05.2022
2077 Clear 32 1010 35 10000 4.92 95 00:43 17.05.2022
2078 Clear 32 1011 33 10000 4.92 90 22:43 16.05.2022
2079 Clear 32 1014 51 9656 6.17 80 21:41 16.05.2022
2080 Clear 32 1012 35 10000 4.47 95 20:47 16.05.2022
2081 Clouds 30 1016 58 9656 2.57 100 19:43 16.05.2022
2082 Clouds 29 1016 61 9656 1.34 165 18:20 16.05.2022
2083 Clouds 27 1014 52 10000 2.68 171 15:49 16.05.2022
2084 Clouds 24 1014 88 9656 0.45 175 13:49 16.05.2022
2085 Clouds 24 1014 88 9656 0.89 169 13:20 16.05.2022
2086 Clear 25 1011 58 10000 0.89 205 11:20 16.05.2022
2087 Clear 25 1012 57 10000 0.87 159 09:30 16.05.2022
2088 Clouds 28 1013 51 10000 1.34 49 06:47 16.05.2022
2089 Clear 28 1013 69 10000 3.6 60 03:31 16.05.2022
2090 Clear 31 1013 55 10000 5.14 80 23:26 15.05.2022
2091 Clear 32 1013 51 10000 5.14 60 22:29 15.05.2022
2092 Clouds 31 1014 55 10000 5.14 30 21:44 15.05.2022
2093 Clear 32 1012 38 10000 4.02 77 20:54 15.05.2022
2094 Clouds 31 1015 58 9656 3.6 60 19:28 15.05.2022
2095 Clear 30 1014 47 10000 3.13 51 17:51 15.05.2022
2096 Clear 27 1013 56 10000 0.45 288 15:56 15.05.2022
2097 Clouds 24 1013 94 8047 1.54 280 13:54 15.05.2022
2098 Clouds 26 1011 58 10000 0.61 323 12:26 15.05.2022
2099 Clouds 25 1011 59 10000 1.34 292 11:38 15.05.2022
2100 Clouds 25 1011 59 10000 1.13 36 10:25 15.05.2022
2101 Clouds 26 1013 57 10000 1.32 36 08:32 15.05.2022
2102 Clouds 28 1013 53 10000 2.24 32 06:58 15.05.2022
2103 Clouds 28 1014 69 10000 4.63 20 05:33 15.05.2022
2104 Clear 30 1008 49 10000 4.47 51 00:49 15.05.2022
2105 Clear 31 1011 58 10000 7.72 50 23:38 14.05.2022
2106 Clear 31 1011 58 10000 4.47 99 22:45 14.05.2022
2107 Clouds 32 1012 55 10000 5.36 63 21:28 14.05.2022
2108 Clouds 31 1013 58 10000 4.92 84 20:44 14.05.2022
2109 Clouds 31 1014 58 10000 3.13 88 19:37 14.05.2022
2110 Clouds 31 1014 58 10000 2.68 70 19:19 14.05.2022
2111 Clouds 30 1012 42 10000 3.13 85 17:56 14.05.2022
2112 Clouds 28 1014 69 10000 1.79 112 16:37 14.05.2022
2113 Clear 23 1012 64 10000 0.93 118 14:59 14.05.2022
2114 Clouds 23 1013 94 9656 0.93 118 14:30 14.05.2022
2115 Clear 23 1010 61 10000 0.42 44 12:23 14.05.2022
2116 Clear 24 1010 60 10000 0.39 43 10:53 14.05.2022
2117 Clear 24 1010 59 10000 0.57 73 10:20 14.05.2022
2118 Clear 25 1010 58 10000 0.45 160 09:51 14.05.2022
2119 Clouds 26 1011 56 10000 0.45 160 08:22 14.05.2022
2120 Clouds 27 1013 74 10000 1.79 30 05:26 14.05.2022
2121 Clouds 30 1008 49 10000 4.02 80 01:58 14.05.2022
2122 Clear 31 1011 51 10000 5.36 87 23:32 13.05.2022
2123 Clear 32 1009 34 10000 4.92 84 22:57 13.05.2022
2124 Clouds 31 1011 51 10000 4.92 76 22:23 13.05.2022
2125 Clouds 31 1012 55 10000 4.92 86 21:35 13.05.2022
2126 Clouds 32 1010 37 10000 4.02 95 20:44 13.05.2022
2127 Clouds 31 1012 58 10000 4.02 89 20:23 13.05.2022
2128 Clouds 31 1013 58 10000 4.02 79 19:21 13.05.2022
2129 Clear 31 1011 41 10000 1.79 103 17:50 13.05.2022
2130 Clouds 28 1014 65 10000 1.79 132 17:26 13.05.2022
2131 Clouds 27 1012 54 10000 2.04 162 15:53 13.05.2022
2132 Clouds 25 1012 63 10000 2.18 165 14:54 13.05.2022
2133 Clouds 23 1013 94 9656 0.89 232 13:27 13.05.2022
2134 Clouds 23 1011 61 10000 0.89 232 12:25 13.05.2022
2135 Clouds 25 1011 59 10000 1.58 123 10:42 13.05.2022
2136 Clouds 25 1011 59 10000 0.45 266 09:31 13.05.2022
2137 Clouds 25 1013 57 10000 1.32 73 08:23 13.05.2022
2138 Clouds 26 1013 55 10000 0.45 98 07:42 13.05.2022
2139 Clear 27 1014 52 10000 1.79 71 05:59 13.05.2022
2140 Clouds 29 1013 79 10000 4.92 70 02:43 13.05.2022
2141 Clouds 31 1012 55 10000 4.92 68 23:44 12.05.2022
2142 Clouds 31 1014 58 10000 5.36 103 22:44 12.05.2022
2143 Clear 32 1012 43 10000 5.36 62 21:46 12.05.2022
2144 Clouds 31 1015 58 10000 4.92 89 20:23 12.05.2022
2145 Clouds 30 1016 62 10000 4.02 73 18:31 12.05.2022
2146 Clear 29 1014 51 10000 0.89 81 16:57 12.05.2022
2147 Clear 27 1014 56 10000 0.89 113 15:49 12.05.2022
2148 Clouds 25 1015 100 8047 1.54 360 13:59 12.05.2022
2149 Clouds 25 1015 100 8047 1.54 360 13:24 12.05.2022
2150 Clear 27 1013 57 10000 2.61 357 10:40 12.05.2022
2151 Clear 28 1014 57 10000 1.34 96 08:59 12.05.2022
2152 Clear 28 1014 57 10000 1.34 88 08:39 12.05.2022
2153 Clear 28 1014 57 10000 1.79 50 07:37 12.05.2022
2154 Clouds 28 1016 83 10000 4.02 41 05:32 12.05.2022
2155 Clouds 29 1014 74 10000 5.81 48 02:24 12.05.2022
2156 Clear 32 1011 40 10000 6.71 23 23:56 11.05.2022
2157 Clouds 33 1014 52 10000 5.81 342 22:31 11.05.2022
2158 Clouds 33 1015 49 10000 6.26 336 21:29 11.05.2022
2159 Clear 30 1015 65 10000 5.43 21 20:52 11.05.2022
2160 Clouds 31 1015 47 10000 4.92 83 17:56 11.05.2022
2161 Clouds 30 1014 50 10000 2.68 40 16:49 11.05.2022
2162 Clouds 28 1013 59 10000 2.24 48 14:50 11.05.2022
2163 Clouds 27 1015 89 8047 3.09 360 14:26 11.05.2022
2164 Clouds 27 1014 89 8047 2.68 63 13:44 11.05.2022
2165 Clouds 28 1012 60 10000 3.13 57 11:50 11.05.2022
2166 Clouds 28 1012 59 10000 3.58 36 09:39 11.05.2022
2167 Clouds 29 1013 58 10000 3.13 32 07:52 11.05.2022
2168 Clouds 28 1013 89 9656 1.79 54 04:43 11.05.2022
2169 Clouds 32 1008 51 10000 4.92 59 23:48 10.05.2022
2170 Clear 33 1011 62 10000 6.26 360 22:30 10.05.2022
2171 Clear 33 1012 66 10000 5.36 40 21:45 10.05.2022
2172 Clouds 34 1010 45 10000 4.92 40 20:48 10.05.2022
2173 Clouds 34 1013 62 9656 4.02 38 19:25 10.05.2022
2174 Clouds 31 1012 70 9656 3.58 33 17:44 10.05.2022
2175 Clear 30 1012 74 8047 2.57 30 16:41 10.05.2022
2176 Clear 27 1008 61 10000 0.89 343 13:59 10.05.2022
2177 Clear 27 1008 61 10000 0.89 355 12:36 10.05.2022
2178 Clear 27 1007 60 10000 0.57 117 11:49 10.05.2022
2179 Clear 27 1007 60 10000 1.4 107 11:18 10.05.2022
2180 Clear 27 1007 60 10000 1.4 107 11:18 10.05.2022
2181 Clear 28 1007 58 10000 0.89 35 09:57 10.05.2022
2182 Clear 28 1008 57 10000 0.45 12 09:18 10.05.2022
2183 Clear 28 1010 83 9656 0.45 120 06:35 10.05.2022
2184 Clear 30 1004 51 10000 1.34 86 02:48 10.05.2022
2185 Clear 33 1005 55 10000 5.36 55 00:23 10.05.2022
2186 Clear 34 1005 52 10000 6.71 44 22:42 09.05.2022
2187 Clear 35 1003 37 10000 6.71 42 21:48 09.05.2022
2188 Clouds 37 1006 41 10000 4.92 43 20:23 09.05.2022
2189 Clear 32 1007 58 9656 1.79 121 18:35 09.05.2022
2190 Clear 30 1007 66 9656 2.68 167 17:33 09.05.2022
2191 Clear 28 1006 74 8047 3.13 192 16:21 09.05.2022
2192 Clouds 28 1004 51 10000 2.24 217 15:47 09.05.2022
2193 Clouds 25 1005 83 9656 0.89 212 14:46 09.05.2022
2194 Clear 25 1005 83 9656 1.34 215 13:59 09.05.2022
2195 Clear 25 1005 83 9656 0.89 223 13:32 09.05.2022
2196 Clouds 26 1003 55 10000 0.89 200 11:53 09.05.2022
2197 Clouds 27 1003 53 10000 3.47 171 10:50 09.05.2022
2198 Clouds 27 1003 53 10000 0.89 205 10:26 09.05.2022
2199 Clear 28 1005 53 10000 0.89 182 07:57 09.05.2022
2200 Clear 28 1004 57 10000 0.89 5 05:59 09.05.2022
2201 Clouds 32 1003 58 10000 4.02 106 02:37 09.05.2022
2202 Clouds 32 1003 58 10000 4.02 106 02:37 09.05.2022
2203 Clouds 32 1003 58 10000 4.02 106 02:37 09.05.2022
2204 Clouds 32 1003 58 10000 4.02 106 02:37 09.05.2022
2205 Clear 35 1003 49 10000 4.92 72 23:29 08.05.2022
2206 Clear 37 1004 41 10000 6.48 62 22:42 08.05.2022
2207 Clear 36 1005 44 9656 4.47 57 21:37 08.05.2022
2208 Clear 36 1006 44 9656 3.58 101 20:25 08.05.2022
2209 Clear 35 1007 46 9656 2.68 67 19:35 08.05.2022
2210 Clouds 35 1005 34 10000 1.34 168 18:49 08.05.2022
2211 Clouds 33 1005 36 10000 3.55 148 17:45 08.05.2022
2212 Haze 27 1007 78 6437 4.12 180 16:23 08.05.2022
2213 Clear 25 1007 88 8047 1.34 198 15:24 08.05.2022
2214 Clear 24 1006 88 10000 2.06 180 13:44 08.05.2022
2215 Clouds 26 1004 60 10000 1.34 182 11:50 08.05.2022
2216 Clouds 26 1005 62 10000 2.76 177 10:26 08.05.2022
2217 Clouds 26 1005 62 10000 2.76 177 09:53 08.05.2022
2218 Clear 26 1006 62 10000 0.89 141 08:23 08.05.2022
2219 Clear 27 1008 89 10000 0.45 141 06:21 08.05.2022
2220 Clouds 28 1006 83 9656 0.45 102 03:22 08.05.2022
2221 Clear 31 1005 70 9656 4.02 51 01:19 08.05.2022
2222 Clouds 33 1004 43 10000 4.92 42 23:57 07.05.2022
2223 Clear 31 1006 66 9656 4.47 76 23:34 07.05.2022
2224 Clouds 32 1005 43 10000 5.81 66 22:46 07.05.2022
2225 Clouds 33 1006 41 10000 5.36 53 21:56 07.05.2022
2226 Clear 34 1008 52 9656 5.36 42 21:28 07.05.2022
2227 Clear 35 1009 49 9656 4.02 14 20:25 07.05.2022
2228 Clear 35 1009 49 9656 4.02 14 20:25 07.05.2022
2229 Clouds 35 1007 37 10000 3.13 55 18:49 07.05.2022
2230 Clear 27 1010 78 9656 0.89 175 16:34 07.05.2022
2231 Clouds 26 1008 61 10000 0.45 142 14:54 07.05.2022
2232 Clouds 26 1007 63 10000 1.06 150 11:28 07.05.2022
2233 Clouds 27 1008 61 10000 0.55 215 09:44 07.05.2022
2234 Clouds 27 1009 61 10000 1.34 225 08:30 07.05.2022
2235 Clouds 27 1012 89 10000 0.78 102 07:20 07.05.2022
2236 Clouds 28 1012 83 10000 0.45 72 06:42 07.05.2022
2237 Clouds 30 1008 56 10000 2.68 51 03:57 07.05.2022
2238 Clear 33 1008 49 10000 4.92 24 23:44 06.05.2022
2239 Clear 33 1009 49 10000 5.36 26 22:40 06.05.2022
2240 Clouds 34 1007 33 10000 4.47 19 21:53 06.05.2022
2241 Clear 34 1009 43 10000 5.81 29 21:29 06.05.2022
2242 Clouds 35 1008 29 10000 3.13 19 19:47 06.05.2022
2243 Clear 33 1010 46 10000 2.68 53 19:21 06.05.2022
2244 Clear 32 1010 48 10000 1.34 71 18:30 06.05.2022
2245 Clear 29 1011 61 10000 1.79 231 17:34 06.05.2022
2246 Clouds 27 1009 50 10000 2.68 164 15:51 06.05.2022
2247 Mist 26 1010 73 10000 1.34 194 15:18 06.05.2022
2248 Clouds 25 1009 83 9656 0.89 178 13:45 06.05.2022
2249 Clouds 25 1007 62 10000 0.45 165 12:47 06.05.2022
2250 Clouds 26 1006 65 10000 0.45 156 11:58 06.05.2022
2251 Clouds 26 1006 63 10000 1.06 187 10:41 06.05.2022
2252 Clouds 27 1007 63 10000 0.66 161 09:47 06.05.2022
2253 Clouds 27 1007 62 10000 0.64 126 08:59 06.05.2022
2254 Clouds 27 1010 89 9656 1.45 317 07:27 06.05.2022
2255 Clouds 27 1009 89 9656 2.39 305 06:25 06.05.2022
2256 Clouds 28 1007 89 8047 5.14 90 02:54 06.05.2022
2257 Clouds 30 1005 56 10000 4.92 101 01:57 06.05.2022
2258 Clouds 33 1005 46 10000 4.47 70 22:48 05.05.2022
2259 Clouds 34 1009 59 8047 5.36 91 21:45 05.05.2022
2260 Clouds 34 1009 55 8047 3.58 95 20:28 05.05.2022
2261 Clouds 31 1011 70 8047 3.58 128 18:43 05.05.2022
2262 Haze 26 1011 94 6437 2.57 180 16:40 05.05.2022
2263 Clouds 26 1008 66 10000 0.89 196 14:55 05.05.2022
2264 Clear 25 1009 94 8047 0 0 13:27 05.05.2022
2265 Clouds 26 1007 65 10000 2.02 131 12:54 05.05.2022
2266 Clouds 26 1007 62 10000 0.38 309 10:53 05.05.2022
2267 Clouds 26 1008 61 10000 1.15 336 09:40 05.05.2022
2268 Clouds 27 1009 59 10000 0.97 292 07:45 05.05.2022
2269 Clouds 27 1011 89 10000 0.45 92 05:44 05.05.2022
2270 Clear 30 1007 74 10000 3.13 82 02:18 05.05.2022
2271 Clouds 32 1007 62 10000 4.02 94 01:32 05.05.2022
2272 Clouds 30 1006 68 10000 7.14 80 23:53 04.05.2022
2273 Clouds 34 1007 41 10000 4.92 86 22:46 04.05.2022
2274 Clouds 34 1007 41 10000 5.36 102 21:54 04.05.2022
2275 Clouds 33 1010 62 6437 4.47 91 21:29 04.05.2022
2276 Clear 35 1010 46 6437 4.92 78 20:30 04.05.2022
2277 Clear 35 1008 38 10000 1.79 44 19:55 04.05.2022
2278 Clear 33 1011 58 6437 3.58 69 19:24 04.05.2022
2279 Clear 32 1012 66 6437 1.34 169 18:22 04.05.2022
2280 Clear 32 1010 46 10000 1.34 175 17:58 04.05.2022
2281 Haze 25 1011 94 6437 0.89 355 15:42 04.05.2022
2282 Haze 25 1011 94 6437 0.45 311 15:24 04.05.2022
2283 Haze 26 1010 89 6437 0 0 14:21 04.05.2022
2284 Clouds 26 1010 94 8047 0 0 13:49 04.05.2022
2285 Clear 26 1008 65 10000 0.89 315 12:33 04.05.2022
2286 Clear 26 1008 64 10000 1.34 336 10:43 04.05.2022
2287 Clear 26 1008 62 10000 1.09 67 09:44 04.05.2022
2288 Clear 27 1009 62 10000 0.45 114 08:48 04.05.2022
2289 Clouds 27 1009 61 10000 1.04 327 06:49 04.05.2022
2290 Clouds 29 1007 58 10000 2.68 79 02:59 04.05.2022
2291 Clouds 31 1006 50 10000 4.47 90 00:48 04.05.2022
2292 Clouds 32 1009 62 8047 4.47 60 22:40 03.05.2022
2293 Clouds 33 1007 46 10000 5.36 98 21:46 03.05.2022
2294 Clouds 33 1008 45 10000 3.58 91 20:56 03.05.2022
2295 Clouds 33 1010 62 8047 4.02 94 20:30 03.05.2022
2296 Clouds 32 1009 47 10000 1.79 81 18:54 03.05.2022
2297 Clouds 31 1011 66 8047 2.24 64 18:21 03.05.2022
2298 Clouds 30 1011 74 8047 2.24 144 17:19 03.05.2022
2299 Clouds 26 1009 94 8047 1.34 107 15:43 03.05.2022
2300 Clouds 25 1009 94 8047 0 0 13:28 03.05.2022
2301 Clear 26 1006 64 10000 1.44 158 12:27 03.05.2022
2302 Clear 26 1007 64 10000 1.12 128 10:58 03.05.2022
2303 Clear 26 1007 63 10000 1.27 102 09:46 03.05.2022
2304 Clouds 27 1008 61 10000 0.25 171 07:58 03.05.2022
2305 Clouds 27 1008 61 10000 1.01 264 06:45 03.05.2022
2306 Clouds 30 1006 51 10000 4.02 118 01:52 03.05.2022
2307 Clouds 33 1009 49 9656 6.26 103 22:44 02.05.2022
2308 Clouds 34 1007 32 10000 5.81 98 21:55 02.05.2022
2309 Clouds 34 1010 52 8047 4.47 122 21:24 02.05.2022
2310 Clear 33 1009 42 10000 2.24 169 18:57 02.05.2022
2311 Clouds 30 1012 70 8047 2.68 180 18:25 02.05.2022
2312 Clouds 28 1012 78 6437 3.58 203 17:37 02.05.2022
2313 Clouds 28 1012 78 8047 2.57 180 16:24 02.05.2022
2314 Clouds 26 1012 89 8047 0.89 173 15:37 02.05.2022
2315 Clouds 27 1011 83 8047 2.68 119 13:58 02.05.2022
2316 Clouds 27 1009 59 10000 2.68 87 12:27 02.05.2022
2317 Clouds 27 1009 60 10000 2.24 96 11:20 02.05.2022
2318 Clouds 27 1010 61 10000 0.89 101 09:31 02.05.2022
2319 Clouds 28 1011 60 10000 0.89 98 07:57 02.05.2022
2320 Clouds 27 1011 89 10000 1.79 76 04:44 02.05.2022
2321 Clear 31 1009 70 9656 4.47 72 00:25 02.05.2022
2322 Clouds 32 1007 48 10000 4.92 52 23:52 01.05.2022
2323 Clear 33 1010 55 8047 3.58 53 22:45 01.05.2022
2324 Clear 32 1011 66 8047 3.58 69 21:30 01.05.2022
2325 Clouds 32 1012 62 8047 2.68 45 20:19 01.05.2022
2326 Clouds 31 1012 66 8047 4.92 32 19:18 01.05.2022
2327 Clouds 32 1010 49 10000 2.68 69 18:46 01.05.2022
2328 Clouds 30 1012 70 8047 2.68 94 17:46 01.05.2022
2329 Clouds 28 1011 83 9656 2.57 180 16:24 01.05.2022
2330 Clouds 27 1011 89 8047 0.89 63 15:43 01.05.2022
2331 Clouds 26 1010 94 8047 1.79 50 14:22 01.05.2022
2332 Clouds 26 1008 58 10000 0.89 336 11:41 01.05.2022
2333 Clouds 27 1008 60 10000 3.21 67 09:32 01.05.2022
2334 Clouds 27 1009 60 10000 1.98 36 08:47 01.05.2022
2335 Clouds 28 1008 83 9656 1.79 355 04:31 01.05.2022
2336 Clouds 30 1006 70 9656 4.92 75 00:34 01.05.2022
2337 Clouds 32 1005 48 10000 4.92 70 21:52 30.04.2022
2338 Clouds 31 1008 66 8047 4.02 89 21:19 30.04.2022
2339 Clouds 32 1008 58 8047 4.47 59 19:47 30.04.2022
2340 Clouds 32 1007 45 10000 2.68 82 18:45 30.04.2022
2341 Clouds 28 1008 55 10000 0.89 55 16:54 30.04.2022
2342 Clouds 27 1007 60 10000 1.34 360 15:50 30.04.2022
2343 Clouds 25 1007 64 10000 1.79 309 14:54 30.04.2022
2344 Clouds 25 1007 94 10000 2.24 213 13:30 30.04.2022
2345 Clouds 25 1005 61 10000 0.95 154 11:34 30.04.2022
2346 Clouds 25 1005 61 10000 1.21 133 10:49 30.04.2022
2347 Clouds 26 1006 61 10000 0.45 236 09:50 30.04.2022
2348 Clouds 26 1007 61 10000 0.45 103 07:31 30.04.2022
2349 Clouds 27 1007 78 8047 3.58 70 03:34 30.04.2022
2350 Clear 31 1005 42 10000 5.81 104 23:53 29.04.2022
2351 Clouds 31 1008 58 8047 5.36 111 22:34 29.04.2022
2352 Clear 32 1006 42 10000 5.81 97 21:54 29.04.2022
2353 Clear 32 1007 43 10000 4.92 74 20:51 29.04.2022
2354 Clear 31 1008 42 10000 4.47 76 19:47 29.04.2022
2355 Clouds 32 1009 39 10000 3.13 98 18:47 29.04.2022
2356 Clouds 28 1012 74 9656 3.13 177 17:26 29.04.2022
2357 Clouds 26 1010 60 10000 0.45 252 15:52 29.04.2022
2358 Mist 23 1011 94 9656 0.89 263 14:34 29.04.2022
2359 Clouds 23 1011 94 9656 1.71 110 13:27 29.04.2022
2360 Clouds 25 1009 61 10000 1.53 89 11:51 29.04.2022
2361 Clouds 25 1010 60 10000 1.81 98 09:23 29.04.2022
2362 Clouds 26 1011 57 10000 0.45 85 07:29 29.04.2022
2363 Clouds 26 1011 56 10000 0.45 93 06:46 29.04.2022
2364 Clouds 26 1013 78 10000 0.89 101 05:44 29.04.2022
2365 Clear 30 1008 43 10000 4.47 71 00:47 29.04.2022
2366 Clear 31 1009 39 10000 6.26 74 23:48 28.04.2022
2367 Clear 31 1010 37 10000 4.92 86 22:45 28.04.2022
2368 Clear 31 1011 38 10000 4.92 64 21:47 28.04.2022
2369 Clouds 30 1014 54 10000 4.02 70 21:22 28.04.2022
2370 Clouds 30 1015 51 10000 3.13 60 20:37 28.04.2022
2371 Clear 31 1013 40 10000 4.02 107 19:46 28.04.2022
2372 Clouds 28 1015 65 10000 3.58 57 19:23 28.04.2022
2373 Clouds 28 1016 65 10000 2.24 81 18:37 28.04.2022
2374 Clouds 27 1016 74 9656 0.89 93 17:32 28.04.2022
2375 Clouds 25 1016 83 8047 0.45 92 16:41 28.04.2022
2376 Clouds 25 1016 83 8047 0.89 126 16:19 28.04.2022
2377 Clouds 22 1016 94 8047 0 0 15:40 28.04.2022
2378 Clouds 22 1015 94 9656 0 0 14:38 28.04.2022
2379 Clear 22 1015 94 9656 1.34 300 13:19 28.04.2022
2380 Clear 23 1013 62 10000 0.45 302 11:59 28.04.2022
2381 Clear 24 1014 63 10000 0.89 302 10:47 28.04.2022
2382 Clouds 23 1016 94 10000 1.54 16 10:26 28.04.2022
2383 Clear 24 1015 61 10000 0.89 302 08:59 28.04.2022
2384 Clouds 25 1018 83 10000 0.45 310 07:37 28.04.2022
2385 Clouds 25 1018 83 10000 1.34 332 06:33 28.04.2022
2386 Clouds 25 1017 83 10000 1.34 342 05:39 28.04.2022
2387 Clouds 25 1016 83 10000 2.68 24 04:40 28.04.2022
2388 Clouds 30 1015 48 10000 6.26 41 00:36 28.04.2022
2389 Clear 31 1013 30 10000 4.92 11 22:45 27.04.2022
2390 Clear 28 1015 61 10000 7.36 21 21:56 27.04.2022
2391 Clouds 30 1017 45 10000 4.92 24 21:27 27.04.2022
2392 Clear 31 1016 33 10000 2.68 46 20:43 27.04.2022
2393 Clouds 27 1019 61 10000 3.58 20 19:39 27.04.2022
2394 Clouds 27 1019 61 10000 4.47 331 19:18 27.04.2022
2395 Clouds 25 1020 69 9656 5.14 360 18:25 27.04.2022
2396 Clouds 24 1020 78 9656 7.72 30 17:26 27.04.2022
2397 Clouds 23 1018 73 9656 4.12 360 15:22 27.04.2022
2398 Clouds 25 1015 54 10000 5.81 360 12:31 27.04.2022
2399 Clouds 25 1015 56 10000 5.81 347 11:23 27.04.2022
2400 Clouds 26 1016 49 10000 5.81 360 09:59 27.04.2022
2401 Clouds 26 1017 51 10000 8.05 12 07:25 27.04.2022
2402 Clouds 26 1017 52 10000 7.15 13 05:50 27.04.2022
2403 Clouds 28 1014 52 10000 8.94 22 01:52 27.04.2022
2404 Clear 28 1013 48 10000 6.71 15 00:52 27.04.2022
2405 Clear 30 1012 45 10000 9.39 11 23:57 26.04.2022
2406 Clouds 30 1015 66 10000 10.73 19 23:23 26.04.2022
2407 Clouds 31 1016 62 10000 8.94 40 22:41 26.04.2022
2408 Clear 31 1014 45 10000 8.94 5 21:49 26.04.2022
2409 Clear 31 1015 42 10000 7.6 49 20:54 26.04.2022
2410 Clouds 31 1017 58 10000 5.81 5 20:34 26.04.2022
2411 Clouds 30 1018 66 9656 4.92 36 19:33 26.04.2022
2412 Clouds 30 1016 48 10000 5.81 26 18:51 26.04.2022
2413 Clouds 28 1018 74 9656 5.36 24 18:18 26.04.2022
2414 Clouds 27 1018 83 8047 5.36 327 17:32 26.04.2022
2415 Clear 26 1014 61 10000 1.79 325 14:46 26.04.2022
2416 Clouds 25 1014 94 9656 4.12 360 13:34 26.04.2022
2417 Clouds 27 1012 59 10000 3.58 28 12:22 26.04.2022
2418 Clouds 27 1012 59 10000 2.68 26 10:44 26.04.2022
2419 Clouds 27 1012 60 10000 2.68 360 09:36 26.04.2022
2420 Clouds 27 1012 58 10000 2.24 360 07:54 26.04.2022
2421 Clouds 27 1012 83 9656 1.79 53 04:33 26.04.2022
2422 Clouds 28 1009 78 9656 4.02 80 01:54 26.04.2022
2423 Clouds 31 1008 70 9656 4.47 67 00:26 26.04.2022
2424 Clear 32 1007 46 10000 5.81 74 22:46 25.04.2022
2425 Clear 32 1008 46 10000 5.36 115 21:43 25.04.2022
2426 Clouds 32 1011 62 8047 5.36 90 20:40 25.04.2022
2427 Clouds 32 1009 46 10000 2.68 101 18:58 25.04.2022
2428 Clouds 31 1012 62 8047 2.57 180 18:23 25.04.2022
2429 Clouds 29 1012 74 8047 1.34 189 17:23 25.04.2022
2430 Clouds 26 1011 94 8047 0.45 140 15:29 25.04.2022
2431 Clouds 27 1009 64 10000 0.89 324 14:46 25.04.2022
2432 Clouds 26 1010 89 8047 3.09 60 13:35 25.04.2022
2433 Clouds 26 1008 84 10000 0.44 99 11:49 25.04.2022
2434 Clouds 26 1010 89 9656 2.24 346 10:26 25.04.2022
2435 Clouds 27 1009 58 10000 1.85 353 08:46 25.04.2022
2436 Clouds 27 1009 58 10000 0.45 87 06:46 25.04.2022
2437 Clouds 27 1008 78 10000 1.79 79 04:33 25.04.2022
2438 Clear 30 1005 50 10000 5.36 80 00:58 25.04.2022
2439 Clear 31 1005 49 10000 6.71 86 23:51 24.04.2022
2440 Clear 32 1006 44 10000 6.26 88 22:45 24.04.2022
2441 Clear 31 1008 58 10000 4.92 65 22:26 24.04.2022
2442 Clouds 31 1009 58 10000 4.92 71 21:26 24.04.2022
2443 Clear 32 1007 40 10000 4.92 101 20:54 24.04.2022
2444 Clouds 32 1009 51 10000 4.47 68 20:35 24.04.2022
2445 Clouds 32 1010 55 10000 4.47 96 19:46 24.04.2022
2446 Clouds 30 1010 62 8047 0.45 150 18:20 24.04.2022
2447 Clear 28 1011 74 8047 2.57 240 17:28 24.04.2022
2448 Clear 28 1009 52 10000 1.79 162 16:59 24.04.2022
2449 Clouds 26 1011 83 8047 2.57 180 16:32 24.04.2022
2450 Clear 26 1009 63 10000 2.68 218 15:54 24.04.2022
2451 Clear 25 1008 63 10000 1.34 238 14:58 24.04.2022
2452 Clear 25 1010 88 8047 0.89 144 13:56 24.04.2022
2453 Clear 25 1010 88 8047 1.34 103 13:24 24.04.2022
2454 Clear 26 1008 61 10000 1.79 114 11:56 24.04.2022
2455 Clear 26 1008 61 10000 1.79 100 11:27 24.04.2022
2456 Clear 25 1009 60 10000 2.02 289 09:55 24.04.2022
2457 Clear 25 1009 60 10000 1.63 266 09:19 24.04.2022
2458 Clouds 26 1012 83 10000 0.45 107 06:18 24.04.2022
2459 Clear 27 1009 74 10000 1.79 92 03:37 24.04.2022
2460 Clear 28 1009 69 10000 4.92 84 01:37 24.04.2022
2461 Clear 30 1008 46 10000 6.26 90 23:57 23.04.2022
2462 Clear 29 1010 70 10000 6.26 94 23:26 23.04.2022
2463 Clear 31 1008 46 10000 6.71 74 22:55 23.04.2022
2464 Clear 31 1009 44 10000 6.26 94 21:51 23.04.2022
2465 Clouds 31 1012 55 10000 4.92 83 21:32 23.04.2022
2466 Clouds 31 1013 51 10000 4.47 71 20:33 23.04.2022
2467 Clouds 31 1013 55 10000 4.47 104 19:41 23.04.2022
2468 Clouds 31 1013 55 10000 4.02 117 19:18 23.04.2022
2469 Clear 31 1012 40 10000 4.92 92 18:46 23.04.2022
2470 Clear 31 1012 38 10000 1.34 5 17:48 23.04.2022
2471 Clear 30 1013 44 10000 0.89 167 16:50 23.04.2022
2472 Clouds 27 1015 74 10000 1.34 116 16:21 23.04.2022
2473 Clouds 25 1014 83 9656 0.89 131 14:27 23.04.2022
2474 Clear 26 1013 61 10000 0.89 112 11:59 23.04.2022
2475 Clear 26 1013 61 10000 0.89 101 10:40 23.04.2022
2476 Clear 26 1013 61 10000 0.89 101 10:40 23.04.2022
2477 Clear 26 1014 60 10000 0.45 102 08:42 23.04.2022
2478 Clouds 26 1016 89 10000 1.34 331 05:45 23.04.2022
2479 Clear 27 1014 56 10000 1.34 26 03:54 23.04.2022
2480 Clouds 30 1014 54 10000 5.36 45 00:18 23.04.2022
2481 Clouds 30 1014 58 10000 5.81 71 23:25 22.04.2022
2482 Clear 31 1014 42 10000 5.81 62 21:59 22.04.2022
2483 Clouds 32 1016 51 10000 5.81 40 21:40 22.04.2022
2484 Clouds 31 1017 58 10000 4.47 355 20:37 22.04.2022
2485 Clouds 30 1017 62 10000 3.58 30 19:39 22.04.2022
2486 Clouds 30 1017 62 10000 4.02 5 19:18 22.04.2022
2487 Clouds 29 1018 61 10000 2.24 92 18:33 22.04.2022
2488 Clouds 28 1018 69 10000 0.89 58 17:34 22.04.2022
2489 Mist 27 1018 78 10000 1.79 345 16:29 22.04.2022
2490 Mist 24 1018 94 10000 1.79 338 15:31 22.04.2022
2491 Clear 24 1017 94 10000 1.34 22 14:41 22.04.2022
2492 Clear 25 1017 88 10000 1.34 281 13:42 22.04.2022
2493 Clouds 26 1015 58 10000 1.34 60 12:55 22.04.2022
2494 Clouds 26 1015 58 10000 1.34 14 11:24 22.04.2022
2495 Clouds 26 1015 58 10000 1.79 24 10:58 22.04.2022
2496 Clouds 26 1015 58 10000 2.68 43 10:40 22.04.2022
2497 Clouds 26 1015 59 10000 2.68 44 10:20 22.04.2022
2498 Clouds 26 1015 61 10000 3.13 57 09:30 22.04.2022
2499 Clouds 26 1015 61 10000 0.45 61 08:49 22.04.2022
2500 Clouds 27 1014 59 10000 1.79 320 06:54 22.04.2022
2501 Clouds 27 1013 78 10000 1.79 84 01:34 22.04.2022
2502 Clouds 30 1012 70 10000 5.36 87 23:39 21.04.2022
2503 Clear 31 1011 47 10000 5.36 69 22:48 21.04.2022
2504 Clouds 30 1014 70 10000 5.36 30 21:43 21.04.2022
2505 Haze 32 1014 62 6437 4.92 25 20:32 21.04.2022
2506 Haze 31 1015 66 6437 4.02 74 19:36 21.04.2022
2507 Haze 30 1015 70 6437 2.68 61 18:32 21.04.2022
2508 Clear 31 1013 50 10000 2.24 59 17:46 21.04.2022
2509 Clouds 28 1014 83 8047 2.57 360 16:21 21.04.2022
2510 Clear 26 1013 94 8047 2.57 340 15:19 21.04.2022
2511 Clear 25 1012 88 9656 2.57 10 14:29 21.04.2022
2512 Clear 25 1012 88 9656 2.57 20 13:22 21.04.2022
2513 Clouds 25 1010 60 10000 0.89 355 12:29 21.04.2022
2514 Clouds 26 1010 61 10000 0.45 283 10:19 21.04.2022
2515 Clouds 26 1011 62 10000 0.45 111 08:49 21.04.2022
2516 Clouds 27 1011 59 10000 1.83 298 06:46 21.04.2022
2517 Clear 27 1011 83 10000 0.45 131 04:21 21.04.2022
2518 Clouds 27 1009 83 9656 4.12 90 03:23 21.04.2022
2519 Clear 28 1008 55 10000 4.47 98 02:45 21.04.2022
2520 Clear 28 1008 55 10000 4.47 98 02:45 21.04.2022
2521 Clear 30 1009 58 10000 4.92 107 00:35 21.04.2022
2522 Clear 31 1007 39 10000 5.81 91 23:46 20.04.2022
2523 Clear 32 1009 51 10000 5.81 93 23:21 20.04.2022
2524 Clear 32 1008 42 10000 6.26 85 22:41 20.04.2022
2525 Clear 32 1009 41 10000 4.92 103 21:57 20.04.2022
2526 Clear 34 1009 33 10000 1.34 67 20:50 20.04.2022
2527 Clouds 32 1012 51 9656 3.58 192 20:22 20.04.2022
2528 Clear 32 1010 38 10000 4.02 202 19:47 20.04.2022
2529 Clear 31 1011 41 10000 2.68 208 18:52 20.04.2022
2530 Clear 29 1012 46 10000 3.13 154 17:52 20.04.2022
2531 Clouds 25 1014 88 8047 1.34 172 16:39 20.04.2022
2532 Haze 24 1014 88 6437 0.45 196 15:39 20.04.2022
2533 Clear 23 1012 64 10000 1.63 139 12:47 20.04.2022
2534 Clear 23 1012 62 10000 1.48 114 11:42 20.04.2022
2535 Clouds 23 1012 63 10000 1.65 101 10:51 20.04.2022
2536 Clouds 24 1013 61 10000 1.36 112 09:34 20.04.2022
2537 Clouds 25 1013 60 10000 0.67 151 08:51 20.04.2022
2538 Clear 25 1014 60 10000 0.71 139 08:19 20.04.2022
2539 Clouds 26 1016 83 10000 1.05 50 06:26 20.04.2022
2540 Clear 27 1012 56 10000 4.02 62 02:58 20.04.2022
2541 Clouds 29 1014 70 10000 4.47 101 00:22 20.04.2022
2542 Clouds 30 1014 62 10000 4.92 98 23:31 19.04.2022
2543 Clouds 30 1015 66 10000 4.92 117 22:24 19.04.2022
2544 Clouds 30 1013 47 10000 4.47 53 21:55 19.04.2022
2545 Clouds 30 1016 62 10000 4.02 72 21:18 19.04.2022
2546 Clouds 31 1017 58 10000 4.02 59 20:37 19.04.2022
2547 Clouds 31 1017 58 10000 4.02 59 20:37 19.04.2022
2548 Clouds 30 1015 44 10000 3.58 26 19:43 19.04.2022
2549 Clouds 31 1016 44 10000 3.13 34 18:46 19.04.2022
2550 Clouds 31 1016 44 10000 3.13 34 18:46 19.04.2022
2551 Clouds 28 1018 69 9656 3.58 30 17:27 19.04.2022
2552 Clear 28 1016 51 10000 2.68 34 16:43 19.04.2022
2553 Clouds 27 1017 74 9656 4.12 360 16:21 19.04.2022
2554 Clouds 26 1015 54 10000 3.13 67 14:47 19.04.2022
2555 Clouds 25 1015 88 8047 2.57 350 13:34 19.04.2022
2556 Clouds 26 1014 59 10000 2.24 360 12:50 19.04.2022
2557 Clouds 26 1014 59 10000 2.68 26 11:39 19.04.2022
2558 Clouds 26 1014 60 10000 2.24 5 09:57 19.04.2022
2559 Clear 26 1015 60 10000 1.34 321 08:43 19.04.2022
2560 Clear 27 1014 59 10000 4.47 21 04:41 19.04.2022
2561 Clouds 27 1014 83 10000 4.47 30 03:19 19.04.2022
2562 Clouds 30 1013 70 10000 4.92 90 00:24 19.04.2022
2563 Clear 31 1011 49 10000 5.81 62 22:58 18.04.2022
2564 Clear 31 1014 66 9656 6.71 23 21:29 18.04.2022
2565 Clear 32 1012 47 10000 5.81 42 20:46 18.04.2022
2566 Clear 30 1014 70 8047 5.81 35 20:25 18.04.2022
2567 Clear 30 1014 70 9656 6.71 46 19:41 18.04.2022
2568 Clouds 31 1012 49 10000 6.26 48 18:53 18.04.2022
2569 Clouds 30 1012 50 10000 7.6 16 17:53 18.04.2022
2570 Clouds 29 1014 65 9656 6.26 40 17:28 18.04.2022
2571 Clouds 28 1013 69 9656 4.02 5 16:40 18.04.2022
2572 Clear 27 1011 54 10000 3.13 5 15:54 18.04.2022
2573 Clear 23 1011 94 9656 0 0 14:42 18.04.2022
2574 Clear 23 1011 94 9656 0 0 14:42 18.04.2022
2575 Clear 23 1010 94 9656 0 0 13:31 18.04.2022
2576 Clear 23 1007 64 10000 2.18 194 12:28 18.04.2022
2577 Clear 24 1008 64 10000 1.29 196 11:20 18.04.2022
2578 Clear 25 1008 65 10000 1.03 245 10:28 18.04.2022
2579 Clear 25 1009 65 10000 0.45 282 09:30 18.04.2022
2580 Clouds 26 1009 64 10000 1.98 287 07:35 18.04.2022
2581 Clear 27 1008 59 10000 0.89 9 04:40 18.04.2022
2582 Clear 33 1007 49 10000 4.92 108 23:42 17.04.2022
2583 Clear 34 1008 46 10000 4.92 105 22:40 17.04.2022
2584 Clear 34 1008 52 10000 5.36 96 21:42 17.04.2022
2585 Clear 34 1008 52 10000 6.26 95 21:21 17.04.2022
2586 Clear 32 1009 62 10000 4.47 114 20:32 17.04.2022
2587 Clear 33 1010 52 10000 4.92 118 19:21 17.04.2022
2588 Clouds 28 1011 78 8047 2.57 180 17:38 17.04.2022
2589 Mist 24 1011 94 6437 0.89 213 15:38 17.04.2022
2590 Fog 22 1010 100 805 1.34 217 14:54 17.04.2022
2591 Clear 23 1010 100 9656 0 0 13:45 17.04.2022
2592 Clouds 24 1008 69 10000 2.18 182 12:56 17.04.2022
2593 Clouds 25 1008 69 10000 1.54 178 11:53 17.04.2022
2594 Clouds 25 1008 69 10000 0.49 171 10:40 17.04.2022
2595 Clouds 25 1008 70 10000 1.3 316 10:19 17.04.2022
2596 Clouds 25 1009 68 10000 1.56 318 09:28 17.04.2022
2597 Clouds 25 1009 67 10000 1.56 318 08:42 17.04.2022
2598 Clouds 26 1010 64 10000 0.45 331 07:00 17.04.2022
2599 Clear 27 1008 58 10000 2.24 46 03:53 17.04.2022
2600 Clear 31 1006 47 10000 4.92 94 00:55 17.04.2022
2601 Clear 33 1006 43 10000 4.47 107 23:50 16.04.2022
2602 Clear 34 1009 43 10000 5.39 80 22:27 16.04.2022
2603 Clouds 34 1010 52 10000 5.36 67 21:29 16.04.2022
2604 Clear 33 1009 43 10000 5.36 90 19:57 16.04.2022
2605 Clear 33 1010 43 10000 2.68 219 18:54 16.04.2022
2606 Clouds 26 1012 89 8047 1.34 146 17:40 16.04.2022
2607 Clouds 26 1012 89 8047 1.79 146 16:33 16.04.2022
2608 Clouds 24 1011 94 8047 1.79 124 15:40 16.04.2022
2609 Clouds 24 1010 94 8047 0.45 160 14:51 16.04.2022
2610 Clear 23 1010 100 8047 2.96 166 13:57 16.04.2022
2611 Clear 23 1010 100 8047 0.45 240 13:26 16.04.2022
2612 Clouds 24 1008 64 10000 1.92 178 12:18 16.04.2022
2613 Clouds 25 1008 64 10000 0.89 244 10:42 16.04.2022
2614 Clouds 25 1009 64 10000 0.89 242 09:43 16.04.2022
2615 Clouds 25 1009 64 10000 0.89 227 08:57 16.04.2022
2616 Clouds 26 1010 61 10000 0.49 241 07:32 16.04.2022
2617 Clouds 27 1010 60 10000 0.45 107 06:46 16.04.2022
2618 Clouds 28 1007 56 10000 4.47 52 01:59 16.04.2022
2619 Clear 30 1008 70 10000 4.02 54 00:21 16.04.2022
2620 Clouds 31 1007 48 10000 4.02 84 22:57 15.04.2022
2621 Clear 30 1010 70 10000 4.92 65 22:31 15.04.2022
2622 Clouds 30 1011 66 10000 4.92 51 21:47 15.04.2022
2623 Clouds 31 1009 47 10000 4.47 74 20:56 15.04.2022
2624 Clouds 31 1010 48 10000 4.47 72 19:59 15.04.2022
2625 Clouds 31 1012 62 9656 4.92 86 19:39 15.04.2022
2626 Clouds 32 1010 45 10000 1.79 74 18:46 15.04.2022
2627 Clouds 31 1012 62 9656 2.24 148 18:24 15.04.2022
2628 Clouds 29 1012 70 8047 1.34 284 17:32 15.04.2022
2629 Mist 26 1012 83 9656 1.34 306 16:26 15.04.2022
2630 Clouds 27 1010 59 10000 1.34 306 15:59 15.04.2022
2631 Haze 25 1012 88 8047 1.34 23 14:41 15.04.2022
2632 Clouds 25 1011 94 9656 1.79 40 13:34 15.04.2022
2633 Clouds 25 1009 66 10000 1.34 55 12:40 15.04.2022
2634 Clouds 25 1008 65 10000 0.89 341 11:55 15.04.2022
2635 Clouds 25 1009 65 10000 0.89 340 10:58 15.04.2022
2636 Clouds 25 1009 65 10000 1.34 348 10:40 15.04.2022
2637 Clouds 25 1009 65 10000 0.89 340 09:41 15.04.2022
2638 Clouds 25 1009 65 10000 1.79 315 09:19 15.04.2022
2639 Clouds 26 1010 63 10000 1.34 311 07:24 15.04.2022
2640 Clouds 27 1009 60 10000 2.68 23 05:58 15.04.2022
2641 Clouds 28 1007 78 9656 6.26 49 02:34 15.04.2022
2642 Clouds 30 1007 66 9656 6.71 22 23:30 14.04.2022
2643 Clouds 31 1008 62 9656 7.6 34 22:47 14.04.2022
2644 Clouds 31 1008 62 9656 7.6 15 22:28 14.04.2022
2645 Clouds 32 1007 45 10000 6.71 31 21:57 14.04.2022
2646 Clouds 31 1009 62 8047 6.26 50 20:35 14.04.2022
2647 Clouds 30 1010 66 8047 4.92 5 19:22 14.04.2022
2648 Clouds 30 1009 62 8047 1.34 350 18:18 14.04.2022
2649 Clouds 29 1009 65 8047 1.34 129 17:28 14.04.2022
2650 Clouds 27 1008 74 8047 2.68 204 16:33 14.04.2022
2651 Clouds 24 1006 83 9656 0 0 14:27 14.04.2022
2652 Clouds 24 1006 83 8047 0.45 205 13:39 14.04.2022
2653 Clouds 25 1004 57 10000 0.45 196 12:51 14.04.2022
2654 Clouds 25 1004 56 10000 0.45 196 12:30 14.04.2022
2655 Clouds 26 1004 54 10000 1.34 193 11:23 14.04.2022
2656 Clouds 25 1004 61 10000 0.45 162 10:36 14.04.2022
2657 Clouds 25 1004 62 10000 4.37 160 09:57 14.04.2022
2658 Clouds 25 1005 59 10000 2.27 149 08:44 14.04.2022
2659 Clouds 26 1006 60 10000 0.45 199 06:51 14.04.2022
2660 Clouds 28 1003 56 10000 1.34 82 02:53 14.04.2022
2661 Clouds 31 1002 42 10000 4.47 91 22:56 13.04.2022
2662 Clouds 32 1003 43 10000 4.47 39 21:44 13.04.2022
2663 Clouds 34 1004 38 10000 4.02 78 20:55 13.04.2022
2664 Clear 33 1006 55 9656 4.92 69 20:22 13.04.2022
2665 Clear 33 1007 52 9656 3.13 178 19:24 13.04.2022
2666 Clear 31 1007 62 9656 1.79 208 18:19 13.04.2022
2667 Clear 28 1007 69 8047 2.68 207 17:23 13.04.2022
2668 Clouds 26 1007 73 8047 2.68 177 16:34 13.04.2022
2669 Clear 24 1006 83 8047 3.13 202 15:38 13.04.2022
2670 Clouds 24 1004 59 10000 2.24 212 14:50 13.04.2022
2671 Clear 23 1005 83 9656 1.34 211 14:19 13.04.2022
2672 Clear 24 1005 78 9656 1.79 194 13:19 13.04.2022
2673 Clouds 26 1004 51 10000 1.79 177 12:25 13.04.2022
2674 Clouds 26 1004 50 10000 2.82 200 10:49 13.04.2022
2675 Clouds 25 1005 57 10000 2.07 201 09:41 13.04.2022
2676 Clouds 26 1006 57 10000 1.03 188 08:42 13.04.2022
2677 Clouds 26 1006 57 10000 0.45 360 06:51 13.04.2022
2678 Clouds 26 1008 83 10000 0.89 360 06:25 13.04.2022
2679 Clouds 26 1007 83 10000 0.89 88 05:20 13.04.2022
2680 Clouds 30 1005 66 9656 5.36 94 00:21 13.04.2022
2681 Clouds 30 1005 62 10000 5.36 84 23:29 12.04.2022
2682 Clouds 33 1004 40 10000 4.92 82 21:58 12.04.2022
2683 Clouds 33 1005 38 10000 5.81 104 20:57 12.04.2022
2684 Clouds 34 1007 52 9656 5.36 87 20:38 12.04.2022
2685 Clouds 34 1006 37 10000 4.47 90 19:48 12.04.2022
2686 Clouds 33 1008 49 9656 2.24 123 19:30 12.04.2022
2687 Clouds 29 1009 65 9656 2.68 177 18:26 12.04.2022
2688 Clouds 28 1009 69 8047 1.79 169 17:23 12.04.2022
2689 Clouds 24 1009 83 8047 4.09 182 16:22 12.04.2022
2690 Clouds 22 1009 88 8047 2.57 140 15:29 12.04.2022
2691 Clouds 21 1008 94 9656 2.57 160 14:21 12.04.2022
2692 Clouds 24 1007 81 10000 3.23 175 13:29 12.04.2022
2693 Clouds 24 1007 81 10000 3.23 175 12:49 12.04.2022
2694 Clouds 24 1007 79 10000 2.92 168 11:46 12.04.2022
2695 Clouds 23 1006 60 10000 2.43 179 10:32 12.04.2022
2696 Clouds 24 1007 61 10000 0.89 292 08:57 12.04.2022
2697 Clouds 25 1007 59 10000 1 217 07:51 12.04.2022
2698 Clouds 26 1007 56 10000 1.62 272 05:49 12.04.2022
2699 Clouds 26 1006 56 10000 2.05 313 04:55 12.04.2022
2700 Clouds 30 1004 45 10000 5.36 90 23:53 11.04.2022
2701 Clouds 31 1005 42 10000 5.36 108 22:44 11.04.2022
2702 Clear 32 1008 55 8047 5.36 116 21:37 11.04.2022
2703 Clouds 32 1007 38 10000 4.47 108 20:55 11.04.2022
2704 Clear 33 1009 49 8047 4.47 79 20:28 11.04.2022
2705 Clear 31 1010 55 8047 2.57 130 19:37 11.04.2022
2706 Clear 31 1010 55 8047 2.57 130 19:18 11.04.2022
2707 Clouds 31 1008 40 10000 1.79 123 18:41 11.04.2022
2708 Clouds 30 1009 42 10000 2.68 181 17:56 11.04.2022
2709 Clouds 28 1009 46 10000 2.68 192 16:54 11.04.2022
2710 Clouds 25 1010 69 10000 3.11 184 15:45 11.04.2022
2711 Clear 20 1009 94 9656 0.45 229 13:53 11.04.2022
2712 Clouds 21 1007 65 10000 0.45 229 12:44 11.04.2022
2713 Clouds 21 1007 65 10000 0.89 250 12:25 11.04.2022
2714 Clouds 21 1008 63 10000 3.08 202 10:58 11.04.2022
2715 Clouds 22 1009 62 10000 2.77 212 09:58 11.04.2022
2716 Clouds 22 1009 61 10000 0.45 278 08:50 11.04.2022
2717 Clear 24 1011 83 10000 0.45 220 05:38 11.04.2022
2718 Clouds 27 1008 47 10000 5.36 119 00:57 11.04.2022
2719 Clouds 29 1012 45 10000 5.81 98 22:33 10.04.2022
2720 Clouds 29 1010 32 10000 5.81 83 21:54 10.04.2022
2721 Clouds 29 1013 45 10000 4.92 86 21:26 10.04.2022
2722 Clouds 29 1014 48 10000 5.81 106 20:25 10.04.2022
2723 Clouds 29 1016 45 10000 6.26 121 19:37 10.04.2022
2724 Clouds 28 1014 32 10000 2.24 170 18:50 10.04.2022
2725 Clouds 26 1016 53 8047 3.09 140 18:30 10.04.2022
2726 Clouds 27 1014 37 10000 3.58 145 17:49 10.04.2022
2727 Clouds 25 1015 44 10000 1.79 184 16:59 10.04.2022
2728 Clouds 21 1015 57 10000 3.94 170 15:41 10.04.2022
2729 Clouds 18 1014 61 10000 3.77 170 14:42 10.04.2022
2730 Clear 18 1016 88 9656 0 0 13:45 10.04.2022
2731 Clouds 18 1014 62 10000 0.89 216 12:32 10.04.2022
2732 Clouds 18 1014 61 10000 0.45 216 11:44 10.04.2022
2733 Clouds 18 1014 61 10000 0.89 216 11:20 10.04.2022
2734 Clouds 19 1015 60 10000 1.34 216 10:34 10.04.2022
2735 Clouds 20 1015 58 10000 0.89 216 09:41 10.04.2022
2736 Clouds 21 1017 56 10000 0.45 216 08:28 10.04.2022
2737 Clouds 21 1017 55 10000 1.34 213 07:57 10.04.2022
2738 Clouds 21 1018 57 10000 0.45 196 06:59 10.04.2022
2739 Clouds 23 1018 73 10000 2.24 110 03:40 10.04.2022
2740 Clouds 24 1017 64 10000 5.36 105 02:19 10.04.2022
2741 Clouds 26 1016 44 10000 6.26 84 23:53 09.04.2022
2742 Clouds 27 1017 44 10000 6.26 119 22:56 09.04.2022
2743 Clouds 27 1019 54 10000 5.81 92 22:33 09.04.2022
2744 Clouds 27 1021 50 10000 6.26 100 21:19 09.04.2022
2745 Clouds 27 1022 50 10000 4.02 74 20:30 09.04.2022
2746 Clouds 27 1020 35 10000 4.02 105 19:56 09.04.2022
2747 Clouds 27 1023 47 10000 3.58 104 19:38 09.04.2022
2748 Clouds 26 1024 50 9656 2.68 94 18:23 09.04.2022
2749 Clouds 25 1024 53 9656 2.24 146 17:48 09.04.2022
2750 Clouds 25 1022 40 10000 1.34 229 16:56 09.04.2022
2751 Clouds 21 1023 68 8047 1.34 257 16:38 09.04.2022
2752 Clouds 22 1022 47 10000 1.79 274 15:49 09.04.2022
2753 Clouds 22 1022 47 10000 1.79 274 15:49 09.04.2022
2754 Clouds 22 1022 47 10000 1.79 274 15:49 09.04.2022
2755 Clouds 22 1022 47 10000 1.79 274 15:49 09.04.2022
2756 Clouds 18 1022 77 8047 1.34 277 15:25 09.04.2022
2757 Clouds 18 1022 77 9656 0.45 194 14:25 09.04.2022
2758 Clouds 19 1022 72 9656 1.36 299 13:26 09.04.2022
2759 Clouds 18 1020 55 10000 1.36 299 12:53 09.04.2022
2760 Clouds 19 1020 54 10000 0.92 305 11:44 09.04.2022
2761 Clouds 19 1020 55 10000 0.74 317 10:41 09.04.2022
2762 Clouds 18 1020 55 10000 0.26 30 10:18 09.04.2022
2763 Clouds 18 1021 54 10000 0.62 49 09:22 09.04.2022
2764 Clouds 19 1022 52 10000 0.45 185 07:49 09.04.2022
2765 Clouds 23 1021 37 10000 2.24 15 03:57 09.04.2022
2766 Clouds 25 1021 53 10000 4.92 83 00:33 09.04.2022
2767 Clouds 27 1022 44 10000 5.36 37 23:20 08.04.2022
2768 Clouds 27 1023 47 10000 6.71 340 21:42 08.04.2022
2769 Clouds 26 1024 50 10000 7.6 22 20:41 08.04.2022
2770 Clouds 28 1022 32 10000 7.15 30 19:46 08.04.2022
2771 Clouds 26 1024 53 10000 7.6 40 18:42 08.04.2022
2772 Clouds 26 1024 53 10000 7.6 40 18:18 08.04.2022
2773 Clouds 25 1024 57 10000 8.49 355 17:27 08.04.2022
2774 Clouds 25 1022 41 10000 7.6 9 16:55 08.04.2022
2775 Clouds 24 1023 64 10000 8.05 24 16:26 08.04.2022
2776 Clouds 23 1022 64 10000 7.6 23 15:33 08.04.2022
2777 Clouds 23 1021 46 10000 6.26 360 14:45 08.04.2022
2778 Clouds 23 1021 64 10000 7.15 14 13:59 08.04.2022
2779 Clouds 23 1021 64 10000 5.81 15 13:30 08.04.2022
2780 Clouds 23 1019 46 10000 7.6 15 12:45 08.04.2022
2781 Clouds 23 1018 46 10000 6.71 19 11:26 08.04.2022
2782 Clouds 24 1018 48 10000 6.71 5 09:57 08.04.2022
2783 Clouds 24 1018 47 10000 8.05 19 08:59 08.04.2022
2784 Clouds 24 1018 47 10000 10.28 360 07:43 08.04.2022
2785 Clouds 24 1019 47 10000 11.62 31 06:45 08.04.2022
2786 Clear 24 1016 73 10000 11.62 20 02:53 08.04.2022
2787 Sand 26 1015 65 10000 8.94 16 00:30 08.04.2022
2788 Sand 27 1015 57 9656 12.96 11 23:43 07.04.2022
2789 Clouds 28 1013 40 10000 13.41 18 22:44 07.04.2022
2790 Sand 28 1015 57 8047 13.41 18 22:23 07.04.2022
2791 Clouds 28 1013 41 10000 12.96 11 21:58 07.04.2022
2792 Sand 28 1015 57 6437 9.83 10 21:30 07.04.2022
2793 Sand 28 1015 57 6437 15.65 24 20:42 07.04.2022
2794 Clouds 28 1014 41 10000 14.31 5 19:51 07.04.2022
2795 Sand 27 1015 69 6437 12.96 5 17:29 07.04.2022
2796 Clouds 27 1013 49 10000 13.86 10 16:59 07.04.2022
2797 Sand 26 1014 73 8047 12.07 13 16:33 07.04.2022
2798 Clouds 27 1012 50 10000 11.62 5 15:47 07.04.2022
2799 Clouds 26 1010 73 8047 9.83 360 13:54 07.04.2022
2800 Clouds 26 1010 73 8047 9.39 360 13:23 07.04.2022
2801 Clouds 26 1009 57 10000 6.26 15 11:52 07.04.2022
2802 Clouds 24 1007 52 10000 3.4 0 10:54 07.04.2022
2803 Clouds 25 1006 53 10000 0.89 189 09:19 07.04.2022
2804 Clouds 25 1007 59 10000 0.45 234 06:59 07.04.2022
2805 Haze 26 1008 78 8047 0.84 312 05:21 07.04.2022
2806 Haze 30 1005 54 8047 2.68 16 02:37 07.04.2022
2807 Clear 33 1004 43 10000 4.47 49 00:43 07.04.2022
2808 Clear 33 1004 46 10000 5.81 36 23:36 06.04.2022
2809 Clear 25 1005 69 9656 4.92 16 22:44 06.04.2022
2810 Clear 25 1005 69 9656 4.92 46 22:20 06.04.2022
2811 Clouds 30 1005 55 10000 4.1 46 20:47 06.04.2022
2812 Clouds 35 1004 28 10000 1.79 95 20:00 06.04.2022
2813 Clear 32 1006 51 9656 1.34 141 19:24 06.04.2022
2814 Clouds 32 1005 35 10000 2.68 96 18:48 06.04.2022
2815 Clear 28 1007 61 9656 3.13 201 17:36 06.04.2022
2816 Clouds 28 1005 46 10000 3.13 185 16:56 06.04.2022
2817 Clear 25 1006 69 8047 3.13 174 16:32 06.04.2022
2818 Clouds 24 1004 53 10000 2.24 210 15:43 06.04.2022
2819 Clear 22 1004 73 9656 2.57 180 13:48 06.04.2022
2820 Clouds 22 1002 52 10000 1.34 220 12:30 06.04.2022
2821 Clouds 23 1002 47 10000 0.89 196 10:57 06.04.2022
2822 Clouds 23 1002 47 10000 0.89 196 10:33 06.04.2022
2823 Clouds 23 1003 45 10000 0.45 187 09:59 06.04.2022
2824 Clouds 25 1003 43 10000 1.34 199 08:59 06.04.2022
2825 Clouds 26 1003 42 10000 2.24 196 07:59 06.04.2022
2826 Clouds 26 1003 49 10000 1.79 210 05:45 06.04.2022
2827 Clouds 29 1001 63 10000 4.12 76 00:45 06.04.2022
2828 Clouds 35 1000 30 10000 3.58 69 23:48 05.04.2022
2829 Clear 35 1001 29 10000 3.58 92 21:58 05.04.2022
2830 Clouds 34 1004 46 9656 3.58 108 21:18 05.04.2022
2831 Clouds 34 1005 46 10000 1.79 206 20:24 05.04.2022
2832 Clear 30 1006 54 10000 3.13 195 18:32 05.04.2022
2833 Clear 27 1005 65 10000 3.13 200 17:22 05.04.2022
2834 Clear 25 1005 78 8047 3.58 181 16:43 05.04.2022
2835 Clouds 24 1003 60 10000 2.24 220 15:51 05.04.2022
2836 Clouds 22 1005 88 8047 2.24 220 15:31 05.04.2022
2837 Clear 22 1003 88 8047 2.57 170 13:55 05.04.2022
2838 Clear 23 1001 58 10000 0.89 198 12:39 05.04.2022
2839 Clear 23 1001 57 10000 0.45 196 11:43 05.04.2022
2840 Clear 23 1001 57 10000 0.45 196 11:25 05.04.2022
2841 Clear 24 1002 58 10000 1.34 198 09:40 05.04.2022
2842 Clear 23 1003 60 10000 4.39 174 08:47 05.04.2022
2843 Clear 26 1004 94 9656 2.24 111 04:19 05.04.2022
2844 Clouds 30 1001 47 10000 4.47 119 23:45 04.04.2022
2845 Clouds 29 1005 70 6437 5.36 94 22:38 04.04.2022
2846 Clouds 31 1003 46 10000 4.47 113 21:51 04.04.2022
2847 Clouds 30 1006 62 6437 4.47 65 21:20 04.04.2022
2848 Clouds 31 1005 46 10000 4.02 78 20:47 04.04.2022
2849 Clouds 28 1008 65 6437 2.68 134 19:30 04.04.2022
2850 Clouds 27 1009 69 6437 1.34 201 18:44 04.04.2022
2851 Haze 25 1009 78 6437 2.57 160 17:21 04.04.2022
2852 Mist 23 1009 88 4828 1.34 258 16:34 04.04.2022
2853 Mist 21 1009 94 4828 1.34 276 15:34 04.04.2022
2854 Clear 22 1007 66 10000 2.47 184 14:46 04.04.2022
2855 Clouds 21 1008 94 8047 0 0 14:28 04.04.2022
2856 Clouds 21 1007 94 8047 0 0 13:18 04.04.2022
2857 Clear 22 1006 63 10000 2.8 176 11:29 04.04.2022
2858 Clear 22 1006 63 10000 0.89 205 10:29 04.04.2022
2859 Clear 23 1008 60 10000 1.41 187 06:58 04.04.2022
2860 Clouds 26 1009 73 9656 0.45 109 03:18 04.04.2022
2861 Clouds 28 1008 48 10000 4.92 40 23:47 03.04.2022
2862 Clouds 30 1011 58 9656 4.02 87 22:31 03.04.2022
2863 Clouds 28 1012 65 9656 3.58 93 21:32 03.04.2022
2864 Clouds 28 1013 69 9656 3.13 36 20:36 03.04.2022
2865 Clouds 28 1014 65 9656 4.02 54 19:29 03.04.2022
2866 Clouds 27 1014 74 8047 3.58 31 18:27 03.04.2022
2867 Haze 26 1014 78 6437 2.68 54 17:41 03.04.2022
2868 Clouds 26 1012 54 10000 1.34 22 16:50 03.04.2022
2869 Clouds 25 1014 83 8047 2.24 360 16:21 03.04.2022
2870 Clouds 24 1013 88 8047 1.34 5 14:28 03.04.2022
2871 Clouds 24 1013 88 8047 2.24 16 13:44 03.04.2022
2872 Clouds 25 1011 62 10000 1.79 5 12:19 03.04.2022
2873 Haze 24 1014 88 10000 1.79 338 10:32 03.04.2022
2874 Clouds 24 1014 88 9656 0.89 340 09:23 03.04.2022
2875 Clouds 25 1015 88 10000 3.13 5 07:24 03.04.2022
2876 Haze 25 1011 83 9656 5.36 30 03:37 03.04.2022
2877 Clouds 27 1010 74 9656 5.36 30 00:29 03.04.2022
2878 Clouds 30 1008 45 10000 5.36 26 22:54 02.04.2022
2879 Clouds 30 1009 44 10000 4.47 102 21:57 02.04.2022
2880 Clouds 30 1011 54 9656 4.47 101 21:28 02.04.2022
2881 Clouds 30 1012 62 9656 4.92 67 20:41 02.04.2022
2882 Clear 28 1013 65 8047 4.02 116 18:57 02.04.2022
2883 Clear 28 1013 65 8047 2.24 169 18:20 02.04.2022
2884 Clear 28 1013 65 8047 2.24 169 18:20 02.04.2022
2885 Clouds 27 1011 50 10000 2.68 98 17:46 02.04.2022
2886 Clouds 23 1011 62 10000 0.89 168 15:59 02.04.2022
2887 Clouds 20 1013 94 6437 1.2 148 15:21 02.04.2022
2888 Clouds 20 1012 94 6437 1.2 148 14:42 02.04.2022
2889 Clouds 21 1010 66 10000 1.77 160 13:34 02.04.2022
2890 Clouds 21 1009 65 10000 0.45 230 12:34 02.04.2022
2891 Clear 22 1010 64 10000 0.45 198 10:56 02.04.2022
2892 Clouds 21 1010 63 10000 0.89 198 08:44 02.04.2022
2893 Clouds 22 1011 61 10000 0.89 127 06:43 02.04.2022
2894 Haze 24 1010 73 9656 4.02 27 03:39 02.04.2022
2895 Clouds 28 1008 46 10000 4.92 46 23:55 01.04.2022
2896 Clouds 28 1009 61 8047 4.02 42 23:18 01.04.2022
2897 Clouds 27 1011 65 8047 2.24 101 21:32 01.04.2022
2898 Clouds 28 1009 46 10000 3.58 98 20:50 01.04.2022
2899 Clouds 28 1010 47 10000 3.58 82 19:51 01.04.2022
2900 Clouds 28 1013 65 8047 2.68 106 19:30 01.04.2022
2901 Clouds 28 1011 46 10000 3.13 105 18:44 01.04.2022
2902 Clouds 27 1011 50 10000 1.34 89 17:46 01.04.2022
2903 Mist 24 1012 83 4828 0.45 90 16:42 01.04.2022
2904 Haze 22 1011 94 4828 0.89 38 15:23 01.04.2022
2905 Clouds 22 1011 94 8047 0.41 251 14:20 01.04.2022
2906 Clouds 24 1008 61 10000 0.45 67 13:33 01.04.2022
2907 Clouds 24 1008 61 10000 1.79 53 12:32 01.04.2022
2908 Clouds 24 1008 61 10000 1.79 69 11:33 01.04.2022
2909 Clear 24 1008 61 10000 2.68 30 10:18 01.04.2022
2910 Clouds 24 1011 88 10000 4.02 38 08:30 01.04.2022
2911 Clouds 24 1010 88 10000 2.68 42 06:39 01.04.2022
2912 Clouds 25 1007 60 10000 5.36 340 04:47 01.04.2022
2913 Clouds 24 1008 88 10000 4.92 5 04:28 01.04.2022
2914 Clouds 27 1004 47 10000 4.92 38 01:54 01.04.2022
2915 Clear 31 1004 36 10000 4.92 62 22:58 31.03.2022
2916 Clear 31 1004 37 10000 4.47 33 21:50 31.03.2022
2917 Clear 31 1007 51 10000 4.47 65 21:31 31.03.2022
2918 Clear 30 1008 54 10000 3.58 72 20:29 31.03.2022
2919 Clear 31 1006 37 10000 3.13 68 19:48 31.03.2022
2920 Clear 30 1008 51 10000 3.13 90 18:43 31.03.2022
2921 Clear 28 1008 57 10000 1.34 117 17:41 31.03.2022
2922 Clear 25 1008 69 10000 1.79 290 16:34 31.03.2022
2923 Mist 22 1007 78 10000 0.89 305 15:35 31.03.2022
2924 Mist 23 1006 78 10000 1.81 249 14:54 31.03.2022
2925 Clear 21 1004 58 10000 1.83 245 14:20 31.03.2022
2926 Clear 22 1002 55 10000 1.74 260 11:34 31.03.2022
2927 Clear 22 1003 53 10000 0.62 281 10:41 31.03.2022
2928 Clear 24 1003 50 10000 1.33 8 09:44 31.03.2022
2929 Clouds 25 1003 45 10000 0.45 190 07:49 31.03.2022
2930 Clouds 25 1003 76 10000 4.53 355 03:57 31.03.2022
2931 Clear 35 1000 38 9656 4.92 115 23:34 30.03.2022
2932 Clear 38 1000 28 9656 6.21 86 22:23 30.03.2022
2933 Clear 36 1002 36 8047 3.6 150 21:33 30.03.2022
2934 Clear 34 1003 40 8047 3.6 180 20:44 30.03.2022
2935 Clouds 34 1001 27 10000 3.58 185 19:57 30.03.2022
2936 Clouds 31 1002 41 10000 3.13 198 18:50 30.03.2022
2937 Clouds 28 1002 46 10000 4.02 192 17:52 30.03.2022
2938 Clouds 28 1002 46 10000 4.02 192 17:52 30.03.2022
2939 Haze 26 1004 73 6437 5.36 200 17:32 30.03.2022
2940 Clouds 26 1003 56 10000 3.58 167 16:42 30.03.2022
2941 Mist 23 1004 88 4828 3.13 180 16:19 30.03.2022
2942 Clear 20 1004 100 8047 3.09 190 14:47 30.03.2022
2943 Clear 21 1002 68 10000 4.63 179 13:26 30.03.2022
2944 Clear 21 1002 68 10000 4.63 179 12:36 30.03.2022
2945 Clear 22 1003 68 10000 4.82 186 10:48 30.03.2022
2946 Clear 22 1005 67 10000 4.07 190 09:58 30.03.2022
2947 Clear 22 1006 65 10000 2.3 199 08:28 30.03.2022
2948 Clear 22 1009 94 9656 0.45 205 07:29 30.03.2022
2949 Clear 23 1007 61 10000 0.89 238 05:40 30.03.2022
2950 Clear 25 1006 83 10000 4.92 111 02:40 30.03.2022
2951 Clear 30 1006 41 10000 5.36 86 22:56 29.03.2022
2952 Clear 31 1007 40 10000 4.92 65 21:58 29.03.2022
2953 Clear 30 1011 58 8047 4.47 68 21:37 29.03.2022
2954 Clear 30 1012 54 8047 4.02 88 20:30 29.03.2022
2955 Clear 29 1013 54 9656 0.89 158 19:34 29.03.2022
2956 Clear 30 1011 40 10000 1.79 146 18:53 29.03.2022
2957 Clear 28 1012 42 10000 2.24 217 17:52 29.03.2022
2958 Clear 24 1014 73 8047 0.89 213 17:19 29.03.2022
2959 Clear 25 1012 50 10000 0.89 243 16:53 29.03.2022
2960 Clear 20 1012 70 10000 1.34 190 15:41 29.03.2022
2961 Clouds 18 1014 100 8047 2.8 190 14:43 29.03.2022
2962 Clouds 18 1014 100 8047 2.8 190 14:43 29.03.2022
2963 Clear 18 1012 66 10000 0.45 113 13:35 29.03.2022
2964 Clear 18 1011 64 10000 2.01 214 12:22 29.03.2022
2965 Clear 20 1011 63 10000 2.06 227 11:18 29.03.2022
2966 Clear 20 1013 62 10000 1.7 213 09:58 29.03.2022
2967 Clear 21 1014 62 10000 0.45 198 08:44 29.03.2022
2968 Clear 22 1014 60 10000 1.29 233 06:48 29.03.2022
2969 Clear 25 1012 56 10000 1.34 101 02:52 29.03.2022
2970 Clear 28 1014 54 10000 5.36 80 23:37 28.03.2022
2971 Clear 28 1012 40 10000 6.26 113 22:57 28.03.2022
2972 Clear 28 1015 51 10000 5.81 61 22:31 28.03.2022
2973 Clear 28 1013 36 10000 5.81 92 21:43 28.03.2022
2974 Clear 29 1016 48 10000 4.02 109 20:35 28.03.2022
2975 Clear 28 1015 36 10000 0.89 130 19:48 28.03.2022
2976 Smoke 26 1018 57 9656 2.68 205 19:30 28.03.2022
2977 Clear 27 1016 43 10000 2.24 143 18:50 28.03.2022
2978 Haze 23 1018 68 9656 1.34 117 17:41 28.03.2022
2979 Clear 23 1016 50 10000 0.89 297 16:48 28.03.2022
2980 Haze 15 1017 94 9656 2.38 204 15:22 28.03.2022
2981 Clear 16 1016 94 10000 0.45 265 14:24 28.03.2022
2982 Clouds 17 1014 62 10000 0.45 265 13:19 28.03.2022
2983 Clouds 17 1014 61 10000 2.69 266 11:52 28.03.2022
2984 Clouds 18 1014 59 10000 0.94 220 09:55 28.03.2022
2985 Clouds 18 1015 60 10000 0.84 213 09:21 28.03.2022
2986 Clouds 20 1016 59 10000 0.45 265 08:24 28.03.2022
2987 Clouds 21 1016 58 10000 0.45 263 07:59 28.03.2022
2988 Clear 22 1018 78 10000 1.34 273 06:31 28.03.2022
2989 Clouds 26 1015 36 10000 4.47 113 00:30 28.03.2022
2990 Clear 26 1016 47 10000 6.26 98 22:35 27.03.2022
2991 Clear 26 1017 50 10000 5.36 110 21:43 27.03.2022
2992 Clear 26 1017 50 10000 5.81 86 21:18 27.03.2022
2993 Clear 27 1018 39 10000 4.16 98 20:24 27.03.2022
2994 Clear 25 1019 44 10000 1.79 185 19:37 27.03.2022
2995 Clear 25 1019 47 10000 2.68 186 18:42 27.03.2022
2996 Clear 25 1019 47 10000 2.68 225 18:23 27.03.2022
2997 Clear 23 1019 53 10000 1.79 178 17:35 27.03.2022
2998 Clear 18 1017 54 10000 1.95 191 15:47 27.03.2022
2999 Clouds 15 1016 60 10000 1.89 200 13:57 27.03.2022
3000 Clouds 15 1015 61 10000 1.62 189 13:20 27.03.2022
3001 Clear 16 1015 59 10000 1.24 184 11:33 27.03.2022
3002 Clear 16 1017 58 10000 1.22 147 09:37 27.03.2022
3003 Clear 17 1018 53 10000 1.91 109 06:58 27.03.2022
3004 Clouds 22 1018 60 10000 1.34 98 03:39 27.03.2022
3005 Clouds 25 1017 47 10000 4.47 92 00:25 27.03.2022
3006 Clouds 26 1018 36 10000 4.47 55 22:49 26.03.2022
3007 Clouds 26 1016 23 10000 5.36 87 21:54 26.03.2022
3008 Clouds 26 1019 41 10000 4.92 119 21:29 26.03.2022
3009 Clouds 25 1021 38 10000 4.92 123 19:32 26.03.2022
3010 Clouds 25 1021 41 10000 4.47 109 18:40 26.03.2022
3011 Smoke 25 1021 47 10000 3.58 102 17:34 26.03.2022
3012 Smoke 25 1021 47 10000 3.58 102 17:34 26.03.2022
3013 Smoke 24 1021 53 10000 1.34 64 16:33 26.03.2022
3014 Haze 20 1021 68 10000 1.34 298 15:37 26.03.2022
3015 Mist 17 1020 77 10000 0.95 221 13:55 26.03.2022
3016 Clouds 16 1018 62 10000 0.58 210 13:19 26.03.2022
3017 Clouds 16 1017 62 10000 0.8 177 11:48 26.03.2022
3018 Clouds 19 1018 60 10000 0.53 158 10:44 26.03.2022
3019 Clouds 18 1018 57 10000 0.69 81 08:46 26.03.2022
3020 Clouds 20 1022 73 10000 0.45 244 06:38 26.03.2022
3021 Clouds 20 1022 73 10000 0.45 181 05:29 26.03.2022
3022 Clouds 25 1017 39 10000 3.13 71 00:54 26.03.2022
3023 Clouds 26 1019 50 10000 5.36 86 21:58 25.03.2022
3024 Clouds 26 1018 36 10000 4.92 105 20:47 25.03.2022
3025 Clouds 26 1021 50 10000 4.92 94 20:24 25.03.2022
3026 Clouds 26 1021 36 10000 4.92 95 18:59 25.03.2022
3027 Clouds 25 1021 34 10000 0.45 105 17:53 25.03.2022
3028 Clouds 25 1023 50 10000 0.45 105 17:27 25.03.2022
3029 Smoke 24 1023 53 9656 0.89 90 16:21 25.03.2022
3030 Clouds 20 1020 51 10000 0.89 300 14:54 25.03.2022
3031 Clouds 16 1021 82 9656 2.49 246 13:26 25.03.2022
3032 Clouds 16 1019 56 10000 1.91 287 10:49 25.03.2022
3033 Clouds 17 1019 55 10000 0.89 271 09:28 25.03.2022
3034 Clouds 18 1020 56 10000 0.89 271 08:36 25.03.2022
3035 Clouds 18 1020 56 10000 0.45 271 07:30 25.03.2022
3036 Clouds 21 1022 68 9656 0 0 06:29 25.03.2022
3037 Clouds 22 1018 45 10000 4.47 350 01:57 25.03.2022
3038 Clouds 24 1017 41 10000 5.36 355 22:56 24.03.2022
3039 Clouds 25 1017 40 10000 6.71 13 21:52 24.03.2022
3040 Clouds 25 1018 37 10000 7.15 335 20:45 24.03.2022
3041 Clouds 25 1019 39 10000 7.6 9 19:48 24.03.2022
3042 Clouds 25 1019 39 10000 7.6 9 19:48 24.03.2022
3043 Clouds 21 1022 68 9656 7.15 24 18:22 24.03.2022
3044 Clouds 20 1022 83 9656 8.05 355 17:29 24.03.2022
3045 Clouds 20 1019 59 10000 5.81 32 15:56 24.03.2022
3046 Clouds 20 1019 65 10000 4.47 13 14:51 24.03.2022
3047 Clouds 19 1020 94 8047 4.92 355 14:21 24.03.2022
3048 Clouds 19 1019 94 8047 4.47 344 13:26 24.03.2022
3049 Clouds 20 1016 65 10000 4.92 345 11:59 24.03.2022
3050 Clouds 21 1016 62 10000 4.47 349 10:28 24.03.2022
3051 Clouds 22 1016 58 10000 4.92 322 09:22 24.03.2022
3052 Clouds 22 1015 55 10000 2.24 49 07:39 24.03.2022
3053 Clouds 21 1016 83 10000 0.89 75 04:34 24.03.2022
3054 Clouds 24 1014 60 10000 6.26 30 23:21 23.03.2022
3055 Clouds 25 1013 44 10000 7.6 360 21:53 23.03.2022
3056 Clouds 23 1015 68 10000 6.71 340 21:20 23.03.2022
3057 Clouds 23 1014 47 10000 7.6 341 19:50 23.03.2022
3058 Clouds 23 1016 64 10000 8.49 350 19:25 23.03.2022
3059 Clouds 24 1016 50 10000 8.94 360 17:39 23.03.2022
3060 Clouds 24 1014 36 10000 10.28 347 16:53 23.03.2022
3061 Clouds 25 1013 32 10000 6.71 355 14:57 23.03.2022
3062 Mist 24 1014 57 9656 6.71 344 14:38 23.03.2022
3063 Clouds 23 1012 62 10000 1.79 350 13:22 23.03.2022
3064 Clouds 21 1008 64 10000 0.45 336 10:20 23.03.2022
3065 Clouds 22 1008 60 10000 1.34 305 07:44 23.03.2022
3066 Clear 23 1009 83 10000 4.02 355 05:27 23.03.2022
3067 Clouds 25 1005 73 10000 4.47 72 01:41 23.03.2022
3068 Haze 27 1005 65 9656 6.26 44 00:24 23.03.2022
3069 Haze 31 1005 55 9656 7.15 11 21:32 22.03.2022
3070 Clouds 32 1003 39 10000 5.81 26 20:55 22.03.2022
3071 Clear 35 1003 34 10000 2.68 82 19:56 22.03.2022
3072 Haze 32 1006 51 9656 2.68 126 19:25 22.03.2022
3073 Clouds 32 1004 39 10000 2.68 169 18:45 22.03.2022
3074 Haze 28 1007 65 9656 1.34 157 17:42 22.03.2022
3075 Haze 27 1007 69 9656 2.68 181 16:32 22.03.2022
3076 Haze 24 1006 83 9656 3.58 147 15:23 22.03.2022
3077 Clouds 24 1005 61 10000 2.24 205 14:59 22.03.2022
3078 Haze 22 1006 88 8047 1.79 178 14:41 22.03.2022
3079 Haze 22 1005 88 8047 0.45 211 13:36 22.03.2022
3080 Clear 22 1004 65 10000 4.83 189 11:52 22.03.2022
3081 Clear 22 1004 65 10000 4.82 195 10:51 22.03.2022
3082 Clear 22 1005 67 10000 1.34 273 08:40 22.03.2022
3083 Clear 22 1006 63 10000 2.65 200 06:58 22.03.2022
3084 Clear 25 1006 61 10000 0.45 175 03:54 22.03.2022
3085 Clear 27 1007 74 10000 4.47 77 00:34 22.03.2022
3086 Clear 28 1006 49 10000 5.81 92 22:42 21.03.2022
3087 Clear 30 1010 58 9656 6.71 94 21:18 21.03.2022
3088 Clear 31 1008 42 10000 5.81 85 20:42 21.03.2022
3089 Clear 31 1009 43 10000 4.02 87 19:59 21.03.2022
3090 Clear 30 1012 58 6437 5.36 85 19:34 21.03.2022
3091 Clear 30 1011 44 10000 3.13 112 18:46 21.03.2022
3092 Haze 25 1015 73 4828 1.79 198 17:31 21.03.2022
3093 Clear 26 1013 54 10000 2.68 213 16:53 21.03.2022
3094 Haze 22 1015 88 4828 2.68 198 16:24 21.03.2022
3095 Haze 21 1015 94 3219 4.02 216 15:21 21.03.2022
3096 Haze 21 1015 94 3219 1.79 178 14:28 21.03.2022
3097 Clear 22 1013 65 10000 1.79 205 12:43 21.03.2022
3098 Clear 22 1013 64 10000 1.79 179 11:54 21.03.2022
3099 Clear 22 1013 63 10000 1.79 190 10:45 21.03.2022
3100 Clouds 22 1014 60 10000 0.89 169 08:56 21.03.2022
3101 Clouds 23 1015 59 10000 2.43 266 06:57 21.03.2022
3102 Clear 22 1017 78 9656 5.14 20 03:29 21.03.2022
3103 Clear 25 1016 61 8047 5.81 16 00:35 21.03.2022
3104 Clouds 27 1014 43 10000 5.81 27 22:55 20.03.2022
3105 Clouds 27 1015 41 10000 5.81 12 21:57 20.03.2022
3106 Clear 27 1018 57 9656 6.26 25 21:29 20.03.2022
3107 Clouds 28 1016 41 10000 6.26 13 20:45 20.03.2022
3108 Clouds 28 1017 40 10000 4.92 33 19:59 20.03.2022
3109 Clouds 27 1020 61 9656 4.92 18 19:38 20.03.2022
3110 Clouds 27 1018 44 10000 4.47 45 18:40 20.03.2022
3111 Clouds 24 1021 69 9656 2.24 350 17:37 20.03.2022
3112 Clouds 24 1019 51 10000 3.13 24 16:57 20.03.2022
3113 Clouds 23 1019 54 10000 2.24 355 15:43 20.03.2022
3114 Clouds 22 1019 78 9656 1.79 349 14:36 20.03.2022
3115 Clouds 22 1019 78 8047 1.34 333 13:18 20.03.2022
3116 Clouds 23 1016 53 10000 4.02 333 11:32 20.03.2022
3117 Clouds 23 1017 53 10000 2.68 340 09:39 20.03.2022
3118 Clouds 23 1017 52 10000 0.89 309 07:49 20.03.2022
3119 Clouds 23 1017 52 10000 3.58 5 05:48 20.03.2022
3120 Clouds 24 1017 64 10000 5.81 339 02:45 20.03.2022
3121 Clouds 25 1016 61 10000 7.15 26 00:47 20.03.2022
3122 Clouds 26 1016 57 10000 8.05 13 23:19 19.03.2022
3123 Clouds 27 1017 61 10000 7.6 346 21:32 19.03.2022
3124 Clouds 28 1015 44 10000 7.6 10 20:58 19.03.2022
3125 Clouds 27 1017 50 10000 5.36 32 18:59 19.03.2022
3126 Clouds 26 1019 69 10000 5.36 32 18:24 19.03.2022
3127 Clouds 25 1019 73 9656 5.36 17 17:40 19.03.2022
3128 Mist 24 1018 78 9656 3.58 13 16:24 19.03.2022
3129 Haze 23 1017 88 9656 2.68 315 15:19 19.03.2022
3130 Clouds 23 1014 59 10000 1.79 5 13:20 19.03.2022
3131 Clouds 23 1013 59 10000 4.47 13 12:40 19.03.2022
3132 Clouds 23 1013 60 10000 4.02 5 11:54 19.03.2022
3133 Clouds 23 1013 60 10000 3.13 12 10:53 19.03.2022
3134 Haze 23 1015 88 8047 3.13 346 07:33 19.03.2022
3135 Clouds 24 1010 60 10000 6.26 342 03:49 19.03.2022
3136 Mist 24 1010 83 4828 7.15 343 02:29 19.03.2022
3137 Haze 26 1009 73 8047 7.15 36 23:45 18.03.2022
3138 Haze 28 1009 65 6437 8.05 36 22:28 18.03.2022
3139 Clouds 29 1008 47 10000 8.49 360 21:46 18.03.2022
3140 Clouds 28 1010 67 10000 5.85 29 19:52 18.03.2022
3141 Clouds 28 1010 67 10000 5.85 29 19:52 18.03.2022
3142 Haze 32 1010 55 6437 3.58 107 19:21 18.03.2022
3143 Clouds 31 1008 44 10000 0.89 125 17:52 18.03.2022
3144 Clouds 29 1008 49 10000 2.68 228 16:49 18.03.2022
3145 Mist 23 1009 88 4828 2.24 204 15:32 18.03.2022
3146 Mist 22 1008 88 4828 1.34 204 14:23 18.03.2022
3147 Clouds 22 1006 65 10000 0.89 210 12:36 18.03.2022
3148 Clouds 22 1005 64 10000 0.45 228 10:58 18.03.2022
3149 Clouds 23 1006 64 10000 4.36 174 09:30 18.03.2022
3150 Clouds 23 1006 63 10000 3.31 173 08:42 18.03.2022
3151 Clouds 24 1009 88 8047 0.45 212 06:37 18.03.2022
3152 Clouds 24 1008 88 8047 0.89 104 03:19 18.03.2022
3153 Clouds 27 1006 69 8047 4.47 106 00:39 18.03.2022
3154 Clouds 28 1006 65 8047 4.47 109 23:38 17.03.2022
3155 Clear 28 1007 69 6437 4.47 87 22:25 17.03.2022
3156 Clear 30 1005 47 10000 4.02 103 21:48 17.03.2022
3157 Clear 29 1008 61 8047 3.58 101 21:26 17.03.2022
3158 Clouds 28 1009 65 6437 3.58 87 20:45 17.03.2022
3159 Clear 28 1008 51 10000 3.58 105 19:50 17.03.2022
3160 Haze 27 1011 69 4828 1.79 186 19:28 17.03.2022
3161 Haze 26 1012 69 4828 1.79 156 18:46 17.03.2022
3162 Clear 24 1011 59 10000 1.79 174 16:58 17.03.2022
3163 Mist 21 1012 100 3219 1.79 199 15:44 17.03.2022
3164 Mist 21 1012 100 3219 1.79 199 15:26 17.03.2022
3165 Clouds 20 1012 100 8047 1.34 186 14:38 17.03.2022
3166 Clouds 21 1009 68 10000 4.74 177 12:55 17.03.2022
3167 Clouds 21 1009 68 10000 3.9 188 12:25 17.03.2022
3168 Clouds 21 1009 69 10000 3.28 192 11:29 17.03.2022
3169 Clouds 22 1009 68 10000 0.45 150 10:30 17.03.2022
3170 Clouds 23 1010 65 10000 1.34 137 08:37 17.03.2022
3171 Clouds 23 1011 63 10000 1.34 114 07:34 17.03.2022
3172 Clouds 23 1015 88 9656 0 0 05:47 17.03.2022
3173 Clouds 24 1013 83 8047 2.68 87 01:30 17.03.2022
3174 Clear 26 1011 51 10000 4.92 109 23:50 16.03.2022
3175 Clear 27 1012 48 10000 4.92 106 22:48 16.03.2022
3176 Clear 27 1012 48 10000 4.92 106 22:48 16.03.2022
3177 Clear 27 1012 47 10000 5.81 115 22:30 16.03.2022
3178 Clouds 27 1015 61 8047 6.71 84 21:39 16.03.2022
3179 Clouds 30 1017 51 9656 4.47 95 19:47 16.03.2022
3180 Clouds 30 1017 51 9656 2.24 123 19:21 16.03.2022
3181 Clouds 28 1019 57 9656 2.24 216 18:37 16.03.2022
3182 Clouds 26 1019 65 9656 3.13 209 17:43 16.03.2022
3183 Clouds 26 1019 65 9656 2.24 195 17:19 16.03.2022
3184 Clear 24 1019 73 10000 0.96 225 15:55 16.03.2022
3185 Clouds 21 1019 83 9656 0 0 14:27 16.03.2022
3186 Clouds 21 1018 87 10000 1.78 282 13:31 16.03.2022
3187 Clouds 21 1017 90 10000 2.39 309 11:56 16.03.2022
3188 Clouds 21 1017 89 10000 2.92 325 11:21 16.03.2022
3189 Clouds 22 1018 88 10000 3.58 333 10:23 16.03.2022
3190 Clouds 22 1017 55 10000 1.79 347 08:52 16.03.2022
3191 Clouds 23 1019 57 10000 3.58 360 05:58 16.03.2022
3192 Clouds 23 1016 60 10000 6.26 22 01:45 16.03.2022
3193 Clear 26 1017 65 10000 9.83 16 22:38 15.03.2022
3194 Clouds 27 1016 46 10000 8.49 18 21:55 15.03.2022
3195 Clear 28 1019 57 10000 7.6 16 20:28 15.03.2022
3196 Clouds 28 1018 44 10000 8.05 5 18:57 15.03.2022
3197 Clouds 26 1018 46 10000 6.71 360 16:57 15.03.2022
3198 Clear 24 1020 69 9656 6.26 5 16:28 15.03.2022
3199 Clouds 22 1017 56 10000 2.24 333 14:58 15.03.2022
3200 Mist 21 1018 83 6437 0.45 309 14:39 15.03.2022
3201 Mist 21 1018 83 8047 1.34 292 13:38 15.03.2022
3202 Clouds 22 1015 59 10000 0.45 304 12:24 15.03.2022
3203 Clouds 21 1014 61 10000 2.88 322 11:31 15.03.2022
3204 Clouds 22 1014 59 10000 1.68 257 09:40 15.03.2022
3205 Clouds 22 1015 60 10000 0.45 253 08:42 15.03.2022
3206 Clouds 21 1016 60 10000 0.57 184 07:50 15.03.2022
3207 Clouds 22 1016 61 10000 0.89 240 06:54 15.03.2022
3208 Clouds 23 1016 78 10000 2.32 75 03:30 15.03.2022
3209 Clear 27 1014 50 10000 4.47 104 23:40 14.03.2022
3210 Clear 27 1014 50 10000 5.36 101 23:21 14.03.2022
3211 Clear 28 1015 47 10000 5.36 85 22:26 14.03.2022
3212 Clear 27 1016 50 9656 4.47 119 21:26 14.03.2022
3213 Clouds 26 1017 57 9656 4.47 116 20:35 14.03.2022
3214 Clear 27 1015 39 10000 4.47 67 19:59 14.03.2022
3215 Clouds 26 1019 53 10000 1.34 143 18:37 14.03.2022
3216 Clear 26 1017 39 10000 1.79 156 17:44 14.03.2022
3217 Clear 26 1017 42 10000 2.24 150 16:57 14.03.2022
3218 Clouds 19 1019 82 9656 2.68 209 15:34 14.03.2022
3219 Clouds 18 1019 82 9656 1.34 260 14:38 14.03.2022
3220 Clouds 18 1017 59 10000 2.47 261 12:21 14.03.2022
3221 Clouds 18 1017 57 10000 2.78 276 10:50 14.03.2022
3222 Clouds 20 1017 55 10000 2.64 278 09:39 14.03.2022
3223 Clouds 20 1017 55 10000 2.01 266 09:20 14.03.2022
3224 Clouds 20 1018 55 10000 2.01 266 08:55 14.03.2022
3225 Clouds 20 1019 56 10000 0.89 273 07:21 14.03.2022
3226 Clouds 19 1022 77 10000 1.54 320 05:22 14.03.2022
3227 Clear 21 1019 53 10000 2.24 49 01:52 14.03.2022
3228 Clear 22 1020 68 10000 4.47 62 00:40 14.03.2022
3229 Clouds 24 1019 40 10000 4.47 22 21:56 13.03.2022
3230 Clouds 23 1022 53 10000 4.47 43 21:28 13.03.2022
3231 Clouds 24 1020 36 10000 4.47 44 20:53 13.03.2022
3232 Clouds 24 1023 46 10000 4.92 90 20:29 13.03.2022
3233 Haze 24 1024 46 9656 3.13 43 19:43 13.03.2022
3234 Haze 24 1024 46 9656 1.97 10 19:25 13.03.2022
3235 Clouds 24 1023 32 10000 2.68 11 18:50 13.03.2022
3236 Haze 23 1025 43 9656 2.24 31 18:27 13.03.2022
3237 Haze 21 1026 49 9656 1.34 294 17:40 13.03.2022
3238 Clouds 22 1024 34 10000 1.79 13 16:48 13.03.2022
3239 Haze 20 1026 52 8047 1.79 342 16:27 13.03.2022
3240 Clouds 19 1024 39 10000 1.34 288 15:44 13.03.2022
3241 Clouds 18 1025 54 10000 1.17 306 14:49 13.03.2022
3242 Clouds 15 1025 72 10000 1.24 326 13:30 13.03.2022
3243 Clouds 18 1024 56 10000 1.93 331 12:37 13.03.2022
3244 Clouds 18 1024 57 10000 2.07 330 11:51 13.03.2022
3245 Clouds 17 1024 57 10000 1.65 319 11:25 13.03.2022
3246 Clouds 15 1023 51 10000 1.65 319 10:44 13.03.2022
3247 Clouds 16 1024 50 10000 1.04 264 09:43 13.03.2022
3248 Clouds 16 1024 50 10000 1.89 228 09:20 13.03.2022
3249 Clouds 17 1025 49 10000 1.89 228 08:39 13.03.2022
3250 Clouds 17 1026 48 10000 0.45 301 07:37 13.03.2022
3251 Clouds 17 1029 63 10000 4.92 331 05:39 13.03.2022
3252 Clouds 17 1025 43 10000 7.6 5 01:48 13.03.2022
3253 Sand 18 1025 36 8047 12.52 10 23:28 12.03.2022
3254 Sand 20 1024 40 8047 12.52 351 21:43 12.03.2022
3255 Sand 21 1024 43 8047 13.41 11 20:27 12.03.2022
3256 Clouds 22 1023 29 10000 15.2 15 19:46 12.03.2022
3257 Sand 20 1024 49 8047 16.63 347 18:44 12.03.2022
3258 Sand 20 1024 49 8047 17.41 347 18:19 12.03.2022
3259 Sand 20 1022 60 8047 12.96 360 16:32 12.03.2022
3260 Clouds 21 1021 46 10000 14.31 334 15:52 12.03.2022
3261 Sand 20 1020 64 8047 14.31 320 15:22 12.03.2022
3262 Sand 20 1020 73 8047 14.31 9 13:54 12.03.2022
3263 Sand 20 1020 73 8047 14.31 9 13:54 12.03.2022
3264 Clouds 21 1017 58 10000 12.96 360 12:33 12.03.2022
3265 Clouds 21 1016 61 10000 14.31 344 11:55 12.03.2022
3266 Clouds 21 1015 62 10000 14.75 360 11:34 12.03.2022
3267 Clouds 25 1012 60 10000 12.52 349 10:26 12.03.2022
3268 Clouds 25 1012 60 10000 12.07 24 09:43 12.03.2022
3269 Clear 25 1011 67 10000 5.81 360 07:58 12.03.2022
3270 Clear 24 1011 88 8047 3.13 360 06:40 12.03.2022
3271 Clouds 28 1004 57 10000 2.24 93 00:55 12.03.2022
3272 Clear 30 1006 62 9656 2.68 62 23:43 11.03.2022
3273 Clear 30 1006 62 9656 2.68 62 23:43 11.03.2022
3274 Clear 31 1006 58 9656 3.58 65 22:32 11.03.2022
3275 Clear 30 1008 62 8047 3.58 113 21:24 11.03.2022
3276 Clouds 30 1009 62 9656 3.58 70 20:46 11.03.2022
3277 Clouds 30 1009 62 9656 4.47 80 20:26 11.03.2022
3278 Clouds 28 1010 69 8047 2.68 71 19:33 11.03.2022
3279 Clouds 26 1011 73 8047 0.89 142 18:30 11.03.2022
3280 Haze 25 1012 78 6437 0.89 193 17:24 11.03.2022
3281 Mist 21 1012 100 3219 1.79 176 15:59 11.03.2022
3282 Mist 21 1012 100 3219 1.79 176 15:32 11.03.2022
3283 Fog 19 1010 100 10000 1.51 185 13:42 11.03.2022
3284 Clear 21 1008 73 10000 0.45 225 12:37 11.03.2022
3285 Clear 21 1008 73 10000 0.45 225 12:19 11.03.2022
3286 Clear 21 1007 70 10000 0.89 191 10:44 11.03.2022
3287 Clear 20 1008 67 10000 1.41 195 09:34 11.03.2022
3288 Clear 21 1009 66 10000 0.45 134 08:28 11.03.2022
3289 Clear 21 1009 66 10000 1.13 214 07:48 11.03.2022
3290 Clear 22 1012 94 9656 0.73 273 06:26 11.03.2022
3291 Clear 22 1011 94 9656 1.19 32 04:28 11.03.2022
3292 Clear 24 1009 78 10000 1.79 101 01:20 11.03.2022
3293 Clouds 26 1009 65 10000 4.92 74 22:32 10.03.2022
3294 Clouds 27 1008 48 10000 4.02 126 21:53 10.03.2022
3295 Clouds 27 1010 61 10000 3.13 92 21:24 10.03.2022
3296 Clouds 27 1010 61 10000 3.13 92 21:24 10.03.2022
3297 Clouds 26 1012 65 9656 2.24 107 20:18 10.03.2022
3298 Clouds 26 1011 50 10000 0.45 92 18:56 10.03.2022
3299 Clouds 22 1015 78 10000 0.89 185 17:37 10.03.2022
3300 Clouds 22 1014 78 10000 0.45 241 16:42 10.03.2022
3301 Clouds 21 1014 83 9656 0.89 261 15:27 10.03.2022
3302 Clouds 20 1012 88 9656 0.45 300 13:30 10.03.2022
3303 Clouds 21 1010 60 10000 0.45 300 12:35 10.03.2022
3304 Clouds 21 1010 60 10000 1.79 329 11:26 10.03.2022
3305 Clouds 22 1010 57 10000 4.02 351 09:28 10.03.2022
3306 Clouds 22 1010 57 10000 4.92 22 07:46 10.03.2022
3307 Clouds 21 1010 59 10000 4.47 355 04:59 10.03.2022
3308 Clouds 21 1009 60 10000 5.81 13 01:53 10.03.2022
3309 Clouds 24 1010 69 10000 6.71 360 23:29 09.03.2022
3310 Clouds 25 1008 52 10000 7.6 5 21:54 09.03.2022
3311 Clouds 25 1011 69 10000 7.6 20 21:34 09.03.2022
3312 Clouds 28 1010 48 10000 7.15 341 19:56 09.03.2022
3313 Haze 27 1013 61 9656 6.26 17 18:34 09.03.2022
3314 Haze 26 1013 69 9656 1.34 315 17:27 09.03.2022
3315 Haze 24 1013 78 8047 3.13 25 16:34 09.03.2022
3316 Haze 22 1013 88 9656 1.34 14 15:31 09.03.2022
3317 Haze 22 1011 83 9656 4.47 5 13:54 09.03.2022
3318 Clouds 22 1009 61 10000 5.81 349 12:48 09.03.2022
3319 Clouds 22 1008 66 10000 3.13 345 11:54 09.03.2022
3320 Clouds 22 1008 67 10000 3.13 349 11:35 09.03.2022
3321 Clouds 22 1008 66 10000 3.58 351 10:34 09.03.2022
3322 Clouds 23 1008 63 10000 1.34 311 08:57 09.03.2022
3323 Clouds 23 1008 63 10000 0.31 274 07:54 09.03.2022
3324 Clouds 23 1008 62 10000 1.79 29 02:57 09.03.2022
3325 Clouds 24 1007 58 10000 3.13 40 00:46 09.03.2022
3326 Clouds 27 1007 52 10000 3.58 27 22:48 08.03.2022
3327 Clear 26 1009 69 10000 4.02 52 22:27 08.03.2022
3328 Clouds 26 1011 69 10000 4.47 52 21:23 08.03.2022
3329 Clouds 27 1009 49 10000 4.02 17 20:42 08.03.2022
3330 Clouds 27 1013 65 10000 3.58 16 19:35 08.03.2022
3331 Clouds 27 1012 50 10000 2.24 69 18:44 08.03.2022
3332 Clouds 26 1015 73 9656 3.58 348 17:32 08.03.2022
3333 Clouds 24 1015 83 8047 4.02 13 15:56 08.03.2022
3334 Clouds 23 1014 88 9656 2.68 16 14:19 08.03.2022
3335 Clouds 23 1012 64 10000 4.02 355 12:43 08.03.2022
3336 Clouds 23 1011 64 10000 4.02 5 11:45 08.03.2022
3337 Clouds 23 1011 63 10000 3.13 5 10:45 08.03.2022
3338 Clouds 24 1011 61 10000 4.02 349 09:51 08.03.2022
3339 Clouds 24 1012 63 10000 6.26 355 06:59 08.03.2022
3340 Clear 25 1012 63 10000 5.81 26 04:52 08.03.2022
3341 Clouds 28 1007 55 10000 5.36 73 23:51 07.03.2022
3342 Clouds 31 1007 46 10000 4.47 95 21:57 07.03.2022
3343 Clear 31 1009 62 8047 5.36 105 21:32 07.03.2022
3344 Clear 32 1010 58 8047 5.36 63 20:46 07.03.2022
3345 Clouds 32 1008 45 10000 3.58 90 19:55 07.03.2022
3346 Clear 32 1011 51 8047 4.02 78 19:31 07.03.2022
3347 Clear 31 1012 58 8047 3.88 92 18:42 07.03.2022
3348 Clear 30 1010 50 10000 2.24 136 17:47 07.03.2022
3349 Clear 27 1011 54 10000 2.24 195 16:55 07.03.2022
3350 Mist 22 1012 94 6437 1.79 201 15:32 07.03.2022
3351 Clear 19 1011 100 9656 0 0 13:24 07.03.2022
3352 Clear 20 1009 72 10000 0.45 215 12:23 07.03.2022
3353 Clear 21 1009 71 10000 0.89 194 10:38 07.03.2022
3354 Clear 22 1010 70 10000 2.26 200 08:48 07.03.2022
3355 Clouds 24 1011 65 10000 0.89 53 03:49 07.03.2022
3356 Clouds 27 1010 69 9656 4.47 78 00:22 07.03.2022
3357 Clouds 29 1010 61 9656 4.47 95 23:31 06.03.2022
3358 Clouds 30 1011 62 9656 4.47 88 22:37 06.03.2022
3359 Clouds 30 1009 47 10000 4.92 83 21:46 06.03.2022
3360 Clouds 29 1013 61 8047 3.58 87 20:30 06.03.2022
3361 Clouds 30 1011 48 10000 3.13 134 19:51 06.03.2022
3362 Clear 30 1012 49 10000 2.68 96 18:51 06.03.2022
3363 Clear 29 1013 47 10000 0.89 69 17:57 06.03.2022
3364 Clouds 27 1015 74 6437 0.45 184 17:21 06.03.2022
3365 Clear 25 1015 83 6437 0.89 64 16:41 06.03.2022
3366 Clear 25 1013 62 10000 1.79 77 15:45 06.03.2022
3367 Clear 22 1013 72 10000 2.22 162 14:49 06.03.2022
3368 Haze 19 1014 100 4828 2.22 162 14:30 06.03.2022
3369 Clear 20 1011 71 10000 1.71 174 12:44 06.03.2022
3370 Clear 20 1011 71 10000 2.33 222 11:56 06.03.2022
3371 Clear 20 1011 70 10000 2.94 228 10:45 06.03.2022
3372 Clear 21 1012 70 10000 3.05 216 09:34 06.03.2022
3373 Clear 22 1013 68 10000 2.08 178 08:28 06.03.2022
3374 Clear 22 1013 67 10000 2.08 178 07:34 06.03.2022
3375 Clouds 23 1014 94 10000 0.74 154 04:45 06.03.2022
3376 Clouds 27 1012 65 10000 4.47 121 00:42 06.03.2022
3377 Clouds 27 1012 65 10000 4.47 92 00:23 06.03.2022
3378 Clouds 28 1012 57 10000 4.92 66 23:19 05.03.2022
3379 Haze 30 1013 48 9656 4.47 114 22:42 05.03.2022
3380 Haze 30 1014 51 9656 4.47 109 21:36 05.03.2022
3381 Clouds 31 1012 39 10000 3.58 84 20:57 05.03.2022
3382 Haze 29 1016 58 8047 4.02 88 19:24 05.03.2022
3383 Clouds 28 1014 48 10000 1.34 110 18:50 05.03.2022
3384 Haze 26 1017 73 9656 2.68 123 17:41 05.03.2022
3385 Haze 24 1017 83 8047 3.13 117 16:20 05.03.2022
3386 Haze 22 1017 88 8047 1.34 124 15:30 05.03.2022
3387 Clear 20 1015 74 10000 2.31 157 14:42 05.03.2022
3388 Clouds 19 1016 100 9656 1.74 153 14:24 05.03.2022
3389 Clouds 19 1014 73 10000 1.79 89 12:55 05.03.2022
3390 Clear 19 1014 72 10000 0.89 175 11:43 05.03.2022
3391 Clear 19 1014 71 10000 0.45 175 11:18 05.03.2022
3392 Clear 20 1014 73 10000 1.49 224 09:58 05.03.2022
3393 Clear 20 1015 71 10000 1.34 175 08:49 05.03.2022
3394 Clouds 20 1016 71 10000 1.31 246 07:23 05.03.2022
3395 Clouds 22 1017 66 10000 1.04 286 05:41 05.03.2022
3396 Clear 24 1016 78 10000 1.79 119 01:25 05.03.2022
3397 Clear 26 1017 69 10000 5.36 90 23:30 04.03.2022
3398 Clouds 26 1017 65 10000 5.36 105 22:40 04.03.2022
3399 Clouds 27 1015 49 10000 5.81 88 21:47 04.03.2022
3400 Clouds 28 1016 45 10000 5.36 75 20:49 04.03.2022
3401 Clouds 27 1019 61 10000 4.47 105 20:18 04.03.2022
3402 Clouds 26 1020 65 10000 4.47 86 19:35 04.03.2022
3403 Clouds 26 1021 69 10000 4.02 69 18:36 04.03.2022
3404 Clouds 25 1021 73 10000 2.68 90 17:30 04.03.2022
3405 Clouds 24 1021 78 9656 2.24 109 16:36 04.03.2022
3406 Clear 22 1020 94 9656 1.79 44 15:27 04.03.2022
3407 Clear 22 1020 94 9656 1.79 44 15:27 04.03.2022
3408 Clouds 20 1019 100 9656 0 0 13:38 04.03.2022
3409 Clouds 19 1017 71 10000 1.08 358 12:51 04.03.2022
3410 Clouds 20 1017 70 10000 1.15 351 11:38 04.03.2022
3411 Clouds 20 1017 69 10000 1.43 349 10:42 04.03.2022
3412 Clouds 21 1017 67 10000 1.22 326 09:28 04.03.2022
3413 Clear 21 1018 66 10000 1.25 324 08:20 04.03.2022
3414 Clear 22 1019 64 10000 0.45 296 06:55 04.03.2022
3415 Clear 24 1017 61 10000 2.68 44 02:52 04.03.2022
3416 Clouds 24 1017 78 9656 4.47 82 00:19 04.03.2022
3417 Clouds 27 1017 61 9656 6.71 88 22:19 03.03.2022
3418 Clouds 27 1018 61 9656 4.92 94 21:37 03.03.2022
3419 Clouds 27 1016 50 10000 5.81 82 20:56 03.03.2022
3420 Clouds 26 1020 65 9656 4.02 93 19:42 03.03.2022
3421 Clouds 26 1019 52 10000 4.02 100 18:44 03.03.2022
3422 Clouds 24 1021 78 9656 3.58 77 17:43 03.03.2022
3423 Clouds 24 1021 78 9656 2.68 111 17:24 03.03.2022
3424 Clouds 24 1019 57 10000 1.13 61 15:47 03.03.2022
3425 Clouds 22 1018 60 10000 0.75 45 14:51 03.03.2022
3426 Clouds 20 1019 83 8047 0.75 45 14:32 03.03.2022
3427 Clouds 20 1017 63 10000 0.95 70 12:44 03.03.2022
3428 Clouds 20 1016 62 10000 0.89 283 11:32 03.03.2022
3429 Clouds 20 1017 62 10000 0.45 315 10:39 03.03.2022
3430 Clouds 21 1018 62 10000 1.34 286 08:44 03.03.2022
3431 Clouds 22 1019 60 10000 0.89 295 06:58 03.03.2022
3432 Clouds 21 1021 83 10000 0.89 295 06:33 03.03.2022
3433 Clouds 24 1018 69 10000 4.02 64 00:43 03.03.2022
3434 Clear 25 1017 65 10000 5.36 52 23:28 02.03.2022
3435 Clear 26 1016 49 10000 4.02 71 22:48 02.03.2022
3436 Clear 25 1019 65 10000 4.02 68 21:23 02.03.2022
3437 Clouds 26 1019 61 10000 5.81 31 20:40 02.03.2022
3438 Clear 26 1018 47 10000 4.47 46 19:49 02.03.2022
3439 Clouds 25 1020 65 10000 4.47 46 19:30 02.03.2022
3440 Clouds 26 1021 57 10000 2.68 51 18:39 02.03.2022
3441 Clouds 25 1019 49 10000 0.89 301 17:50 02.03.2022
3442 Clouds 25 1019 50 10000 0.89 34 16:59 02.03.2022
3443 Clear 22 1021 73 8047 0.98 345 16:41 02.03.2022
3444 Mist 17 1020 100 8047 2.16 277 14:42 02.03.2022
3445 Clear 18 1020 94 10000 1.99 298 13:24 02.03.2022
3446 Clouds 18 1018 65 10000 2.92 327 12:41 02.03.2022
3447 Clouds 19 1017 65 10000 0.45 22 11:39 02.03.2022
3448 Clouds 19 1018 67 10000 3.56 323 11:18 02.03.2022
3449 Clouds 20 1018 66 10000 0.45 321 09:41 02.03.2022
3450 Clouds 20 1019 64 10000 0.89 324 08:52 02.03.2022
3451 Clouds 20 1020 64 10000 1.34 322 07:28 02.03.2022
3452 Clouds 21 1020 62 10000 4.02 349 05:44 02.03.2022
3453 Clouds 22 1017 55 10000 6.26 11 00:58 02.03.2022
3454 Clear 22 1017 55 10000 6.26 11 00:58 02.03.2022
3455 Clear 23 1017 53 10000 6.26 20 23:46 01.03.2022
3456 Clear 25 1017 50 10000 6.71 17 22:45 01.03.2022
3457 Clouds 25 1018 49 10000 6.26 20 21:57 01.03.2022
3458 Clouds 25 1020 57 10000 4.92 16 21:23 01.03.2022
3459 Clouds 24 1021 57 10000 4.02 77 20:29 01.03.2022
3460 Clouds 24 1022 53 10000 2.68 78 19:24 01.03.2022
3461 Clouds 24 1022 53 10000 2.24 76 18:37 01.03.2022
3462 Clouds 24 1022 53 10000 2.24 76 18:18 01.03.2022
3463 Clouds 23 1021 46 10000 2.24 69 16:54 01.03.2022
3464 Clouds 21 1021 51 10000 0.89 5 15:59 01.03.2022
3465 Haze 16 1022 88 10000 0.45 289 15:23 01.03.2022
3466 Haze 14 1022 94 8047 2.45 295 14:34 01.03.2022
3467 Haze 14 1022 88 9656 0 0 13:27 01.03.2022
3468 Clouds 15 1020 65 10000 3 318 12:58 01.03.2022
3469 Clouds 18 1020 86 10000 3.12 318 12:22 01.03.2022
3470 Clouds 17 1020 63 10000 0.89 39 10:27 01.03.2022
3471 Clouds 17 1020 59 10000 3.49 321 08:41 01.03.2022
3472 Clouds 17 1021 57 10000 1.34 272 07:40 01.03.2022
3473 Clouds 19 1022 53 10000 2.68 9 04:50 01.03.2022
3474 Clouds 19 1020 56 10000 9.39 9 01:43 01.03.2022
3475 Clouds 21 1020 50 10000 9.83 22 23:48 28.02.2022
3476 Clouds 23 1020 43 10000 8.49 13 22:58 28.02.2022
3477 Clouds 23 1020 41 10000 8.49 17 21:50 28.02.2022
3478 Clouds 23 1023 56 10000 8.05 360 21:24 28.02.2022
3479 Clouds 23 1022 46 10000 10.28 349 19:52 28.02.2022
3480 Clouds 22 1025 56 10000 8.94 16 19:26 28.02.2022
3481 Clouds 21 1026 60 10000 8.94 5 18:36 28.02.2022
3482 Clouds 20 1025 68 10000 10.28 351 17:24 28.02.2022
3483 Clouds 20 1025 68 10000 7.6 360 16:33 28.02.2022
3484 Clouds 19 1024 72 9656 8.94 5 15:23 28.02.2022
3485 Clouds 18 1024 77 9656 7.6 14 14:31 28.02.2022
3486 Clouds 18 1023 77 9656 6.26 355 13:34 28.02.2022
3487 Clouds 19 1021 62 10000 6.26 350 12:37 28.02.2022
3488 Clouds 20 1021 59 10000 4.47 5 11:40 28.02.2022
3489 Clouds 20 1021 58 10000 6.26 5 10:48 28.02.2022
3490 Clouds 20 1021 58 10000 5.36 13 10:19 28.02.2022
3491 Clouds 21 1021 58 10000 4.47 355 09:31 28.02.2022
3492 Clouds 21 1022 56 10000 6.71 5 08:29 28.02.2022
3493 Clouds 21 1022 56 10000 7.15 5 07:19 28.02.2022
3494 Clouds 20 1023 77 9656 7.15 342 04:31 28.02.2022
3495 Clouds 20 1023 77 9656 8.49 355 03:30 28.02.2022
3496 Clouds 23 1020 68 9656 10.73 5 23:27 27.02.2022
3497 Clouds 25 1020 61 10000 12.07 14 22:33 27.02.2022
3498 Clouds 27 1018 47 10000 8.49 321 21:49 27.02.2022
3499 Clouds 27 1019 47 10000 8.94 24 20:55 27.02.2022
3500 Clouds 27 1021 57 9656 7.6 15 20:27 27.02.2022
3501 Clouds 28 1020 47 10000 7.6 10 19:56 27.02.2022
3502 Clouds 27 1022 61 10000 6.71 28 19:26 27.02.2022
3503 Clouds 26 1023 65 8047 5.81 13 18:40 27.02.2022
3504 Clouds 26 1021 53 10000 5.36 360 17:54 27.02.2022
3505 Clouds 23 1023 78 8047 4.92 344 16:38 27.02.2022
3506 Clouds 23 1021 61 10000 3.13 307 15:59 27.02.2022
3507 Clear 18 1021 94 8047 0 0 13:21 27.02.2022
3508 Clouds 18 1018 69 10000 0.89 288 12:32 27.02.2022
3509 Clouds 18 1018 68 10000 3.1 307 10:54 27.02.2022
3510 Clouds 20 1018 67 10000 3.25 305 09:58 27.02.2022
3511 Clouds 20 1018 67 10000 0.89 299 09:37 27.02.2022
3512 Clouds 20 1018 67 10000 0.45 299 09:18 27.02.2022
3513 Clouds 22 1019 63 10000 3.13 355 07:34 27.02.2022
3514 Clouds 20 1021 88 10000 1.34 337 05:36 27.02.2022
3515 Clouds 22 1018 62 10000 6.26 5 00:53 27.02.2022
3516 Clouds 25 1017 55 10000 6.71 11 22:58 26.02.2022
3517 Clouds 26 1018 52 10000 7.6 22 21:44 26.02.2022
3518 Clouds 26 1019 53 10000 5.81 55 20:52 26.02.2022
3519 Clouds 26 1021 61 10000 5.81 22 20:19 26.02.2022
3520 Clouds 26 1022 61 10000 5.36 55 19:41 26.02.2022
3521 Clouds 26 1022 61 10000 5.36 9 19:19 26.02.2022
3522 Clouds 26 1021 51 10000 5.36 344 17:45 26.02.2022
3523 Clouds 25 1022 56 10000 4.02 355 16:49 26.02.2022
3524 Clouds 23 1021 61 10000 4.02 345 15:49 26.02.2022
3525 Clouds 21 1023 83 10000 5.81 5 15:22 26.02.2022
3526 Clouds 21 1021 66 10000 4.02 10 14:53 26.02.2022
3527 Clouds 20 1022 88 9656 4.47 355 14:33 26.02.2022
3528 Clear 20 1021 88 9656 2.24 5 13:19 26.02.2022
3529 Clouds 21 1019 65 10000 1.79 346 12:23 26.02.2022
3530 Clouds 21 1019 65 10000 4.02 5 11:28 26.02.2022
3531 Clouds 21 1019 65 10000 3.58 355 10:40 26.02.2022
3532 Clouds 22 1019 63 10000 3.13 5 08:53 26.02.2022
3533 Clouds 22 1022 78 10000 7.72 360 06:51 26.02.2022
3534 Clear 22 1019 84 10000 10.92 356 00:56 26.02.2022
3535 Clear 25 1016 61 10000 8.94 5 22:49 25.02.2022
3536 Clouds 26 1019 78 10000 7.15 20 21:43 25.02.2022
3537 Clouds 26 1019 78 10000 7.15 5 21:23 25.02.2022
3538 Clouds 27 1019 74 10000 5.81 17 20:32 25.02.2022
3539 Clouds 29 1018 54 10000 5.36 347 18:59 25.02.2022
3540 Clouds 27 1021 74 10000 2.98 339 17:27 25.02.2022
3541 Mist 25 1020 83 9656 4.47 9 16:24 25.02.2022
3542 Clouds 26 1018 63 10000 4.02 355 15:47 25.02.2022
3543 Mist 24 1019 88 9656 4.02 360 15:21 25.02.2022
3544 Mist 23 1019 94 6437 2.24 330 14:42 25.02.2022
3545 Mist 23 1019 94 6437 2.24 330 14:42 25.02.2022
3546 Mist 23 1018 94 10000 3.13 336 13:36 25.02.2022
3547 Clouds 24 1016 69 10000 2.24 355 12:56 25.02.2022
3548 Clouds 23 1015 69 10000 0.45 13 11:28 25.02.2022
3549 Clouds 23 1015 68 10000 0.89 313 10:40 25.02.2022
3550 Clouds 24 1015 68 10000 0.89 312 10:22 25.02.2022
3551 Clouds 24 1015 68 10000 0.89 341 09:18 25.02.2022
3552 Clouds 25 1015 67 10000 1.34 321 07:41 25.02.2022
3553 Clear 25 1016 65 10000 1.34 57 05:49 25.02.2022
3554 Clouds 24 1016 88 10000 2.68 46 04:32 25.02.2022
3555 Clear 27 1011 60 10000 3.58 62 23:47 24.02.2022
3556 Clear 28 1011 56 10000 4.02 43 21:56 24.02.2022
3557 Haze 29 1014 61 10000 4.92 23 21:38 24.02.2022
3558 Haze 29 1014 61 10000 4.02 40 21:19 24.02.2022
3559 Haze 29 1016 65 8047 2.68 49 19:38 24.02.2022
3560 Haze 28 1017 65 8047 3.13 360 18:44 24.02.2022
3561 Haze 28 1017 65 8047 2.24 22 18:19 24.02.2022
3562 Haze 25 1018 83 6437 3.13 346 17:34 24.02.2022
3563 Clear 26 1016 62 10000 2.68 29 16:49 24.02.2022
3564 Haze 25 1017 83 6437 2.24 22 16:23 24.02.2022
3565 Clear 22 1015 71 10000 0.89 282 14:56 24.02.2022
3566 Haze 22 1016 94 6437 0.45 293 14:36 24.02.2022
3567 Haze 22 1015 88 9656 1.54 340 13:39 24.02.2022
3568 Clouds 21 1013 67 10000 2.48 313 12:54 24.02.2022
3569 Clouds 22 1013 67 10000 2.57 325 10:41 24.02.2022
3570 Clouds 22 1013 67 10000 2.57 325 10:41 24.02.2022
3571 Clouds 23 1013 65 10000 3.06 320 09:18 24.02.2022
3572 Clouds 24 1013 65 10000 1.34 360 08:40 24.02.2022
3573 Clear 25 1014 65 10000 0.45 327 05:53 24.02.2022
3574 Clear 25 1011 64 10000 2.24 53 01:58 24.02.2022
3575 Clear 27 1012 69 10000 3.13 100 23:31 23.02.2022
3576 Clear 29 1011 52 10000 4.47 77 21:43 23.02.2022
3577 Clear 29 1014 65 10000 4.47 81 20:31 23.02.2022
3578 Clouds 29 1013 53 10000 4.92 103 19:48 23.02.2022
3579 Clear 29 1016 65 8047 4.02 88 18:32 23.02.2022
3580 Clear 29 1016 65 8047 4.02 88 18:32 23.02.2022
3581 Clear 28 1014 55 10000 1.79 78 17:44 23.02.2022
3582 Mist 21 1015 100 4828 1.08 159 15:19 23.02.2022
3583 Clear 20 1012 74 10000 1.26 140 12:50 23.02.2022
3584 Clear 19 1012 73 10000 0.7 128 12:24 23.02.2022
3585 Clear 21 1012 73 10000 1.48 245 10:35 23.02.2022
3586 Clear 21 1012 71 10000 3.74 262 08:59 23.02.2022
3587 Clear 21 1012 71 10000 3.74 262 08:59 23.02.2022
3588 Clear 22 1013 72 10000 2.57 271 08:23 23.02.2022
3589 Clear 21 1014 69 10000 2.08 287 06:53 23.02.2022
3590 Clear 27 1011 69 9656 2.24 103 00:47 23.02.2022
3591 Clear 27 1011 69 9656 3.58 92 23:39 22.02.2022
3592 Clear 28 1012 69 9656 4.02 80 22:41 22.02.2022
3593 Clear 28 1010 54 10000 4.92 59 21:49 22.02.2022
3594 Clear 29 1012 65 8047 4.47 81 21:31 22.02.2022
3595 Clear 29 1010 53 10000 4.02 86 20:57 22.02.2022
3596 Clear 29 1013 61 9656 3.13 81 20:30 22.02.2022
3597 Clear 29 1014 61 8047 3.13 116 19:42 22.02.2022
3598 Clear 29 1014 61 8047 3.13 99 19:23 22.02.2022
3599 Clear 28 1013 55 10000 1.34 182 17:49 22.02.2022
3600 Haze 26 1015 73 6437 1.79 133 17:23 22.02.2022
3601 Mist 25 1015 78 4828 1.79 132 16:41 22.02.2022
3602 Clear 23 1013 65 10000 0.89 94 15:44 22.02.2022
3603 Clear 23 1013 65 10000 0.89 94 15:44 22.02.2022
3604 Clear 20 1013 75 10000 1.27 245 14:44 22.02.2022
3605 Clear 20 1012 74 10000 1.04 175 12:31 22.02.2022
3606 Clear 20 1012 74 10000 1.81 215 10:52 22.02.2022
3607 Clear 20 1012 74 10000 3.54 244 08:41 22.02.2022
3608 Clear 21 1013 71 10000 0.45 248 07:27 22.02.2022
3609 Clear 22 1013 66 10000 0.45 216 05:57 22.02.2022
3610 Clear 23 1012 64 10000 2.68 107 02:45 22.02.2022
3611 Clear 27 1012 49 10000 5.36 100 22:46 21.02.2022
3612 Clouds 29 1016 58 10000 4.92 87 21:42 21.02.2022
3613 Clouds 28 1017 61 9656 3.58 117 20:36 21.02.2022
3614 Clear 27 1017 57 10000 2.68 121 18:46 21.02.2022
3615 Mist 22 1020 83 4828 2.68 166 17:36 21.02.2022
3616 Fog 17 1019 100 402 1.34 238 15:22 21.02.2022
3617 Mist 16 1018 100 3219 0 0 14:22 21.02.2022
3618 Mist 16 1018 100 4828 0 0 13:22 21.02.2022
3619 Clear 20 1016 90 10000 2.29 136 12:23 21.02.2022
3620 Clear 20 1016 89 10000 2.31 130 11:19 21.02.2022
3621 Clear 18 1015 72 10000 0.45 176 09:34 21.02.2022
3622 Clear 18 1019 94 10000 0.89 246 05:35 21.02.2022
3623 Clear 24 1018 64 10000 3.6 190 23:44 20.02.2022
3624 Clear 25 1019 61 10000 3.6 120 22:25 20.02.2022
3625 Clouds 24 1020 60 10000 2.57 100 21:42 20.02.2022
3626 Clear 25 1019 47 10000 3.13 30 20:53 20.02.2022
3627 Clouds 24 1021 60 10000 4.12 60 20:35 20.02.2022
3628 Clouds 25 1022 61 10000 2.68 68 19:32 20.02.2022
3629 Clouds 26 1020 47 10000 3.13 42 18:50 20.02.2022
3630 Clouds 25 1023 61 10000 3.13 44 18:31 20.02.2022
3631 Clouds 25 1021 46 10000 1.34 28 17:48 20.02.2022
3632 Mist 20 1022 77 10000 2.06 360 15:37 20.02.2022
3633 Mist 18 1022 88 10000 2.24 331 14:42 20.02.2022
3634 Mist 18 1021 88 10000 0 0 13:23 20.02.2022
3635 Clouds 18 1019 61 10000 1.72 7 12:25 20.02.2022
3636 Clouds 19 1019 61 10000 0.45 263 10:38 20.02.2022
3637 Clouds 20 1019 61 10000 0.45 264 10:19 20.02.2022
3638 Clouds 20 1021 57 10000 0.45 360 08:25 20.02.2022
3639 Clouds 22 1019 45 10000 7.15 348 00:54 20.02.2022
3640 Sand 22 1020 56 10000 7.6 16 00:29 20.02.2022
3641 Sand 23 1021 64 10000 5.14 360 22:44 19.02.2022
3642 Sand 23 1021 64 10000 11.18 348 22:21 19.02.2022
3643 Clouds 21 1021 71 10000 11.49 357 20:51 19.02.2022
3644 Clouds 21 1022 69 10000 10.79 356 19:48 19.02.2022
3645 Clouds 25 1023 57 10000 8.05 5 19:25 19.02.2022
3646 Clouds 24 1024 60 10000 5.14 340 18:32 19.02.2022
3647 Clouds 23 1024 64 10000 5.14 360 17:33 19.02.2022
3648 Haze 21 1023 78 9656 5.36 347 16:22 19.02.2022
3649 Clouds 20 1021 58 10000 0.89 341 14:56 19.02.2022
3650 Haze 18 1022 88 8047 0.45 234 14:37 19.02.2022
3651 Clouds 19 1020 63 10000 7.3 345 12:50 19.02.2022
3652 Clouds 20 1019 60 10000 6.17 346 11:36 19.02.2022
3653 Clouds 19 1019 59 10000 0.45 294 09:36 19.02.2022
3654 Clouds 21 1020 56 10000 6.71 348 06:53 19.02.2022
3655 Clouds 20 1019 60 10000 8.49 360 02:52 19.02.2022
3656 Sand 22 1018 73 9656 12.07 24 23:28 18.02.2022
3657 Clouds 23 1016 54 10000 11.62 342 21:49 18.02.2022
3658 Sand 25 1019 65 9656 7.6 5 20:39 18.02.2022
3659 Clouds 27 1017 46 10000 8.94 360 19:51 18.02.2022
3660 Clear 27 1017 45 10000 9.39 355 18:50 18.02.2022
3661 Sand 26 1019 61 9656 9.39 320 18:20 18.02.2022
3662 Sand 26 1019 57 8047 10.28 5 17:25 18.02.2022
3663 Clear 23 1014 59 10000 7.6 350 14:47 18.02.2022
3664 Sand 22 1015 88 9656 8.05 5 13:54 18.02.2022
3665 Clear 23 1013 60 10000 8.49 14 12:51 18.02.2022
3666 Clear 25 1012 52 10000 10.28 20 11:58 18.02.2022
3667 Clear 24 1012 55 10000 8.05 24 11:21 18.02.2022
3668 Clear 20 1012 72 10000 3.44 340 09:30 18.02.2022
3669 Clear 20 1012 69 10000 0.25 172 06:51 18.02.2022
3670 Clear 22 1013 94 9656 0 0 05:37 18.02.2022
3671 Clear 28 1010 61 10000 4.63 110 22:47 17.02.2022
3672 Clear 29 1009 44 10000 4.02 103 21:43 17.02.2022
3673 Clear 30 1009 42 10000 4.47 105 20:52 17.02.2022
3674 Clear 30 1012 54 9656 4.47 96 20:34 17.02.2022
3675 Clear 30 1011 40 10000 1.34 84 19:43 17.02.2022
3676 Clear 27 1014 57 9656 2.57 120 18:37 17.02.2022
3677 Clear 27 1012 46 10000 1.34 148 17:47 17.02.2022
3678 Clear 21 1013 83 9656 2.06 180 16:20 17.02.2022
3679 Clear 19 1011 73 10000 1.79 212 14:57 17.02.2022
3680 Clear 17 1013 100 8047 1.34 209 14:19 17.02.2022
3681 Clear 17 1010 73 10000 3.72 195 11:59 17.02.2022
3682 Clear 17 1010 73 10000 3.67 195 11:21 17.02.2022
3683 Clear 18 1012 70 10000 0.45 248 08:37 17.02.2022
3684 Clear 25 1013 61 10000 5.14 100 00:20 17.02.2022
3685 Clear 27 1015 54 10000 5.14 90 22:38 16.02.2022
3686 Clear 28 1018 47 10000 5.14 170 20:32 16.02.2022
3687 Clear 26 1019 50 9656 4.12 170 19:32 16.02.2022
3688 Clear 25 1020 57 9656 3.58 141 18:35 16.02.2022
3689 Clouds 22 1021 64 9656 2.24 186 17:33 16.02.2022
3690 Mist 14 1020 100 8047 0 0 15:24 16.02.2022
3691 Mist 14 1020 94 8047 0 0 14:29 16.02.2022
3692 Clouds 15 1017 63 10000 1.87 240 12:31 16.02.2022
3693 Clouds 16 1017 64 10000 2.03 250 11:46 16.02.2022
3694 Clouds 16 1017 64 10000 0.89 232 10:35 16.02.2022
3695 Clouds 16 1018 64 10000 1.34 232 09:54 16.02.2022
3696 Clear 17 1022 88 10000 0.89 262 06:44 16.02.2022
3697 Clear 21 1018 52 10000 1.79 109 02:48 16.02.2022
3698 Clouds 24 1020 53 10000 5.14 130 22:34 15.02.2022
3699 Clouds 24 1021 50 10000 4.47 112 21:51 15.02.2022
3700 Clouds 24 1021 50 10000 3.13 130 21:31 15.02.2022
3701 Clear 25 1019 36 10000 0.89 108 20:58 15.02.2022
3702 Clouds 24 1022 50 10000 1.79 153 20:27 15.02.2022
3703 Clouds 23 1023 53 10000 1.79 146 19:46 15.02.2022
3704 Clouds 24 1025 53 10000 3.6 210 18:27 15.02.2022
3705 Clear 23 1023 39 10000 2.24 183 17:55 15.02.2022
3706 Clouds 23 1025 56 10000 1.79 105 17:37 15.02.2022
3707 Clear 16 1024 72 10000 1.34 264 15:44 15.02.2022
3708 Clear 13 1024 82 10000 0 0 14:31 15.02.2022
3709 Clear 14 1024 77 10000 0.89 269 13:25 15.02.2022
3710 Clouds 13 1021 59 10000 0.45 269 11:41 15.02.2022
3711 Clouds 13 1021 58 10000 1.7 283 10:30 15.02.2022
3712 Clouds 18 1023 47 10000 1.82 287 08:48 15.02.2022
3713 Clouds 18 1024 47 10000 1.79 282 06:46 15.02.2022
3714 Clouds 21 1024 56 10000 4.92 22 23:35 14.02.2022
3715 Clouds 22 1023 36 10000 4.92 33 21:58 14.02.2022
3716 Clouds 23 1024 32 10000 4.92 28 20:54 14.02.2022
3717 Clouds 23 1025 34 10000 4.92 47 19:49 14.02.2022
3718 Clouds 22 1028 49 10000 6.17 30 19:29 14.02.2022
3719 Haze 22 1029 46 9656 4.92 13 18:24 14.02.2022
3720 Haze 20 1029 52 8047 4.02 5 17:30 14.02.2022
3721 Haze 19 1029 55 6437 4.02 340 16:37 14.02.2022
3722 Haze 15 1028 67 6437 1.34 290 15:23 14.02.2022
3723 Haze 16 1027 55 9656 0.89 331 13:35 14.02.2022
3724 Clouds 16 1026 39 10000 0.45 302 12:59 14.02.2022
3725 Clouds 17 1025 37 10000 0.45 308 12:32 14.02.2022
3726 Clouds 17 1025 34 10000 0.89 318 11:39 14.02.2022
3727 Clouds 18 1026 34 10000 1.34 308 10:21 14.02.2022
3728 Clouds 19 1027 34 10000 4.47 5 08:18 14.02.2022
3729 Clouds 19 1028 33 10000 3.13 19 07:26 14.02.2022
3730 Clouds 19 1024 27 10000 11.62 5 22:49 13.02.2022
3731 Sand 19 1025 42 9656 10.73 355 22:30 13.02.2022
3732 Clouds 20 1024 27 10000 9.83 360 21:59 13.02.2022
3733 Sand 20 1026 40 10000 12.52 355 21:23 13.02.2022
3734 Sand 20 1027 40 10000 11.18 348 20:27 13.02.2022
3735 Sand 20 1027 37 10000 13.86 338 19:18 13.02.2022
3736 Sand 20 1027 37 10000 10.28 5 18:41 13.02.2022
3737 Clouds 20 1027 42 10000 11.18 348 17:22 13.02.2022
3738 Clouds 20 1024 37 10000 10.73 349 15:51 13.02.2022
3739 Clouds 21 1023 38 10000 11.62 349 14:50 13.02.2022
3740 Clouds 21 1023 56 9656 10.73 5 13:29 13.02.2022
3741 Clouds 22 1021 42 10000 9.39 360 12:42 13.02.2022
3742 Clouds 22 1020 58 10000 8.49 5 10:44 13.02.2022
3743 Clouds 22 1020 58 10000 9.83 355 10:25 13.02.2022
3744 Clouds 23 1019 56 10000 5.81 5 08:56 13.02.2022
3745 Clouds 23 1016 60 10000 4.02 15 02:49 13.02.2022
3746 Clouds 25 1014 65 9656 6.17 20 00:32 13.02.2022
3747 Clouds 27 1012 43 10000 5.36 360 22:56 12.02.2022
3748 Clouds 26 1014 61 8047 5.36 15 22:32 12.02.2022
3749 Clouds 26 1015 61 8047 3.6 30 21:18 12.02.2022
3750 Haze 25 1016 65 4828 2.57 20 20:24 12.02.2022
3751 Clouds 25 1015 50 10000 2.68 338 18:54 12.02.2022
3752 Haze 24 1017 69 4828 2.57 350 18:36 12.02.2022
3753 Haze 22 1017 83 4828 2.68 330 17:40 12.02.2022
3754 Clouds 23 1016 58 10000 0.89 309 16:46 12.02.2022
3755 Clouds 22 1015 58 10000 1.79 313 15:59 12.02.2022
3756 Clouds 20 1016 88 8047 0.45 351 15:23 12.02.2022
3757 Clouds 20 1015 88 8047 2.57 340 14:30 12.02.2022
3758 Clouds 21 1012 61 10000 2.12 301 11:34 12.02.2022
3759 Clouds 21 1012 61 10000 1.34 265 10:34 12.02.2022
3760 Clouds 21 1013 61 10000 0.89 271 09:38 12.02.2022
3761 Clouds 22 1013 61 10000 0.45 314 08:47 12.02.2022
3762 Clouds 22 1013 57 10000 0.45 5 07:47 12.02.2022
3763 Clouds 21 1015 88 10000 2.57 360 05:31 12.02.2022
3764 Clouds 22 1012 83 10000 2.57 110 02:19 12.02.2022
3765 Clouds 25 1009 52 10000 1.79 92 23:56 11.02.2022
3766 Clouds 26 1012 65 10000 3.58 71 22:24 11.02.2022
3767 Clouds 25 1013 69 10000 3.13 101 21:43 11.02.2022
3768 Clouds 24 1014 69 8047 2.06 100 20:37 11.02.2022
3769 Clouds 25 1015 69 9656 4.02 93 19:31 11.02.2022
3770 Clouds 24 1017 73 8047 3.13 49 18:47 11.02.2022
3771 Mist 23 1017 73 8047 0.89 191 17:27 11.02.2022
3772 Clouds 22 1015 56 10000 0.45 36 16:56 11.02.2022
3773 Mist 20 1016 88 6437 0.89 303 15:26 11.02.2022
3774 Mist 19 1016 94 4828 0 0 14:38 11.02.2022
3775 Mist 19 1016 94 4828 0 0 14:20 11.02.2022
3776 Mist 19 1016 88 10000 0.45 284 13:47 11.02.2022
3777 Mist 19 1016 88 10000 0.45 292 13:28 11.02.2022
3778 Clouds 20 1013 61 10000 2.36 99 11:26 11.02.2022
3779 Clouds 20 1013 60 10000 0.45 293 09:38 11.02.2022
3780 Clouds 20 1014 59 10000 1.34 293 08:36 11.02.2022
3781 Clouds 20 1015 59 10000 0.89 294 07:47 11.02.2022
3782 Clouds 20 1017 83 9656 0.45 306 06:29 11.02.2022
3783 Clouds 22 1015 78 10000 3.09 80 02:24 11.02.2022
3784 Clouds 23 1013 55 10000 2.68 94 00:44 11.02.2022
3785 Clouds 24 1015 64 10000 3.6 70 22:39 10.02.2022
3786 Clouds 25 1015 61 10000 3.13 115 21:43 10.02.2022
3787 Clouds 26 1014 44 10000 3.13 77 20:50 10.02.2022
3788 Clouds 23 1016 65 10000 3.57 82 19:59 10.02.2022
3789 Clouds 25 1017 57 10000 1.79 101 19:23 10.02.2022
3790 Smoke 24 1018 64 9656 2.68 76 18:33 10.02.2022
3791 Smoke 23 1019 68 9656 0.45 5 17:23 10.02.2022
3792 Clouds 22 1017 50 10000 1.34 194 16:47 10.02.2022
3793 Clear 17 1018 88 9656 0.45 242 15:42 10.02.2022
3794 Clear 17 1018 88 9656 0.45 242 15:24 10.02.2022
3795 Mist 15 1017 94 9656 0.89 274 14:35 10.02.2022
3796 Clear 16 1015 64 10000 1.56 223 13:59 10.02.2022
3797 Clouds 16 1017 88 9656 0 0 13:19 10.02.2022
3798 Clouds 16 1015 63 10000 2.02 208 11:57 10.02.2022
3799 Clouds 16 1015 63 10000 0.45 236 11:32 10.02.2022
3800 Clouds 16 1015 63 10000 0.45 236 11:32 10.02.2022
3801 Clouds 16 1015 62 10000 0.45 236 10:25 10.02.2022
3802 Clouds 16 1015 61 10000 0.45 236 09:46 10.02.2022
3803 Clouds 18 1017 57 10000 0.45 248 08:42 10.02.2022
3804 Clouds 18 1020 77 10000 2.57 340 06:33 10.02.2022
3805 Clouds 20 1019 77 10000 1.79 17 03:21 10.02.2022
3806 Clouds 21 1017 50 10000 2.68 33 00:56 10.02.2022
3807 Clouds 21 1018 68 10000 4.12 340 00:38 10.02.2022
3808 Clouds 21 1018 68 10000 4.12 340 00:20 10.02.2022
3809 Clouds 22 1016 44 10000 3.58 30 22:54 09.02.2022
3810 Clouds 22 1018 60 10000 3.6 340 22:30 09.02.2022
3811 Clouds 23 1017 40 10000 3.13 69 21:47 09.02.2022
3812 Clouds 24 1019 50 10000 2.68 90 21:27 09.02.2022
3813 Clouds 23 1018 39 10000 2.68 51 20:43 09.02.2022
3814 Clouds 23 1020 53 10000 3.6 360 20:22 09.02.2022
3815 Clouds 22 1021 53 10000 3.09 350 19:41 09.02.2022
3816 Clouds 21 1022 56 10000 2.57 340 18:38 09.02.2022
3817 Clouds 20 1021 47 10000 1.79 311 16:55 09.02.2022
3818 Haze 17 1022 77 9656 2.57 350 16:20 09.02.2022
3819 Haze 16 1022 88 9656 2.57 340 15:23 09.02.2022
3820 Clouds 16 1019 62 10000 1.79 307 12:53 09.02.2022
3821 Clouds 16 1019 61 10000 1.12 265 11:29 09.02.2022
3822 Clouds 16 1019 61 10000 0.45 285 10:33 09.02.2022
3823 Clouds 16 1019 58 10000 1.42 277 09:50 09.02.2022
3824 Clouds 17 1020 59 10000 1.6 282 09:21 09.02.2022
3825 Clouds 17 1020 58 10000 1.6 282 08:43 09.02.2022
3826 Clouds 18 1022 57 10000 0.89 294 05:55 09.02.2022
3827 Clouds 18 1024 68 10000 0.89 297 03:51 09.02.2022
3828 Clouds 18 1024 68 10000 0.89 327 03:25 09.02.2022
3829 Clouds 20 1022 56 10000 4.92 355 23:45 08.02.2022
3830 Clouds 20 1022 56 10000 4.92 355 23:18 08.02.2022
3831 Clouds 20 1023 56 10000 6.26 360 22:38 08.02.2022
3832 Clouds 20 1023 56 10000 6.26 22 22:18 08.02.2022
3833 Clouds 21 1023 52 10000 7.15 349 21:22 08.02.2022
3834 Clouds 21 1023 52 10000 7.15 349 21:22 08.02.2022
3835 Clouds 21 1021 39 10000 5.36 9 20:57 08.02.2022
3836 Clouds 19 1024 63 10000 4.47 17 20:31 08.02.2022
3837 Clouds 19 1025 63 10000 5.36 11 19:18 08.02.2022
3838 Drizzle 18 1025 68 9656 4.02 17 17:57 08.02.2022
3839 Clouds 19 1023 42 10000 5.36 346 16:55 08.02.2022
3840 Clouds 18 1022 45 10000 6.26 29 15:45 08.02.2022
3841 Clouds 19 1022 44 10000 5.36 331 14:57 08.02.2022
3842 Clouds 18 1022 59 9656 8.94 348 13:39 08.02.2022
3843 Clouds 18 1020 48 10000 8.05 360 12:21 08.02.2022
3844 Clouds 18 1020 55 10000 7.6 348 10:47 08.02.2022
3845 Clouds 18 1020 55 10000 6.26 9 09:46 08.02.2022
3846 Clouds 19 1020 52 10000 5.81 360 08:34 08.02.2022
3847 Clouds 18 1021 55 10000 1.34 269 05:46 08.02.2022
3848 Clouds 20 1021 64 9656 6.17 360 04:40 08.02.2022
3849 Clouds 20 1021 64 9656 6.17 360 04:21 08.02.2022
3850 Clouds 19 1020 68 9656 7.72 350 03:36 08.02.2022
3851 Clouds 19 1020 68 9656 7.72 350 03:18 08.02.2022
3852 Clouds 20 1018 48 10000 7.6 337 02:59 08.02.2022
3853 Clouds 20 1019 64 9656 7.72 350 02:36 08.02.2022
3854 Clouds 20 1019 64 9656 8.49 347 02:18 08.02.2022
3855 Clouds 20 1019 68 9656 10.29 30 01:44 08.02.2022
3856 Clouds 20 1019 68 9656 10.29 30 01:24 08.02.2022
3857 Clouds 20 1017 48 10000 8.05 9 00:55 08.02.2022
3858 Clouds 20 1018 68 9656 8.05 360 00:19 08.02.2022
3859 Clouds 21 1017 50 10000 7.6 355 23:42 07.02.2022
3860 Clouds 20 1018 73 8047 10.29 10 23:18 07.02.2022
3861 Clouds 21 1017 51 10000 8.94 5 22:56 07.02.2022
3862 Clouds 21 1018 68 9656 8.05 15 22:18 07.02.2022
3863 Clouds 22 1017 47 10000 8.49 32 21:47 07.02.2022
3864 Clouds 22 1019 64 9656 8.94 5 21:26 07.02.2022
3865 Clouds 23 1020 60 9656 7.72 20 20:41 07.02.2022
3866 Clouds 23 1020 60 9656 8.05 360 20:18 07.02.2022
3867 Clouds 23 1020 60 9656 7.6 14 19:45 07.02.2022
3868 Clouds 23 1021 60 9656 5.36 5 18:22 07.02.2022
3869 Clouds 23 1019 49 10000 2.68 360 16:53 07.02.2022
3870 Clouds 21 1020 73 9656 3.58 355 16:20 07.02.2022
3871 Clouds 19 1020 82 8047 2.24 305 15:48 07.02.2022
3872 Clouds 17 1018 88 9656 2.06 340 13:37 07.02.2022
3873 Clouds 17 1018 88 9656 2.06 340 13:19 07.02.2022
3874 Clouds 18 1016 60 10000 2.72 290 11:58 07.02.2022
3875 Clouds 18 1016 60 10000 2.72 290 11:58 07.02.2022
3876 Clouds 18 1016 60 10000 2.72 290 11:58 07.02.2022
3877 Clouds 18 1015 59 10000 2.72 290 11:37 07.02.2022
3878 Clouds 18 1016 58 10000 2.42 293 10:52 07.02.2022
3879 Clouds 18 1016 59 10000 2.42 293 10:32 07.02.2022
3880 Clouds 18 1016 60 10000 2.39 290 09:53 07.02.2022
3881 Clouds 18 1016 60 10000 2.15 278 09:18 07.02.2022
3882 Clouds 17 1016 61 10000 2.15 278 08:39 07.02.2022
3883 Clouds 16 1019 88 10000 2.57 250 07:26 07.02.2022
3884 Clouds 16 1019 88 10000 0 0 06:34 07.02.2022
3885 Clear 20 1017 54 10000 0.89 345 03:48 07.02.2022
3886 Clear 21 1016 48 10000 2.68 92 00:46 07.02.2022
3887 Clear 23 1016 42 10000 4.47 88 23:49 06.02.2022
3888 Clear 24 1016 37 10000 4.47 71 22:49 06.02.2022
3889 Clear 25 1016 35 10000 4.47 80 21:56 06.02.2022
3890 Clear 25 1019 47 10000 3.09 90 21:35 06.02.2022
3891 Clear 25 1017 34 10000 3.13 78 20:55 06.02.2022
3892 Clear 25 1020 44 10000 2.06 90 20:32 06.02.2022
3893 Clear 23 1021 46 10000 0 0 19:40 06.02.2022
3894 Clear 20 1022 52 9656 0 0 18:41 06.02.2022
3895 Clouds 20 1020 40 10000 1.34 105 17:56 06.02.2022
3896 Clear 18 1023 59 9656 0 0 17:21 06.02.2022
3897 Clouds 18 1021 44 10000 0.89 259 16:47 06.02.2022
3898 Clear 13 1023 82 8047 0 0 15:49 06.02.2022
3899 Clear 13 1023 82 8047 0 0 15:27 06.02.2022
3900 Clouds 14 1023 69 10000 2.51 277 14:46 06.02.2022
3901 Clear 11 1022 76 10000 0 0 13:28 06.02.2022
3902 Clear 11 1022 76 10000 0 0 12:58 06.02.2022
3903 Clear 10 1021 56 10000 2.27 257 11:35 06.02.2022
3904 Clear 10 1021 55 10000 2.79 265 10:31 06.02.2022
3905 Clear 11 1023 54 10000 0.45 294 09:25 06.02.2022
3906 Clear 11 1023 52 10000 3.17 288 08:30 06.02.2022
3907 Clouds 14 1027 67 10000 2.06 350 05:31 06.02.2022
3908 Clear 16 1026 40 10000 4.92 360 02:50 06.02.2022
3909 Clouds 16 1027 55 10000 4.92 355 02:24 06.02.2022
3910 Clouds 16 1027 55 10000 2.57 360 00:29 06.02.2022
3911 Clouds 17 1028 48 10000 4.12 340 22:31 05.02.2022
3912 Clouds 16 1029 51 10000 4.12 70 21:32 05.02.2022
3913 Clouds 16 1030 51 10000 2.57 350 20:24 05.02.2022
3914 Clouds 16 1029 35 10000 3.58 360 19:46 05.02.2022
3915 Clouds 16 1030 36 10000 4.47 315 18:59 05.02.2022
3916 Clouds 15 1031 39 10000 4.92 349 17:45 05.02.2022
3917 Clouds 14 1033 54 10000 4.12 360 17:25 05.02.2022
3918 Clouds 13 1031 62 10000 6.17 350 15:40 05.02.2022
3919 Clouds 13 1031 62 10000 6.17 350 15:21 05.02.2022
3920 Clouds 13 1028 48 10000 7.6 333 12:47 05.02.2022
3921 Clouds 13 1028 48 10000 9.39 355 12:27 05.02.2022
3922 Clouds 14 1028 47 10000 8.94 340 10:48 05.02.2022
3923 Clouds 14 1028 48 10000 8.94 348 10:20 05.02.2022
3924 Clouds 15 1028 45 10000 9.83 5 09:43 05.02.2022
3925 Clouds 15 1029 48 10000 5.81 5 07:51 05.02.2022
3926 Clouds 15 1029 46 10000 7.15 355 06:57 05.02.2022
3927 Sand 16 1029 63 9656 10.29 360 04:30 05.02.2022
3928 Sand 16 1026 67 8047 10.29 360 01:19 05.02.2022
3929 Clouds 17 1025 47 10000 11.18 348 00:53 05.02.2022
3930 Sand 17 1025 67 9656 7.72 360 23:41 04.02.2022
3931 Sand 17 1025 67 9656 7.72 360 23:23 04.02.2022
3932 Clouds 19 1023 46 10000 10.73 348 21:54 04.02.2022
3933 Sand 18 1025 63 9656 7.72 20 21:36 04.02.2022
3934 Sand 18 1025 63 9656 7.72 20 21:18 04.02.2022
3935 Sand 18 1025 68 8047 10.29 360 19:59 04.02.2022
3936 Clouds 20 1023 48 10000 12.07 349 17:43 04.02.2022
3937 Haze 19 1022 72 10000 5.14 360 15:39 04.02.2022
3938 Clouds 20 1020 51 10000 9.83 9 14:54 04.02.2022
3939 Sand 20 1020 68 8047 7.72 360 13:31 04.02.2022
3940 Clouds 20 1018 51 10000 11.62 348 12:43 04.02.2022
3941 Clouds 21 1017 50 10000 8.94 360 11:41 04.02.2022
3942 Clouds 21 1017 50 10000 11.62 355 10:36 04.02.2022
3943 Clouds 22 1016 51 10000 11.18 5 08:34 04.02.2022
3944 Clouds 22 1015 55 10000 9.39 360 06:47 04.02.2022
3945 Sand 22 1012 88 9656 11.18 10 02:44 04.02.2022
3946 Sand 22 1010 88 9656 8.94 355 01:48 04.02.2022
3947 Sand 27 1008 69 9656 10.28 15 23:29 03.02.2022
3948 Sand 26 1008 73 9656 8.05 17 22:33 03.02.2022
3949 Clear 28 1007 50 10000 8.05 355 21:49 03.02.2022
3950 Clear 32 1008 45 10000 2.24 37 20:38 03.02.2022
3951 Clear 32 1008 45 10000 2.24 37 20:38 03.02.2022
3952 Clear 32 1008 45 10000 2.24 37 20:18 03.02.2022
3953 Clear 30 1009 54 10000 1.79 190 19:30 03.02.2022
3954 Clear 28 1009 61 10000 2.68 170 18:34 03.02.2022
3955 Clear 26 1009 65 10000 2.68 208 17:32 03.02.2022
3956 Clear 23 1009 78 10000 2.68 172 16:25 03.02.2022
3957 Clear 20 1007 94 9656 2.24 202 14:37 03.02.2022
3958 Clear 21 1004 67 10000 1.34 214 12:51 03.02.2022
3959 Clear 21 1004 66 10000 3.72 179 10:45 03.02.2022
3960 Clear 22 1005 64 10000 0.89 240 08:36 03.02.2022
3961 Clear 24 1007 88 10000 0 0 04:27 03.02.2022
3962 Clear 26 1005 78 10000 3.09 130 00:31 03.02.2022
3963 Clouds 27 1004 74 9656 5.14 130 23:36 02.02.2022
3964 Clear 30 1003 48 10000 3.13 182 21:54 02.02.2022
3965 Clouds 29 1006 61 9656 5.14 140 21:30 02.02.2022
3966 Clouds 28 1007 69 9656 2.57 200 20:38 02.02.2022
3967 Clear 28 1006 53 10000 0.89 126 19:55 02.02.2022
3968 Clouds 27 1008 69 9656 2.57 160 19:26 02.02.2022
3969 Clouds 27 1007 54 10000 2.24 160 18:34 02.02.2022
3970 Clouds 24 1010 83 8047 0 0 17:38 02.02.2022
3971 Clouds 24 1010 83 8047 0 0 17:19 02.02.2022
3972 Mist 22 1010 94 6437 0 0 16:30 02.02.2022
3973 Clouds 20 1006 74 10000 0.45 290 12:55 02.02.2022
3974 Clouds 20 1006 74 10000 3.26 179 12:18 02.02.2022
3975 Clouds 21 1006 74 10000 0.45 290 11:31 02.02.2022
3976 Clouds 21 1007 74 10000 1.94 174 09:46 02.02.2022
3977 Clouds 20 1008 73 10000 1.48 239 07:32 02.02.2022
3978 Clouds 26 1006 52 10000 3.13 35 22:46 01.02.2022
3979 Clouds 26 1009 65 9656 4.12 40 21:36 01.02.2022
3980 Clouds 27 1008 49 10000 2.68 76 19:57 01.02.2022
3981 Clouds 23 1013 73 8047 0 0 17:41 01.02.2022
3982 Clouds 20 1012 83 6437 2.57 330 16:36 01.02.2022
3983 Clouds 18 1010 88 9656 0 0 13:32 01.02.2022
3984 Clouds 17 1008 65 10000 2.17 303 12:30 01.02.2022
3985 Clear 18 1007 65 10000 0.45 279 11:19 01.02.2022
3986 Clear 22 1009 73 10000 1.54 160 02:32 01.02.2022
3987 Clear 24 1010 60 10000 6.17 130 23:40 31.01.2022
3988 Clear 25 1008 45 10000 5.36 117 22:48 31.01.2022
3989 Clouds 26 1012 50 10000 2.57 150 21:38 31.01.2022
3990 Clouds 26 1013 53 10000 2.57 140 20:45 31.01.2022
3991 Clouds 26 1013 53 10000 2.57 140 20:26 31.01.2022
3992 Clear 25 1013 42 10000 2.24 181 18:54 31.01.2022
3993 Clear 24 1016 60 10000 4.12 200 18:20 31.01.2022
3994 Clear 22 1017 68 10000 2.57 210 17:25 31.01.2022
3995 Mist 20 1017 83 10000 2.06 220 16:25 31.01.2022
3996 Clear 17 1015 71 10000 0.89 209 14:54 31.01.2022
3997 Mist 16 1016 94 8047 0 0 13:43 31.01.2022
3998 Clouds 17 1014 67 10000 0.45 169 12:38 31.01.2022
3999 Clouds 18 1014 68 10000 0.45 206 11:34 31.01.2022
4000 Clouds 18 1015 68 10000 0.45 206 10:49 31.01.2022
4001 Clouds 18 1016 68 10000 0.89 216 09:39 31.01.2022
4002 Clouds 18 1016 68 10000 0.89 180 08:57 31.01.2022
4003 Clouds 18 1017 67 10000 1.34 216 08:38 31.01.2022
4004 Clouds 18 1017 67 10000 1.34 216 08:19 31.01.2022
4005 Clouds 19 1020 88 10000 0 0 06:18 31.01.2022
4006 Clouds 23 1018 64 10000 5.14 90 00:43 31.01.2022
4007 Clouds 23 1019 64 10000 4.12 90 22:34 30.01.2022
4008 Clouds 23 1017 49 10000 4.92 93 21:47 30.01.2022
4009 Clouds 23 1020 60 10000 1.54 220 21:26 30.01.2022
4010 Clouds 23 1018 50 10000 3.58 83 20:55 30.01.2022
4011 Clouds 23 1021 60 10000 3.09 140 20:31 30.01.2022
4012 Clouds 23 1020 47 10000 1.79 63 19:58 30.01.2022
4013 Clouds 23 1021 47 10000 1.34 71 18:52 30.01.2022
4014 Clouds 22 1024 60 10000 0 0 18:26 30.01.2022
4015 Clouds 20 1024 64 10000 0 0 17:33 30.01.2022
4016 Clouds 19 1024 77 10000 0 0 16:44 30.01.2022
4017 Clouds 19 1024 77 10000 0 0 16:23 30.01.2022
4018 Clouds 19 1023 56 10000 1.79 238 15:56 30.01.2022
4019 Clouds 16 1024 88 10000 0 0 15:37 30.01.2022
4020 Clouds 16 1024 88 10000 0 0 15:19 30.01.2022
4021 Clouds 16 1022 64 10000 2.43 299 14:44 30.01.2022
4022 Clouds 16 1022 63 10000 2.72 322 12:46 30.01.2022
4023 Clouds 16 1021 62 10000 2.49 322 11:49 30.01.2022
4024 Clouds 17 1022 61 10000 2.04 333 10:26 30.01.2022
4025 Clouds 17 1022 61 10000 2.04 333 10:26 30.01.2022
4026 Clouds 17 1022 61 10000 2.04 333 09:41 30.01.2022
4027 Clouds 17 1023 60 10000 0.45 262 08:44 30.01.2022
4028 Clouds 20 1024 54 10000 3.13 5 02:58 30.01.2022
4029 Clouds 20 1024 52 10000 3.58 360 01:54 30.01.2022
4030 Clouds 20 1023 49 10000 5.81 5 23:49 29.01.2022
4031 Clouds 20 1023 49 10000 4.92 344 22:58 29.01.2022
4032 Clouds 21 1026 60 10000 5.81 5 21:44 29.01.2022
4033 Clouds 21 1026 60 10000 5.36 22 21:20 29.01.2022
4034 Clouds 20 1027 64 10000 7.15 5 20:21 29.01.2022
4035 Clouds 20 1028 60 10000 7.6 355 19:33 29.01.2022
4036 Clouds 21 1026 44 10000 8.49 347 18:51 29.01.2022
4037 Clouds 21 1027 47 10000 6.71 355 17:56 29.01.2022
4038 Clouds 20 1029 60 10000 7.6 17 17:27 29.01.2022
4039 Clouds 19 1028 68 9656 7.6 5 15:42 29.01.2022
4040 Clouds 20 1025 48 10000 7.15 355 13:58 29.01.2022
4041 Clouds 20 1026 60 9656 7.15 348 13:36 29.01.2022
4042 Clouds 20 1026 60 9656 6.71 360 13:18 29.01.2022
4043 Clouds 21 1023 47 10000 8.49 360 11:40 29.01.2022
4044 Clouds 21 1023 46 10000 8.05 5 10:34 29.01.2022
4045 Clouds 21 1024 47 10000 9.83 355 08:20 29.01.2022
4046 Clouds 21 1020 55 10000 11.18 355 02:48 29.01.2022
4047 Sand 23 1019 68 8047 7.72 360 00:32 29.01.2022
4048 Sand 23 1019 73 8047 7.72 360 23:32 28.01.2022
4049 Sand 23 1019 73 8047 7.72 360 23:32 28.01.2022
4050 Clouds 24 1017 56 10000 10.73 355 22:47 28.01.2022
4051 Clouds 23 1019 78 8047 7.72 20 22:19 28.01.2022
4052 Clouds 25 1018 55 10000 5.36 11 20:41 28.01.2022
4053 Clouds 25 1019 52 10000 3.58 5 19:58 28.01.2022
4054 Clouds 25 1019 51 10000 3.13 10 18:52 28.01.2022
4055 Clouds 24 1021 69 8047 4.12 350 18:34 28.01.2022
4056 Clouds 22 1021 83 8047 0 0 16:23 28.01.2022
4057 Clouds 20 1018 67 10000 3.19 353 14:54 28.01.2022
4058 Clouds 20 1016 67 10000 2.67 338 12:42 28.01.2022
4059 Clouds 20 1016 66 10000 2.49 332 11:50 28.01.2022
4060 Clouds 20 1016 66 10000 3.06 333 10:27 28.01.2022
4061 Clouds 21 1016 65 10000 3.06 333 09:46 28.01.2022
4062 Clouds 21 1017 63 10000 2.73 354 07:41 28.01.2022
4063 Clouds 21 1020 83 9656 0 0 06:29 28.01.2022
4064 Clouds 22 1018 61 10000 3.34 3 03:51 28.01.2022
4065 Clouds 22 1018 78 10000 2.57 350 02:27 28.01.2022
4066 Clouds 23 1018 73 10000 3.09 360 01:37 28.01.2022
4067 Clouds 23 1018 73 10000 3.09 360 01:37 28.01.2022
4068 Clouds 23 1018 73 10000 4.12 10 00:42 28.01.2022
4069 Clouds 24 1018 64 10000 4.12 10 22:20 27.01.2022
4070 Clouds 24 1019 69 10000 4.12 10 21:37 27.01.2022
4071 Clouds 24 1017 54 10000 3.58 355 20:59 27.01.2022
4072 Clouds 24 1021 73 10000 4.12 20 19:37 27.01.2022
4073 Clouds 23 1021 78 10000 3.09 20 18:19 27.01.2022
4074 Clouds 22 1020 58 10000 1.34 355 16:45 27.01.2022
4075 Clouds 20 1018 64 10000 3.96 356 13:57 27.01.2022
4076 Clouds 20 1017 64 10000 0.89 273 12:49 27.01.2022
4077 Clouds 20 1017 64 10000 1.34 286 11:53 27.01.2022
4078 Clouds 21 1017 63 10000 0.45 303 09:48 27.01.2022
4079 Clouds 21 1018 61 10000 2.24 327 08:40 27.01.2022
4080 Clouds 21 1018 62 10000 1.79 321 07:31 27.01.2022
4081 Clouds 20 1019 94 10000 2.57 350 03:19 27.01.2022
4082 Drizzle 20 1018 100 4828 4.63 60 00:23 27.01.2022
4083 Clouds 23 1018 78 10000 6.17 50 22:27 26.01.2022
4084 Clouds 24 1018 73 10000 6.17 50 21:44 26.01.2022
4085 Clouds 25 1019 65 10000 4.12 50 20:43 26.01.2022
4086 Clouds 25 1019 65 10000 4.12 50 20:24 26.01.2022
4087 Clouds 24 1020 69 10000 4.12 360 19:30 26.01.2022
4088 Clouds 25 1018 54 10000 4.47 350 18:46 26.01.2022
4089 Clouds 25 1019 51 10000 4.02 23 17:53 26.01.2022
4090 Clouds 24 1020 69 9656 2.57 350 17:32 26.01.2022
4091 Clouds 25 1019 54 10000 2.68 326 16:46 26.01.2022
4092 Clouds 22 1018 57 10000 0.89 317 15:50 26.01.2022
4093 Mist 21 1018 83 10000 2.06 340 14:30 26.01.2022
4094 Clouds 22 1015 60 10000 2.68 337 11:59 26.01.2022
4095 Clouds 22 1015 59 10000 4.92 5 10:49 26.01.2022
4096 Clouds 22 1015 58 10000 4.47 5 09:50 26.01.2022
4097 Clouds 20 1015 65 10000 0.89 294 08:32 26.01.2022
4098 Clouds 21 1016 83 9656 2.68 5 06:27 26.01.2022
4099 Clouds 21 1016 83 9656 2.68 5 06:27 26.01.2022
4100 Clouds 23 1013 78 10000 7.15 355 00:21 26.01.2022
4101 Clouds 24 1013 73 10000 8.94 5 23:34 25.01.2022
4102 Clear 25 1011 56 10000 7.15 18 22:48 25.01.2022
4103 Clear 24 1013 73 10000 8.05 18 22:18 25.01.2022
4104 Clear 26 1013 65 10000 7.15 26 21:22 25.01.2022
4105 Clear 27 1011 50 10000 8.05 15 20:44 25.01.2022
4106 Clouds 27 1011 48 10000 8.94 349 19:53 25.01.2022
4107 Clouds 27 1012 48 10000 5.36 343 18:46 25.01.2022
4108 Clouds 27 1012 48 10000 5.36 23 17:45 25.01.2022
4109 Clouds 26 1012 51 10000 5.36 348 16:58 25.01.2022
4110 Clouds 24 1013 78 9656 4.92 350 16:34 25.01.2022
4111 Clouds 22 1012 88 9656 4.02 360 15:39 25.01.2022
4112 Clouds 23 1010 64 10000 3.58 355 14:58 25.01.2022
4113 Clouds 22 1011 94 8047 3.58 5 14:38 25.01.2022
4114 Clouds 22 1007 70 10000 0.89 343 11:30 25.01.2022
4115 Clouds 22 1008 67 10000 0.89 290 09:21 25.01.2022
4116 Clouds 22 1009 67 10000 0.45 302 07:31 25.01.2022
4117 Clear 22 1009 68 10000 0.45 294 06:53 25.01.2022
4118 Clouds 22 1011 94 10000 0 0 05:22 25.01.2022
4119 Clouds 26 1008 69 9656 2.57 140 00:20 25.01.2022
4120 Clear 26 1008 69 10000 2.57 90 23:36 24.01.2022
4121 Clear 26 1008 69 10000 2.57 90 23:18 24.01.2022
4122 Clouds 26 1009 65 10000 2.57 90 22:41 24.01.2022
4123 Clear 26 1007 52 10000 4.02 110 21:57 24.01.2022
4124 Clear 26 1007 52 10000 4.02 110 21:57 24.01.2022
4125 Clouds 27 1010 61 10000 1.54 160 21:32 24.01.2022
4126 Clouds 26 1012 65 9656 2.57 180 20:33 24.01.2022
4127 Clear 26 1010 52 10000 1.34 83 19:57 24.01.2022
4128 Clouds 25 1013 69 10000 0 0 19:35 24.01.2022
4129 Clouds 25 1014 65 10000 1.54 180 18:35 24.01.2022
4130 Clear 24 1015 69 9656 3.09 180 17:24 24.01.2022
4131 Clouds 24 1013 54 10000 1.34 178 16:55 24.01.2022
4132 Clear 22 1015 78 10000 2.06 260 16:21 24.01.2022
4133 Clear 18 1015 94 10000 0 0 14:44 24.01.2022
4134 Clouds 18 1014 94 10000 0 0 13:26 24.01.2022
4135 Clouds 20 1012 65 10000 1.11 172 12:30 24.01.2022
4136 Clouds 21 1013 62 10000 0.45 344 10:46 24.01.2022
4137 Clouds 21 1014 62 10000 1.32 263 09:49 24.01.2022
4138 Clouds 21 1014 61 10000 1.79 5 08:54 24.01.2022
4139 Clouds 21 1016 60 10000 4.02 5 07:19 24.01.2022
4140 Clouds 22 1017 78 10000 5.14 360 01:31 24.01.2022
4141 Clouds 22 1015 58 10000 4.47 5 00:45 24.01.2022
4142 Clouds 22 1016 73 10000 6.17 360 00:26 24.01.2022
4143 Clouds 23 1017 68 10000 4.12 360 22:43 23.01.2022
4144 Clear 23 1015 51 10000 3.58 30 21:50 23.01.2022
4145 Clouds 23 1018 64 10000 5.14 360 21:26 23.01.2022
4146 Clear 23 1016 49 10000 4.47 36 20:48 23.01.2022
4147 Clear 24 1017 50 10000 4.02 53 19:54 23.01.2022
4148 Clouds 24 1019 48 10000 1.79 355 18:52 23.01.2022
4149 Clouds 23 1020 51 10000 2.68 349 17:50 23.01.2022
4150 Clouds 22 1020 53 10000 3.13 344 16:48 23.01.2022
4151 Clouds 19 1021 82 10000 2.57 340 15:18 23.01.2022
4152 Clouds 17 1020 88 10000 0 0 14:31 23.01.2022
4153 Clouds 17 1020 88 10000 0 0 14:31 23.01.2022
4154 Clouds 17 1020 88 9656 0 0 13:22 23.01.2022
4155 Clouds 18 1018 63 10000 4.59 344 12:36 23.01.2022
4156 Clouds 18 1018 63 10000 4.86 352 12:18 23.01.2022
4157 Clouds 18 1018 62 10000 4.44 346 11:24 23.01.2022
4158 Clouds 18 1018 61 10000 0.89 306 10:43 23.01.2022
4159 Clouds 19 1018 61 10000 0.89 313 10:19 23.01.2022
4160 Clouds 20 1019 59 10000 2.24 340 09:19 23.01.2022
4161 Clouds 21 1021 57 10000 5.36 5 05:58 23.01.2022
4162 Clouds 21 1020 55 10000 4.02 355 01:54 23.01.2022
4163 Clouds 20 1021 73 10000 5.14 70 01:34 23.01.2022
4164 Clouds 20 1021 68 10000 6.69 70 00:31 23.01.2022
4165 Clouds 21 1019 52 10000 4.92 15 23:57 22.01.2022
4166 Clouds 22 1021 60 10000 4.12 70 22:46 22.01.2022
4167 Clouds 22 1022 56 10000 6.17 60 21:38 22.01.2022
4168 Clouds 22 1023 56 10000 5.14 350 20:24 22.01.2022
4169 Clouds 20 1024 64 10000 4.63 350 19:27 22.01.2022
4170 Clouds 20 1025 64 10000 4.12 350 18:29 22.01.2022
4171 Clouds 19 1025 68 10000 4.12 50 17:41 22.01.2022
4172 Clouds 20 1023 51 10000 5.36 11 16:57 22.01.2022
4173 Clouds 18 1022 59 10000 2.24 355 15:55 22.01.2022
4174 Clouds 17 1023 82 10000 1.54 340 15:37 22.01.2022
4175 Clouds 18 1023 77 10000 1.54 350 13:59 22.01.2022
4176 Clouds 18 1021 59 10000 3.13 17 12:55 22.01.2022
4177 Clouds 17 1020 59 10000 2.24 5 12:30 22.01.2022
4178 Clouds 17 1020 61 10000 2.68 351 11:49 22.01.2022
4179 Clouds 16 1020 59 10000 0.45 200 10:31 22.01.2022
4180 Clouds 17 1021 58 10000 0.45 228 09:59 22.01.2022
4181 Clouds 17 1021 59 10000 0.45 228 08:53 22.01.2022
4182 Clouds 17 1021 56 10000 0.45 228 07:56 22.01.2022
4183 Clouds 18 1024 68 10000 2.24 345 05:20 22.01.2022
4184 Clouds 18 1020 49 10000 8.05 360 01:58 22.01.2022
4185 Clouds 18 1019 52 10000 7.15 350 23:48 21.01.2022
4186 Clouds 18 1018 52 10000 9.83 11 22:41 21.01.2022
4187 Clouds 20 1019 51 10000 11.18 347 20:45 21.01.2022
4188 Clouds 18 1021 74 10000 12.21 352 18:41 21.01.2022
4189 Clouds 21 1020 51 10000 8.94 350 17:45 21.01.2022
4190 Clouds 19 1019 53 10000 10.73 17 15:48 21.01.2022
4191 Clouds 19 1019 72 9656 10.28 5 14:37 21.01.2022
4192 Clouds 21 1016 51 10000 8.49 355 12:40 21.01.2022
4193 Clouds 22 1016 53 10000 7.6 346 11:29 21.01.2022
4194 Clouds 23 1016 56 10000 6.71 22 10:22 21.01.2022
4195 Clouds 23 1017 63 10000 5.81 350 08:25 21.01.2022
4196 Clouds 23 1017 64 10000 5.81 360 07:26 21.01.2022
4197 Clear 25 1014 58 10000 4.92 5 00:59 21.01.2022
4198 Clouds 26 1015 69 8047 6.17 360 22:45 20.01.2022
4199 Clear 27 1013 52 10000 6.26 360 21:48 20.01.2022
4200 Clouds 27 1014 50 10000 6.26 38 20:56 20.01.2022
4201 Clouds 26 1017 69 8047 7.72 30 19:40 20.01.2022
4202 Clouds 26 1017 69 8047 7.72 30 19:18 20.01.2022
4203 Clouds 23 1017 78 8047 0 0 17:32 20.01.2022
4204 Clouds 21 1014 69 10000 0.45 263 15:46 20.01.2022
4205 Clouds 21 1014 69 10000 0.45 263 15:25 20.01.2022
4206 Clouds 21 1014 88 10000 0 0 13:53 20.01.2022
4207 Clouds 20 1012 65 10000 2.18 268 12:43 20.01.2022
4208 Clouds 20 1012 65 10000 2.24 254 12:21 20.01.2022
4209 Clouds 20 1012 68 10000 2.03 228 10:55 20.01.2022
4210 Clouds 19 1012 71 10000 1.52 210 09:43 20.01.2022
4211 Clouds 18 1013 71 10000 1 197 08:35 20.01.2022
4212 Clouds 18 1013 71 10000 1 197 08:35 20.01.2022
4213 Clouds 20 1013 68 10000 0.86 98 05:38 20.01.2022
4214 Clouds 25 1010 50 10000 3.58 115 23:52 19.01.2022
4215 Clear 25 1013 61 10000 4.12 90 22:37 19.01.2022
4216 Clear 26 1014 57 9656 3.6 100 21:24 19.01.2022
4217 Clear 26 1012 45 10000 4.02 108 20:53 19.01.2022
4218 Clouds 26 1015 57 9656 3.09 110 20:22 19.01.2022
4219 Clear 25 1014 46 10000 2.24 89 18:48 19.01.2022
4220 Clear 24 1015 50 10000 2.24 234 17:50 19.01.2022
4221 Clear 23 1015 55 10000 2.24 147 16:59 19.01.2022
4222 Mist 16 1016 94 4828 0 0 14:42 19.01.2022
4223 Clear 16 1013 73 10000 3.47 195 12:53 19.01.2022
4224 Clear 17 1013 72 10000 3.62 184 11:42 19.01.2022
4225 Clear 17 1013 72 10000 3.68 185 10:38 19.01.2022
4226 Clear 17 1013 68 10000 3.63 182 09:34 19.01.2022
4227 Clouds 18 1015 64 10000 0.89 244 07:18 19.01.2022
4228 Clouds 21 1016 78 10000 0 0 05:18 19.01.2022
4229 Clouds 24 1015 64 10000 3.09 140 23:41 18.01.2022
4230 Clouds 24 1015 64 10000 3.09 140 23:18 18.01.2022
4231 Clouds 27 1016 50 10000 3.6 200 21:20 18.01.2022
4232 Clear 26 1016 40 10000 1.79 172 19:55 18.01.2022
4233 Clouds 25 1019 57 10000 2.06 240 19:37 18.01.2022
4234 Clouds 25 1017 43 10000 3.58 207 18:57 18.01.2022
4235 Clouds 24 1018 47 10000 1.79 189 17:58 18.01.2022
4236 Clouds 22 1018 51 10000 2.68 209 16:59 18.01.2022
4237 Clouds 20 1018 58 10000 2.68 225 15:48 18.01.2022
4238 Mist 17 1019 88 10000 0 0 15:22 18.01.2022
4239 Clouds 16 1019 94 10000 0 0 13:26 18.01.2022
4240 Clouds 17 1017 67 10000 1.56 245 10:48 18.01.2022
4241 Clouds 17 1017 65 10000 1.15 238 09:28 18.01.2022
4242 Clouds 18 1018 63 10000 0.94 217 07:56 18.01.2022
4243 Clouds 18 1021 88 10000 2.06 260 05:31 18.01.2022
4244 Clouds 23 1017 45 10000 2.68 101 23:55 17.01.2022
4245 Clouds 23 1019 56 10000 2.24 80 22:29 17.01.2022
4246 Clouds 24 1019 50 10000 1.34 145 21:35 17.01.2022
4247 Clouds 24 1021 53 10000 1.79 192 20:27 17.01.2022
4248 Clouds 22 1022 56 10000 0.89 184 18:31 17.01.2022
4249 Clouds 22 1020 42 10000 1.34 236 17:44 17.01.2022
4250 Clouds 21 1020 47 10000 1.34 254 16:45 17.01.2022
4251 Clouds 16 1021 82 8047 1.27 264 15:23 17.01.2022
4252 Clouds 15 1019 61 10000 1.27 264 14:57 17.01.2022
4253 Clouds 15 1019 82 9656 0 0 13:27 17.01.2022
4254 Clouds 15 1017 59 10000 1.5 261 12:56 17.01.2022
4255 Clouds 15 1017 60 10000 1.7 238 11:49 17.01.2022
4256 Clouds 16 1017 55 10000 0.89 260 10:25 17.01.2022
4257 Clouds 16 1017 55 10000 0.89 260 10:25 17.01.2022
4258 Clouds 15 1018 56 10000 0.45 265 09:34 17.01.2022
4259 Clouds 17 1019 50 10000 1.34 257 07:43 17.01.2022
4260 Clouds 17 1019 50 10000 1.34 257 07:18 17.01.2022
4261 Clouds 21 1020 37 10000 2.24 30 00:56 17.01.2022
4262 Sand 21 1022 46 9656 7.72 20 22:30 16.01.2022
4263 Sand 21 1023 46 9656 7.72 350 20:36 16.01.2022
4264 Clouds 22 1022 29 10000 8.94 9 18:52 16.01.2022
4265 Clouds 22 1023 33 10000 8.94 346 17:59 16.01.2022
4266 Sand 20 1024 49 8047 7.72 20 17:21 16.01.2022
4267 Clouds 20 1024 49 9656 5.14 360 16:38 16.01.2022
4268 Clouds 20 1022 45 8047 10.29 360 14:31 16.01.2022
4269 Sand 20 1022 49 8047 7.72 350 13:49 16.01.2022
4270 Clouds 21 1019 35 10000 9.83 339 12:48 16.01.2022
4271 Clouds 21 1019 38 10000 10.73 10 11:42 16.01.2022
4272 Clouds 21 1019 38 10000 12.52 340 10:54 16.01.2022
4273 Clouds 21 1019 39 10000 10.28 355 10:19 16.01.2022
4274 Clouds 21 1018 39 10000 12.07 340 09:40 16.01.2022
4275 Clouds 21 1018 41 10000 9.83 360 09:22 16.01.2022
4276 Clouds 22 1018 43 10000 12.96 355 07:30 16.01.2022
4277 Sand 24 1011 78 8047 15.43 360 00:38 16.01.2022
4278 Clear 26 1009 60 10000 11.62 13 23:40 15.01.2022
4279 Clear 28 1011 65 8047 7.72 360 21:23 15.01.2022
4280 Clear 27 1009 56 10000 5.36 41 20:56 15.01.2022
4281 Clear 29 1011 58 8047 2.57 30 20:38 15.01.2022
4282 Clear 26 1012 69 8047 1.54 230 19:28 15.01.2022
4283 Haze 25 1012 78 6437 4.12 220 18:31 15.01.2022
4284 Clear 23 1010 67 10000 2.24 198 16:52 15.01.2022
4285 Mist 19 1011 100 3219 0 0 15:39 15.01.2022
4286 Clouds 19 1011 100 8047 0 0 13:39 15.01.2022
4287 Clear 20 1008 75 10000 0.89 202 11:46 15.01.2022
4288 Clear 20 1008 75 10000 0.89 202 11:46 15.01.2022
4289 Clear 20 1009 75 10000 3.79 194 10:24 15.01.2022
4290 Clear 20 1014 100 10000 2.06 150 05:27 15.01.2022
4291 Clouds 25 1012 56 10000 2.68 107 23:44 14.01.2022
4292 Clouds 26 1016 65 10000 2.57 110 21:29 14.01.2022
4293 Clouds 26 1017 65 10000 3.09 90 20:37 14.01.2022
4294 Clouds 26 1015 54 10000 2.68 92 19:57 14.01.2022
4295 Clouds 24 1019 73 10000 0 0 18:43 14.01.2022
4296 Clouds 25 1017 59 10000 0.86 4 17:53 14.01.2022
4297 Clouds 23 1018 60 10000 0.89 269 16:47 14.01.2022
4298 Mist 19 1019 94 8047 0 0 15:33 14.01.2022
4299 Clouds 19 1018 94 9656 0 0 14:29 14.01.2022
4300 Clouds 20 1018 88 10000 0 0 12:59 14.01.2022
4301 Clouds 20 1016 68 10000 2.67 333 11:59 14.01.2022
4302 Clouds 20 1016 67 10000 2.76 326 10:40 14.01.2022
4303 Clouds 21 1017 66 10000 3.5 337 08:53 14.01.2022
4304 Clouds 21 1018 67 10000 0.89 280 07:35 14.01.2022
4305 Clouds 22 1020 88 10000 7.2 40 02:28 14.01.2022
4306 Clouds 22 1019 83 10000 9.26 30 00:33 14.01.2022
4307 Clouds 23 1017 67 10000 5.81 17 21:52 13.01.2022
4308 Drizzle 23 1020 83 8047 5.14 360 21:29 13.01.2022
4309 Clouds 23 1019 65 10000 6.26 355 19:58 13.01.2022
4310 Clouds 25 1021 69 9656 8.75 150 19:29 13.01.2022
4311 Mist 24 1022 78 8047 2.57 360 18:49 13.01.2022
4312 Clouds 22 1020 68 10000 0.45 280 16:57 13.01.2022
4313 Clouds 22 1020 74 10000 1.34 263 15:45 13.01.2022
4314 Drizzle 21 1021 94 4023 0 0 15:26 13.01.2022
4315 Drizzle 21 1021 94 4828 1.03 360 13:29 13.01.2022
4316 Clouds 21 1018 71 10000 0.87 327 11:18 13.01.2022
4317 Clouds 21 1019 69 10000 1.27 276 09:24 13.01.2022
4318 Clouds 22 1019 69 10000 1.85 272 08:29 13.01.2022
4319 Clouds 22 1020 67 10000 1.85 272 07:59 13.01.2022
4320 Clouds 22 1022 88 10000 2.41 284 07:20 13.01.2022
4321 Clouds 22 1022 88 10000 1.34 339 05:21 13.01.2022
4322 Clear 23 1020 65 10000 2.24 311 04:55 13.01.2022
4323 Clouds 23 1020 78 10000 2.24 340 01:39 13.01.2022
4324 Clear 25 1018 58 10000 3.13 17 23:54 12.01.2022
4325 Clouds 25 1020 65 10000 3.58 15 23:34 12.01.2022
4326 Clear 25 1020 61 10000 2.68 37 22:32 12.01.2022
4327 Clouds 25 1021 61 10000 4.02 53 21:43 12.01.2022
4328 Clouds 25 1021 61 10000 3.13 22 21:19 12.01.2022
4329 Clear 25 1019 51 10000 2.68 29 20:47 12.01.2022
4330 Clouds 25 1021 54 10000 0.45 341 18:52 12.01.2022
4331 Clouds 23 1024 68 9656 0.45 254 18:25 12.01.2022
4332 Clouds 23 1022 58 10000 0.89 351 16:57 12.01.2022
4333 Clouds 18 1024 94 9656 1.34 258 15:38 12.01.2022
4334 Clouds 18 1023 94 8047 2.33 349 14:39 12.01.2022
4335 Clouds 18 1020 68 10000 1.37 317 12:57 12.01.2022
4336 Clouds 19 1021 68 10000 0.45 311 09:57 12.01.2022
4337 Clouds 20 1022 65 10000 0.89 284 07:58 12.01.2022
4338 Clouds 20 1022 65 10000 1.34 300 07:33 12.01.2022
4339 Clouds 21 1023 78 10000 5.66 40 02:38 12.01.2022
4340 Clouds 22 1023 73 10000 6.69 360 23:27 11.01.2022
4341 Clouds 23 1023 64 10000 6.17 30 22:39 11.01.2022
4342 Clouds 23 1023 64 10000 6.17 30 22:18 11.01.2022
4343 Clouds 25 1023 51 10000 4.02 344 20:40 11.01.2022
4344 Clouds 24 1026 64 10000 4.12 100 19:35 11.01.2022
4345 Clouds 23 1025 56 10000 4.02 5 17:55 11.01.2022
4346 Clouds 20 1027 77 10000 6.17 360 16:46 11.01.2022
4347 Clouds 20 1027 77 10000 6.17 360 16:28 11.01.2022
4348 Clouds 20 1025 61 10000 5.81 342 14:53 11.01.2022
4349 Clouds 19 1025 82 10000 6.17 360 14:34 11.01.2022
4350 Clouds 20 1025 77 10000 6.17 50 13:52 11.01.2022
4351 Clouds 20 1025 77 10000 6.17 50 13:28 11.01.2022
4352 Clouds 20 1023 61 10000 5.36 360 12:36 11.01.2022
4353 Clouds 21 1022 61 10000 5.81 360 10:40 11.01.2022
4354 Clouds 22 1023 54 10000 8.94 350 08:26 11.01.2022
4355 Clouds 20 1025 83 10000 3.09 350 04:28 11.01.2022
4356 Mist 20 1024 100 8047 8.23 360 00:27 11.01.2022
4357 Mist 20 1024 94 4828 7.72 10 23:39 10.01.2022
4358 Mist 21 1024 100 3219 7.72 360 22:42 10.01.2022
4359 Mist 21 1024 100 3219 7.72 360 22:18 10.01.2022
4360 Clouds 22 1024 88 8047 5.14 10 21:36 10.01.2022
4361 Clouds 22 1024 88 8047 5.14 10 21:18 10.01.2022
4362 Clouds 22 1022 68 10000 3.58 360 20:54 10.01.2022
4363 Clouds 23 1024 88 10000 5.14 20 20:19 10.01.2022
4364 Haze 23 1024 88 4828 7.72 350 19:39 10.01.2022
4365 Haze 23 1024 88 4828 7.72 350 19:19 10.01.2022
4366 Clouds 23 1022 68 10000 4.02 9 18:46 10.01.2022
4367 Clouds 24 1024 94 6437 4.12 360 16:49 10.01.2022
4368 Clouds 24 1024 94 8047 5.14 10 16:27 10.01.2022
4369 Clouds 24 1019 72 10000 4.92 360 14:44 10.01.2022
4370 Clouds 22 1021 94 9656 1.03 350 13:35 10.01.2022
4371 Clouds 22 1018 73 10000 0.89 323 11:57 10.01.2022
4372 Clouds 22 1018 73 10000 1.34 315 10:50 10.01.2022
4373 Clouds 23 1018 73 10000 1.34 331 09:40 10.01.2022
4374 Clouds 24 1019 70 10000 1.34 320 05:52 10.01.2022
4375 Clouds 25 1018 83 10000 2.57 360 02:38 10.01.2022
4376 Clouds 25 1017 83 10000 3.6 140 01:21 10.01.2022
4377 Clouds 26 1017 73 10000 5.14 90 00:21 10.01.2022
4378 Clouds 28 1014 57 10000 4.47 82 22:47 09.01.2022
4379 Clouds 28 1016 69 10000 4.12 100 22:21 09.01.2022
4380 Clouds 28 1017 69 10000 3.09 90 21:41 09.01.2022
4381 Clouds 28 1017 69 10000 3.09 90 21:22 09.01.2022
4382 Smoke 29 1017 61 10000 5.66 100 20:47 09.01.2022
4383 Smoke 29 1017 61 10000 5.66 100 20:28 09.01.2022
4384 Clouds 29 1018 61 10000 2.06 360 19:41 09.01.2022
4385 Clouds 29 1018 61 10000 2.06 360 19:21 09.01.2022
4386 Clouds 28 1019 69 8047 0 0 18:41 09.01.2022
4387 Clouds 28 1019 69 8047 0 0 18:23 09.01.2022
4388 Clouds 27 1019 69 9656 0 0 17:30 09.01.2022
4389 Mist 25 1019 83 8047 0 0 16:50 09.01.2022
4390 Clouds 25 1017 67 10000 0.45 265 15:52 09.01.2022
4391 Mist 22 1018 100 8047 0 0 15:33 09.01.2022
4392 Mist 22 1018 100 10000 0 0 14:39 09.01.2022
4393 Clouds 22 1017 94 10000 0 0 13:49 09.01.2022
4394 Clouds 23 1015 75 10000 0.89 247 12:26 09.01.2022
4395 Clouds 23 1014 75 10000 1.52 246 11:46 09.01.2022
4396 Clouds 22 1015 74 10000 0.45 226 09:55 09.01.2022
4397 Clouds 22 1015 72 10000 2.32 258 09:29 09.01.2022
4398 Clouds 22 1016 71 10000 1.23 270 08:25 09.01.2022
4399 Clear 25 1013 65 10000 3.13 89 01:43 09.01.2022
4400 Clouds 25 1015 83 10000 2.68 83 01:19 09.01.2022
4401 Clear 28 1014 65 10000 3.58 86 23:38 08.01.2022
4402 Clear 28 1013 55 10000 4.47 99 22:58 08.01.2022
4403 Clouds 29 1015 61 10000 3.58 111 21:32 08.01.2022
4404 Clear 30 1013 47 10000 4.02 115 20:44 08.01.2022
4405 Clouds 31 1017 55 10000 0.45 184 20:23 08.01.2022
4406 Clear 29 1014 50 10000 0.45 184 19:55 08.01.2022
4407 Clear 28 1016 56 10000 0.45 165 17:49 08.01.2022
4408 Clear 26 1018 78 8047 0.45 37 16:57 08.01.2022
4409 Mist 21 1017 94 6437 0.89 272 15:37 08.01.2022
4410 Mist 20 1016 100 6437 1.75 205 14:40 08.01.2022
4411 Clouds 21 1014 75 10000 1.97 220 12:36 08.01.2022
4412 Clouds 22 1014 75 10000 0.89 248 10:49 08.01.2022
4413 Clouds 22 1014 75 10000 0.89 248 10:24 08.01.2022
4414 Clouds 22 1014 74 10000 0.89 189 09:34 08.01.2022
4415 Clouds 23 1015 73 10000 0.89 277 07:18 08.01.2022
4416 Clouds 25 1014 62 10000 1.79 49 01:52 08.01.2022
4417 Clouds 26 1015 78 10000 3.09 80 00:40 08.01.2022
4418 Clouds 28 1015 65 10000 3.6 70 22:40 07.01.2022
4419 Clouds 28 1014 50 10000 2.24 25 20:56 07.01.2022
4420 Clouds 28 1015 51 10000 1.34 53 19:56 07.01.2022
4421 Clouds 27 1015 54 10000 1.79 338 18:53 07.01.2022
4422 Mist 26 1018 78 4828 1.54 360 18:34 07.01.2022
4423 Mist 24 1018 83 4828 0 0 17:25 07.01.2022
4424 Mist 23 1018 88 4828 0 0 16:23 07.01.2022
4425 Haze 21 1016 94 6437 0 0 13:53 07.01.2022
4426 Haze 21 1016 94 6437 0 0 13:19 07.01.2022
4427 Clouds 21 1013 73 10000 2 303 12:48 07.01.2022
4428 Clouds 22 1013 67 10000 1.03 315 09:21 07.01.2022
4429 Clouds 25 1011 59 10000 1.34 30 02:54 07.01.2022
4430 Clouds 25 1011 57 10000 2.24 57 01:53 07.01.2022
4431 Clouds 25 1012 73 9656 3.09 80 01:27 07.01.2022
4432 Clear 26 1010 53 10000 2.68 46 00:57 07.01.2022
4433 Clear 27 1008 47 10000 3.58 98 22:46 06.01.2022
4434 Clouds 27 1011 61 8047 1.54 180 21:23 06.01.2022
4435 Clouds 26 1012 65 8047 0 0 20:20 06.01.2022
4436 Clouds 27 1013 61 8047 0 0 19:41 06.01.2022
4437 Clear 26 1011 50 10000 1.34 121 17:53 06.01.2022
4438 Clouds 25 1014 69 9656 1.54 200 17:34 06.01.2022
4439 Mist 23 1013 83 6437 0 0 16:40 06.01.2022
4440 Clear 22 1011 69 10000 2.69 217 15:45 06.01.2022
4441 Mist 20 1013 94 6437 0 0 15:24 06.01.2022
4442 Mist 19 1012 100 6437 0 0 14:43 06.01.2022
4443 Mist 19 1012 100 6437 0 0 14:18 06.01.2022
4444 Clouds 20 1010 74 10000 0.89 245 12:43 06.01.2022
4445 Clouds 19 1009 73 10000 0.45 212 11:42 06.01.2022
4446 Clouds 19 1009 73 10000 0.45 212 11:42 06.01.2022
4447 Clouds 20 1009 73 10000 1.43 223 11:22 06.01.2022
4448 Clouds 20 1010 74 10000 2.23 236 08:51 06.01.2022
4449 Clouds 24 1011 73 10000 1.54 130 00:43 06.01.2022
4450 Clouds 26 1011 57 10000 2.06 150 23:37 05.01.2022
4451 Clouds 26 1009 48 10000 4.02 124 22:56 05.01.2022
4452 Clouds 27 1011 57 10000 3.09 130 22:31 05.01.2022
4453 Clouds 25 1010 66 10000 4.41 89 21:47 05.01.2022
4454 Clouds 25 1011 64 10000 4.29 95 20:50 05.01.2022
4455 Clouds 25 1012 64 10000 3.51 105 19:59 05.01.2022
4456 Clouds 26 1016 65 10000 3.09 210 18:38 05.01.2022
4457 Mist 24 1016 69 10000 0 0 17:23 05.01.2022
4458 Haze 21 1016 78 10000 0 0 16:38 05.01.2022
4459 Mist 17 1016 94 10000 0 0 15:21 05.01.2022
4460 Clear 16 1015 94 10000 0 0 13:51 05.01.2022
4461 Clouds 16 1013 72 10000 2.05 241 12:51 05.01.2022
4462 Clouds 20 1014 86 10000 2.44 218 10:32 05.01.2022
4463 Clouds 21 1017 83 10000 2.37 240 07:45 05.01.2022
4464 Mist 18 1019 94 9656 0.45 271 06:24 05.01.2022
4465 Clear 22 1016 53 10000 1.79 89 00:58 05.01.2022
4466 Clear 24 1017 57 10000 4.02 108 23:27 04.01.2022
4467 Smoke 25 1018 50 10000 4.02 88 22:42 04.01.2022
4468 Clear 26 1018 47 10000 4.92 80 21:21 04.01.2022
4469 Clear 25 1021 50 10000 1.79 163 19:20 04.01.2022
4470 Clear 22 1021 39 10000 0.89 253 17:44 04.01.2022
4471 Clear 21 1022 42 10000 1.34 267 16:43 04.01.2022
4472 Clear 18 1024 72 9656 1.34 246 16:23 04.01.2022
4473 Clouds 15 1022 59 10000 2.13 308 14:54 04.01.2022
4474 Clear 13 1024 82 9656 2.13 308 14:34 04.01.2022
4475 Clouds 12 1023 82 9656 2.81 322 13:27 04.01.2022
4476 Clouds 15 1022 56 10000 3.79 330 10:41 04.01.2022
4477 Clouds 15 1023 58 10000 3.21 319 09:20 04.01.2022
4478 Clouds 16 1023 53 10000 3.73 320 08:28 04.01.2022
4479 Clouds 19 1026 63 10000 4.12 320 02:28 04.01.2022
4480 Sand 20 1026 56 10000 7.72 30 00:40 04.01.2022
4481 Sand 20 1026 56 10000 7.72 20 23:19 03.01.2022
4482 Clouds 22 1024 35 10000 8.94 349 21:52 03.01.2022
4483 Sand 21 1027 52 9656 6.17 360 21:32 03.01.2022
4484 Clouds 22 1026 33 10000 8.94 351 19:56 03.01.2022
4485 Clouds 20 1028 57 10000 9.9 349 18:48 03.01.2022
4486 Sand 21 1029 52 8047 5.14 350 18:27 03.01.2022
4487 Clouds 21 1028 38 10000 8.05 348 16:58 03.01.2022
4488 Clouds 20 1027 41 10000 8.49 345 14:56 03.01.2022
4489 Clouds 19 1027 55 10000 5.14 360 14:30 03.01.2022
4490 Clouds 20 1025 42 10000 9.39 346 12:39 03.01.2022
4491 Clouds 20 1024 42 10000 10.28 350 11:35 03.01.2022
4492 Clouds 20 1024 44 10000 10.28 351 10:26 03.01.2022
4493 Clouds 20 1024 45 10000 10.73 355 08:47 03.01.2022
4494 Clouds 20 1024 48 10000 12.52 355 07:34 03.01.2022
4495 Clear 25 1015 44 10000 15.2 360 23:55 02.01.2022
4496 Sand 25 1015 65 4828 15.43 340 23:21 02.01.2022
4497 Clear 26 1014 48 10000 16.54 355 22:53 02.01.2022
4498 Sand 28 1013 69 4828 10.29 360 21:39 02.01.2022
4499 Clear 32 1013 51 10000 5.14 30 20:33 02.01.2022
4500 Clear 31 1011 50 10000 4.02 46 19:54 02.01.2022
4501 Clear 29 1013 61 10000 2.06 120 19:29 02.01.2022
4502 Clear 28 1014 69 10000 2.57 180 18:39 02.01.2022
4503 Clear 28 1014 69 10000 2.57 180 18:39 02.01.2022
4504 Clear 25 1013 78 10000 3.09 180 17:43 02.01.2022
4505 Clear 25 1013 78 10000 3.09 180 17:22 02.01.2022
4506 Clear 25 1011 68 10000 2.68 175 16:59 02.01.2022
4507 Clear 22 1012 94 9656 3.09 180 16:24 02.01.2022
4508 Clear 20 1010 94 10000 3.09 180 14:21 02.01.2022
4509 Clear 20 1007 76 10000 1.79 218 12:39 02.01.2022
4510 Clear 20 1007 76 10000 0.89 212 11:57 02.01.2022
4511 Clear 20 1007 76 10000 0.89 213 11:20 02.01.2022
4512 Clear 20 1007 75 10000 4.51 182 10:44 02.01.2022
4513 Clear 21 1007 76 10000 4.85 175 08:42 02.01.2022
4514 Clear 25 1009 94 10000 0 0 03:25 02.01.2022
4515 Clear 31 1005 48 10000 1.34 189 23:58 01.01.2022
4516 Clear 32 1007 51 10000 3.09 220 23:39 01.01.2022
4517 Clear 32 1007 55 10000 1.03 190 22:45 01.01.2022
4518 Clear 32 1007 55 10000 1.03 190 22:19 01.01.2022
4519 Clear 31 1008 58 10000 2.57 190 21:43 01.01.2022
4520 Clear 30 1006 54 10000 2.24 172 20:52 01.01.2022
4521 Clear 28 1007 61 10000 1.34 198 19:55 01.01.2022
4522 Mist 25 1011 83 3219 1.03 250 18:58 01.01.2022
4523 Mist 22 1012 100 1609 1.54 200 17:56 01.01.2022
4524 Fog 22 1012 94 101 1.54 230 16:35 01.01.2022
4525 Clear 22 1009 76 10000 1.79 188 15:57 01.01.2022
4526 Clear 21 1008 76 10000 1.34 167 14:57 01.01.2022
4527 Clear 20 1010 100 10000 0 0 13:42 01.01.2022
4528 Clear 21 1008 75 10000 4.49 184 12:49 01.01.2022
4529 Clear 21 1007 74 10000 0.45 196 11:47 01.01.2022
4530 Clear 21 1007 71 10000 0.45 182 11:20 01.01.2022
4531 Clear 23 1007 71 10000 1.79 198 09:49 01.01.2022
4532 Clear 23 1008 72 10000 0.89 182 09:21 01.01.2022
4533 Clear 24 1008 75 10000 1.34 181 08:24 01.01.2022
4534 Clear 25 1008 76 10000 0.89 164 07:41 01.01.2022
4535 Clear 25 1009 75 10000 2.68 175 06:45 01.01.2022
4536 Mist 24 1011 94 8047 0.89 249 05:26 01.01.2022
4537 Mist 24 1010 100 9656 0.45 155 04:37 01.01.2022
4538 Clear 28 1008 69 10000 2.24 101 00:41 01.01.2022
4539 Clear 30 1006 50 10000 4.02 75 22:59 31.12.2021
4540 Clear 31 1007 46 10000 4.47 96 21:52 31.12.2021
4541 Clear 30 1011 58 9656 2.68 124 20:32 31.12.2021
4542 Clear 29 1012 65 9656 2.24 47 19:29 31.12.2021
4543 Clear 28 1014 65 8047 3.61 150 18:30 31.12.2021
4544 Clear 27 1014 74 8047 1.79 122 17:37 31.12.2021
4545 Clear 27 1014 74 8047 1.79 122 17:18 31.12.2021
4546 Mist 22 1013 94 6437 0.89 227 16:21 31.12.2021
4547 Clear 23 1011 72 10000 0.45 9 15:53 31.12.2021
4548 Mist 19 1013 100 4828 3.22 205 15:28 31.12.2021
4549 Mist 19 1013 100 4828 3.22 205 15:28 31.12.2021
4550 Mist 19 1012 100 1609 3.22 205 14:43 31.12.2021
4551 Mist 19 1012 100 1609 2.99 207 14:18 31.12.2021
4552 Fog 19 1011 100 201 2.99 207 13:36 31.12.2021
4553 Clear 20 1009 76 10000 2.8 204 12:44 31.12.2021
4554 Clear 21 1009 76 10000 2.65 208 11:43 31.12.2021
4555 Clear 21 1009 76 10000 2.29 208 11:20 31.12.2021
4556 Clear 21 1009 76 10000 2.29 208 10:32 31.12.2021
4557 Clear 22 1009 76 10000 1.86 214 09:35 31.12.2021
4558 Clear 21 1009 75 10000 1.56 220 08:56 31.12.2021
4559 Clear 22 1010 75 10000 1.5 212 08:25 31.12.2021
4560 Haze 22 1012 94 6437 0 0 07:30 31.12.2021
4561 Clear 30 1009 62 10000 4.63 110 23:23 30.12.2021
4562 Clear 30 1009 62 10000 4.63 80 22:33 30.12.2021
4563 Clear 31 1007 47 10000 3.13 111 21:51 30.12.2021
4564 Clear 31 1009 58 10000 4.63 80 21:33 30.12.2021
4565 Clear 31 1007 44 10000 3.13 98 20:44 30.12.2021
4566 Clear 31 1010 51 10000 3.09 180 20:24 30.12.2021
4567 Clear 31 1008 43 10000 0.89 184 19:43 30.12.2021
4568 Clear 26 1012 73 10000 0 0 18:29 30.12.2021
4569 Clear 26 1010 52 10000 1.79 177 17:45 30.12.2021
4570 Clear 22 1010 65 10000 1.34 210 15:58 30.12.2021
4571 Clear 22 1010 65 10000 1.34 210 15:39 30.12.2021
4572 Haze 18 1011 100 9656 0 0 14:37 30.12.2021
4573 Haze 19 1014 94 9656 2.06 270 13:33 30.12.2021
4574 Clear 19 1008 70 10000 4.37 180 12:29 30.12.2021
4575 Clear 20 1008 70 10000 3.83 184 10:50 30.12.2021
4576 Clear 20 1008 72 10000 3.55 189 09:55 30.12.2021
4577 Clear 21 1008 69 10000 3.53 184 08:49 30.12.2021
4578 Clear 22 1009 72 10000 2.68 208 06:52 30.12.2021
4579 Clear 26 1008 54 10000 0.45 142 03:41 30.12.2021
4580 Clear 26 1008 73 10000 0 0 02:42 30.12.2021
4581 Clear 34 1006 40 10000 3.09 170 23:42 29.12.2021
4582 Clear 34 1006 40 10000 3.09 170 23:22 29.12.2021
4583 Clear 34 1006 40 10000 0 0 22:19 29.12.2021
4584 Clear 33 1005 31 10000 1.34 150 21:27 29.12.2021
4585 Clear 32 1008 51 10000 2.06 140 20:38 29.12.2021
4586 Clear 31 1006 40 10000 2.24 136 19:48 29.12.2021
4587 Clear 29 1007 46 10000 2.68 188 18:47 29.12.2021
4588 Clear 27 1008 51 10000 4.02 218 17:56 29.12.2021
4589 Clear 25 1010 73 9656 3.09 170 17:27 29.12.2021
4590 Clear 22 1010 83 8047 2.06 180 16:24 29.12.2021
4591 Clear 23 1008 60 10000 3.58 229 15:48 29.12.2021
4592 Clear 17 1008 100 9656 2.57 190 14:19 29.12.2021
4593 Clear 19 1005 66 10000 1.79 198 12:37 29.12.2021
4594 Clear 19 1005 64 10000 1.34 204 11:35 29.12.2021
4595 Clear 20 1005 64 10000 0.89 207 09:59 29.12.2021
4596 Clear 21 1005 61 10000 0.89 208 07:52 29.12.2021
4597 Clear 23 1008 78 10000 1.03 220 06:39 29.12.2021
4598 Clear 23 1008 78 10000 1.03 220 06:18 29.12.2021
4599 Clear 24 1008 78 10000 1.03 170 05:36 29.12.2021
4600 Clear 24 1006 88 10000 0 0 02:46 29.12.2021
4601 Clear 31 1005 55 10000 0 0 00:23 29.12.2021
4602 Clear 31 1004 51 10000 1.54 170 23:34 28.12.2021
4603 Clear 31 1005 55 10000 1.54 220 22:42 28.12.2021
4604 Clear 31 1005 55 10000 1.54 220 22:24 28.12.2021
4605 Clear 29 1005 58 10000 4.12 180 21:37 28.12.2021
4606 Clear 28 1006 61 10000 3.6 190 20:39 28.12.2021
4607 Mist 26 1015 73 4828 0 0 19:25 28.12.2021
4608 Mist 26 1008 73 2414 2.06 220 18:39 28.12.2021
4609 Mist 22 1009 88 1609 3.6 200 17:59 28.12.2021
4610 Fog 20 1009 100 402 3.6 200 16:34 28.12.2021
4611 Fog 21 1009 94 805 2.06 200 15:50 28.12.2021
4612 Mist 21 1009 94 2414 1.03 190 15:21 28.12.2021
4613 Mist 21 1008 94 2414 0 0 14:48 28.12.2021
4614 Mist 20 1008 100 1609 2.57 190 14:21 28.12.2021
4615 Fog 20 1008 100 10000 0 0 13:42 28.12.2021
4616 Fog 20 1008 100 10000 0 0 13:42 28.12.2021
4617 Fog 20 1008 100 10000 0 0 13:24 28.12.2021
4618 Clear 21 1006 77 10000 1.34 244 12:49 28.12.2021
4619 Clear 21 1006 77 10000 2.24 239 11:35 28.12.2021
4620 Clear 20 1008 76 10000 0.89 254 08:30 28.12.2021
4621 Clear 20 1009 76 10000 2.87 183 06:41 28.12.2021
4622 Clear 26 1008 60 10000 2.68 100 23:43 27.12.2021
4623 Clear 27 1008 57 10000 3.58 105 22:59 27.12.2021
4624 Clouds 28 1011 61 10000 3.13 76 21:38 27.12.2021
4625 Clouds 28 1011 61 10000 2.68 118 21:20 27.12.2021
4626 Clear 28 1010 52 10000 2.24 136 19:58 27.12.2021
4627 Clear 27 1013 61 9656 1.03 200 19:39 27.12.2021
4628 Clear 26 1015 69 8047 0 0 18:23 27.12.2021
4629 Clear 26 1013 58 10000 1.79 186 17:46 27.12.2021
4630 Mist 21 1015 94 4828 0 0 16:40 27.12.2021
4631 Clear 21 1013 74 10000 1.34 256 15:52 27.12.2021
4632 Mist 18 1014 100 4828 0 0 14:32 27.12.2021
4633 Mist 18 1014 100 8047 0 0 13:39 27.12.2021
4634 Clear 18 1012 76 10000 0.45 218 12:19 27.12.2021
4635 Clear 20 1012 76 10000 0.89 210 10:31 27.12.2021
4636 Clear 20 1012 76 10000 1.34 220 09:47 27.12.2021
4637 Clear 20 1013 76 10000 1.97 200 07:38 27.12.2021
4638 Clear 20 1013 75 10000 1.67 182 07:20 27.12.2021
4639 Clear 23 1014 88 10000 0 0 02:19 27.12.2021
4640 Clear 26 1012 54 10000 3.13 111 23:58 26.12.2021
4641 Clear 28 1013 61 10000 1.54 140 23:36 26.12.2021
4642 Clear 29 1014 51 10000 3.09 130 22:23 26.12.2021
4643 Clear 29 1012 39 10000 2.24 110 20:54 26.12.2021
4644 Haze 28 1017 54 8047 2.06 180 19:47 26.12.2021
4645 Haze 26 1018 65 8047 0 0 18:24 26.12.2021
4646 Clear 24 1016 61 10000 0.89 263 16:55 26.12.2021
4647 Mist 18 1017 94 4828 0 0 14:28 26.12.2021
4648 Haze 18 1016 94 8047 0 0 13:40 26.12.2021
4649 Clear 18 1014 74 10000 1.95 266 13:19 26.12.2021
4650 Clear 18 1014 73 10000 1.96 265 12:33 26.12.2021
4651 Clear 18 1013 73 10000 2.17 258 10:34 26.12.2021
4652 Clear 19 1013 73 10000 0.89 285 09:21 26.12.2021
4653 Clear 20 1014 72 10000 1.45 248 08:44 26.12.2021
4654 Clear 20 1014 74 10000 1.34 286 07:58 26.12.2021
4655 Clear 24 1014 73 10000 4.12 90 01:29 26.12.2021
4656 Clear 26 1011 55 10000 2.68 90 23:56 25.12.2021
4657 Clear 26 1012 65 10000 3.09 130 23:27 25.12.2021
4658 Clear 27 1012 57 10000 3.09 130 22:26 25.12.2021
4659 Clear 28 1011 44 10000 2.24 184 20:59 25.12.2021
4660 Clouds 27 1016 57 10000 2.57 160 19:26 25.12.2021
4661 Clear 26 1014 51 10000 2.68 173 18:55 25.12.2021
4662 Clear 24 1017 73 8047 5.14 200 17:37 25.12.2021
4663 Mist 20 1017 88 6437 0 0 16:36 25.12.2021
4664 Mist 16 1017 100 6437 0 0 15:18 25.12.2021
4665 Clear 14 1016 100 9656 0 0 13:30 25.12.2021
4666 Clear 16 1013 75 10000 2.88 200 11:51 25.12.2021
4667 Clear 17 1013 72 10000 3 198 09:54 25.12.2021
4668 Clear 18 1013 72 10000 3 198 09:34 25.12.2021
4669 Clear 22 1017 78 10000 1.03 170 04:34 25.12.2021
4670 Clear 23 1015 73 10000 1.03 160 01:25 25.12.2021
4671 Clear 26 1014 61 10000 2.57 170 23:42 24.12.2021
4672 Clouds 26 1017 61 10000 3.6 220 19:46 24.12.2021
4673 Clouds 26 1017 61 10000 3.6 220 19:23 24.12.2021
4674 Clear 23 1017 62 10000 2.68 203 16:57 24.12.2021
4675 Mist 22 1019 78 10000 4.12 220 16:22 24.12.2021
4676 Clear 22 1017 66 10000 3.13 183 15:48 24.12.2021
4677 Mist 18 1017 100 10000 0 0 14:47 24.12.2021
4678 Mist 18 1017 100 10000 0 0 14:26 24.12.2021
4679 Clouds 18 1017 100 10000 0 0 13:41 24.12.2021
4680 Clear 19 1015 74 10000 0.89 204 12:49 24.12.2021
4681 Clear 19 1015 74 10000 0.89 175 12:20 24.12.2021
4682 Clear 19 1015 74 10000 0.89 213 11:29 24.12.2021
4683 Clear 20 1015 74 10000 0.45 216 10:59 24.12.2021
4684 Clear 20 1015 74 10000 0.45 216 10:28 24.12.2021
4685 Clear 19 1016 73 10000 1.86 145 08:26 24.12.2021
4686 Clear 20 1016 72 10000 1.86 145 07:50 24.12.2021
4687 Clear 20 1019 94 9656 1.45 146 06:18 24.12.2021
4688 Clouds 25 1018 65 10000 3.13 84 00:19 24.12.2021
4689 Clouds 26 1018 61 10000 4.47 87 23:23 23.12.2021
4690 Clouds 26 1018 61 10000 4.47 87 23:23 23.12.2021
4691 Clouds 27 1018 65 10000 4.02 105 22:40 23.12.2021
4692 Clouds 27 1018 65 10000 3.58 103 22:20 23.12.2021
4693 Clouds 28 1018 51 10000 4.02 73 21:34 23.12.2021
4694 Clouds 28 1019 54 10000 1.34 88 20:21 23.12.2021
4695 Clouds 28 1020 54 10000 0.89 176 19:27 23.12.2021
4696 Clouds 25 1019 62 10000 2.24 199 17:57 23.12.2021
4697 Clouds 25 1020 64 10000 1.79 179 16:58 23.12.2021
4698 Clouds 22 1021 88 9656 0.89 213 16:26 23.12.2021
4699 Clouds 19 1020 94 9656 0.45 214 15:32 23.12.2021
4700 Clouds 20 1018 75 10000 2.34 98 14:55 23.12.2021
4701 Clouds 18 1019 100 9656 2.34 98 14:37 23.12.2021
4702 Clouds 19 1018 94 9656 2.48 93 13:22 23.12.2021
4703 Clouds 21 1016 73 10000 2.26 92 10:54 23.12.2021
4704 Clouds 21 1016 73 10000 2.12 105 09:49 23.12.2021
4705 Clouds 21 1016 73 10000 0.45 253 09:26 23.12.2021
4706 Clouds 21 1017 73 10000 0.89 196 08:25 23.12.2021
4707 Clouds 21 1019 88 10000 0 0 04:36 23.12.2021
4708 Clouds 26 1016 65 10000 3.6 100 23:33 22.12.2021
4709 Clouds 26 1015 58 10000 2.68 107 22:49 22.12.2021
4710 Clouds 26 1015 57 10000 4.47 78 21:57 22.12.2021
4711 Clouds 27 1017 61 10000 4.12 150 21:29 22.12.2021
4712 Clouds 27 1015 54 10000 3.58 97 20:51 22.12.2021
4713 Clouds 27 1018 61 10000 2.57 190 20:33 22.12.2021
4714 Smoke 26 1019 61 10000 1.54 130 19:35 22.12.2021
4715 Clouds 24 1020 69 10000 0 0 18:18 22.12.2021
4716 Clouds 22 1020 88 10000 0 0 17:35 22.12.2021
4717 Clouds 22 1018 71 10000 0.89 261 15:46 22.12.2021
4718 Haze 20 1019 94 9656 0 0 13:44 22.12.2021
4719 Clouds 21 1016 74 10000 0.45 222 12:41 22.12.2021
4720 Clouds 21 1016 73 10000 1.35 350 10:46 22.12.2021
4721 Clouds 22 1016 72 10000 1.34 216 09:40 22.12.2021
4722 Clouds 22 1020 83 10000 2.06 40 07:32 22.12.2021
4723 Clouds 23 1018 66 10000 1.79 53 05:50 22.12.2021
4724 Clouds 22 1020 83 10000 2.57 60 05:28 22.12.2021
4725 Clouds 23 1019 78 10000 3.09 20 04:52 22.12.2021
4726 Clouds 23 1019 78 10000 3.09 20 04:30 22.12.2021
4727 Clouds 23 1019 78 10000 5.14 360 03:33 22.12.2021
4728 Clouds 24 1016 60 10000 5.36 12 00:57 22.12.2021
4729 Clouds 24 1017 64 10000 6.69 40 23:32 21.12.2021
4730 Clouds 24 1017 64 10000 5.14 30 22:29 21.12.2021
4731 Clouds 25 1015 56 10000 4.47 355 21:44 21.12.2021
4732 Clouds 25 1018 61 10000 5.14 40 21:23 21.12.2021
4733 Clouds 24 1019 64 10000 3.09 360 20:22 21.12.2021
4734 Clouds 23 1020 73 10000 2.57 360 19:43 21.12.2021
4735 Clouds 24 1018 60 10000 1.79 13 18:48 21.12.2021
4736 Clouds 23 1020 73 10000 3.6 340 18:21 21.12.2021
4737 Clouds 22 1021 83 10000 3.09 330 17:42 21.12.2021
4738 Clouds 22 1020 78 10000 2.57 340 16:35 21.12.2021
4739 Clouds 20 1019 88 10000 1.54 320 15:25 21.12.2021
4740 Clouds 20 1016 72 10000 0.45 329 13:51 21.12.2021
4741 Clouds 20 1018 88 9656 2.06 360 13:31 21.12.2021
4742 Clouds 21 1016 70 10000 3.64 340 11:57 21.12.2021
4743 Clouds 21 1016 68 10000 2.38 336 10:25 21.12.2021
4744 Clouds 21 1016 67 10000 2.53 313 09:27 21.12.2021
4745 Clouds 21 1016 65 10000 2.89 301 07:59 21.12.2021
4746 Clouds 21 1017 64 10000 3.39 308 07:29 21.12.2021
4747 Clouds 21 1017 63 10000 0.89 269 06:50 21.12.2021
4748 Clouds 22 1018 73 10000 8.75 360 03:18 21.12.2021
4749 Clouds 23 1014 59 10000 7.6 355 23:59 20.12.2021
4750 Clouds 22 1016 73 10000 5.66 50 23:32 20.12.2021
4751 Clouds 23 1016 68 10000 6.69 350 22:30 20.12.2021
4752 Clouds 24 1014 58 10000 6.26 348 21:47 20.12.2021
4753 Clouds 24 1016 69 10000 3.09 350 21:23 20.12.2021
4754 Clouds 24 1017 64 10000 4.63 30 20:45 20.12.2021
4755 Clouds 24 1016 57 10000 6.71 341 19:53 20.12.2021
4756 Clouds 23 1018 73 10000 6.69 360 19:31 20.12.2021
4757 Clouds 23 1016 59 10000 7.15 28 18:54 20.12.2021
4758 Clouds 23 1017 60 10000 6.26 360 17:53 20.12.2021
4759 Clouds 22 1019 73 10000 7.72 50 17:25 20.12.2021
4760 Clouds 22 1019 73 10000 4.12 40 16:40 20.12.2021
4761 Mist 21 1018 83 10000 1.54 70 15:51 20.12.2021
4762 Clouds 21 1016 69 10000 1.34 302 14:51 20.12.2021
4763 Clouds 19 1015 72 10000 4.35 344 13:18 20.12.2021
4764 Clouds 23 1014 65 10000 2.68 347 11:19 20.12.2021
4765 Clouds 22 1015 65 10000 2.24 350 09:48 20.12.2021
4766 Clouds 22 1015 65 10000 3.13 14 09:29 20.12.2021
4767 Clouds 22 1015 66 10000 4.47 348 08:42 20.12.2021
4768 Clouds 21 1018 83 10000 5.81 22 07:50 20.12.2021
4769 Clouds 21 1018 83 10000 6.71 5 07:29 20.12.2021
4770 Clouds 23 1017 73 10000 8.49 355 04:24 20.12.2021
4771 Clouds 23 1015 77 10000 13.12 353 23:58 19.12.2021
4772 Clouds 26 1013 62 10000 10.73 22 22:45 19.12.2021
4773 Clouds 27 1014 69 9656 9.83 355 21:50 19.12.2021
4774 Clouds 28 1014 69 9656 10.73 337 21:29 19.12.2021
4775 Clouds 29 1015 65 9656 6.71 13 20:31 19.12.2021
4776 Clouds 30 1013 58 10000 6.26 31 19:49 19.12.2021
4777 Clouds 30 1014 57 10000 4.02 355 18:59 19.12.2021
4778 Clouds 28 1017 74 8047 1.79 325 18:29 19.12.2021
4779 Clouds 28 1015 63 10000 1.79 35 17:51 19.12.2021
4780 Clouds 27 1017 78 8047 2.68 36 17:18 19.12.2021
4781 Mist 25 1017 88 6437 0.89 279 16:26 19.12.2021
4782 Mist 22 1016 100 4828 1.34 271 15:31 19.12.2021
4783 Clouds 23 1014 76 10000 0.89 273 14:59 19.12.2021
4784 Mist 22 1015 100 4828 2.57 360 14:36 19.12.2021
4785 Mist 22 1014 100 8047 0 0 13:22 19.12.2021
4786 Clouds 22 1012 76 10000 2.89 303 12:33 19.12.2021
4787 Clouds 23 1011 75 10000 2.68 314 11:44 19.12.2021
4788 Clouds 23 1011 75 10000 2.66 330 10:58 19.12.2021
4789 Clouds 23 1011 76 10000 1.65 338 10:25 19.12.2021
4790 Clouds 24 1012 75 10000 2.1 317 09:26 19.12.2021
4791 Clouds 24 1012 74 10000 1.92 308 07:50 19.12.2021
4792 Haze 24 1014 94 8047 0 0 04:45 19.12.2021
4793 Clear 27 1009 66 10000 1.34 57 00:56 19.12.2021
4794 Clear 28 1010 69 10000 1.54 140 00:28 19.12.2021
4795 Clear 29 1010 65 10000 2.57 140 22:32 18.12.2021
4796 Clear 30 1008 56 10000 2.68 82 21:54 18.12.2021
4797 Clear 30 1008 56 10000 2.68 82 21:54 18.12.2021
4798 Clouds 30 1011 62 10000 1.54 120 21:34 18.12.2021
4799 Clear 30 1010 56 10000 0.89 146 20:44 18.12.2021
4800 Clear 30 1010 57 10000 1.79 94 19:51 18.12.2021
4801 Haze 29 1013 65 9656 0 0 19:19 18.12.2021
4802 Haze 29 1014 65 9656 0 0 18:19 18.12.2021
4803 Clear 28 1012 61 10000 1.34 71 17:47 18.12.2021
4804 Mist 25 1014 83 4828 0 0 16:25 18.12.2021
4805 Mist 21 1013 100 4828 0 0 15:26 18.12.2021
4806 Mist 21 1013 100 4828 0 0 14:32 18.12.2021
4807 Haze 21 1013 100 6437 0 0 13:18 18.12.2021
4808 Clear 22 1010 76 10000 2.71 217 11:21 18.12.2021
4809 Clouds 23 1013 94 8047 0 0 09:37 18.12.2021
4810 Clouds 22 1014 100 8047 0 0 08:43 18.12.2021
4811 Clouds 22 1014 100 8047 0 0 08:19 18.12.2021
4812 Clear 25 1011 71 10000 1.79 95 01:48 18.12.2021
4813 Clear 27 1012 74 10000 3.09 210 00:27 18.12.2021
4814 Clear 28 1012 69 10000 2.06 200 23:37 17.12.2021
4815 Clear 29 1010 55 10000 4.02 95 21:55 17.12.2021
4816 Clear 30 1011 56 10000 3.13 102 20:51 17.12.2021
4817 Clouds 29 1014 61 10000 0 0 20:31 17.12.2021
4818 Clear 29 1013 54 10000 1.34 134 18:58 17.12.2021
4819 Clouds 28 1016 61 10000 0 0 18:38 17.12.2021
4820 Clouds 27 1016 74 9656 0 0 17:26 17.12.2021
4821 Clear 26 1014 65 10000 1.34 174 16:44 17.12.2021
4822 Clear 25 1016 88 8047 0 0 16:19 17.12.2021
4823 Mist 22 1015 94 4828 0 0 15:19 17.12.2021
4824 Clear 22 1013 76 10000 1.02 237 14:34 17.12.2021
4825 Clear 21 1012 75 10000 0.78 202 12:45 17.12.2021
4826 Clear 21 1012 75 10000 0.63 220 11:22 17.12.2021
4827 Clear 22 1013 75 10000 0.91 218 09:55 17.12.2021
4828 Clear 22 1013 74 10000 1.03 166 08:58 17.12.2021
4829 Clear 23 1014 73 10000 0.73 182 08:19 17.12.2021
4830 Clouds 24 1016 88 10000 0 0 05:25 17.12.2021
4831 Clouds 24 1014 88 10000 1.03 160 02:52 17.12.2021
4832 Clouds 27 1012 61 10000 3.58 94 22:52 16.12.2021
4833 Clouds 28 1014 69 10000 2.06 120 22:22 16.12.2021
4834 Clouds 28 1012 59 10000 3.58 109 21:44 16.12.2021
4835 Clouds 28 1013 55 10000 0.89 161 20:48 16.12.2021
4836 Clouds 28 1016 61 10000 1.03 130 20:22 16.12.2021
4837 Clouds 28 1017 65 10000 1.03 210 19:31 16.12.2021
4838 Clouds 28 1018 65 10000 2.57 200 18:33 16.12.2021
4839 Clear 26 1016 66 10000 0.71 112 17:47 16.12.2021
4840 Clear 25 1016 68 10000 1.34 305 16:37 16.12.2021
4841 Clear 25 1016 70 10000 1.34 296 16:18 16.12.2021
4842 Mist 19 1016 94 10000 0 0 13:47 16.12.2021
4843 Clouds 19 1014 74 10000 0.96 228 12:30 16.12.2021
4844 Clouds 20 1013 74 10000 0.53 208 11:19 16.12.2021
4845 Clouds 20 1013 73 10000 0.53 208 10:41 16.12.2021
4846 Clouds 21 1014 73 10000 0.66 199 09:43 16.12.2021
4847 Clouds 21 1015 74 10000 0.45 250 06:51 16.12.2021
4848 Clear 21 1016 74 10000 0.78 202 06:18 16.12.2021
4849 Clouds 27 1014 54 10000 3.6 63 23:58 15.12.2021
4850 Clouds 26 1014 58 10000 0.89 95 22:50 15.12.2021
4851 Clouds 26 1016 73 10000 0 0 22:21 15.12.2021
4852 Clouds 26 1015 57 10000 1.34 94 21:31 15.12.2021
4853 Clouds 27 1018 65 9656 1.03 140 20:51 15.12.2021
4854 Clear 27 1016 57 10000 2.24 113 19:53 15.12.2021
4855 Clouds 27 1020 69 9656 1.03 210 19:18 15.12.2021
4856 Clouds 28 1020 65 9656 0 0 18:19 15.12.2021
4857 Clouds 27 1018 59 10000 0.45 76 17:45 15.12.2021
4858 Clouds 26 1021 73 9656 0 0 17:21 15.12.2021
4859 Clouds 23 1019 67 10000 1.34 284 15:48 15.12.2021
4860 Mist 20 1020 94 8047 0 0 15:29 15.12.2021
4861 Clouds 20 1018 75 10000 0.89 277 14:44 15.12.2021
4862 Clear 19 1020 100 9656 1.03 300 13:28 15.12.2021
4863 Clouds 21 1017 75 10000 1.57 305 11:40 15.12.2021
4864 Clouds 21 1018 75 10000 1.82 294 10:18 15.12.2021
4865 Clouds 22 1019 75 10000 1.61 307 07:55 15.12.2021
4866 Clouds 24 1021 94 10000 0 0 04:22 15.12.2021
4867 Clouds 26 1017 66 10000 2.24 55 23:53 14.12.2021
4868 Clear 27 1017 65 10000 1.79 107 22:55 14.12.2021
4869 Clouds 26 1019 78 10000 2.57 100 22:37 14.12.2021
4870 Clouds 26 1020 73 10000 3.6 60 21:38 14.12.2021
4871 Clouds 28 1021 69 10000 4.12 60 20:20 14.12.2021
4872 Haze 27 1022 74 9656 5.14 40 19:21 14.12.2021
4873 Haze 28 1023 69 9656 1.54 360 18:38 14.12.2021
4874 Clouds 28 1021 62 10000 3.58 11 17:53 14.12.2021
4875 Haze 24 1023 83 8047 2.57 330 16:43 14.12.2021
4876 Haze 24 1023 83 8047 2.57 330 16:18 14.12.2021
4877 Clear 20 1020 76 10000 0.89 276 13:58 14.12.2021
4878 Clear 20 1019 75 10000 0.89 262 12:47 14.12.2021
4879 Clear 20 1019 75 10000 1.93 315 11:25 14.12.2021
4880 Clear 20 1019 75 10000 2.22 311 10:28 14.12.2021
4881 Clear 21 1019 75 10000 2.22 311 09:53 14.12.2021
4882 Clear 21 1019 75 10000 0.45 262 08:48 14.12.2021
4883 Clear 21 1019 75 10000 1.34 259 08:21 14.12.2021
4884 Clouds 22 1022 94 10000 0 0 06:40 14.12.2021
4885 Clouds 25 1020 78 9656 4.63 80 23:42 13.12.2021
4886 Clouds 25 1020 73 9656 4.63 100 22:18 13.12.2021
4887 Clouds 26 1020 69 9656 5.14 70 21:34 13.12.2021
4888 Clouds 26 1018 59 10000 4.02 41 20:51 13.12.2021
4889 Clouds 26 1021 69 9656 5.66 60 20:20 13.12.2021
4890 Clouds 27 1019 56 10000 4.92 355 19:49 13.12.2021
4891 Clouds 25 1022 69 9656 2.06 350 17:27 13.12.2021
4892 Clouds 24 1022 78 9656 0 0 16:24 13.12.2021
4893 Clouds 19 1021 94 9656 0 0 15:43 13.12.2021
4894 Clear 20 1019 73 10000 1.79 275 13:57 13.12.2021
4895 Clouds 20 1020 88 10000 0 0 13:36 13.12.2021
4896 Clear 20 1018 73 10000 0.45 279 12:39 13.12.2021
4897 Clear 20 1018 74 10000 3.19 279 11:44 13.12.2021
4898 Clear 19 1018 74 10000 0.45 270 11:24 13.12.2021
4899 Clear 19 1017 74 10000 3.86 285 10:21 13.12.2021
4900 Clear 20 1018 70 10000 3.94 298 08:43 13.12.2021
4901 Clouds 22 1021 73 10000 5.14 90 05:38 13.12.2021
4902 Clouds 22 1019 62 10000 3.13 350 04:52 13.12.2021
4903 Clear 24 1016 62 10000 7.15 20 23:55 12.12.2021
4904 Clear 27 1016 54 10000 7.15 5 21:57 12.12.2021
4905 Clouds 26 1019 65 10000 8.75 30 20:48 12.12.2021
4906 Clouds 25 1020 69 10000 7.72 50 19:34 12.12.2021
4907 Clouds 27 1019 55 10000 6.26 340 17:54 12.12.2021
4908 Haze 25 1020 73 10000 4.12 70 16:29 12.12.2021
4909 Clouds 25 1018 62 10000 5.36 349 15:54 12.12.2021
4910 Mist 24 1019 73 10000 4.63 50 15:28 12.12.2021
4911 Mist 22 1019 83 10000 4.12 40 14:42 12.12.2021
4912 Mist 22 1018 83 10000 4.12 30 13:47 12.12.2021
4913 Clouds 23 1016 65 10000 4.47 360 12:47 12.12.2021
4914 Clouds 24 1015 66 10000 4.92 13 11:45 12.12.2021
4915 Clouds 24 1015 66 10000 4.92 13 11:45 12.12.2021
4916 Clouds 25 1015 65 10000 4.92 17 11:25 12.12.2021
4917 Clouds 25 1015 65 10000 4.92 17 11:25 12.12.2021
4918 Clouds 25 1015 65 10000 5.81 360 10:43 12.12.2021
4919 Clouds 25 1015 70 10000 7.15 355 09:45 12.12.2021
4920 Clouds 26 1016 71 10000 6.71 348 08:42 12.12.2021
4921 Clouds 26 1017 83 9656 5.14 360 06:38 12.12.2021
4922 Clouds 26 1016 78 9656 5.14 360 05:28 12.12.2021
4923 Clouds 26 1015 83 9656 8.23 40 03:58 12.12.2021
4924 Clouds 25 1012 84 10000 4.55 17 00:42 12.12.2021
4925 Clouds 30 1008 60 10000 2.24 88 22:42 11.12.2021
4926 Clear 29 1010 74 8047 4.63 70 22:20 11.12.2021
4927 Clouds 31 1010 62 8047 1.03 130 21:24 11.12.2021
4928 Clouds 30 1009 61 10000 1.34 148 19:46 11.12.2021
4929 Clouds 29 1012 74 6437 0 0 19:20 11.12.2021
4930 Mist 28 1012 74 4828 2.06 220 18:39 11.12.2021
4931 Mist 27 1013 83 4828 2.06 210 17:41 11.12.2021
4932 Mist 23 1012 100 1609 0 0 15:57 11.12.2021
4933 Mist 23 1012 100 1609 0 0 15:37 11.12.2021
4934 Clouds 23 1009 77 10000 3.3 204 14:21 11.12.2021
4935 Clouds 22 1008 77 10000 3.73 188 11:58 11.12.2021
4936 Clouds 23 1008 76 10000 3.28 191 10:24 11.12.2021
4937 Clouds 23 1009 76 10000 0.45 215 09:37 11.12.2021
4938 Haze 25 1011 88 9656 0 0 03:26 11.12.2021
4939 Clouds 26 1008 70 10000 2.24 99 00:45 11.12.2021
4940 Clear 28 1009 74 10000 3.09 100 23:40 10.12.2021
4941 Clouds 29 1010 70 10000 2.57 120 22:33 10.12.2021
4942 Clear 29 1010 70 10000 1.54 150 21:37 10.12.2021
4943 Clouds 30 1010 60 10000 4.02 128 19:55 10.12.2021
4944 Haze 29 1013 70 8047 0 0 19:18 10.12.2021
4945 Haze 28 1014 78 8047 0 0 17:23 10.12.2021
4946 Haze 25 1015 94 8047 0 0 16:32 10.12.2021
4947 Mist 22 1014 100 4828 0 0 15:42 10.12.2021
4948 Mist 22 1014 100 4828 0 0 15:23 10.12.2021
4949 Mist 22 1013 94 2414 0 0 13:53 10.12.2021
4950 Fog 22 1013 94 201 0 0 13:31 10.12.2021
4951 Clouds 22 1011 77 10000 2.2 220 12:47 10.12.2021
4952 Clouds 23 1010 77 10000 2.43 223 11:34 10.12.2021
4953 Clouds 23 1010 77 10000 2.36 228 10:50 10.12.2021
4954 Clouds 22 1011 76 10000 2.3 217 09:30 10.12.2021
4955 Clear 23 1012 75 10000 1.4 173 07:24 10.12.2021
4956 Clear 26 1012 73 10000 0.89 91 02:53 10.12.2021
4957 Clouds 26 1013 83 9656 2.06 110 01:32 10.12.2021
4958 Clear 29 1012 70 9656 3.09 130 23:38 09.12.2021
4959 Clear 30 1013 66 9656 1.54 130 22:41 09.12.2021
4960 Clear 30 1013 66 9656 1.54 130 22:20 09.12.2021
4961 Clouds 31 1013 62 9656 4.12 130 21:20 09.12.2021
4962 Clouds 31 1014 62 9656 2.57 120 20:34 09.12.2021
4963 Clouds 30 1015 66 8047 1.54 70 19:22 09.12.2021
4964 Clouds 30 1013 59 10000 1.79 59 18:53 09.12.2021
4965 Clouds 28 1014 64 10000 0.89 209 17:57 09.12.2021
4966 Clear 28 1016 78 6437 0 0 17:28 09.12.2021
4967 Clouds 27 1015 68 10000 1.79 222 16:57 09.12.2021
4968 Mist 26 1016 89 4828 0 0 16:20 09.12.2021
4969 Clouds 23 1014 76 10000 0.45 259 14:52 09.12.2021
4970 Clouds 22 1013 76 10000 1.79 250 13:50 09.12.2021
4971 Mist 22 1014 100 9656 0 0 12:47 09.12.2021
4972 Mist 23 1014 100 6437 0 0 11:25 09.12.2021
4973 Mist 24 1014 94 6437 0 0 10:19 09.12.2021
4974 Clear 24 1013 76 10000 0.58 304 06:51 09.12.2021
4975 Mist 25 1014 88 10000 0 0 03:49 09.12.2021
4976 Clear 28 1011 66 10000 2.24 93 23:50 08.12.2021
4977 Clear 28 1012 74 10000 1.03 90 23:31 08.12.2021
4978 Clouds 29 1013 70 10000 1.54 130 22:53 08.12.2021
4979 Clear 29 1011 61 10000 2.68 106 21:49 08.12.2021
4980 Clouds 30 1013 66 10000 2.57 120 21:30 08.12.2021
4981 Clouds 30 1014 66 10000 3.09 120 20:19 08.12.2021
4982 Clouds 29 1015 70 9656 2.06 120 19:39 08.12.2021
4983 Clear 28 1013 64 10000 0.45 93 18:53 08.12.2021
4984 Clear 28 1013 64 10000 0.45 93 18:53 08.12.2021
4985 Mist 28 1016 74 6437 0 0 18:21 08.12.2021
4986 Clear 25 1015 75 10000 1.34 250 15:59 08.12.2021
4987 Mist 22 1016 94 3219 0 0 15:31 08.12.2021
4988 Clear 22 1014 77 10000 2.47 240 14:52 08.12.2021
4989 Clouds 22 1012 77 10000 0.45 204 12:39 08.12.2021
4990 Clouds 21 1012 77 10000 0.45 204 10:36 08.12.2021
4991 Clouds 22 1012 77 10000 0.45 204 09:31 08.12.2021
4992 Clouds 23 1013 76 10000 0.45 263 07:34 08.12.2021
4993 Clouds 24 1013 75 10000 0.89 254 04:58 08.12.2021
4994 Clouds 27 1012 66 10000 3.58 83 23:48 07.12.2021
4995 Clouds 29 1014 70 10000 4.12 60 22:27 07.12.2021
4996 Clouds 28 1015 74 9656 3.09 210 21:24 07.12.2021
4997 Clouds 29 1015 70 9656 4.12 180 20:24 07.12.2021
4998 Clouds 29 1015 59 10000 2.24 32 18:55 07.12.2021
4999 Clouds 28 1015 61 10000 0.89 13 17:53 07.12.2021
5000 Clouds 28 1018 74 8047 1.54 50 17:20 07.12.2021
5001 Clouds 25 1018 83 6437 0 0 16:34 07.12.2021
5002 Mist 22 1017 94 4828 0 0 15:34 07.12.2021
5003 Mist 22 1016 94 4828 0 0 14:30 07.12.2021
5004 Clouds 22 1016 94 9656 1.03 350 13:18 07.12.2021
5005 Clear 22 1014 77 10000 0.45 291 12:21 07.12.2021
5006 Clear 22 1013 76 10000 2.23 320 10:43 07.12.2021
5007 Clear 22 1014 76 10000 2.64 324 08:42 07.12.2021
5008 Clouds 23 1016 94 8047 0 0 06:21 07.12.2021
5009 Clear 23 1016 100 8047 1.54 330 05:39 07.12.2021
5010 Clear 27 1011 64 10000 3.13 80 23:58 06.12.2021
5011 Clear 28 1010 61 10000 3.13 95 22:58 06.12.2021
5012 Smoke 28 1012 69 10000 2.57 120 22:38 06.12.2021
5013 Clear 29 1010 58 10000 3.13 79 21:52 06.12.2021
5014 Haze 30 1014 62 9656 2.06 180 20:40 06.12.2021
5015 Haze 30 1014 62 9656 2.06 180 20:22 06.12.2021
5016 Haze 29 1015 65 9656 1.54 220 19:22 06.12.2021
5017 Haze 28 1016 69 9656 3.09 240 18:29 06.12.2021
5018 Haze 26 1016 78 9656 3.09 190 17:41 06.12.2021
5019 Clear 26 1014 66 10000 2.68 197 16:49 06.12.2021
5020 Mist 21 1016 100 4828 0 0 15:41 06.12.2021
5021 Haze 19 1015 100 6437 0 0 13:46 06.12.2021
5022 Clouds 20 1013 76 10000 3.13 193 12:39 06.12.2021
5023 Clear 20 1012 75 10000 2.89 197 11:38 06.12.2021
5024 Clear 22 1013 76 10000 2.15 203 08:51 06.12.2021
5025 Clear 23 1014 74 10000 1.8 179 06:43 06.12.2021
5026 Clear 27 1011 58 10000 3.58 90 23:44 05.12.2021
5027 Clear 28 1011 53 10000 4.02 111 21:52 05.12.2021
5028 Clouds 29 1014 65 10000 2.06 130 21:19 05.12.2021
5029 Clouds 28 1015 65 9656 0 0 20:19 05.12.2021
5030 Clouds 28 1016 65 9656 1.03 160 19:33 05.12.2021
5031 Clear 28 1014 53 10000 1.79 134 18:55 05.12.2021
5032 Clouds 28 1017 69 9656 2.06 220 18:20 05.12.2021
5033 Clear 27 1015 58 10000 0.89 166 17:48 05.12.2021
5034 Clear 26 1016 59 10000 1.79 172 16:48 05.12.2021
5035 Clouds 24 1018 88 9656 0 0 16:26 05.12.2021
5036 Clear 25 1016 66 10000 1.34 237 15:48 05.12.2021
5037 Mist 20 1017 94 8047 0 0 14:41 05.12.2021
5038 Mist 20 1017 94 8047 0 0 14:23 05.12.2021
5039 Clear 20 1017 100 9656 0 0 13:22 05.12.2021
5040 Clear 21 1014 75 10000 1.52 237 12:40 05.12.2021
5041 Clear 21 1014 75 10000 1.53 240 12:18 05.12.2021
5042 Clear 21 1014 75 10000 1.53 240 11:30 05.12.2021
5043 Clear 21 1015 74 10000 2.23 255 09:59 05.12.2021
5044 Clouds 22 1016 71 10000 2.25 262 08:24 05.12.2021
5045 Clouds 23 1018 94 10000 0 0 03:27 05.12.2021
5046 Clear 27 1016 69 10000 4.12 110 23:45 04.12.2021
5047 Clear 28 1014 49 10000 4.02 80 21:55 04.12.2021
5048 Clear 29 1014 47 10000 3.13 90 20:57 04.12.2021
5049 Clear 29 1017 58 10000 2.06 110 20:20 04.12.2021
5050 Clear 29 1018 54 10000 0 0 19:32 04.12.2021
5051 Clear 28 1019 57 10000 0 0 18:21 04.12.2021
5052 Clouds 28 1017 46 10000 0.45 142 17:40 04.12.2021
5053 Clouds 26 1017 54 10000 1.31 206 16:52 04.12.2021
5054 Clear 25 1019 78 8047 0 0 16:31 04.12.2021
5055 Clouds 25 1017 56 10000 1.79 291 15:57 04.12.2021
5056 Clouds 20 1014 74 10000 0.45 273 11:54 04.12.2021
5057 Clouds 20 1014 73 10000 0.45 273 11:32 04.12.2021
5058 Clouds 20 1014 72 10000 1.57 248 10:56 04.12.2021
5059 Clouds 22 1015 71 10000 1.43 262 08:49 04.12.2021
5060 Mist 21 1018 100 10000 0 0 06:42 04.12.2021
5061 Clouds 22 1019 94 10000 0 0 04:42 04.12.2021
5062 Clouds 26 1016 73 10000 2.06 100 00:35 04.12.2021
5063 Clouds 27 1016 65 10000 3.09 100 23:27 03.12.2021
5064 Clear 28 1014 49 10000 3.13 48 22:47 03.12.2021
5065 Clouds 28 1017 61 10000 2.06 90 21:26 03.12.2021
5066 Clear 28 1015 46 10000 1.79 75 20:54 03.12.2021
5067 Clear 28 1016 48 10000 2.24 90 19:53 03.12.2021
5068 Clouds 28 1020 61 10000 0 0 18:34 03.12.2021
5069 Clouds 27 1018 48 10000 1.79 225 17:59 03.12.2021
5070 Clouds 25 1020 78 10000 0 0 16:33 03.12.2021
5071 Clouds 22 1017 69 10000 0.89 281 12:59 03.12.2021
5072 Clouds 22 1016 68 10000 0.45 281 12:19 03.12.2021
5073 Clouds 22 1016 67 10000 0.89 290 10:55 03.12.2021
5074 Clouds 23 1017 69 10000 1.79 298 08:27 03.12.2021
5075 Clouds 23 1018 68 10000 0.89 277 07:43 03.12.2021
5076 Clouds 23 1021 88 10000 2.57 100 04:44 03.12.2021
5077 Clear 25 1017 59 10000 0.89 360 00:48 03.12.2021
5078 Clear 25 1016 61 10000 1.79 97 23:47 02.12.2021
5079 Clouds 25 1019 78 10000 3.09 110 22:36 02.12.2021
5080 Clouds 25 1019 78 10000 4.12 180 21:41 02.12.2021
5081 Clouds 25 1020 78 10000 2.57 120 20:44 02.12.2021
5082 Clouds 25 1020 78 10000 2.57 120 20:22 02.12.2021
5083 Clouds 26 1022 73 10000 2.57 160 18:36 02.12.2021
5084 Clouds 24 1021 78 10000 0 0 16:33 02.12.2021
5085 Haze 22 1021 88 9656 0 0 15:37 02.12.2021
5086 Clear 22 1019 62 10000 1.79 285 14:51 02.12.2021
5087 Haze 21 1020 94 8047 0 0 13:26 02.12.2021
5088 Clouds 22 1018 66 10000 1.34 294 12:23 02.12.2021
5089 Clouds 22 1017 70 10000 0.89 328 10:42 02.12.2021
5090 Clouds 22 1017 70 10000 0.45 23 09:25 02.12.2021
5091 Clouds 22 1019 71 10000 0.45 259 06:46 02.12.2021
5092 Clouds 25 1017 58 10000 3.58 355 00:57 02.12.2021
5093 Clouds 26 1018 73 10000 3.09 110 23:30 01.12.2021
5094 Clouds 27 1018 65 10000 3.09 80 22:25 01.12.2021
5095 Clouds 27 1018 61 10000 2.06 110 21:42 01.12.2021
5096 Clouds 27 1019 65 10000 2.06 100 20:18 01.12.2021
5097 Clouds 27 1020 65 10000 0 0 19:37 01.12.2021
5098 Clouds 27 1019 49 10000 1.34 101 17:50 01.12.2021
5099 Clear 26 1019 52 10000 0.45 312 16:59 01.12.2021
5100 Mist 21 1020 88 8047 1.03 330 15:37 01.12.2021
5101 Mist 19 1019 94 8047 0 0 14:24 01.12.2021
5102 Clear 19 1019 94 9656 0 0 13:36 01.12.2021
5103 Clouds 20 1016 69 10000 2.16 290 10:43 01.12.2021
5104 Clouds 20 1016 67 10000 2.41 294 09:59 01.12.2021
5105 Clouds 20 1017 67 10000 2.48 298 08:51 01.12.2021
5106 Clouds 21 1017 66 10000 2.42 301 07:54 01.12.2021
5107 Clouds 21 1017 67 10000 2.35 306 07:19 01.12.2021
5108 Clouds 22 1018 64 10000 0.89 323 03:53 01.12.2021
5109 Clear 22 1019 88 10000 2.06 350 03:19 01.12.2021
5110 Clouds 26 1016 53 10000 3.58 26 23:59 30.11.2021
5111 Clouds 25 1017 73 10000 3.6 50 23:28 30.11.2021
5112 Clouds 26 1017 65 10000 4.63 70 22:28 30.11.2021
5113 Clear 27 1015 42 10000 4.02 21 20:46 30.11.2021
5114 Clear 27 1018 57 10000 4.12 50 20:24 30.11.2021
5115 Clear 27 1019 50 10000 2.57 350 19:39 30.11.2021
5116 Clear 27 1017 39 10000 1.79 46 18:52 30.11.2021
5117 Clear 25 1021 65 10000 2.57 30 17:23 30.11.2021
5118 Clear 23 1019 53 10000 1.34 323 15:54 30.11.2021
5119 Clouds 17 1020 100 10000 1.54 320 14:31 30.11.2021
5120 Clouds 18 1019 94 10000 0 0 13:40 30.11.2021
5121 Clear 18 1017 71 10000 2.1 279 12:53 30.11.2021
5122 Clear 18 1017 68 10000 2.76 272 11:54 30.11.2021
5123 Clear 19 1017 67 10000 3.15 287 11:25 30.11.2021
5124 Clear 19 1017 66 10000 3.15 287 10:35 30.11.2021
5125 Clear 19 1018 67 10000 4.29 318 08:55 30.11.2021
5126 Clear 20 1018 67 10000 0.45 269 08:32 30.11.2021
5127 Clear 20 1019 65 10000 0.45 269 07:50 30.11.2021
5128 Clouds 21 1021 83 10000 0 0 06:36 30.11.2021
5129 Clouds 23 1019 73 10000 7.72 360 01:47 30.11.2021
5130 Clouds 23 1019 73 10000 7.72 360 01:27 30.11.2021
5131 Clouds 25 1018 57 10000 6.69 40 23:32 29.11.2021
5132 Clouds 26 1016 42 10000 8.94 37 22:59 29.11.2021
5133 Clouds 26 1018 50 10000 6.69 60 22:37 29.11.2021
5134 Clouds 27 1016 38 10000 7.6 10 21:52 29.11.2021
5135 Clouds 26 1018 50 10000 7.2 30 21:20 29.11.2021
5136 Clouds 25 1019 57 10000 7.2 40 20:45 29.11.2021
5137 Clouds 26 1017 41 10000 7.15 48 19:58 29.11.2021
5138 Clouds 25 1020 57 10000 5.14 360 19:39 29.11.2021
5139 Clouds 26 1019 38 10000 8.05 351 18:58 29.11.2021
5140 Clouds 24 1020 66 10000 10.16 354 18:39 29.11.2021
5141 Clouds 24 1022 64 10000 9.26 349 17:21 29.11.2021
5142 Clouds 24 1022 64 10000 9.26 349 16:40 29.11.2021
5143 Clouds 24 1022 67 10000 8.89 346 16:22 29.11.2021
5144 Clouds 23 1021 73 10000 8.35 345 14:45 29.11.2021
5145 Clouds 22 1021 77 10000 8.38 342 13:52 29.11.2021
5146 Clouds 22 1020 79 10000 8.87 340 12:56 29.11.2021
5147 Clouds 22 1019 79 10000 8.66 341 11:51 29.11.2021
5148 Clouds 23 1019 79 10000 8.39 346 10:59 29.11.2021
5149 Clouds 23 1019 79 10000 8.48 349 09:57 29.11.2021
5150 Clouds 23 1020 80 10000 8.88 343 06:44 29.11.2021
5151 Clouds 23 1020 84 10000 9.24 345 04:53 29.11.2021
5152 Clouds 24 1017 78 10000 4.12 40 00:44 29.11.2021
5153 Clouds 24 1017 78 10000 7 3 23:47 28.11.2021
5154 Clouds 25 1017 73 10000 4.63 60 23:28 28.11.2021
5155 Clouds 25 1016 73 10000 5.73 2 21:53 28.11.2021
5156 Haze 26 1017 69 9656 2.57 40 21:34 28.11.2021
5157 Haze 26 1018 69 9656 5.66 30 20:36 28.11.2021
5158 Haze 25 1019 78 9656 4.12 40 19:29 28.11.2021
5159 Haze 25 1019 78 6437 3.09 360 18:40 28.11.2021
5160 Clouds 25 1019 71 10000 2.22 0 17:57 28.11.2021
5161 Haze 24 1019 83 8047 1.54 340 17:32 28.11.2021
5162 Haze 23 1019 83 6437 1.54 340 16:45 28.11.2021
5163 Haze 23 1019 83 6437 1.54 340 16:26 28.11.2021
5164 Clouds 24 1019 75 10000 1.92 293 15:45 28.11.2021
5165 Clouds 23 1018 79 10000 1.88 298 14:51 28.11.2021
5166 Haze 20 1017 94 9656 0 0 13:51 28.11.2021
5167 Clouds 21 1016 84 10000 2.23 306 12:54 28.11.2021
5168 Clouds 21 1015 87 10000 2.65 311 11:21 28.11.2021
5169 Clouds 21 1015 87 10000 2.54 317 10:22 28.11.2021
5170 Clouds 21 1015 87 10000 2.54 317 09:40 28.11.2021
5171 Clouds 21 1016 88 10000 2.58 306 08:28 28.11.2021
5172 Clouds 22 1015 82 10000 2.97 28 00:49 28.11.2021
5173 Clouds 24 1014 75 10000 3.92 31 21:46 27.11.2021
5174 Smoke 25 1018 73 10000 3.09 40 19:50 27.11.2021
5175 Smoke 25 1019 69 10000 0 0 18:20 27.11.2021
5176 Clouds 23 1019 78 10000 1.27 318 15:59 27.11.2021
5177 Clouds 22 1019 81 10000 2 321 14:35 27.11.2021
5178 Clear 18 1018 94 10000 0 0 13:20 27.11.2021
5179 Clouds 21 1017 84 10000 3.03 323 11:23 27.11.2021
5180 Clouds 21 1018 84 10000 3.25 325 09:55 27.11.2021
5181 Clouds 21 1018 84 10000 4 329 08:51 27.11.2021
5182 Clouds 21 1019 84 10000 6 336 06:58 27.11.2021
5183 Clear 22 1020 80 10000 8.34 347 03:57 27.11.2021
5184 Clouds 24 1017 75 10000 8.76 358 00:23 27.11.2021
5185 Clouds 24 1017 75 10000 8.53 1 22:41 26.11.2021
5186 Clouds 25 1017 74 10000 8.61 359 22:20 26.11.2021
5187 Clouds 28 1019 65 9656 6.17 60 21:23 26.11.2021
5188 Clouds 26 1017 68 10000 7.17 5 20:40 26.11.2021
5189 Clouds 26 1018 65 10000 5.92 17 19:55 26.11.2021
5190 Clouds 26 1020 66 10000 6.06 16 18:45 26.11.2021
5191 Clouds 27 1021 74 8047 2.06 330 17:40 26.11.2021
5192 Clouds 27 1021 74 8047 2.06 330 17:20 26.11.2021
5193 Clouds 22 1021 100 8047 0 0 15:21 26.11.2021
5194 Clouds 21 1019 100 8047 0 0 13:35 26.11.2021
5195 Clear 22 1017 73 10000 0.89 250 10:45 26.11.2021
5196 Clear 23 1017 73 10000 0.45 250 09:53 26.11.2021
5197 Clear 23 1017 73 10000 0.89 238 08:53 26.11.2021
5198 Clear 23 1017 72 10000 2.68 36 08:20 26.11.2021
5199 Mist 22 1020 100 8047 0 0 06:37 26.11.2021
5200 Mist 22 1020 100 8047 0 0 06:37 26.11.2021
5201 Mist 22 1020 100 8047 0 0 06:19 26.11.2021
5202 Clear 24 1019 88 10000 1.03 90 03:41 26.11.2021
5203 Clear 27 1015 69 10000 4.12 90 23:49 25.11.2021
5204 Clouds 28 1015 65 10000 2.57 120 22:34 25.11.2021
5205 Clear 30 1014 50 10000 1.34 169 20:53 25.11.2021
5206 Clear 28 1018 61 10000 3.6 220 19:35 25.11.2021
5207 Clear 27 1019 69 10000 3.09 220 18:35 25.11.2021
5208 Mist 25 1019 78 10000 2.06 200 17:28 25.11.2021
5209 Clear 25 1017 67 10000 1.79 190 16:47 25.11.2021
5210 Mist 23 1019 88 9656 0 0 16:25 25.11.2021
5211 Mist 18 1018 100 10000 0 0 14:44 25.11.2021
5212 Clear 18 1015 77 10000 0.45 206 13:20 25.11.2021
5213 Clear 19 1014 77 10000 2.78 199 11:57 25.11.2021
5214 Clear 20 1014 77 10000 0.89 242 10:49 25.11.2021
5215 Haze 20 1017 100 8047 0 0 08:28 25.11.2021
5216 Clear 23 1017 88 10000 0 0 03:42 25.11.2021
5217 Clear 23 1016 88 10000 0 0 02:43 25.11.2021
5218 Clear 27 1015 74 10000 2.57 120 22:41 24.11.2021
5219 Clear 28 1013 62 10000 3.58 117 21:57 24.11.2021
5220 Clear 28 1015 65 10000 1.54 120 21:26 24.11.2021
5221 Clear 29 1016 54 10000 1.54 210 20:28 24.11.2021
5222 Clear 28 1015 53 10000 2.68 160 19:40 24.11.2021
5223 Haze 27 1019 65 9656 2.57 200 18:29 24.11.2021
5224 Clear 26 1017 64 10000 1.34 200 16:48 24.11.2021
5225 Haze 21 1019 94 8047 0 0 15:21 24.11.2021
5226 Haze 19 1018 100 8047 0 0 14:30 24.11.2021
5227 Haze 19 1018 100 9656 0 0 13:43 24.11.2021
5228 Clouds 21 1016 76 10000 1.79 244 11:36 24.11.2021
5229 Clouds 21 1016 76 10000 1.79 244 11:18 24.11.2021
5230 Clouds 20 1016 76 10000 0.89 211 10:36 24.11.2021
5231 Clouds 20 1017 76 10000 1.34 173 09:40 24.11.2021
5232 Clouds 20 1018 75 10000 0.89 219 07:42 24.11.2021
5233 Clear 19 1020 100 10000 0 0 06:20 24.11.2021
5234 Clear 22 1019 83 10000 3.6 30 03:44 24.11.2021
5235 Clouds 25 1017 73 10000 5.14 40 23:42 23.11.2021
5236 Clouds 24 1018 78 10000 4.63 40 22:39 23.11.2021
5237 Clouds 25 1016 64 10000 4.92 355 21:46 23.11.2021
5238 Clouds 25 1017 64 10000 4.47 13 20:47 23.11.2021
5239 Clouds 24 1021 83 10000 5.14 60 19:36 23.11.2021
5240 Clouds 23 1022 83 10000 5.66 40 18:35 23.11.2021
5241 Clouds 23 1020 71 10000 4.92 20 17:57 23.11.2021
5242 Clouds 23 1020 72 10000 8.05 355 16:54 23.11.2021
5243 Clouds 21 1021 100 10000 1.03 330 15:41 23.11.2021
5244 Clouds 21 1021 100 10000 1.03 330 15:19 23.11.2021
5245 Clouds 22 1020 94 10000 2.06 360 13:33 23.11.2021
5246 Clouds 22 1018 77 8484 0.45 330 10:40 23.11.2021
5247 Clouds 22 1018 76 7384 2.24 332 09:48 23.11.2021
5248 Clouds 22 1018 75 8681 0.45 344 08:43 23.11.2021
5249 Clouds 24 1021 88 10000 4.12 350 05:25 23.11.2021
5250 Clouds 24 1020 88 10000 4.12 20 03:39 23.11.2021
5251 Clouds 25 1018 88 10000 4.12 30 23:43 22.11.2021
5252 Clouds 25 1018 88 10000 4.12 30 23:20 22.11.2021
5253 Clouds 25 1018 83 9656 3.6 360 22:31 22.11.2021
5254 Clouds 26 1018 83 10000 5.14 50 21:45 22.11.2021
5255 Clouds 26 1018 83 10000 5.14 50 21:21 22.11.2021
5256 Clouds 26 1017 69 10000 5.81 351 20:43 22.11.2021
5257 Clouds 26 1020 83 10000 6.17 340 19:24 22.11.2021
5258 Clouds 24 1020 94 10000 5.14 40 18:41 22.11.2021
5259 Clouds 24 1020 94 10000 5.14 40 18:41 22.11.2021
5260 Clouds 24 1020 94 10000 5.14 40 18:22 22.11.2021
5261 Clouds 26 1020 72 10000 4.97 8 16:45 22.11.2021
5262 Clouds 22 1019 100 1609 0 0 15:32 22.11.2021
5263 Clouds 23 1016 77 10000 0.45 253 12:52 22.11.2021
5264 Clouds 22 1016 75 10000 0.89 93 11:39 22.11.2021
5265 Clear 23 1015 72 10000 2.75 330 10:27 22.11.2021
5266 Clear 23 1016 71 10000 2.65 330 08:44 22.11.2021
5267 Clear 23 1016 71 10000 0.45 355 08:24 22.11.2021
5268 Clouds 25 1016 88 10000 4.63 30 01:43 22.11.2021
5269 Clouds 26 1016 78 10000 6.17 30 23:21 21.11.2021
5270 Clouds 27 1014 57 10000 4.47 355 22:45 21.11.2021
5271 Clouds 26 1016 83 10000 5.14 40 21:22 21.11.2021
5272 Clouds 28 1017 69 10000 4.12 320 20:36 21.11.2021
5273 Clouds 27 1018 74 10000 4.12 130 19:43 21.11.2021
5274 Clouds 27 1018 74 10000 4.12 130 19:43 21.11.2021
5275 Clear 27 1017 59 10000 4.02 5 17:59 21.11.2021
5276 Clouds 26 1019 73 10000 3.09 50 17:36 21.11.2021
5277 Clouds 21 1018 94 10000 1.03 330 15:21 21.11.2021
5278 Clouds 21 1017 94 10000 0 0 14:42 21.11.2021
5279 Clouds 21 1017 94 10000 1.03 320 13:23 21.11.2021
5280 Clouds 21 1015 72 10000 3.47 316 12:27 21.11.2021
5281 Clouds 21 1015 70 10000 3.47 316 11:38 21.11.2021
5282 Clouds 22 1015 67 10000 3.7 321 10:19 21.11.2021
5283 Clouds 22 1015 67 10000 0.89 271 09:47 21.11.2021
5284 Clouds 22 1016 64 10000 0.89 271 08:33 21.11.2021
5285 Clouds 24 1016 63 10000 1.79 320 07:53 21.11.2021
5286 Clouds 23 1019 94 10000 1.54 360 06:37 21.11.2021
5287 Clear 24 1019 83 10000 2.57 40 05:42 21.11.2021
5288 Clear 24 1019 83 10000 4.63 40 03:26 21.11.2021
5289 Clear 25 1017 61 10000 4.92 21 02:56 21.11.2021
5290 Clouds 24 1018 83 10000 3.09 40 02:19 21.11.2021
5291 Clear 26 1015 57 10000 4.92 350 00:50 21.11.2021
5292 Clouds 27 1017 69 10000 7.2 60 22:35 20.11.2021
5293 Clouds 28 1018 65 10000 6.17 40 21:33 20.11.2021
5294 Clouds 28 1019 65 10000 4.63 60 20:32 20.11.2021
5295 Clouds 28 1018 51 10000 3.58 344 18:45 20.11.2021
5296 Clouds 28 1020 61 10000 2.57 40 18:24 20.11.2021
5297 Clouds 26 1021 69 10000 2.57 320 17:22 20.11.2021
5298 Clouds 21 1020 94 10000 0 0 15:40 20.11.2021
5299 Clouds 20 1020 94 10000 0 0 14:39 20.11.2021
5300 Clouds 20 1020 94 10000 0 0 14:20 20.11.2021
5301 Clouds 21 1016 66 10000 5.36 338 11:56 20.11.2021
5302 Clouds 22 1017 62 10000 0.89 322 09:59 20.11.2021
5303 Clouds 23 1018 61 10000 2.24 301 08:48 20.11.2021
5304 Clouds 25 1019 57 10000 7.15 355 06:57 20.11.2021
5305 Clouds 24 1021 73 10000 3.6 50 05:21 20.11.2021
5306 Clouds 25 1019 55 10000 7.6 360 04:50 20.11.2021
5307 Clouds 24 1019 69 10000 7.72 50 00:45 20.11.2021
5308 Clouds 24 1019 69 10000 7.72 50 00:26 20.11.2021
5309 Clear 26 1016 51 10000 8.05 360 22:54 19.11.2021
5310 Clouds 26 1019 65 10000 10.29 360 21:36 19.11.2021
5311 Clouds 26 1020 65 10000 6.69 30 20:48 19.11.2021
5312 Clouds 26 1020 65 10000 6.69 30 20:29 19.11.2021
5313 Clear 27 1018 51 10000 8.05 345 19:47 19.11.2021
5314 Clouds 26 1019 53 10000 6.26 327 18:49 19.11.2021
5315 Clouds 25 1022 69 10000 6.17 50 17:45 19.11.2021
5316 Clouds 22 1022 88 10000 4.12 360 16:43 19.11.2021
5317 Clouds 22 1021 88 10000 6.69 40 15:31 19.11.2021
5318 Clouds 24 1017 64 10000 4.47 355 12:43 19.11.2021
5319 Clouds 23 1017 70 10000 3.13 53 10:26 19.11.2021
5320 Clouds 24 1017 69 10000 2.24 338 08:39 19.11.2021
5321 Clear 26 1017 65 10000 1.79 315 07:26 19.11.2021
5322 Clouds 26 1019 83 10000 4.63 40 04:22 19.11.2021
5323 Clouds 28 1014 50 10000 3.58 36 23:59 18.11.2021
5324 Clouds 28 1016 69 10000 3.09 50 23:41 18.11.2021
5325 Clouds 30 1014 52 10000 4.02 24 21:41 18.11.2021
5326 Clouds 29 1015 56 10000 2.68 24 20:46 18.11.2021
5327 Clouds 29 1017 65 10000 3.6 50 20:28 18.11.2021
5328 Clouds 29 1018 58 10000 2.06 140 19:43 18.11.2021
5329 Clear 29 1018 61 8047 2.06 20 18:40 18.11.2021
5330 Clear 28 1016 51 10000 0.45 298 17:54 18.11.2021
5331 Clear 27 1018 69 8047 0 0 17:35 18.11.2021
5332 Clear 25 1018 78 9656 0 0 16:43 18.11.2021
5333 Clear 22 1017 88 8047 1.54 330 15:23 18.11.2021
5334 Clear 20 1016 100 10000 0 0 13:21 18.11.2021
5335 Clear 21 1013 75 10000 0.45 266 11:45 18.11.2021
5336 Clear 21 1013 75 10000 0.45 266 11:26 18.11.2021
5337 Clear 20 1013 73 10000 0.45 266 10:55 18.11.2021
5338 Mist 21 1015 100 10000 0 0 09:28 18.11.2021
5339 Mist 22 1016 94 10000 0 0 07:31 18.11.2021
5340 Clear 23 1016 88 10000 0 0 05:47 18.11.2021
5341 Clear 24 1014 83 10000 0 0 02:46 18.11.2021
5342 Clear 25 1014 78 10000 1.03 130 01:22 18.11.2021
5343 Clear 29 1013 61 10000 1.54 170 22:41 17.11.2021
5344 Clear 29 1013 61 10000 1.54 170 22:20 17.11.2021
5345 Clear 29 1013 61 10000 1.54 170 22:20 17.11.2021
5346 Clear 28 1014 65 10000 1.54 130 21:36 17.11.2021
5347 Clear 29 1015 61 10000 2.06 210 20:18 17.11.2021
5348 Clear 26 1018 69 10000 0 0 17:44 17.11.2021
5349 Clouds 26 1016 50 10000 1.79 182 16:59 17.11.2021
5350 Haze 20 1017 88 10000 0 0 13:59 17.11.2021
5351 Clouds 20 1014 65 10000 0.89 251 12:39 17.11.2021
5352 Clouds 20 1014 66 10000 2.51 255 11:41 17.11.2021
5353 Clear 21 1014 65 10000 2.58 253 10:28 17.11.2021
5354 Clear 21 1015 66 10000 2.72 251 09:23 17.11.2021
5355 Clear 20 1016 66 10000 2.79 253 07:41 17.11.2021
5356 Clear 22 1017 83 10000 0 0 03:35 17.11.2021
5357 Clear 25 1014 51 10000 0.89 100 00:47 17.11.2021
5358 Clear 28 1014 39 10000 4.02 93 22:44 16.11.2021
5359 Clouds 28 1018 47 10000 0 0 20:20 16.11.2021
5360 Clear 28 1016 39 10000 2.24 61 19:59 16.11.2021
5361 Clear 27 1017 38 10000 0.45 209 18:53 16.11.2021
5362 Clear 27 1020 57 10000 0 0 18:30 16.11.2021
5363 Clouds 27 1019 47 10000 1.34 324 17:34 16.11.2021
5364 Clear 24 1021 69 10000 1.03 320 16:32 16.11.2021
5365 Clouds 23 1019 53 10000 2.24 282 15:49 16.11.2021
5366 Clear 18 1020 94 9656 1.54 340 14:31 16.11.2021
5367 Clear 20 1017 65 10000 0.45 264 11:22 16.11.2021
5368 Clear 20 1017 66 10000 2.54 291 09:45 16.11.2021
5369 Clear 21 1018 63 10000 1.87 313 08:25 16.11.2021
5370 Clear 21 1019 62 10000 0.89 264 07:31 16.11.2021
5371 Clear 23 1019 73 10000 0 0 01:38 16.11.2021
5372 Clear 27 1017 41 10000 3.13 37 22:52 15.11.2021
5373 Clear 27 1020 57 10000 3.6 100 22:21 15.11.2021
5374 Clear 27 1018 43 10000 3.13 5 21:52 15.11.2021
5375 Clear 27 1020 54 10000 3.6 130 21:26 15.11.2021
5376 Clouds 26 1022 65 10000 2.57 40 19:41 15.11.2021
5377 Clouds 26 1023 61 10000 3.09 40 18:30 15.11.2021
5378 Clouds 24 1023 73 10000 3.09 320 16:20 15.11.2021
5379 Clouds 21 1022 88 10000 1.54 330 15:40 15.11.2021
5380 Clouds 21 1022 88 10000 1.54 330 15:21 15.11.2021
5381 Clear 19 1021 94 10000 0 0 13:22 15.11.2021
5382 Clear 20 1018 74 10000 1.73 340 10:57 15.11.2021
5383 Clear 20 1018 74 10000 1.32 0 09:27 15.11.2021
5384 Clear 20 1018 74 10000 1.32 0 09:27 15.11.2021
5385 Clouds 20 1018 72 10000 1.47 3 07:52 15.11.2021
5386 Clear 20 1021 94 10000 0 0 05:19 15.11.2021
5387 Clouds 26 1018 69 10000 3.09 40 23:37 14.11.2021
5388 Clouds 27 1018 69 10000 2.57 50 22:35 14.11.2021
5389 Clouds 27 1018 45 10000 2.68 14 19:53 14.11.2021
5390 Clouds 27 1021 61 10000 3.09 40 19:18 14.11.2021
5391 Clouds 27 1019 49 10000 3.13 40 18:54 14.11.2021
5392 Clouds 26 1022 73 10000 2.06 350 18:36 14.11.2021
5393 Clouds 26 1022 73 10000 2.06 350 18:18 14.11.2021
5394 Clouds 27 1020 55 10000 2.68 318 17:55 14.11.2021
5395 Clouds 25 1022 78 10000 0 0 17:37 14.11.2021
5396 Clouds 25 1022 78 10000 0 0 17:19 14.11.2021
5397 Clouds 21 1022 94 10000 1.54 340 16:46 14.11.2021
5398 Clouds 21 1022 94 10000 1.54 340 16:20 14.11.2021
5399 Clouds 21 1022 94 10000 0 0 15:23 14.11.2021
5400 Clouds 21 1021 94 1609 5.14 130 14:49 14.11.2021
5401 Clouds 21 1021 94 1609 5.14 130 14:29 14.11.2021
5402 Clouds 19 1021 100 10000 0 0 13:54 14.11.2021
5403 Clouds 19 1021 100 10000 0 0 13:35 14.11.2021
5404 Clouds 21 1018 71 10000 1.34 259 12:27 14.11.2021
5405 Clouds 21 1018 71 10000 0.89 259 11:41 14.11.2021
5406 Clouds 21 1018 69 10000 1.34 241 10:41 14.11.2021
5407 Clouds 21 1018 68 10000 1.34 269 09:48 14.11.2021
5408 Clouds 21 1019 66 10000 0.89 281 08:54 14.11.2021
5409 Clouds 22 1020 67 10000 0.89 201 07:19 14.11.2021
5410 Clouds 27 1019 69 10000 7.2 360 23:47 13.11.2021
5411 Clouds 27 1019 69 10000 3.6 350 22:26 13.11.2021
5412 Clear 28 1017 52 10000 6.26 19 21:56 13.11.2021
5413 Clouds 28 1019 57 10000 10.8 60 21:22 13.11.2021
5414 Clouds 26 1021 69 10000 7.2 30 19:38 13.11.2021
5415 Clouds 27 1021 65 10000 4.63 340 18:33 13.11.2021
5416 Clear 28 1020 51 10000 4.92 344 17:55 13.11.2021
5417 Clouds 25 1022 73 10000 2.06 330 16:37 13.11.2021
5418 Mist 21 1021 88 10000 0 0 15:29 13.11.2021
5419 Mist 20 1020 94 10000 0 0 14:20 13.11.2021
5420 Clouds 21 1018 68 10000 1.34 289 13:18 13.11.2021
5421 Clouds 21 1018 67 10000 0.89 294 12:24 13.11.2021
5422 Clouds 22 1017 68 10000 0.89 301 11:34 13.11.2021
5423 Clouds 22 1017 70 10000 0.89 300 10:45 13.11.2021
5424 Clouds 22 1017 72 10000 0.89 311 10:20 13.11.2021
5425 Clouds 22 1017 72 10000 0.45 285 09:37 13.11.2021
5426 Clouds 21 1018 69 10000 4.1 353 08:56 13.11.2021
5427 Clouds 21 1018 69 10000 3.71 352 08:23 13.11.2021
5428 Clear 23 1018 65 10000 3.12 3 04:47 13.11.2021
5429 Clouds 23 1020 83 10000 0 0 04:28 13.11.2021
5430 Clouds 25 1017 73 10000 1.03 60 01:30 13.11.2021
5431 Clouds 27 1015 52 10000 3.13 5 22:58 12.11.2021
5432 Clouds 28 1017 74 10000 2.57 100 21:45 12.11.2021
5433 Clouds 28 1016 54 10000 2.24 311 19:54 12.11.2021
5434 Clouds 26 1019 78 9656 0 0 19:27 12.11.2021
5435 Clouds 23 1020 94 9656 0 0 18:29 12.11.2021
5436 Clouds 23 1020 88 8047 0 0 16:34 12.11.2021
5437 Clouds 21 1019 100 8047 0 0 15:32 12.11.2021
5438 Clouds 22 1015 74 10000 2.24 293 11:54 12.11.2021
5439 Clouds 23 1015 66 10000 1.34 134 10:51 12.11.2021
5440 Clouds 23 1015 62 10000 2.24 134 09:37 12.11.2021
5441 Clouds 22 1015 64 10000 1.34 265 08:38 12.11.2021
5442 Clouds 23 1014 83 10000 0 0 02:28 12.11.2021
5443 Clouds 28 1012 54 10000 0 0 23:41 11.11.2021
5444 Clouds 28 1012 51 10000 1.54 110 22:31 11.11.2021
5445 Clouds 28 1012 51 10000 2.06 130 21:27 11.11.2021
5446 Clouds 29 1013 48 10000 1.54 200 20:40 11.11.2021
5447 Clear 28 1012 48 10000 0.89 128 18:56 11.11.2021
5448 Clear 26 1013 51 10000 1.79 215 17:43 11.11.2021
5449 Clear 25 1013 55 10000 2.24 178 16:54 11.11.2021
5450 Clear 21 1013 65 10000 3.4 190 14:51 11.11.2021
5451 Haze 18 1014 94 9656 0 0 14:28 11.11.2021
5452 Haze 18 1013 94 9656 0 0 13:39 11.11.2021
5453 Clouds 18 1011 72 10000 3.26 195 12:48 11.11.2021
5454 Clouds 18 1011 71 10000 3.41 192 10:40 11.11.2021
5455 Clouds 20 1011 71 10000 3.52 194 09:34 11.11.2021
5456 Clouds 20 1012 69 10000 1.34 206 07:59 11.11.2021
5457 Clear 22 1013 63 10000 0.89 189 04:45 11.11.2021
5458 Clear 27 1012 61 10000 3.09 110 23:35 10.11.2021
5459 Clouds 27 1013 65 10000 1.54 120 22:22 10.11.2021
5460 Clouds 29 1013 54 10000 2.06 220 21:21 10.11.2021
5461 Clouds 29 1012 41 10000 0.45 117 20:46 10.11.2021
5462 Clouds 28 1013 44 10000 2.24 215 19:47 10.11.2021
5463 Clouds 28 1013 44 10000 2.24 215 19:47 10.11.2021
5464 Clouds 28 1013 44 10000 2.24 215 19:47 10.11.2021
5465 Clouds 26 1017 73 10000 0 0 18:33 10.11.2021
5466 Clouds 24 1017 88 10000 0 0 16:34 10.11.2021
5467 Clouds 22 1017 88 10000 0 0 15:28 10.11.2021
5468 Clear 20 1017 52 10000 0 0 13:43 10.11.2021
5469 Clouds 21 1015 72 10000 1.95 189 12:50 10.11.2021
5470 Clouds 22 1015 74 10000 1.51 159 10:48 10.11.2021
5471 Clouds 21 1016 74 10000 0.89 276 08:45 10.11.2021
5472 Mist 22 1019 94 10000 0 0 07:44 10.11.2021
5473 Mist 22 1020 94 10000 0 0 06:26 10.11.2021
5474 Clouds 22 1020 100 10000 0 0 05:51 10.11.2021
5475 Clouds 26 1016 57 10000 2.68 78 23:55 09.11.2021
5476 Mist 25 1019 78 10000 2.06 30 21:50 09.11.2021
5477 Mist 25 1019 78 10000 2.06 30 21:50 09.11.2021
5478 Haze 25 1020 73 10000 2.06 30 20:32 09.11.2021
5479 Mist 25 1021 78 9656 3.09 340 19:25 09.11.2021
5480 Mist 23 1022 88 10000 2.57 350 17:44 09.11.2021
5481 Mist 22 1021 94 10000 2.06 350 15:45 09.11.2021
5482 Clouds 22 1019 75 10000 2.24 346 14:43 09.11.2021
5483 Clouds 22 1018 76 10000 2.24 295 12:53 09.11.2021
5484 Clouds 22 1018 76 10000 2.24 295 12:53 09.11.2021
5485 Clouds 21 1018 76 10000 2.68 296 11:56 09.11.2021
5486 Clouds 21 1019 75 10000 1.34 196 10:45 09.11.2021
5487 Clouds 22 1019 72 10000 3.13 309 09:28 09.11.2021
5488 Clouds 22 1019 70 10000 1.79 319 08:26 09.11.2021
5489 Clouds 25 1020 54 10000 4.92 28 05:53 09.11.2021
5490 Clouds 26 1019 53 10000 2.24 55 02:23 09.11.2021
5491 Clouds 26 1019 54 10000 4.02 50 01:46 09.11.2021
5492 Clouds 27 1018 43 10000 3.13 22 23:58 08.11.2021
5493 Clouds 28 1017 43 10000 4.47 17 22:50 08.11.2021
5494 Clouds 28 1017 49 10000 4.02 57 21:59 08.11.2021
5495 Clouds 28 1018 40 10000 2.68 60 20:55 08.11.2021
5496 Clouds 28 1019 36 10000 2.68 61 19:51 08.11.2021
5497 Clouds 28 1020 42 10000 1.79 5 18:56 08.11.2021
5498 Clouds 24 1022 83 10000 1.03 330 16:34 08.11.2021
5499 Clouds 23 1020 72 10000 0.89 270 15:25 08.11.2021
5500 Clouds 21 1020 76 10000 1.34 265 14:40 08.11.2021
5501 Clouds 20 1021 100 9656 0 0 13:49 08.11.2021
5502 Clouds 21 1019 76 10000 1.34 270 12:20 08.11.2021
5503 Clouds 21 1019 76 10000 2.24 280 11:20 08.11.2021
5504 Clouds 21 1019 76 10000 2.24 279 09:47 08.11.2021
5505 Clouds 21 1019 77 10000 3.13 281 08:54 08.11.2021
5506 Clouds 22 1020 76 10000 0.89 296 07:35 08.11.2021
5507 Haze 22 1022 94 9656 0 0 04:42 08.11.2021
5508 Haze 22 1021 94 9656 0 0 03:28 08.11.2021
5509 Clouds 23 1018 68 10000 1.34 340 23:46 07.11.2021
5510 Mist 22 1020 94 4828 6.17 360 21:54 07.11.2021
5511 Mist 22 1020 94 4828 6.17 360 21:20 07.11.2021
5512 Drizzle 22 1022 100 1609 4.63 70 19:40 07.11.2021
5513 Drizzle 22 1022 94 1609 3.09 350 18:22 07.11.2021
5514 Drizzle 21 1022 100 1609 3.09 60 16:54 07.11.2021
5515 Clouds 22 1020 77 10000 2.24 349 15:54 07.11.2021
5516 Drizzle 21 1021 100 2414 0 0 14:29 07.11.2021
5517 Drizzle 21 1020 100 4828 0 0 13:35 07.11.2021
5518 Clouds 22 1018 77 9433 1.79 53 11:44 07.11.2021
5519 Clouds 22 1018 73 10000 2.68 111 09:57 07.11.2021
5520 Clouds 22 1018 73 10000 1.34 281 08:31 07.11.2021
5521 Clouds 24 1019 59 10000 1.79 44 02:41 07.11.2021
5522 Clouds 24 1019 78 10000 3.6 40 23:38 06.11.2021
5523 Clouds 26 1017 55 10000 5.81 355 22:48 06.11.2021
5524 Clouds 26 1019 69 10000 4.12 40 21:33 06.11.2021
5525 Clouds 27 1017 52 10000 5.36 10 20:50 06.11.2021
5526 Clouds 29 1019 44 10000 6.71 26 18:56 06.11.2021
5527 Clouds 26 1019 53 10000 1.34 355 16:47 06.11.2021
5528 Clouds 26 1019 53 10000 1.34 355 16:47 06.11.2021
5529 Clouds 26 1019 53 10000 1.34 355 16:47 06.11.2021
5530 Clouds 26 1019 53 10000 1.34 355 16:47 06.11.2021
5531 Clouds 22 1020 94 10000 0 0 15:21 06.11.2021
5532 Clouds 21 1019 94 10000 0 0 13:38 06.11.2021
5533 Clouds 21 1017 69 10000 0.45 281 12:28 06.11.2021
5534 Clouds 22 1017 63 10000 5.16 329 09:33 06.11.2021
5535 Clouds 22 1018 63 10000 0.45 281 07:55 06.11.2021
5536 Clouds 25 1017 56 10000 4.47 10 02:36 06.11.2021
5537 Clouds 26 1017 65 10000 8.75 30 23:37 05.11.2021
5538 Clouds 27 1016 50 10000 5.36 355 22:39 05.11.2021
5539 Clouds 28 1016 48 10000 5.81 16 21:50 05.11.2021
5540 Clouds 29 1018 58 10000 4.63 60 20:20 05.11.2021
5541 Clouds 28 1017 44 10000 4.47 333 19:48 05.11.2021
5542 Clouds 28 1018 44 10000 4.02 355 18:41 05.11.2021
5543 Clouds 25 1020 73 10000 3.6 330 17:30 05.11.2021
5544 Mist 23 1019 78 10000 0 0 15:43 05.11.2021
5545 Mist 22 1018 78 10000 2.06 350 13:38 05.11.2021
5546 Clouds 21 1015 61 10000 0.45 296 11:27 05.11.2021
5547 Clear 22 1016 78 10000 6.48 324 08:41 05.11.2021
5548 Clouds 23 1017 77 10000 7.2 330 07:39 05.11.2021
5549 Clouds 23 1017 77 10000 7.2 330 07:39 05.11.2021
5550 Clouds 25 1017 73 10000 7.72 360 05:33 05.11.2021
5551 Clouds 25 1017 73 10000 7.72 360 05:33 05.11.2021
5552 Clouds 26 1015 69 10000 7.72 360 02:26 05.11.2021
5553 Clouds 27 1013 53 10000 6.71 355 00:52 05.11.2021
5554 Clouds 28 1023 65 10000 5.14 360 23:24 04.11.2021
5555 Clouds 28 1014 65 10000 7.72 30 22:19 04.11.2021
5556 Clouds 27 1014 67 10000 9.41 8 21:38 04.11.2021
5557 Clouds 30 1013 41 10000 5.81 15 20:50 04.11.2021
5558 Clouds 30 1014 41 10000 4.92 19 20:22 04.11.2021
5559 Clouds 30 1014 42 10000 4.47 348 19:47 04.11.2021
5560 Clouds 29 1015 47 10000 4.47 57 18:44 04.11.2021
5561 Clouds 28 1016 49 10000 2.24 339 17:54 04.11.2021
5562 Clouds 27 1016 51 10000 1.34 258 16:47 04.11.2021
5563 Clouds 22 1014 68 10000 1.34 305 14:42 04.11.2021
5564 Clouds 20 1012 73 10000 2.37 322 12:32 04.11.2021
5565 Clouds 21 1013 66 10000 0.45 265 09:37 04.11.2021
5566 Clouds 22 1013 66 10000 1.12 327 08:31 04.11.2021
5567 Clouds 22 1014 66 10000 0.82 336 07:34 04.11.2021
5568 Clear 24 1015 78 10000 0 0 02:37 04.11.2021
5569 Clouds 28 1012 44 10000 2.24 74 22:50 03.11.2021
5570 Clouds 29 1012 41 10000 4.02 71 21:49 03.11.2021
5571 Clouds 29 1013 42 10000 3.13 38 21:30 03.11.2021
5572 Clouds 28 1016 61 10000 1.54 120 20:35 03.11.2021
5573 Clouds 29 1014 44 10000 2.68 107 19:58 03.11.2021
5574 Clouds 28 1015 48 10000 2.24 108 18:56 03.11.2021
5575 Clouds 28 1018 65 10000 0 0 18:21 03.11.2021
5576 Clouds 28 1018 65 10000 0 0 17:35 03.11.2021
5577 Clouds 25 1018 78 10000 0 0 16:25 03.11.2021
5578 Clouds 26 1016 55 10000 1.79 288 15:42 03.11.2021
5579 Clouds 21 1016 71 10000 0.45 227 13:55 03.11.2021
5580 Clouds 21 1015 68 10000 1.93 356 11:54 03.11.2021
5581 Clouds 22 1015 68 10000 2.18 2 11:25 03.11.2021
5582 Clouds 22 1015 66 10000 0.45 227 10:41 03.11.2021
5583 Clouds 22 1016 67 10000 2.1 359 09:30 03.11.2021
5584 Clouds 22 1016 67 10000 0.45 227 08:22 03.11.2021
5585 Clouds 23 1017 63 10000 1.44 346 07:39 03.11.2021
5586 Clouds 25 1019 73 10000 0 0 04:26 03.11.2021
5587 Clouds 24 1018 68 10000 2.98 31 01:49 03.11.2021
5588 Clouds 24 1018 68 10000 2.98 31 01:49 03.11.2021
5589 Clouds 28 1015 42 10000 2.68 60 23:47 02.11.2021
5590 Clouds 29 1017 58 10000 2.06 40 22:29 02.11.2021
5591 Clouds 30 1016 38 10000 2.24 26 21:25 02.11.2021
5592 Clouds 30 1016 40 10000 2.68 5 20:32 02.11.2021
5593 Clouds 30 1017 42 10000 1.79 74 19:47 02.11.2021
5594 Clouds 28 1018 48 10000 1.34 26 18:51 02.11.2021
5595 Clouds 29 1019 46 10000 0.89 302 17:58 02.11.2021
5596 Clouds 28 1019 47 10000 1.79 355 17:32 02.11.2021
5597 Clouds 26 1020 57 10000 1.79 271 16:29 02.11.2021
5598 Clouds 23 1019 63 10000 1.34 292 15:26 02.11.2021
5599 Clouds 22 1019 68 10000 0.89 273 14:18 02.11.2021
5600 Clouds 21 1018 71 10000 1.57 300 13:27 02.11.2021
5601 Clouds 21 1017 69 10000 1.57 300 12:33 02.11.2021
5602 Clouds 21 1017 67 10000 1.43 300 11:32 02.11.2021
5603 Clear 21 1017 67 10000 1.46 296 10:51 02.11.2021
5604 Clear 22 1017 66 10000 1.24 284 10:25 02.11.2021
5605 Clear 23 1017 66 10000 0.99 278 08:43 02.11.2021
5606 Clouds 23 1018 64 10000 0.45 217 06:43 02.11.2021
5607 Clouds 25 1020 73 10000 0 0 03:34 02.11.2021
5608 Clouds 25 1018 73 10000 1.03 100 01:24 02.11.2021
5609 Clouds 29 1017 61 10000 3.09 130 22:39 01.11.2021
5610 Clouds 30 1016 46 10000 3.13 81 20:52 01.11.2021
5611 Clouds 28 1018 65 10000 1.54 130 20:33 01.11.2021
5612 Clouds 29 1017 47 10000 3.13 41 19:48 01.11.2021
5613 Clouds 29 1017 45 10000 3.13 84 18:57 01.11.2021
5614 Clouds 29 1018 47 10000 3.13 46 18:20 01.11.2021
5615 Clouds 26 1021 73 10000 0 0 17:19 01.11.2021
5616 Clouds 27 1020 74 10000 1.54 310 16:37 01.11.2021
5617 Mist 23 1019 83 10000 0 0 15:45 01.11.2021
5618 Mist 23 1019 83 10000 0 0 15:19 01.11.2021
5619 Haze 22 1019 88 10000 0 0 14:41 01.11.2021
5620 Mist 22 1019 88 10000 0 0 14:19 01.11.2021
5621 Clouds 23 1016 64 10000 0.45 284 12:59 01.11.2021
5622 Clouds 23 1015 65 10000 1.18 80 11:40 01.11.2021
5623 Clouds 22 1015 63 10000 1.59 110 10:22 01.11.2021
5624 Clouds 22 1015 64 10000 1.76 116 08:26 01.11.2021
5625 Clouds 23 1015 64 10000 1.76 116 07:47 01.11.2021
5626 Clouds 25 1016 60 10000 0.89 120 03:55 01.11.2021
5627 Clear 24 1017 78 10000 0 0 03:36 01.11.2021
5628 Clouds 28 1012 43 10000 2.68 105 23:58 31.10.2021
5629 Clouds 29 1012 44 10000 3.13 88 21:26 31.10.2021
5630 Clouds 29 1013 44 10000 1.79 188 20:24 31.10.2021
5631 Clouds 28 1014 46 10000 2.68 143 18:43 31.10.2021
5632 Clouds 28 1014 49 10000 1.79 195 18:21 31.10.2021
5633 Clouds 26 1017 69 10000 0 0 16:48 31.10.2021
5634 Clouds 21 1014 65 10000 0.45 258 14:53 31.10.2021
5635 Clouds 19 1013 68 10000 2.57 198 12:58 31.10.2021
5636 Clouds 19 1013 67 10000 2.72 199 12:19 31.10.2021
5637 Clouds 20 1012 67 10000 2.81 200 10:51 31.10.2021
5638 Clear 21 1012 67 10000 2.13 196 09:26 31.10.2021
5639 Clear 21 1012 67 10000 2.13 196 08:46 31.10.2021
5640 Clouds 25 1012 57 10000 3.51 124 02:59 31.10.2021
5641 Clouds 29 1013 58 10000 2.57 110 23:43 30.10.2021
5642 Clouds 30 1012 48 10000 2.68 112 21:50 30.10.2021
5643 Clouds 30 1013 46 10000 2.68 129 21:26 30.10.2021
5644 Clouds 29 1017 54 10000 2.06 190 19:40 30.10.2021
5645 Clear 27 1016 50 10000 0.89 230 17:48 30.10.2021
5646 Clear 22 1016 63 10000 2.01 245 15:34 30.10.2021
5647 Clear 21 1014 68 10000 2.36 261 13:58 30.10.2021
5648 Clouds 21 1014 68 10000 2.14 260 13:38 30.10.2021
5649 Clouds 21 1014 68 10000 2.3 272 13:19 30.10.2021
5650 Clouds 21 1014 68 10000 2.43 280 11:49 30.10.2021
5651 Clouds 22 1014 68 10000 2.44 277 10:34 30.10.2021
5652 Clouds 23 1015 64 10000 2.29 283 08:55 30.10.2021
5653 Clouds 25 1016 65 10000 2.21 292 07:55 30.10.2021
5654 Clouds 25 1016 66 10000 0.45 14 05:45 30.10.2021
5655 Clouds 25 1016 73 10000 0 0 02:26 30.10.2021
5656 Clouds 28 1016 57 10000 3.09 30 23:20 29.10.2021
5657 Haze 28 1017 61 8047 2.57 40 22:33 29.10.2021
5658 Clouds 28 1016 46 10000 1.34 355 20:55 29.10.2021
5659 Haze 27 1019 65 8047 0 0 20:31 29.10.2021
5660 Clouds 26 1017 54 10000 1.79 280 18:49 29.10.2021
5661 Haze 24 1019 78 8047 0 0 17:28 29.10.2021
5662 Haze 24 1019 78 8047 0 0 17:28 29.10.2021
5663 Clouds 25 1019 61 10000 3.09 70 15:22 29.10.2021
5664 Clouds 25 1016 59 10000 1.34 308 12:30 29.10.2021
5665 Clouds 25 1015 56 10000 2.68 315 10:46 29.10.2021
5666 Clouds 25 1015 58 10000 0.45 292 09:27 29.10.2021
5667 Clear 30 1011 47 10000 5.81 46 00:55 29.10.2021
5668 Clouds 28 1013 65 10000 8.75 40 23:47 28.10.2021
5669 Clouds 31 1013 58 9656 8.75 30 22:21 28.10.2021
5670 Clear 31 1012 56 10000 6.71 19 20:57 28.10.2021
5671 Clear 31 1012 60 10000 8.05 5 19:52 28.10.2021
5672 Clouds 30 1013 74 6437 7.72 360 18:30 28.10.2021
5673 Mist 28 1013 78 9656 3.09 330 17:27 28.10.2021
5674 Mist 28 1012 78 8047 5.14 350 16:37 28.10.2021
5675 Mist 26 1010 94 10000 2.57 70 14:40 28.10.2021
5676 Clouds 24 1010 100 10000 0 0 13:32 28.10.2021
5677 Clouds 25 1008 72 10000 0.89 209 12:49 28.10.2021
5678 Clouds 25 1006 73 10000 0.89 224 11:26 28.10.2021
5679 Clouds 26 1006 72 10000 0.45 208 09:55 28.10.2021
5680 Clouds 26 1006 72 10000 0.45 208 09:35 28.10.2021
5681 Clear 26 1006 72 10000 0.89 216 08:36 28.10.2021
5682 Clear 26 1006 71 10000 0.45 185 07:41 28.10.2021
5683 Clouds 33 1004 70 10000 1.03 220 01:37 28.10.2021
5684 Clouds 32 1004 74 8047 4.12 210 22:47 27.10.2021
5685 Clouds 32 1005 74 6437 3.09 200 21:52 27.10.2021
5686 Clouds 32 1005 74 6437 3.09 200 21:18 27.10.2021
5687 Haze 31 1006 79 4828 4.63 200 20:40 27.10.2021
5688 Mist 29 1008 84 2414 1.03 210 19:45 27.10.2021
5689 Clouds 29 1006 68 10000 2.24 183 18:55 27.10.2021
5690 Clouds 27 1007 71 10000 2.68 180 16:55 27.10.2021
5691 Clouds 26 1008 94 8047 1.54 190 16:24 27.10.2021
5692 Mist 25 1008 100 8047 1.54 220 15:24 27.10.2021
5693 Clear 25 1007 100 8047 2.06 190 14:19 27.10.2021
5694 Clouds 26 1005 77 10000 3.68 181 11:18 27.10.2021
5695 Clouds 26 1006 76 10000 3.68 181 10:36 27.10.2021
5696 Clouds 27 1006 76 10000 0.45 237 09:21 27.10.2021
5697 Clouds 26 1008 75 10000 0.45 244 07:39 27.10.2021
5698 Clouds 26 1008 75 10000 0.45 244 07:39 27.10.2021
5699 Clouds 27 1010 94 10000 0 0 05:38 27.10.2021
5700 Haze 29 1008 84 9656 2.06 130 01:21 27.10.2021
5701 Clouds 30 1007 66 10000 3.58 96 00:54 27.10.2021
5702 Clouds 31 1007 66 10000 3.13 101 23:52 26.10.2021
5703 Clouds 31 1007 63 10000 3.13 103 22:44 26.10.2021
5704 Haze 31 1009 74 6437 3.09 160 22:21 26.10.2021
5705 Clouds 32 1007 61 10000 3.13 96 21:32 26.10.2021
5706 Clouds 32 1010 62 10000 1.34 110 19:48 26.10.2021
5707 Clouds 31 1011 58 10000 1.79 144 18:54 26.10.2021
5708 Haze 29 1013 84 6437 0 0 17:45 26.10.2021
5709 Mist 25 1013 100 4828 0 0 15:46 26.10.2021
5710 Clouds 26 1011 75 10000 1.13 289 12:33 26.10.2021
5711 Clouds 26 1011 75 10000 1.5 287 10:48 26.10.2021
5712 Clouds 27 1013 75 10000 0.45 275 08:24 26.10.2021
5713 Rain 27 1013 74 10000 0.89 272 07:21 26.10.2021
5714 Clouds 30 1011 74 10000 3.6 70 00:19 26.10.2021
5715 Clouds 32 1011 62 9656 2.57 170 23:28 25.10.2021
5716 Clouds 31 1012 66 9656 2.57 80 22:28 25.10.2021
5717 Clouds 32 1010 55 10000 3.13 87 21:42 25.10.2021
5718 Clouds 32 1014 66 9656 2.06 90 20:28 25.10.2021
5719 Clouds 31 1014 66 8047 1.54 70 19:43 25.10.2021
5720 Clouds 31 1014 66 8047 1.54 70 19:22 25.10.2021
5721 Clouds 30 1014 74 8047 0 0 18:35 25.10.2021
5722 Clouds 27 1014 94 8047 0 0 16:43 25.10.2021
5723 Clouds 25 1011 77 10000 0.82 252 14:47 25.10.2021
5724 Clouds 26 1010 77 10000 1.94 242 12:31 25.10.2021
5725 Clouds 25 1010 77 10000 0.85 224 10:46 25.10.2021
5726 Clouds 26 1011 76 10000 0.88 206 08:57 25.10.2021
5727 Clear 26 1013 94 9656 1.03 300 06:27 25.10.2021
5728 Clouds 27 1008 70 10000 0.89 126 02:44 25.10.2021
5729 Clouds 30 1007 63 10000 2.24 85 00:49 25.10.2021
5730 Clear 30 1008 74 10000 1.54 150 00:31 25.10.2021
5731 Clouds 30 1008 74 10000 1.54 120 23:33 24.10.2021
5732 Clouds 30 1009 74 10000 2.57 160 22:37 24.10.2021
5733 Clouds 30 1009 74 10000 2.57 160 22:19 24.10.2021
5734 Clouds 31 1008 60 10000 0.89 216 20:46 24.10.2021
5735 Clouds 31 1008 60 10000 0.89 216 20:46 24.10.2021
5736 Clouds 30 1011 70 10000 2.57 220 20:27 24.10.2021
5737 Clouds 29 1012 74 10000 3.6 210 19:29 24.10.2021
5738 Clouds 28 1012 78 10000 3.09 210 18:28 24.10.2021
5739 Clear 28 1012 78 10000 2.06 190 17:35 24.10.2021
5740 Clouds 26 1010 69 10000 2.63 184 15:55 24.10.2021
5741 Clouds 24 1010 94 10000 0 0 14:25 24.10.2021
5742 Clouds 24 1010 94 9656 0 0 12:57 24.10.2021
5743 Clouds 24 1008 75 10000 1.34 263 11:44 24.10.2021
5744 Clouds 24 1008 76 10000 3.22 183 10:55 24.10.2021
5745 Clouds 24 1009 76 10000 0.89 204 09:59 24.10.2021
5746 Clouds 24 1011 94 10000 0 0 05:35 24.10.2021
5747 Clouds 28 1007 58 10000 0.89 70 00:53 24.10.2021
5748 Clouds 30 1009 66 10000 1.03 130 23:34 23.10.2021
5749 Clouds 31 1008 55 10000 2.68 98 21:56 23.10.2021
5750 Clouds 30 1011 57 10000 0.45 235 19:53 23.10.2021
5751 Clouds 28 1012 63 10000 1.79 186 18:59 23.10.2021
5752 Clouds 28 1014 78 10000 0 0 18:21 23.10.2021
5753 Mist 25 1013 94 10000 0 0 17:43 23.10.2021
5754 Mist 25 1013 94 10000 0 0 17:43 23.10.2021
5755 Mist 24 1013 100 10000 0 0 16:21 23.10.2021
5756 Clouds 23 1012 100 10000 0 0 13:58 23.10.2021
5757 Clouds 26 1013 83 10000 3.09 20 03:33 23.10.2021
5758 Clouds 28 1010 64 7202 4.92 14 23:45 22.10.2021
5759 Clouds 28 1010 64 10000 4.92 14 22:49 22.10.2021
5760 Clouds 28 1013 65 10000 1.79 355 19:51 22.10.2021
5761 Clouds 25 1017 94 9656 3.6 340 18:40 22.10.2021
5762 Clouds 23 1017 100 9656 0 0 17:36 22.10.2021
5763 Clouds 23 1016 100 8047 1.54 120 14:58 22.10.2021
5764 Clouds 23 1014 100 9656 2.06 350 13:35 22.10.2021
5765 Clouds 24 1013 77 10000 1.79 315 11:18 22.10.2021
5766 Clouds 24 1013 77 10000 0.45 294 10:38 22.10.2021
5767 Clouds 25 1014 77 9796 1.79 291 09:41 22.10.2021
5768 Clouds 24 1014 73 10000 0.45 306 08:30 22.10.2021
5769 Clouds 27 1014 69 9821 2.24 360 07:21 22.10.2021
5770 Clouds 26 1014 70 9766 5.56 1 02:56 22.10.2021
5771 Clouds 27 1013 66 7280 0.89 13 23:53 21.10.2021
5772 Clouds 27 1013 66 10000 4.02 19 22:47 21.10.2021
5773 Haze 25 1017 100 6437 3.09 350 21:39 21.10.2021
5774 Haze 25 1018 100 6437 2.06 50 20:27 21.10.2021
5775 Clouds 26 1016 72 10000 1.34 340 19:57 21.10.2021
5776 Haze 25 1019 100 6437 1.54 40 19:26 21.10.2021
5777 Haze 25 1019 88 6437 2.06 360 18:38 21.10.2021
5778 Clouds 25 1017 75 10000 1.34 339 17:53 21.10.2021
5779 Haze 24 1018 100 6437 0 0 17:32 21.10.2021
5780 Clouds 23 1018 100 9656 0 0 15:34 21.10.2021
5781 Clouds 24 1015 77 10000 0.89 279 14:57 21.10.2021
5782 Clouds 23 1016 100 8047 1.54 330 14:37 21.10.2021
5783 Clouds 24 1014 77 10000 1.34 355 12:37 21.10.2021
5784 Clouds 23 1014 75 10000 1.34 292 09:55 21.10.2021
5785 Clouds 25 1015 73 6152 0.45 300 08:20 21.10.2021
5786 Clouds 26 1015 69 10000 0.89 300 06:54 21.10.2021
5787 Clouds 29 1012 56 10000 3.13 61 00:51 21.10.2021
5788 Clouds 30 1015 70 10000 5.14 60 22:41 20.10.2021
5789 Clouds 30 1013 54 10000 3.58 66 21:50 20.10.2021
5790 Clouds 30 1016 70 10000 3.09 110 21:18 20.10.2021
5791 Clouds 29 1017 74 10000 0 0 20:39 20.10.2021
5792 Clouds 29 1017 74 10000 0 0 20:21 20.10.2021
5793 Clouds 30 1018 66 10000 3.09 70 19:26 20.10.2021
5794 Clouds 29 1016 55 10000 1.79 13 18:45 20.10.2021
5795 Clouds 28 1017 78 10000 2.06 30 17:36 20.10.2021
5796 Clouds 22 1015 69 10000 2.65 315 14:56 20.10.2021
5797 Clouds 23 1014 65 10000 0.89 294 09:57 20.10.2021
5798 Clouds 25 1015 61 10000 2.76 325 06:57 20.10.2021
5799 Clouds 26 1014 73 10000 2.06 40 02:37 20.10.2021
5800 Clouds 29 1013 58 10000 2.57 90 00:34 20.10.2021
5801 Clouds 29 1013 58 10000 2.57 90 00:34 20.10.2021
5802 Clouds 30 1011 43 10000 2.68 42 22:53 19.10.2021
5803 Clouds 29 1015 65 10000 2.06 30 21:37 19.10.2021
5804 Clouds 29 1016 65 10000 1.03 50 20:27 19.10.2021
5805 Clouds 30 1014 49 10000 0.89 300 19:59 19.10.2021
5806 Clouds 28 1016 65 10000 1.54 40 19:37 19.10.2021
5807 Clouds 30 1015 48 10000 2.24 19 18:45 19.10.2021
5808 Clouds 29 1015 51 10000 2.24 26 17:52 19.10.2021
5809 Clouds 22 1016 94 10000 0 0 15:30 19.10.2021
5810 Clear 22 1015 94 10000 0 0 14:40 19.10.2021
5811 Clouds 22 1013 67 10000 0.45 269 13:55 19.10.2021
5812 Clouds 23 1013 66 10000 3.4 337 12:24 19.10.2021
5813 Clouds 23 1013 66 10000 0.89 269 11:28 19.10.2021
5814 Clouds 22 1014 66 10000 0.89 269 09:55 19.10.2021
5815 Clouds 23 1014 66 10000 0.89 266 08:57 19.10.2021
5816 Clouds 26 1015 73 10000 4.12 80 02:25 19.10.2021
5817 Clouds 28 1013 51 10000 5.36 12 23:59 18.10.2021
5818 Clouds 29 1015 61 10000 6.17 50 23:40 18.10.2021
5819 Clouds 28 1013 49 10000 4.47 27 22:56 18.10.2021
5820 Clouds 29 1015 65 10000 6.17 60 22:30 18.10.2021
5821 Clouds 28 1015 48 10000 4.47 5 20:53 18.10.2021
5822 Clouds 30 1017 54 10000 6.17 70 20:30 18.10.2021
5823 Clouds 28 1018 61 10000 5.66 50 19:32 18.10.2021
5824 Clouds 29 1017 45 10000 4.92 5 18:59 18.10.2021
5825 Clouds 26 1017 51 10000 4.47 344 16:59 18.10.2021
5826 Clouds 25 1016 58 10000 0.89 288 14:57 18.10.2021
5827 Clouds 25 1015 57 10000 0.89 318 12:28 18.10.2021
5828 Clouds 25 1015 55 10000 4.92 328 10:25 18.10.2021
5829 Clouds 25 1016 54 10000 2.24 325 09:25 18.10.2021
5830 Clouds 26 1017 65 9656 5.14 360 01:23 18.10.2021
5831 Sand 25 1017 73 9656 7.72 360 23:20 17.10.2021
5832 Clouds 26 1019 69 9656 7.72 360 21:45 17.10.2021
5833 Clouds 24 1018 85 10000 6.56 325 20:58 17.10.2021
5834 Clouds 26 1019 69 9656 5.14 350 20:26 17.10.2021
5835 Clouds 26 1020 69 9656 5.14 350 19:38 17.10.2021
5836 Clouds 23 1020 89 6472 5.49 330 18:35 17.10.2021
5837 Clouds 25 1018 59 4708 2.24 340 16:57 17.10.2021
5838 Clouds 22 1017 94 9656 2.06 360 14:42 17.10.2021
5839 Clouds 22 1017 94 9656 2.06 360 14:23 17.10.2021
5840 Clouds 22 1017 94 9656 0 0 13:33 17.10.2021
5841 Clouds 23 1015 68 10000 4.02 340 11:54 17.10.2021
5842 Clouds 23 1015 69 10000 2.24 349 10:20 17.10.2021
5843 Clouds 23 1016 69 10000 4.02 329 09:22 17.10.2021
5844 Clouds 25 1016 68 10000 8.49 355 06:55 17.10.2021
5845 Clouds 29 1014 49 10000 5.36 9 00:50 17.10.2021
5846 Clouds 31 1015 55 10000 7.2 30 23:43 16.10.2021
5847 Clouds 30 1017 58 10000 7.2 360 21:29 16.10.2021
5848 Clouds 27 1018 74 10000 5.14 20 20:30 16.10.2021
5849 Clouds 28 1016 58 10000 3.58 340 19:43 16.10.2021
5850 Haze 26 1018 94 9656 3.09 30 19:21 16.10.2021
5851 Clouds 27 1017 65 10000 4.02 342 18:46 16.10.2021
5852 Haze 25 1019 94 8047 0 0 18:28 16.10.2021
5853 Clouds 24 1019 100 8047 2.06 130 17:53 16.10.2021
5854 Mist 24 1018 100 4828 0 0 17:21 16.10.2021
5855 Clouds 24 1013 71 10000 0.89 269 13:59 16.10.2021
5856 Clouds 24 1012 70 10000 0.89 292 11:26 16.10.2021
5857 Clouds 25 1012 62 10000 0.45 5 09:48 16.10.2021
5858 Clouds 28 1013 53 10000 1.79 47 06:50 16.10.2021
5859 Clouds 30 1011 74 9656 2.57 110 01:25 16.10.2021
5860 Clouds 30 1011 74 9656 2.57 110 01:24 16.10.2021
5861 Clouds 30 1011 74 9656 2.57 110 01:24 16.10.2021
5862 Clouds 33 1010 49 9656 2.57 100 23:40 15.10.2021
5863 Clouds 33 1011 58 9656 2.57 50 22:22 15.10.2021
5864 Clouds 33 1009 51 10000 2.24 338 21:51 15.10.2021
5865 Clouds 33 1011 55 9656 2.57 60 21:21 15.10.2021
5866 Clouds 32 1009 53 10000 2.68 5 20:45 15.10.2021
5867 Clouds 32 1012 58 9656 1.54 350 19:23 15.10.2021
5868 Clouds 30 1013 74 9656 2.06 50 18:40 15.10.2021
5869 Clouds 28 1011 94 9656 0 0 16:28 15.10.2021
5870 Clouds 26 1011 100 8047 0 0 15:22 15.10.2021
5871 Clouds 26 1008 77 10000 2.7 104 12:31 15.10.2021
5872 Clouds 26 1008 76 10000 3.39 90 11:26 15.10.2021
5873 Clouds 27 1008 76 10000 3.39 90 10:42 15.10.2021
5874 Clouds 28 1009 72 10000 3.77 91 08:58 15.10.2021
5875 Clouds 29 1011 84 10000 1.03 100 05:31 15.10.2021
5876 Clear 32 1007 70 9656 4.12 110 00:44 15.10.2021
5877 Clouds 32 1005 61 10000 3.13 85 23:49 14.10.2021
5878 Clouds 33 1005 61 10000 3.58 88 22:50 14.10.2021
5879 Clouds 34 1008 59 9656 0 0 21:43 14.10.2021
5880 Clouds 33 1010 62 9656 3.6 190 20:36 14.10.2021
5881 Clouds 33 1010 62 9656 3.6 190 20:18 14.10.2021
5882 Clouds 32 1011 66 9656 2.06 170 19:26 14.10.2021
5883 Clouds 29 1012 84 8047 2.06 230 17:26 14.10.2021
5884 Clouds 29 1010 73 10000 1.34 226 16:48 14.10.2021
5885 Mist 26 1010 94 4828 0 0 15:33 14.10.2021
5886 Mist 25 1009 100 4023 0 0 14:41 14.10.2021
5887 Mist 25 1009 100 6437 0 0 13:35 14.10.2021
5888 Clouds 27 1007 77 10000 2.6 185 11:43 14.10.2021
5889 Clouds 27 1007 76 10000 0.45 237 09:55 14.10.2021
5890 Clouds 27 1008 76 10000 1.58 142 06:47 14.10.2021
5891 Clouds 31 1006 65 10000 3.13 107 00:57 14.10.2021
5892 Clouds 31 1006 66 10000 3.58 97 00:22 14.10.2021
5893 Clouds 34 1009 55 9656 4.12 190 21:45 13.10.2021
5894 Clouds 34 1009 55 9656 4.12 190 21:27 13.10.2021
5895 Clouds 32 1009 60 10000 2.24 205 19:48 13.10.2021
5896 Haze 30 1012 79 8047 2.06 210 18:49 13.10.2021
5897 Haze 30 1012 79 8047 2.06 210 18:49 13.10.2021
5898 Clouds 30 1010 68 10000 2.68 226 17:49 13.10.2021
5899 Haze 26 1011 94 4828 0 0 15:24 13.10.2021
5900 Mist 26 1011 100 9656 0 0 14:44 13.10.2021
5901 Clear 27 1008 77 10000 2.79 207 12:55 13.10.2021
5902 Clear 27 1008 76 10000 0.45 278 11:55 13.10.2021
5903 Clear 28 1008 76 10000 0.45 278 10:39 13.10.2021
5904 Clear 29 1009 73 10000 1.34 148 07:58 13.10.2021
5905 Clouds 29 1011 84 9656 1.03 140 06:33 13.10.2021
5906 Clear 30 1008 84 10000 2.06 130 02:24 13.10.2021
5907 Clear 33 1006 60 10000 3.13 116 23:55 12.10.2021
5908 Clouds 33 1008 66 10000 4.12 130 23:29 12.10.2021
5909 Clouds 34 1009 62 10000 1.03 130 22:43 12.10.2021
5910 Clouds 34 1010 62 10000 4.63 220 21:19 12.10.2021
5911 Clouds 32 1011 70 10000 1.03 140 20:33 12.10.2021
5912 Clear 32 1009 60 10000 3.58 116 19:52 12.10.2021
5913 Clear 32 1013 66 9656 0 0 18:27 12.10.2021
5914 Clear 30 1013 74 9656 0 0 17:38 12.10.2021
5915 Clouds 28 1012 83 9656 0 0 16:38 12.10.2021
5916 Clouds 27 1012 89 9656 0 0 15:44 12.10.2021
5917 Mist 25 1011 100 8047 0 0 14:30 12.10.2021
5918 Mist 26 1011 100 8047 0 0 13:42 12.10.2021
5919 Clear 26 1009 77 10000 0.45 275 11:36 12.10.2021
5920 Clear 27 1009 75 10000 0.8 112 09:41 12.10.2021
5921 Clouds 27 1009 76 10000 0.45 276 08:42 12.10.2021
5922 Clear 27 1009 75 10000 1.61 90 06:53 12.10.2021
5923 Clouds 28 1010 94 10000 0 0 05:29 12.10.2021
5924 Clear 28 1009 94 10000 1.54 130 04:31 12.10.2021
5925 Clouds 33 1006 62 10000 2.06 170 00:18 12.10.2021
5926 Clouds 33 1006 62 10000 2.06 170 00:18 12.10.2021
5927 Clear 34 1006 59 10000 3.09 130 23:39 11.10.2021
5928 Clear 33 1004 57 10000 4.02 115 22:56 11.10.2021
5929 Clear 33 1005 57 10000 2.68 96 21:43 11.10.2021
5930 Haze 33 1009 62 9656 4.12 200 20:32 11.10.2021
5931 Haze 31 1010 70 9656 2.57 210 19:38 11.10.2021
5932 Haze 30 1011 74 9656 4.12 190 18:24 11.10.2021
5933 Clouds 28 1009 71 10000 2.24 183 16:48 11.10.2021
5934 Mist 27 1010 89 4828 2.57 190 16:28 11.10.2021
5935 Clear 26 1008 75 10000 1.79 187 15:45 11.10.2021
5936 Clouds 25 1008 77 10000 3.42 199 14:54 11.10.2021
5937 Haze 25 1009 100 8047 0 0 14:22 11.10.2021
5938 Haze 25 1009 100 8047 0 0 13:36 11.10.2021
5939 Clear 26 1007 77 10000 0.89 241 11:25 11.10.2021
5940 Clear 26 1007 77 10000 0.45 181 09:47 11.10.2021
5941 Clear 26 1008 76 10000 0.45 181 08:41 11.10.2021
5942 Clear 30 1008 74 10000 3.09 100 01:47 11.10.2021
5943 Clear 30 1008 74 10000 3.09 100 01:20 11.10.2021
5944 Clear 31 1006 63 10000 4.02 100 00:42 11.10.2021
5945 Clouds 33 1008 58 10000 2.57 170 23:35 10.10.2021
5946 Clear 33 1007 52 10000 3.13 140 21:51 10.10.2021
5947 Clouds 32 1010 62 10000 3.09 160 21:26 10.10.2021
5948 Clouds 32 1012 58 9656 0 0 20:41 10.10.2021
5949 Clouds 32 1012 58 9656 0 0 20:20 10.10.2021
5950 Clouds 31 1010 56 10000 2.68 153 19:49 10.10.2021
5951 Clouds 30 1013 66 10000 5.14 190 19:31 10.10.2021
5952 Clear 29 1013 74 10000 4.12 220 18:24 10.10.2021
5953 Mist 23 1013 100 1609 1.03 240 15:54 10.10.2021
5954 Mist 23 1013 100 1609 1.03 240 15:36 10.10.2021
5955 Fog 22 1012 100 10000 0 0 13:42 10.10.2021
5956 Clouds 22 1010 77 10000 0.89 150 12:44 10.10.2021
5957 Clouds 23 1010 77 10000 0.89 150 12:22 10.10.2021
5958 Clouds 23 1011 77 10000 2.48 208 10:31 10.10.2021
5959 Clear 23 1011 77 10000 2.2 216 09:19 10.10.2021
5960 Clear 25 1011 77 10000 1.9 224 08:51 10.10.2021
5961 Clouds 26 1013 69 10000 0.89 150 04:57 10.10.2021
5962 Clouds 28 1013 78 10000 1.03 90 02:20 10.10.2021
5963 Clouds 30 1011 52 10000 2.24 55 00:52 10.10.2021
5964 Clouds 30 1011 50 10000 2.68 84 23:45 09.10.2021
5965 Clouds 30 1014 70 10000 1.03 180 22:20 09.10.2021
5966 Clouds 31 1015 70 10000 0 0 21:30 09.10.2021
5967 Clouds 29 1016 79 10000 3.09 210 20:42 09.10.2021
5968 Clouds 29 1016 70 10000 0 0 19:41 09.10.2021
5969 Clouds 29 1014 54 10000 0.89 310 18:48 09.10.2021
5970 Clouds 25 1017 94 10000 0 0 18:26 09.10.2021
5971 Clouds 25 1016 88 10000 0 0 16:21 09.10.2021
5972 Clouds 27 1015 83 10000 3.09 340 14:37 09.10.2021
5973 Clouds 26 1014 89 10000 4.12 40 13:39 09.10.2021
5974 Clouds 26 1012 65 10000 0.89 315 12:28 09.10.2021
5975 Clouds 25 1012 63 10000 0.45 296 10:45 09.10.2021
5976 Clouds 25 1013 61 10000 1.34 324 10:19 09.10.2021
5977 Clouds 24 1015 84 10000 2.3 281 09:23 09.10.2021
5978 Clouds 24 1015 84 10000 2.51 289 08:20 09.10.2021
5979 Clouds 24 1016 82 10000 2.76 279 06:46 09.10.2021
5980 Clouds 25 1016 82 10000 3.86 323 04:55 09.10.2021
5981 Clouds 28 1014 69 10000 6.17 40 02:46 09.10.2021
5982 Clouds 29 1014 65 10000 7.2 360 00:30 09.10.2021
5983 Clouds 29 1014 65 10000 6.69 20 23:33 08.10.2021
5984 Clouds 24 1014 81 10000 2.69 282 22:46 08.10.2021
5985 Clouds 30 1015 58 10000 7.2 30 21:44 08.10.2021
5986 Clouds 30 1016 54 10000 6.69 60 20:27 08.10.2021
5987 Clouds 29 1017 58 10000 4.63 20 18:23 08.10.2021
5988 Clouds 27 1015 52 10000 0.89 346 16:56 08.10.2021
5989 Mist 25 1016 78 10000 1.54 340 16:25 08.10.2021
5990 Clouds 25 1014 56 10000 1.34 329 14:57 08.10.2021
5991 Clouds 25 1015 73 10000 2.06 320 13:46 08.10.2021
5992 Clouds 24 1014 78 10000 5.09 329 11:56 08.10.2021
5993 Clouds 26 1014 55 10000 0.89 310 10:43 08.10.2021
5994 Clouds 26 1014 56 10000 1.34 326 09:47 08.10.2021
5995 Clouds 28 1015 69 10000 7.72 20 04:20 08.10.2021
5996 Clouds 30 1014 58 10000 6.17 30 23:25 07.10.2021
5997 Clouds 31 1015 55 10000 5.66 360 22:35 07.10.2021
5998 Clouds 31 1013 38 10000 5.36 27 21:29 07.10.2021
5999 Clouds 30 1017 58 10000 5.66 30 20:39 07.10.2021
6000 Clouds 30 1018 58 10000 6.17 40 19:32 07.10.2021
6001 Clouds 30 1017 44 10000 4.92 19 18:41 07.10.2021
6002 Clouds 28 1018 69 10000 4.12 360 17:32 07.10.2021
6003 Clouds 25 1017 78 10000 0 0 16:25 07.10.2021
6004 Clouds 23 1014 66 10000 0.45 300 14:55 07.10.2021
6005 Clouds 22 1015 94 10000 1.54 320 13:43 07.10.2021
6006 Clouds 23 1014 67 10000 0.45 298 12:53 07.10.2021
6007 Clouds 23 1014 64 10000 0.45 277 10:58 07.10.2021
6008 Clouds 23 1014 64 10000 0.89 277 10:22 07.10.2021
6009 Clouds 25 1014 63 10000 0.89 277 09:42 07.10.2021
6010 Clouds 26 1015 61 10000 0.89 312 08:53 07.10.2021
6011 Clouds 27 1015 52 10000 1.79 355 07:58 07.10.2021
6012 Clouds 28 1015 52 10000 3.13 355 07:38 07.10.2021
6013 Clouds 27 1017 74 10000 5.14 30 06:36 07.10.2021
6014 Clouds 27 1013 68 10000 8.02 10 00:48 07.10.2021
6015 Clouds 30 1014 62 10000 7.72 50 23:18 06.10.2021
6016 Clouds 31 1014 51 10000 7.72 60 22:24 06.10.2021
6017 Clouds 31 1015 55 10000 6.17 30 21:24 06.10.2021
6018 Clouds 31 1016 55 10000 5.14 30 20:28 06.10.2021
6019 Clouds 28 1017 61 10000 2.06 360 18:43 06.10.2021
6020 Clouds 26 1017 78 10000 0 0 17:19 06.10.2021
6021 Clouds 24 1016 83 10000 0 0 15:34 06.10.2021
6022 Clouds 24 1016 88 10000 0 0 14:41 06.10.2021
6023 Clouds 24 1015 83 10000 0 0 13:24 06.10.2021
6024 Clouds 25 1013 65 10000 4.3 321 12:46 06.10.2021
6025 Clouds 26 1013 61 10000 0.89 294 12:24 06.10.2021
6026 Clouds 25 1014 80 10000 5.01 326 10:37 06.10.2021
6027 Clouds 25 1014 81 10000 5.21 327 09:39 06.10.2021
6028 Clouds 26 1014 66 10000 5.36 26 08:57 06.10.2021
6029 Clouds 26 1014 68 10000 4.02 32 07:54 06.10.2021
6030 Clouds 26 1012 83 10000 6.17 360 05:37 06.10.2021
6031 Clouds 27 1013 83 10000 7.72 20 01:37 06.10.2021
6032 Clouds 29 1012 74 10000 7.72 20 00:20 06.10.2021
6033 Clouds 30 1011 58 10000 6.26 11 23:50 05.10.2021
6034 Clouds 30 1012 70 10000 6.69 30 23:29 05.10.2021
6035 Clouds 30 1013 66 10000 5.14 40 22:30 05.10.2021
6036 Clouds 31 1011 52 10000 6.26 13 21:51 05.10.2021
6037 Clouds 31 1012 51 10000 6.26 5 20:51 05.10.2021
6038 Clouds 30 1014 66 10000 5.14 350 20:25 05.10.2021
6039 Clouds 31 1015 66 10000 5.14 60 19:50 05.10.2021
6040 Clouds 31 1015 66 10000 5.14 60 19:21 05.10.2021
6041 Clouds 27 1015 83 10000 0 0 17:23 05.10.2021
6042 Clouds 23 1014 100 9656 0 0 15:22 05.10.2021
6043 Clear 23 1013 100 10000 0 0 13:43 05.10.2021
6044 Clouds 24 1011 76 10000 4.67 341 12:55 05.10.2021
6045 Clouds 24 1011 75 10000 0.89 295 12:19 05.10.2021
6046 Clouds 24 1011 73 10000 1.34 284 11:21 05.10.2021
6047 Clouds 25 1012 70 8895 2.24 317 09:50 05.10.2021
6048 Clouds 26 1015 89 10000 2.06 360 05:36 05.10.2021
6049 Clouds 31 1010 51 10000 4.47 44 23:54 04.10.2021
6050 Clouds 30 1013 70 10000 7.2 60 22:39 04.10.2021
6051 Clouds 31 1012 48 10000 5.81 15 20:43 04.10.2021
6052 Clouds 27 1015 78 10000 0 0 18:34 04.10.2021
6053 Clouds 23 1015 100 10000 0 0 16:39 04.10.2021
6054 Clouds 22 1014 100 10000 0 0 15:32 04.10.2021
6055 Clouds 23 1012 77 10000 1.34 232 14:43 04.10.2021
6056 Clouds 23 1011 76 10000 0.89 221 13:57 04.10.2021
6057 Clear 23 1013 94 10000 0 0 13:27 04.10.2021
6058 Clouds 24 1011 74 10000 3.84 328 12:29 04.10.2021
6059 Clouds 24 1011 73 10000 1.34 286 11:31 04.10.2021
6060 Clouds 25 1011 71 10000 0.45 271 10:34 04.10.2021
6061 Clouds 25 1012 66 10000 2.24 330 08:45 04.10.2021
6062 Clouds 26 1012 68 10000 0.89 302 07:43 04.10.2021
6063 Clouds 29 1010 62 10000 3.58 33 01:56 04.10.2021
6064 Clouds 32 1012 62 10000 4.63 70 22:44 03.10.2021
6065 Clouds 31 1013 66 10000 2.06 100 21:42 03.10.2021
6066 Clouds 31 1013 66 10000 2.06 100 21:23 03.10.2021
6067 Clouds 30 1014 66 10000 4.12 90 20:25 03.10.2021
6068 Clouds 30 1015 70 10000 2.06 330 19:31 03.10.2021
6069 Clouds 29 1015 79 10000 2.06 70 18:28 03.10.2021
6070 Mist 27 1015 89 10000 1.03 340 17:29 03.10.2021
6071 Clouds 25 1012 76 10000 0.45 324 14:49 03.10.2021
6072 Mist 24 1013 94 9656 0 0 14:27 03.10.2021
6073 Clouds 24 1013 94 9656 0 0 13:34 03.10.2021
6074 Clouds 25 1011 76 10000 0.89 355 12:41 03.10.2021
6075 Clouds 25 1011 73 10000 1.34 312 10:52 03.10.2021
6076 Clouds 25 1012 69 10000 0.89 263 08:53 03.10.2021
6077 Clouds 28 1012 83 10000 3.6 70 03:29 03.10.2021
6078 Clouds 32 1009 48 10000 1.79 42 22:43 02.10.2021
6079 Clouds 32 1013 58 10000 3.09 80 21:30 02.10.2021
6080 Clouds 32 1012 49 10000 1.79 51 19:51 02.10.2021
6081 Clouds 31 1013 48 10000 0.89 34 18:55 02.10.2021
6082 Clouds 30 1013 57 10000 1.34 355 17:57 02.10.2021
6083 Clouds 29 1015 74 10000 1.03 320 17:26 02.10.2021
6084 Clouds 24 1014 88 9656 1.03 300 15:38 02.10.2021
6085 Clouds 28 1010 59 10000 1.79 182 16:50 30.09.2021
6086 Clouds 25 1011 94 10000 0 0 15:37 30.09.2021
6087 Clouds 24 1010 100 10000 0 0 13:45 30.09.2021
6088 Clouds 26 1007 65 10000 0.89 188 11:37 30.09.2021
6089 Clouds 26 1008 66 10000 0.45 202 10:43 30.09.2021
6090 Clouds 27 1008 62 10000 3.12 177 09:33 30.09.2021
6091 Clouds 27 1008 69 10000 0.45 213 08:29 30.09.2021
6092 Clouds 28 1008 65 10000 1.13 113 07:23 30.09.2021
6093 Clouds 28 1008 65 10000 1.79 107 04:52 30.09.2021
6094 Clouds 31 1006 74 10000 1.54 170 01:20 30.09.2021
6095 Clouds 32 1004 53 10000 3.58 107 23:55 29.09.2021
6096 Clouds 33 1007 55 10000 0 0 22:28 29.09.2021
6097 Clouds 32 1008 66 10000 3.09 230 21:24 29.09.2021
6098 Clouds 32 1008 50 10000 1.79 171 20:24 29.09.2021
6099 Clouds 31 1009 52 10000 1.79 194 19:43 29.09.2021
6100 Clouds 31 1010 55 10000 2.24 140 18:28 29.09.2021
6101 Clouds 30 1010 57 10000 2.24 181 17:34 29.09.2021
6102 Clouds 28 1010 61 10000 2.24 208 16:46 29.09.2021
6103 Clouds 26 1010 70 10000 1.34 254 15:49 29.09.2021
6104 Clouds 24 1009 74 10000 1.34 241 14:39 29.09.2021
6105 Clouds 24 1010 100 9656 2.57 240 13:41 29.09.2021
6106 Clouds 25 1008 75 10000 0.89 180 12:47 29.09.2021
6107 Clouds 26 1008 73 10000 0.45 208 11:39 29.09.2021
6108 Clouds 26 1008 71 10000 0.89 175 10:39 29.09.2021
6109 Clouds 26 1009 71 10000 0.89 208 09:48 29.09.2021
6110 Clouds 27 1010 66 10000 0.45 150 08:45 29.09.2021
6111 Clouds 28 1010 63 10000 0.89 92 06:55 29.09.2021
6112 Clouds 28 1007 61 10000 1.79 103 02:40 29.09.2021
6113 Clouds 32 1007 47 10000 4.02 115 23:23 28.09.2021
6114 Clouds 32 1008 49 10000 4.47 107 22:22 28.09.2021
6115 Clouds 32 1008 48 10000 3.13 109 21:33 28.09.2021
6116 Clouds 32 1010 52 10000 3.13 95 20:27 28.09.2021
6117 Clouds 32 1011 47 10000 2.24 113 19:42 28.09.2021
6118 Clouds 31 1012 50 10000 1.34 115 18:44 28.09.2021
6119 Clouds 30 1012 57 10000 0.45 206 17:53 28.09.2021
6120 Clouds 24 1013 100 9656 0 0 15:21 28.09.2021
6121 Mist 24 1013 100 9656 0 0 13:30 28.09.2021
6122 Clouds 25 1011 73 10000 1.52 256 12:28 28.09.2021
6123 Clouds 25 1011 73 10000 1.52 256 11:57 28.09.2021
6124 Clouds 25 1011 73 10000 0.45 284 11:39 28.09.2021
6125 Clouds 25 1011 73 10000 2.11 256 10:47 28.09.2021
6126 Clouds 25 1012 71 10000 0.45 279 09:45 28.09.2021
6127 Clouds 26 1013 69 10000 1.57 249 08:44 28.09.2021
6128 Clouds 26 1013 69 10000 0.45 279 08:25 28.09.2021
6129 Clouds 26 1013 69 10000 0.3 216 06:47 28.09.2021
6130 Clouds 27 1013 64 10000 1.57 94 04:48 28.09.2021
6131 Clear 30 1011 56 10000 2.68 87 01:22 28.09.2021
6132 Clear 31 1011 52 10000 3.58 107 23:54 27.09.2021
6133 Clear 31 1011 50 10000 3.58 103 23:30 27.09.2021
6134 Clear 31 1011 48 10000 3.58 100 22:45 27.09.2021
6135 Clear 31 1012 48 10000 4.02 115 21:41 27.09.2021
6136 Clouds 31 1015 66 10000 1.54 240 20:38 27.09.2021
6137 Clouds 31 1013 50 10000 0.45 184 19:43 27.09.2021
6138 Clouds 31 1013 48 10000 1.34 17 19:23 27.09.2021
6139 Clouds 30 1014 53 10000 0.89 257 18:27 27.09.2021
6140 Clouds 28 1014 60 10000 1.79 253 17:22 27.09.2021
6141 Clouds 27 1014 64 10000 1.34 218 16:41 27.09.2021
6142 Clouds 24 1013 75 10000 0.89 209 15:42 27.09.2021
6143 Clouds 22 1013 77 10000 0.89 209 14:32 27.09.2021
6144 Clouds 23 1013 73 10000 2.09 249 12:59 27.09.2021
6145 Clouds 23 1013 73 10000 2.11 249 10:52 27.09.2021
6146 Clouds 24 1014 69 10000 2 261 09:50 27.09.2021
6147 Clouds 25 1015 67 10000 0.45 250 08:38 27.09.2021
6148 Clouds 25 1015 61 10000 2.12 352 05:21 27.09.2021
6149 Clouds 29 1013 50 10000 2.24 31 01:48 27.09.2021
6150 Clouds 31 1013 43 10000 3.13 32 22:28 26.09.2021
6151 Clouds 31 1014 43 10000 2.68 49 21:45 26.09.2021
6152 Clouds 31 1015 43 10000 3.13 40 20:52 26.09.2021
6153 Clouds 31 1015 40 10000 4.02 5 20:20 26.09.2021
6154 Clouds 31 1015 40 10000 4.02 5 20:20 26.09.2021
6155 Clouds 31 1016 41 10000 4.02 41 19:37 26.09.2021
6156 Clouds 31 1016 42 10000 3.58 12 18:45 26.09.2021
6157 Clouds 30 1015 44 10000 3.13 35 17:50 26.09.2021
6158 Clouds 30 1015 49 10000 1.34 345 17:21 26.09.2021
6159 Clouds 27 1015 55 10000 0.89 284 16:28 26.09.2021
6160 Clouds 26 1015 58 10000 1.34 259 15:56 26.09.2021
6161 Clouds 23 1015 68 10000 0.89 267 14:26 26.09.2021
6162 Clear 22 1016 100 10000 0 0 13:45 26.09.2021
6163 Clouds 23 1014 68 10000 0.89 269 12:33 26.09.2021
6164 Clouds 23 1014 68 10000 1.34 276 11:59 26.09.2021
6165 Clouds 23 1014 69 10000 1.34 287 11:37 26.09.2021
6166 Clouds 24 1014 68 10000 0.45 229 10:21 26.09.2021
6167 Clouds 25 1014 61 10000 0.89 281 08:55 26.09.2021
6168 Clouds 28 1013 53 10000 3.13 5 03:24 26.09.2021
6169 Clouds 30 1012 51 10000 4.02 32 00:20 26.09.2021
6170 Clouds 31 1013 48 10000 3.13 63 23:22 25.09.2021
6171 Clouds 31 1013 49 10000 4.02 11 22:36 25.09.2021
6172 Clouds 31 1014 50 10000 4.02 24 21:49 25.09.2021
6173 Clouds 31 1014 49 10000 3.58 28 21:19 25.09.2021
6174 Clouds 27 1016 63 10000 2.24 222 19:54 25.09.2021
6175 Clouds 27 1016 56 10000 1.79 157 18:39 25.09.2021
6176 Clouds 28 1015 55 10000 1.79 355 17:46 25.09.2021
6177 Clouds 23 1013 67 10000 0.89 282 14:49 25.09.2021
6178 Clouds 22 1014 94 9656 0 0 13:56 25.09.2021
6179 Clouds 23 1013 69 10000 0.45 218 12:48 25.09.2021
6180 Clouds 23 1012 72 10000 0.89 218 11:38 25.09.2021
6181 Clouds 24 1013 69 10000 0.45 192 10:24 25.09.2021
6182 Clouds 24 1014 71 10000 0.89 187 09:25 25.09.2021
6183 Clouds 25 1014 66 10000 0.45 334 07:50 25.09.2021
6184 Clouds 30 1012 47 10000 4.02 348 00:59 25.09.2021
6185 Clouds 30 1012 50 10000 4.92 30 23:33 24.09.2021
6186 Clouds 31 1013 38 10000 5.36 346 21:41 24.09.2021
6187 Clouds 28 1014 69 10000 6.61 13 20:33 24.09.2021
6188 Clouds 31 1014 38 10000 5.81 5 19:44 24.09.2021
6189 Clouds 31 1014 48 10000 4.02 360 18:30 24.09.2021
6190 Clouds 30 1015 53 10000 3.13 336 17:53 24.09.2021
6191 Clouds 29 1014 54 10000 3.58 327 17:35 24.09.2021
6192 Clouds 27 1015 62 10000 1.34 318 16:35 24.09.2021
6193 Clouds 24 1015 88 10000 0 0 13:41 24.09.2021
6194 Clouds 25 1012 69 10000 0.89 276 12:44 24.09.2021
6195 Clouds 25 1012 69 10000 0.89 276 12:26 24.09.2021
6196 Clouds 25 1013 69 10000 0.89 276 11:28 24.09.2021
6197 Clouds 25 1013 69 10000 0.89 297 09:59 24.09.2021
6198 Clouds 25 1014 69 10000 1.34 273 08:24 24.09.2021
6199 Clouds 25 1014 69 10000 0.89 274 07:31 24.09.2021
6200 Clouds 27 1015 69 10000 4.63 360 06:24 24.09.2021
6201 Clouds 28 1013 55 10000 4.92 360 04:52 24.09.2021
6202 Haze 30 1014 62 9656 7.72 350 22:44 23.09.2021
6203 Clouds 31 1012 50 10000 9.39 344 21:59 23.09.2021
6204 Haze 30 1015 62 9656 7.2 20 21:37 23.09.2021
6205 Haze 29 1016 65 9656 8.23 20 20:32 23.09.2021
6206 Clouds 31 1015 53 10000 6.71 355 18:55 23.09.2021
6207 Clouds 26 1015 64 10000 0.45 348 16:49 23.09.2021
6208 Haze 23 1016 88 9656 3.09 320 15:20 23.09.2021
6209 Clouds 23 1014 68 10000 2.68 285 14:58 23.09.2021
6210 Haze 24 1016 94 9656 0 0 13:36 23.09.2021
6211 Haze 24 1016 94 9656 0 0 13:18 23.09.2021
6212 Clouds 24 1015 94 9656 0 0 12:45 23.09.2021
6213 Clouds 24 1015 94 9656 0 0 12:21 23.09.2021
6214 Clouds 25 1014 69 10000 5.72 338 10:41 23.09.2021
6215 Clouds 25 1014 69 10000 5.62 342 09:57 23.09.2021
6216 Clouds 25 1017 83 10000 0 0 09:38 23.09.2021
6217 Clouds 27 1017 74 10000 5.14 80 06:24 23.09.2021
6218 Clouds 29 1015 74 10000 6.17 60 00:21 23.09.2021
6219 Clouds 31 1014 56 10000 5.36 38 22:52 22.09.2021
6220 Clouds 31 1016 66 10000 7.72 60 22:20 22.09.2021
6221 Clouds 32 1017 66 10000 6.17 60 21:42 22.09.2021
6222 Clouds 32 1015 57 10000 4.02 32 20:57 22.09.2021
6223 Clouds 31 1016 59 10000 4.47 355 19:48 22.09.2021
6224 Clouds 30 1018 74 10000 2.57 340 19:26 22.09.2021
6225 Clouds 29 1018 79 10000 3.09 350 18:34 22.09.2021
6226 Clouds 28 1016 70 10000 1.79 337 17:33 22.09.2021
6227 Clouds 26 1016 70 10000 1.34 281 15:51 22.09.2021
6228 Clouds 25 1017 94 10000 0 0 14:28 22.09.2021
6229 Clouds 25 1016 100 9656 1.54 320 13:19 22.09.2021
6230 Clouds 25 1016 100 9656 1.54 320 13:19 22.09.2021
6231 Clouds 26 1017 100 9656 0 0 11:20 22.09.2021
6232 Clouds 26 1018 100 10000 1.03 330 09:30 22.09.2021
6233 Clouds 25 1016 88 10000 2.49 291 08:45 22.09.2021
6234 Clouds 28 1017 89 10000 2.06 110 07:33 22.09.2021
6235 Clouds 28 1017 89 10000 1.54 120 06:31 22.09.2021
6236 Clouds 26 1016 85 10000 1.38 35 05:48 22.09.2021
6237 Clouds 29 1015 84 10000 1.54 120 04:20 22.09.2021
6238 Clouds 28 1014 81 10000 2.95 48 02:56 22.09.2021
6239 Clouds 32 1013 70 10000 2.57 110 23:42 21.09.2021
6240 Clouds 32 1014 70 10000 2.57 100 22:26 21.09.2021
6241 Clouds 33 1013 57 10000 2.68 77 20:43 21.09.2021
6242 Clouds 29 1014 73 10000 1.85 49 19:36 21.09.2021
6243 Clouds 29 1015 74 10000 1.11 36 19:18 21.09.2021
6244 Clouds 30 1013 68 10000 2.24 275 16:48 21.09.2021
6245 Clouds 28 1013 73 10000 1.34 271 15:56 21.09.2021
6246 Clouds 26 1013 77 10000 1.4 270 14:59 21.09.2021
6247 Clouds 25 1014 100 9656 0 0 14:20 21.09.2021
6248 Clouds 25 1013 100 9656 0 0 13:39 21.09.2021
6249 Clouds 26 1011 76 10000 1 275 12:44 21.09.2021
6250 Clouds 25 1012 89 10000 1.21 248 10:42 21.09.2021
6251 Clouds 26 1012 86 10000 1.67 246 09:22 21.09.2021
6252 Clear 26 1013 85 10000 0.96 227 07:38 21.09.2021
6253 Clouds 28 1013 83 9656 0 0 05:18 21.09.2021
6254 Clouds 32 1010 66 10000 2.57 140 23:19 20.09.2021
6255 Clouds 32 1012 66 10000 1.54 180 21:43 20.09.2021
6256 Clouds 32 1012 66 10000 1.54 180 21:25 20.09.2021
6257 Clear 31 1013 58 10000 0.45 192 19:48 20.09.2021
6258 Clear 30 1013 63 10000 1.34 188 17:55 20.09.2021
6259 Clear 30 1013 63 10000 1.34 188 17:55 20.09.2021
6260 Clear 28 1014 89 9656 0 0 17:19 20.09.2021
6261 Clear 27 1014 89 9656 0 0 16:23 20.09.2021
6262 Clouds 24 1014 100 9656 0 0 15:36 20.09.2021
6263 Clouds 24 1013 100 9656 0 0 14:38 20.09.2021
6264 Clouds 25 1011 78 10000 1.31 250 12:44 20.09.2021
6265 Clouds 25 1011 78 10000 1.35 256 12:24 20.09.2021
6266 Clouds 25 1011 77 10000 1.43 252 10:56 20.09.2021
6267 Clouds 25 1011 77 10000 1.52 254 09:51 20.09.2021
6268 Clouds 25 1011 77 10000 1.52 254 09:32 20.09.2021
6269 Clouds 26 1012 76 10000 1.17 254 08:48 20.09.2021
6270 Clear 26 1014 94 10000 0 0 06:33 20.09.2021
6271 Clouds 31 1010 58 10000 1.79 96 22:58 19.09.2021
6272 Clouds 31 1011 57 10000 2.24 33 21:50 19.09.2021
6273 Haze 30 1014 70 9656 0 0 21:21 19.09.2021
6274 Haze 30 1015 70 9656 1.54 50 20:19 19.09.2021
6275 Clouds 30 1013 61 10000 0.45 360 18:54 19.09.2021
6276 Clouds 28 1013 67 10000 1.34 355 17:56 19.09.2021
6277 Clouds 27 1014 69 10000 0.89 300 16:51 19.09.2021
6278 Clouds 25 1013 77 10000 0.89 253 15:44 19.09.2021
6279 Clouds 24 1012 78 10000 0.45 261 14:49 19.09.2021
6280 Haze 24 1013 94 9656 2.06 310 13:58 19.09.2021
6281 Clouds 24 1011 77 10000 2.84 305 12:56 19.09.2021
6282 Clouds 24 1011 77 10000 2.74 317 12:18 19.09.2021
6283 Clouds 25 1012 77 10000 0.45 65 11:23 19.09.2021
6284 Rain 25 1012 77 10000 2.75 312 09:52 19.09.2021
6285 Rain 25 1012 77 10000 0.89 309 09:23 19.09.2021
6286 Rain 25 1013 76 10000 0.89 297 06:49 19.09.2021
6287 Clouds 28 1012 89 10000 3.09 30 01:36 19.09.2021
6288 Clouds 27 1012 100 10000 0 0 23:19 18.09.2021
6289 Clouds 31 1012 56 10000 4.02 27 21:56 18.09.2021
6290 Clouds 31 1013 56 10000 3.58 55 20:46 18.09.2021
6291 Clouds 31 1013 59 10000 4.02 45 19:58 18.09.2021
6292 Clouds 31 1015 66 9656 1.54 110 19:36 18.09.2021
6293 Clouds 31 1015 66 9656 1.54 110 19:18 18.09.2021
6294 Clouds 29 1015 79 8047 0 0 18:30 18.09.2021
6295 Clouds 25 1015 94 10000 1.54 190 16:35 18.09.2021
6296 Clouds 24 1014 94 9656 2.06 360 13:59 18.09.2021
6297 Clouds 24 1014 94 9656 2.06 360 13:31 18.09.2021
6298 Clouds 24 1012 77 10000 1.34 330 12:52 18.09.2021
6299 Clouds 24 1012 77 10000 2.62 301 11:59 18.09.2021
6300 Clouds 24 1012 77 10000 0.89 222 11:29 18.09.2021
6301 Clouds 24 1012 77 10000 1.34 267 10:30 18.09.2021
6302 Clouds 25 1014 73 10000 3.13 253 09:24 18.09.2021
6303 Clouds 26 1013 71 10000 2.24 232 08:25 18.09.2021
6304 Clouds 31 1009 57 10000 2.24 102 00:53 18.09.2021
6305 Clouds 31 1009 56 10000 3.13 105 23:56 17.09.2021
6306 Clouds 31 1009 58 10000 2.24 107 22:48 17.09.2021
6307 Clouds 31 1010 59 10000 2.68 85 22:23 17.09.2021
6308 Clouds 31 1013 70 10000 1.03 100 21:32 17.09.2021
6309 Clouds 31 1013 74 10000 0 0 19:34 17.09.2021
6310 Clouds 29 1014 79 10000 0 0 18:40 17.09.2021
6311 Clouds 26 1014 94 10000 0 0 16:35 17.09.2021
6312 Clouds 25 1012 75 10000 0.45 258 14:48 17.09.2021
6313 Clouds 26 1010 73 10000 0.45 238 11:48 17.09.2021
6314 Clouds 27 1010 74 10000 1.12 265 09:57 17.09.2021
6315 Clouds 27 1010 71 10000 0.42 326 07:46 17.09.2021
6316 Clouds 29 1011 84 10000 1.03 150 05:27 17.09.2021
6317 Clouds 32 1008 66 10000 3.6 120 00:31 17.09.2021
6318 Clouds 33 1010 66 10000 3.6 140 22:41 16.09.2021
6319 Clouds 33 1010 66 10000 3.6 140 22:23 16.09.2021
6320 Clouds 33 1011 66 10000 1.54 170 21:31 16.09.2021
6321 Clouds 33 1012 62 10000 1.54 170 20:29 16.09.2021
6322 Clouds 30 1012 74 10000 0 0 18:46 16.09.2021
6323 Clouds 30 1012 74 10000 0 0 18:18 16.09.2021
6324 Mist 25 1010 100 10000 0 0 15:33 16.09.2021
6325 Mist 25 1009 94 10000 0 0 14:43 16.09.2021
6326 Clear 25 1009 100 10000 0 0 13:23 16.09.2021
6327 Clouds 26 1007 75 10000 0.45 201 12:40 16.09.2021
6328 Clouds 27 1007 76 10000 0.45 262 11:46 16.09.2021
6329 Clouds 27 1007 76 10000 2.66 178 10:50 16.09.2021
6330 Clouds 27 1007 76 10000 2.06 189 10:21 16.09.2021
6331 Clouds 28 1008 73 10000 0.45 271 08:45 16.09.2021
6332 Clouds 28 1008 72 10000 1.82 180 07:47 16.09.2021
6333 Clouds 28 1009 71 10000 1.41 160 06:56 16.09.2021
6334 Clouds 28 1010 94 10000 0 0 06:32 16.09.2021
6335 Clouds 30 1005 65 10000 1.79 87 02:58 16.09.2021
6336 Clouds 33 1006 66 10000 1.03 140 00:46 16.09.2021
6337 Clouds 32 1005 58 10000 2.24 84 22:59 15.09.2021
6338 Clouds 33 1007 62 10000 1.54 170 22:20 15.09.2021
6339 Clouds 32 1008 66 10000 0 0 21:30 15.09.2021
6340 Clouds 31 1009 70 10000 1.03 190 20:26 15.09.2021
6341 Clouds 30 1010 79 10000 0 0 19:29 15.09.2021
6342 Clouds 29 1010 79 10000 3.09 190 18:25 15.09.2021
6343 Clouds 28 1010 83 10000 2.06 190 17:27 15.09.2021
6344 Clouds 24 1010 94 10000 0 0 16:27 15.09.2021
6345 Clouds 23 1007 77 10000 0.45 195 14:46 15.09.2021
6346 Clouds 22 1009 100 10000 0 0 14:24 15.09.2021
6347 Clear 22 1008 100 10000 0 0 13:40 15.09.2021
6348 Clear 22 1008 100 10000 0 0 13:21 15.09.2021
6349 Clouds 23 1006 77 10000 0.89 196 12:23 15.09.2021
6350 Clouds 23 1006 76 10000 1.34 188 11:49 15.09.2021
6351 Clouds 23 1007 73 10000 0.89 183 10:56 15.09.2021
6352 Clouds 24 1008 71 10000 1.34 232 09:44 15.09.2021
6353 Clouds 24 1008 71 10000 0.45 229 08:41 15.09.2021
6354 Clouds 29 1009 67 10000 0.45 58 05:55 15.09.2021
6355 Clouds 29 1008 76 10000 3.06 79 23:56 14.09.2021
6356 Clouds 29 1009 76 10000 3.55 89 21:58 14.09.2021
6357 Clouds 32 1008 57 10000 0.89 192 20:56 14.09.2021
6358 Clouds 32 1009 57 10000 1.34 261 19:54 14.09.2021
6359 Haze 29 1012 84 6437 2.06 210 18:24 14.09.2021
6360 Haze 28 1012 89 6437 1.54 220 17:28 14.09.2021
6361 Haze 25 1012 94 6437 0 0 15:58 14.09.2021
6362 Haze 24 1012 100 8047 0 0 14:32 14.09.2021
6363 Haze 24 1012 100 9656 0 0 13:20 14.09.2021
6364 Clouds 25 1010 77 10000 2.81 230 10:55 14.09.2021
6365 Clouds 26 1011 75 10000 2.71 227 09:51 14.09.2021
6366 Clouds 26 1011 74 10000 2.05 214 08:49 14.09.2021
6367 Clear 26 1014 94 10000 0 0 06:47 14.09.2021
6368 Clouds 30 1009 59 10000 0.89 121 00:53 14.09.2021
6369 Clouds 30 1010 58 10000 2.24 108 22:58 13.09.2021
6370 Clouds 30 1013 66 10000 0 0 22:24 13.09.2021
6371 Clouds 30 1011 58 10000 1.79 194 21:53 13.09.2021
6372 Clouds 30 1012 61 10000 2.24 268 20:51 13.09.2021
6373 Clouds 28 1015 78 10000 2.57 350 19:26 13.09.2021
6374 Clouds 28 1015 78 10000 3.6 230 18:43 13.09.2021
6375 Clouds 27 1013 64 10000 2.24 178 16:58 13.09.2021
6376 Clouds 23 1014 100 10000 0 0 15:39 13.09.2021
6377 Clouds 23 1014 100 9656 0 0 13:32 13.09.2021
6378 Clouds 23 1012 77 10000 1.79 212 10:58 13.09.2021
6379 Clouds 24 1013 76 10000 3.49 215 09:41 13.09.2021
6380 Clouds 25 1013 76 10000 0.89 183 07:27 13.09.2021
6381 Clouds 28 1012 78 10000 3.09 180 23:44 12.09.2021
6382 Clouds 28 1012 83 10000 0 0 22:26 12.09.2021
6383 Clouds 28 1012 83 10000 0 0 22:26 12.09.2021
6384 Clouds 28 1012 83 10000 0 0 21:37 12.09.2021
6385 Clouds 27 1013 83 10000 2.57 220 20:34 12.09.2021
6386 Clouds 27 1011 63 10000 2.24 178 19:54 12.09.2021
6387 Clouds 27 1013 83 10000 3.6 230 19:28 12.09.2021
6388 Clouds 26 1013 89 10000 0 0 18:29 12.09.2021
6389 Clouds 24 1012 100 10000 0 0 16:33 12.09.2021
6390 Clouds 25 1010 69 10000 0.89 250 14:59 12.09.2021
6391 Clouds 24 1011 94 10000 0 0 13:49 12.09.2021
6392 Clouds 26 1009 64 10000 0.89 292 11:31 12.09.2021
6393 Clouds 27 1010 59 7046 2.24 329 09:35 12.09.2021
6394 Clouds 27 1011 60 6933 2.24 9 08:38 12.09.2021
6395 Clouds 28 1011 83 10000 6.17 40 02:22 12.09.2021
6396 Clouds 29 1011 70 10000 6.69 360 23:38 11.09.2021
6397 Clouds 30 1010 53 10000 5.36 351 21:56 11.09.2021
6398 Clouds 29 1011 55 10000 4.92 5 20:59 11.09.2021
6399 Clouds 29 1014 74 10000 5.66 80 19:21 11.09.2021
6400 Clouds 28 1014 74 10000 3.09 330 17:38 11.09.2021
6401 Clouds 26 1012 65 10000 1.34 236 15:51 11.09.2021
6402 Clouds 26 1013 83 9656 3.09 70 13:49 11.09.2021
6403 Clouds 27 1011 63 10000 3.58 355 12:50 11.09.2021
6404 Clouds 26 1010 62 10000 4.47 15 11:19 11.09.2021
6405 Clouds 25 1012 67 10000 3.13 29 09:38 11.09.2021
6406 Clouds 26 1012 70 10000 4.47 355 07:45 11.09.2021
6407 Clouds 26 1014 82 10000 4.58 320 06:50 11.09.2021
6408 Clouds 30 1012 70 10000 9.26 90 23:37 10.09.2021
6409 Clouds 31 1012 62 10000 7.72 90 22:24 10.09.2021
6410 Clouds 32 1010 49 10000 7.15 13 21:54 10.09.2021
6411 Clouds 31 1011 57 10000 3.58 19 19:58 10.09.2021
6412 Haze 28 1015 78 9656 6.17 90 18:26 10.09.2021
6413 Clouds 27 1013 60 10000 2.24 155 16:48 10.09.2021
6414 Clouds 23 1013 100 10000 0 0 14:41 10.09.2021
6415 Clouds 26 1010 65 10000 1.79 270 11:56 10.09.2021
6416 Clouds 26 1012 66 10000 0.89 288 08:36 10.09.2021
6417 Clouds 26 1014 83 10000 3.72 337 07:49 10.09.2021
6418 Clouds 30 1009 56 10000 4.02 31 00:42 10.09.2021
6419 Clouds 30 1013 70 10000 4.12 80 22:31 09.09.2021
6420 Clouds 31 1013 70 10000 5.14 20 21:39 09.09.2021
6421 Clouds 31 1011 53 10000 3.13 346 20:46 09.09.2021
6422 Clouds 28 1012 59 10000 0.45 26 18:58 09.09.2021
6423 Clouds 27 1015 83 9656 2.06 100 18:26 09.09.2021
6424 Clouds 24 1014 94 9656 0 0 16:40 09.09.2021
6425 Clouds 23 1013 94 9656 0 0 15:27 09.09.2021
6426 Clouds 24 1010 68 10000 2.63 299 12:48 09.09.2021
6427 Clouds 24 1010 72 10000 2.93 296 11:33 09.09.2021
6428 Clouds 25 1011 64 10000 1.34 252 09:50 09.09.2021
6429 Clouds 25 1012 64 10000 1.34 265 08:32 09.09.2021
6430 Clouds 26 1014 83 10000 2.06 300 06:24 09.09.2021
6431 Clouds 29 1011 79 10000 4.12 60 02:18 09.09.2021
6432 Clouds 32 1011 55 10000 4.12 120 22:39 08.09.2021
6433 Clouds 32 1011 62 10000 3.6 70 21:22 08.09.2021
6434 Clouds 28 1012 70 10000 1.98 22 19:56 08.09.2021
6435 Clouds 31 1010 57 10000 0.89 80 18:50 08.09.2021
6436 Clouds 30 1012 70 10000 0 0 18:27 08.09.2021
6437 Clouds 30 1011 61 10000 1.34 189 17:54 08.09.2021
6438 Mist 27 1012 89 10000 0 0 16:28 08.09.2021
6439 Clouds 24 1012 94 10000 0 0 13:56 08.09.2021
6440 Clouds 25 1010 77 10000 0.45 236 12:42 08.09.2021
6441 Clouds 25 1010 77 10000 0.89 236 12:24 08.09.2021
6442 Clouds 25 1010 77 10000 2.12 246 11:28 08.09.2021
6443 Clouds 26 1010 75 10000 0.45 156 10:32 08.09.2021
6444 Clouds 26 1010 75 10000 1.84 245 09:58 08.09.2021
6445 Clouds 26 1011 74 10000 1.34 254 07:55 08.09.2021
6446 Clouds 26 1011 74 10000 1.34 254 07:55 08.09.2021
6447 Clouds 26 1011 74 10000 1.34 254 07:55 08.09.2021
6448 Clouds 26 1011 74 10000 1.34 254 07:55 08.09.2021
6449 Clouds 26 1013 94 10000 0 0 07:30 08.09.2021
6450 Clouds 29 1010 79 10000 2.06 20 00:33 08.09.2021
6451 Clouds 30 1011 70 10000 2.57 80 22:35 07.09.2021
6452 Clouds 30 1013 66 10000 2.57 110 21:38 07.09.2021
6453 Clouds 31 1011 60 10000 3.13 96 19:47 07.09.2021
6454 Clouds 29 1014 74 10000 0 0 18:39 07.09.2021
6455 Clouds 28 1013 83 10000 0 0 17:43 07.09.2021
6456 Clouds 26 1011 74 10000 0.89 233 15:57 07.09.2021
6457 Clouds 24 1012 94 9656 0 0 15:33 07.09.2021
6458 Clear 24 1012 100 10000 0 0 13:54 07.09.2021
6459 Clouds 25 1010 77 10000 1.74 279 12:28 07.09.2021
6460 Clouds 25 1010 76 10000 1.74 280 11:26 07.09.2021
6461 Clouds 25 1010 75 10000 0.45 285 10:37 07.09.2021
6462 Clouds 26 1012 73 10000 2.24 15 07:51 07.09.2021
6463 Clouds 26 1014 94 10000 0 0 06:43 07.09.2021
6464 Clouds 28 1011 83 10000 3.09 40 02:43 07.09.2021
6465 Clouds 28 1011 83 10000 3.09 40 02:25 07.09.2021
6466 Clouds 28 1011 78 10000 2.06 50 00:23 07.09.2021
6467 Clouds 29 1012 74 10000 2.57 60 23:31 06.09.2021
6468 Clouds 30 1010 64 10000 1.34 13 22:53 06.09.2021
6469 Clouds 29 1013 74 10000 3.6 80 22:25 06.09.2021
6470 Haze 30 1014 74 9656 0 0 20:37 06.09.2021
6471 Haze 29 1014 79 9656 2.06 50 19:22 06.09.2021
6472 Haze 26 1015 94 8047 1.54 120 18:36 06.09.2021
6473 Clouds 27 1013 73 10000 1.79 112 17:58 06.09.2021
6474 Haze 24 1014 94 8047 0 0 16:35 06.09.2021
6475 Haze 23 1013 100 8047 0 0 15:34 06.09.2021
6476 Haze 23 1014 100 9656 0 0 13:45 06.09.2021
6477 Clouds 24 1012 78 10000 0.89 302 12:45 06.09.2021
6478 Clouds 24 1012 78 10000 0.89 279 10:37 06.09.2021
6479 Clouds 25 1014 76 10000 2.24 223 07:48 06.09.2021
6480 Clouds 28 1012 89 9656 2.06 360 04:38 06.09.2021
6481 Clouds 31 1011 70 9656 5.14 70 23:24 05.09.2021
6482 Clouds 31 1012 74 9656 3.09 60 22:33 05.09.2021
6483 Clouds 28 1010 81 10000 5.2 17 21:56 05.09.2021
6484 Clouds 31 1012 70 10000 3.09 120 21:21 05.09.2021
6485 Clouds 31 1011 63 10000 2.68 335 19:47 05.09.2021
6486 Clouds 29 1012 68 10000 1.79 355 17:53 05.09.2021
6487 Clouds 28 1012 69 10000 1.79 355 16:53 05.09.2021
6488 Clouds 24 1012 100 8047 1.54 340 15:21 05.09.2021
6489 Clouds 25 1009 75 10000 0.45 304 12:45 05.09.2021
6490 Clouds 25 1010 75 10000 1.79 275 11:44 05.09.2021
6491 Clouds 25 1011 75 4763 2.68 286 10:42 05.09.2021
6492 Clouds 26 1011 74 4894 2.24 250 09:35 05.09.2021
6493 Clouds 26 1011 72 7208 0.45 360 08:34 05.09.2021
6494 Clouds 27 1014 89 10000 1.54 70 06:33 05.09.2021
6495 Clouds 31 1011 70 10000 2.57 100 00:41 05.09.2021
6496 Clouds 32 1009 59 10000 4.02 90 23:56 04.09.2021
6497 Clouds 31 1011 66 10000 2.57 70 23:25 04.09.2021
6498 Clouds 31 1012 70 10000 3.6 80 22:35 04.09.2021
6499 Clouds 31 1012 66 10000 3.09 110 21:18 04.09.2021
6500 Clouds 30 1014 74 10000 0 0 19:33 04.09.2021
6501 Mist 25 1013 83 10000 0 0 17:25 04.09.2021
6502 Mist 23 1012 100 10000 1.03 320 14:37 04.09.2021
6503 Clouds 25 1010 76 10000 1.65 294 11:37 04.09.2021
6504 Clouds 25 1010 75 10000 0.74 297 10:38 04.09.2021
6505 Clouds 26 1012 74 10000 1.34 271 07:43 04.09.2021
6506 Clouds 31 1008 61 10000 3.58 105 00:50 04.09.2021
6507 Clouds 31 1008 59 10000 2.68 53 23:49 03.09.2021
6508 Clouds 30 1010 74 10000 2.57 80 23:20 03.09.2021
6509 Clouds 32 1012 66 9656 4.12 70 21:43 03.09.2021
6510 Clouds 32 1010 56 10000 3.58 77 20:54 03.09.2021
6511 Clouds 32 1013 62 9656 0 0 20:24 03.09.2021
6512 Clouds 30 1013 74 9656 0 0 19:35 03.09.2021
6513 Clouds 28 1013 78 8047 0 0 18:21 03.09.2021
6514 Clouds 27 1011 70 10000 0.45 23 16:47 03.09.2021
6515 Clouds 24 1012 100 9656 0 0 15:39 03.09.2021
6516 Clouds 24 1012 94 9656 0 0 13:48 03.09.2021
6517 Clouds 26 1009 74 10000 0.89 280 11:21 03.09.2021
6518 Clouds 27 1010 74 10000 0.89 277 09:21 03.09.2021
6519 Clouds 27 1011 73 10000 0.89 277 08:18 03.09.2021
6520 Clouds 27 1011 72 10000 0.75 278 06:48 03.09.2021
6521 Clouds 32 1007 54 10000 2.68 107 23:56 02.09.2021
6522 Clouds 32 1009 55 10000 3.13 95 21:55 02.09.2021
6523 Haze 29 1012 74 9656 2.06 90 20:40 02.09.2021
6524 Haze 26 1011 89 9656 1.54 210 17:41 02.09.2021
6525 Clouds 25 1010 94 10000 0 0 16:30 02.09.2021
6526 Clouds 24 1009 94 10000 0 0 15:30 02.09.2021
6527 Haze 24 1009 94 9656 0 0 13:28 02.09.2021
6528 Clouds 25 1008 73 10000 1.79 219 11:43 02.09.2021
6529 Clouds 25 1008 72 10000 3.13 240 10:53 02.09.2021
6530 Clouds 27 1009 73 10000 0.89 220 08:57 02.09.2021
6531 Clouds 27 1009 73 10000 0.89 220 08:57 02.09.2021
6532 Clouds 28 1009 72 10000 0.89 103 07:22 02.09.2021
6533 Clouds 28 1009 72 10000 0.89 103 07:22 02.09.2021
6534 Clear 28 1009 83 9656 0 0 05:31 02.09.2021
6535 Clouds 30 1007 79 9656 0 0 02:36 02.09.2021
6536 Clouds 31 1006 74 10000 0 0 01:48 02.09.2021
6537 Clouds 32 1007 66 8047 0 0 23:41 01.09.2021
6538 Clouds 32 1006 61 10000 1.34 102 22:44 01.09.2021
6539 Clouds 32 1006 56 10000 1.34 181 21:46 01.09.2021
6540 Clouds 31 1007 62 10000 0.45 221 20:54 01.09.2021
6541 Clouds 29 1010 79 9656 2.06 190 19:24 01.09.2021
6542 Clouds 28 1008 68 10000 1.34 150 17:51 01.09.2021
6543 Clouds 27 1008 71 10000 1.79 197 16:55 01.09.2021
6544 Clouds 26 1009 94 10000 0 0 16:33 01.09.2021
6545 Clouds 24 1007 100 9656 0 0 13:57 01.09.2021
6546 Clouds 26 1005 74 10000 4.07 169 11:47 01.09.2021
6547 Clouds 26 1005 74 10000 4.07 169 11:47 01.09.2021
6548 Clouds 26 1007 72 10000 0.45 315 09:41 01.09.2021
6549 Clouds 26 1008 72 10000 0.45 336 07:58 01.09.2021
6550 Thunderstorm 25 1010 88 10000 1.03 330 06:42 01.09.2021
6551 Clouds 32 1006 66 10000 3.6 160 23:29 31.08.2021
6552 Clouds 33 1005 57 10000 0.89 161 21:45 31.08.2021
6553 Clouds 32 1007 56 10000 1.34 182 19:49 31.08.2021
6554 Clouds 31 1007 58 10000 1.34 210 18:56 31.08.2021
6555 Clouds 27 1009 83 10000 2.57 190 17:39 31.08.2021
6556 Clouds 27 1009 83 10000 2.57 190 17:21 31.08.2021
6557 Clouds 24 1009 100 10000 1.03 210 16:24 31.08.2021
6558 Clouds 24 1007 77 10000 1.34 215 14:28 31.08.2021
6559 Clouds 25 1006 75 10000 0.89 209 11:36 31.08.2021
6560 Clouds 25 1006 75 10000 1.88 193 11:18 31.08.2021
6561 Clouds 26 1007 75 10000 1.34 198 10:22 31.08.2021
6562 Clouds 27 1007 72 10000 2.35 234 09:40 31.08.2021
6563 Clouds 27 1009 74 10000 1.67 235 07:39 31.08.2021
6564 Clouds 28 1009 73 10000 0.45 139 05:55 31.08.2021
6565 Clear 32 1007 62 10000 3.6 100 23:35 30.08.2021
6566 Clouds 32 1007 54 10000 3.58 111 21:53 30.08.2021
6567 Clouds 32 1010 62 10000 1.54 140 21:35 30.08.2021
6568 Clouds 32 1010 66 10000 1.03 110 20:32 30.08.2021
6569 Clouds 32 1011 66 10000 2.57 140 19:30 30.08.2021
6570 Clear 30 1011 74 10000 0 0 18:44 30.08.2021
6571 Clouds 30 1009 61 10000 1.79 97 17:48 30.08.2021
6572 Mist 28 1011 78 10000 0 0 16:25 30.08.2021
6573 Mist 25 1011 94 10000 0 0 15:39 30.08.2021
6574 Clouds 24 1011 94 10000 0 0 13:46 30.08.2021
6575 Clouds 25 1008 73 10000 2.33 211 12:40 30.08.2021
6576 Clouds 26 1010 73 10000 0.89 248 10:34 30.08.2021
6577 Clouds 30 1010 74 9656 2.06 100 23:29 29.08.2021
6578 Clouds 32 1012 62 9656 2.57 180 21:33 29.08.2021
6579 Clouds 31 1012 66 10000 1.54 220 20:27 29.08.2021
6580 Clouds 29 1013 74 9656 2.57 230 19:20 29.08.2021
6581 Clouds 28 1011 68 10000 2.24 179 17:53 29.08.2021
6582 Clouds 26 1011 72 10000 0.45 265 15:49 29.08.2021
6583 Clouds 25 1012 94 9656 0 0 14:21 29.08.2021
6584 Clouds 24 1012 94 9656 0 0 13:44 29.08.2021
6585 Clouds 25 1010 76 10000 2.21 226 12:40 29.08.2021
6586 Clouds 25 1010 76 10000 2.34 227 11:50 29.08.2021
6587 Clouds 25 1010 77 10000 2.15 211 11:23 29.08.2021
6588 Clouds 25 1010 77 10000 0.89 252 10:43 29.08.2021
6589 Clouds 25 1010 77 10000 0.89 221 10:24 29.08.2021
6590 Clouds 26 1011 76 10000 0.89 221 08:24 29.08.2021
6591 Haze 30 1012 70 10000 2.57 120 00:25 29.08.2021
6592 Clouds 31 1011 56 10000 3.58 105 21:53 28.08.2021
6593 Haze 30 1013 66 8047 0 0 20:22 28.08.2021
6594 Clouds 30 1012 59 10000 1.34 167 18:43 28.08.2021
6595 Haze 29 1014 74 6437 0 0 18:19 28.08.2021
6596 Haze 28 1014 78 6437 0 0 17:18 28.08.2021
6597 Haze 23 1012 100 8047 0 0 15:39 28.08.2021
6598 Haze 23 1012 100 9656 0 0 14:20 28.08.2021
6599 Haze 23 1011 100 8047 0 0 13:44 28.08.2021
6600 Clouds 23 1011 100 10000 0 0 12:42 28.08.2021
6601 Clouds 24 1010 77 10000 1.41 248 11:53 28.08.2021
6602 Clear 24 1012 100 9656 0 0 10:35 28.08.2021
6603 Clouds 25 1014 94 9656 0 0 08:40 28.08.2021
6604 Clouds 25 1014 94 9656 0 0 07:24 28.08.2021
6605 Clouds 30 1012 66 8047 0 0 22:29 27.08.2021
6606 Clouds 31 1011 47 10000 0.89 146 20:57 27.08.2021
6607 Clouds 31 1013 62 8047 0 0 20:19 27.08.2021
6608 Clouds 30 1012 58 10000 0.89 239 18:57 27.08.2021
6609 Clouds 29 1014 74 8047 0 0 18:37 27.08.2021
6610 Clouds 26 1012 69 10000 0.45 269 16:56 27.08.2021
6611 Clouds 22 1012 94 10000 0 0 15:36 27.08.2021
6612 Clouds 22 1012 94 10000 0 0 14:43 27.08.2021
6613 Clouds 22 1010 78 10000 0.45 285 12:30 27.08.2021
6614 Clouds 23 1010 77 10000 2.67 258 11:25 27.08.2021
6615 Clouds 23 1010 77 10000 2.67 258 10:43 27.08.2021
6616 Clouds 24 1011 77 10000 2.14 260 09:30 27.08.2021
6617 Clouds 24 1012 76 10000 1.9 279 08:44 27.08.2021
6618 Clouds 25 1013 73 10000 0.78 351 05:54 27.08.2021
6619 Clouds 27 1011 69 10000 1.34 355 02:48 27.08.2021
6620 Clouds 29 1012 70 10000 1.54 50 00:31 27.08.2021
6621 Clouds 29 1014 74 10000 2.57 350 22:29 26.08.2021
6622 Clouds 29 1012 62 10000 3.13 337 21:57 26.08.2021
6623 Clouds 27 1015 83 9656 2.57 30 20:18 26.08.2021
6624 Clouds 26 1014 72 10000 1.34 171 18:49 26.08.2021
6625 Clouds 26 1015 89 10000 2.06 360 17:34 26.08.2021
6626 Clouds 23 1014 94 10000 0 0 16:32 26.08.2021
6627 Clouds 22 1014 94 9656 2.57 360 15:53 26.08.2021
6628 Clear 23 1013 94 10000 1.54 310 13:29 26.08.2021
6629 Clouds 23 1011 75 10000 1.5 305 12:49 26.08.2021
6630 Clouds 24 1011 75 10000 0.45 316 11:51 26.08.2021
6631 Clouds 24 1013 76 10000 0.45 292 09:40 26.08.2021
6632 Clouds 24 1013 76 10000 0.45 302 08:27 26.08.2021
6633 Clouds 27 1011 65 10000 6.71 49 00:46 26.08.2021
6634 Clouds 27 1013 83 10000 4.12 50 22:47 25.08.2021
6635 Clouds 27 1013 83 10000 4.12 50 22:28 25.08.2021
6636 Clouds 29 1013 72 10000 5.24 9 20:58 25.08.2021
6637 Mist 24 1015 100 9656 4.12 350 20:31 25.08.2021
6638 Clouds 26 1014 75 10000 4.02 20 19:55 25.08.2021
6639 Mist 26 1015 94 10000 2.06 350 18:18 25.08.2021
6640 Mist 24 1015 100 6437 0 0 16:31 25.08.2021
6641 Haze 23 1015 100 4828 0 0 15:40 25.08.2021
6642 Clouds 23 1013 77 6430 0.89 208 14:47 25.08.2021
6643 Clouds 23 1014 94 10000 1.03 320 13:58 25.08.2021
6644 Clouds 23 1012 77 7380 2.24 324 12:40 25.08.2021
6645 Clouds 24 1012 76 4945 2.68 35